</
# Wetter Temperatur Luftdruck Luftfeuchtigkeit Sichtweite Windgeschwindigkeit Windrichtung Zeit
1 Clouds -8 1008 70 10000 1.54 170 16:27 23.01.2022
2 Clouds -10 1008 85 10000 1.54 150 14:54 23.01.2022
3 Clouds -10 1008 85 2414 1.54 150 14:19 23.01.2022
4 Snow -11 1008 81 4828 2.06 150 12:47 23.01.2022
5 Clouds -12 1008 83 4828 2.06 150 12:21 23.01.2022
6 Clouds -12 1008 81 8047 1.03 150 11:51 23.01.2022
7 Mist -13 1008 78 8047 1.03 150 11:18 23.01.2022
8 Clouds -13 1008 79 4023 1.54 160 10:26 23.01.2022
9 Clouds -14 1009 82 8047 1.54 160 09:37 23.01.2022
10 Clouds -15 1010 80 9656 0.51 360 08:51 23.01.2022
11 Clouds -17 1013 78 10000 0 0 05:37 23.01.2022
12 Clouds -18 1017 75 10000 1.03 350 01:46 23.01.2022
13 Clouds -18 1017 75 10000 1.03 350 01:23 23.01.2022
14 Clouds -18 1019 74 10000 2.06 360 00:23 23.01.2022
15 Clouds -18 1021 74 10000 1.54 10 23:34 22.01.2022
16 Clear -17 1022 74 10000 1.54 10 22:34 22.01.2022
17 Clear -18 1024 69 10000 1.54 10 21:19 22.01.2022
18 Clear -17 1027 74 10000 0.51 190 19:49 22.01.2022
19 Clear -18 1028 72 10000 0.51 130 18:49 22.01.2022
20 Clouds -19 1030 76 10000 2.06 130 17:59 22.01.2022
21 Clouds -19 1030 77 10000 2.06 130 17:35 22.01.2022
22 Clouds -21 1031 79 10000 1.54 90 16:55 22.01.2022
23 Haze -24 1032 78 9656 1.03 20 15:49 22.01.2022
24 Haze -25 1033 79 9656 1.54 360 14:57 22.01.2022
25 Mist -28 1033 82 10000 2.68 44 13:39 22.01.2022
26 Clear -28 1034 81 10000 1.54 40 12:50 22.01.2022
27 Clear -29 1034 80 10000 1.54 40 12:28 22.01.2022
28 Haze -29 1035 76 9656 2.57 50 10:56 22.01.2022
29 Clear -29 1035 78 10000 1.03 80 10:29 22.01.2022
30 Haze -28 1036 77 9656 0 0 09:58 22.01.2022
31 Mist -28 1036 82 9656 2.06 130 08:51 22.01.2022
32 Mist -27 1037 77 8047 1.54 150 07:34 22.01.2022
33 Mist -26 1038 78 9656 2.06 140 04:52 22.01.2022
34 Clear -23 1039 69 10000 0.51 280 01:34 22.01.2022
35 Clear -20 1040 61 10000 1.03 230 23:38 21.01.2022
36 Clear -20 1040 61 10000 1.03 230 23:38 21.01.2022
37 Clear -18 1040 67 10000 2.06 200 22:28 21.01.2022
38 Clear -18 1040 65 10000 1.54 210 20:22 21.01.2022
39 Clear -18 1040 69 10000 0.51 340 18:39 21.01.2022
40 Clear -19 1040 70 10000 1.03 310 17:31 21.01.2022
41 Clear -23 1040 75 10000 2.06 10 15:42 21.01.2022
42 Clear -27 1039 80 10000 1.03 350 13:37 21.01.2022
43 Clear -27 1038 76 10000 2.06 350 12:38 21.01.2022
44 Clear -27 1037 76 10000 2.06 360 11:28 21.01.2022
45 Clear -26 1036 80 10000 1.54 50 10:19 21.01.2022
46 Clear -22 1036 72 10000 1.54 330 08:24 21.01.2022
47 Clear -21 1035 69 10000 2.57 290 06:57 21.01.2022
48 Clear -16 1029 68 10000 1.03 220 23:40 20.01.2022
49 Clear -15 1029 68 10000 1.03 220 22:41 20.01.2022
50 Clear -14 1028 65 10000 1.54 270 21:43 20.01.2022
51 Clear -14 1028 63 10000 2.06 210 20:53 20.01.2022
52 Clouds -14 1027 62 10000 1.54 270 19:20 20.01.2022
53 Clouds -14 1027 62 10000 1.54 270 18:50 20.01.2022
54 Clear -15 1027 65 10000 1.54 340 17:29 20.01.2022
55 Clear -15 1025 67 10000 2.57 340 15:44 20.01.2022
56 Clear -16 1025 66 10000 2.57 340 15:22 20.01.2022
57 Clear -15 1024 66 10000 1.54 260 13:42 20.01.2022
58 Clear -14 1022 67 10000 1.54 340 12:35 20.01.2022
59 Clouds -13 1021 68 10000 2.06 330 11:57 20.01.2022
60 Clouds -12 1019 66 10000 3.09 340 10:40 20.01.2022
61 Clouds -9 1017 70 10000 1.03 110 09:40 20.01.2022
62 Clouds -7 1015 75 10000 1.03 160 08:34 20.01.2022
63 Clouds -7 1011 90 10000 2.06 200 05:34 20.01.2022
64 Clouds -8 1005 92 10000 7.23 227 23:35 19.01.2022
65 Clouds -12 1006 85 10000 2.06 360 22:37 19.01.2022
66 Clouds -14 1006 85 10000 2.57 10 21:24 19.01.2022
67 Snow -13 1006 85 10000 4.63 30 20:51 19.01.2022
68 Clouds -13 1006 85 3219 2.57 360 19:58 19.01.2022
69 Clouds -11 1007 82 10000 3.09 360 18:43 19.01.2022
70 Snow -12 1007 81 10000 3.6 360 17:49 19.01.2022
71 Snow -13 1008 81 2816 3.6 350 16:59 19.01.2022
72 Snow -15 1011 82 2414 2.06 10 14:42 19.01.2022
73 Snow -16 1014 76 3621 1.03 120 12:53 19.01.2022
74 Clouds -16 1016 73 10000 2.06 140 11:43 19.01.2022
75 Clouds -17 1018 75 10000 2.06 160 10:38 19.01.2022
76 Clouds -18 1019 77 10000 1.54 140 09:34 19.01.2022
77 Clear -21 1020 77 10000 2.06 140 07:18 19.01.2022
78 Clear -21 1021 71 10000 2.06 150 05:19 19.01.2022
79 Clear -15 1018 63 10000 1.03 260 23:41 18.01.2022
80 Clear -15 1018 64 10000 1.03 260 23:18 18.01.2022
81 Clear -13 1016 60 10000 1.54 300 21:20 18.01.2022
82 Clear -13 1013 59 10000 1.54 230 19:55 18.01.2022
83 Snow -13 1013 59 10000 1.54 230 19:37 18.01.2022
84 Clear -13 1013 59 10000 1.54 230 19:18 18.01.2022
85 Clear -13 1011 62 10000 1.54 270 17:59 18.01.2022
86 Clear -13 1011 60 10000 1.54 270 17:27 18.01.2022
87 Clear -13 1008 71 10000 1.54 240 15:50 18.01.2022
88 Clear -13 1008 64 10000 1.54 240 15:23 18.01.2022
89 Clouds -12 1005 75 10000 1.03 230 13:32 18.01.2022
90 Clear -9 999 75 10000 2.06 110 10:49 18.01.2022
91 Clouds -9 997 77 10000 1.54 230 09:39 18.01.2022
92 Clouds -7 995 79 9656 1.03 350 08:19 18.01.2022
93 Snow -7 993 81 10000 1.03 360 07:21 18.01.2022
94 Snow -4 983 93 2816 2.57 340 00:21 18.01.2022
95 Clouds -4 982 93 8047 4.12 360 22:31 17.01.2022
96 Snow -4 982 93 1207 4.12 10 21:36 17.01.2022
97 Snow -4 983 92 805 4.63 10 20:33 17.01.2022
98 Snow -6 988 91 402 4.63 10 18:42 17.01.2022
99 Snow -6 991 92 604 5.66 360 17:55 17.01.2022
100 Snow -7 993 90 2816 4.63 360 16:53 17.01.2022
101 Snow -8 995 90 1207 4.12 360 15:31 17.01.2022
102 Snow -9 998 90 805 4.12 360 14:58 17.01.2022
103 Snow -10 1001 88 2012 3.09 360 13:42 17.01.2022
104 Snow -11 1004 86 2816 3.6 360 12:58 17.01.2022
105 Clouds -13 1006 83 4023 4.12 350 11:51 17.01.2022
106 Clouds -14 1009 82 4828 3.6 360 10:43 17.01.2022
107 Clouds -15 1012 80 2816 2.57 360 09:35 17.01.2022
108 Clouds -16 1014 77 10000 3.09 360 08:18 17.01.2022
109 Clouds -16 1015 76 10000 2.57 360 07:19 17.01.2022
110 Clear -17 1021 73 10000 2.06 10 00:57 17.01.2022
111 Clear -16 1022 70 10000 1.54 20 23:27 16.01.2022
112 Clear -13 1025 62 10000 1.54 130 20:41 16.01.2022
113 Clear -14 1026 63 10000 2.57 160 19:44 16.01.2022
114 Clear -15 1028 63 10000 2.06 150 18:42 16.01.2022
115 Clear -16 1029 64 10000 2.57 180 17:46 16.01.2022
116 Clear -17 1030 67 10000 2.06 160 16:50 16.01.2022
117 Clear -19 1030 70 10000 1.54 190 15:34 16.01.2022
118 Clear -22 1031 76 10000 2.06 210 14:29 16.01.2022
119 Clear -23 1031 77 10000 2.06 200 12:51 16.01.2022
120 Clear -23 1031 75 10000 1.03 200 11:49 16.01.2022
121 Clear -23 1031 74 10000 1.03 200 10:58 16.01.2022
122 Clear -23 1031 73 10000 1.03 200 10:26 16.01.2022
123 Clear -22 1032 70 10000 2.06 190 09:56 16.01.2022
124 Clear -22 1032 71 10000 2.06 190 09:23 16.01.2022
125 Clear -22 1033 68 10000 0.51 140 08:52 16.01.2022
126 Clear -22 1032 68 10000 1.03 210 05:35 16.01.2022
127 Clear -20 1031 59 10000 1.54 220 23:51 15.01.2022
128 Clear -19 1031 56 10000 1.54 230 22:37 15.01.2022
129 Clear -19 1031 54 10000 1.54 210 21:21 15.01.2022
130 Clear -19 1031 53 10000 2.06 210 20:43 15.01.2022
131 Clear -19 1031 53 10000 3.09 240 19:52 15.01.2022
132 Clear -20 1031 54 10000 3.09 240 19:19 15.01.2022
133 Clear -21 1031 54 10000 1.54 250 17:35 15.01.2022
134 Clear -21 1033 56 10000 2.68 11 16:38 15.01.2022
135 Clear -25 1031 67 10000 2.06 310 13:57 15.01.2022
136 Clear -24 1031 63 10000 2.57 340 12:23 15.01.2022
137 Clear -24 1030 64 10000 2.57 340 11:18 15.01.2022
138 Clear -23 1028 62 10000 3.09 350 08:36 15.01.2022
139 Clear -17 1026 57 10000 5.14 10 00:49 15.01.2022
140 Clear -13 1025 51 10000 4.63 360 21:56 14.01.2022
141 Clear -12 1024 53 10000 4.63 10 20:42 14.01.2022
142 Clear -12 1024 53 10000 4.63 10 20:23 14.01.2022
143 Clear -11 1023 56 10000 5.14 360 19:40 14.01.2022
144 Clear -10 1023 60 10000 4.63 360 18:27 14.01.2022
145 Clouds -9 1022 67 10000 3.09 10 16:50 14.01.2022
146 Clouds -8 1022 69 10000 3.6 10 15:48 14.01.2022
147 Clouds -8 1020 74 10000 3.6 10 14:46 14.01.2022
148 Mist -7 1018 85 9656 2.57 330 13:37 14.01.2022
149 Haze -7 1017 85 9656 1.34 10 12:29 14.01.2022
150 Clouds -7 1017 87 8047 1.03 290 11:27 14.01.2022
151 Mist -7 1015 87 6437 0.51 180 09:50 14.01.2022
152 Mist -7 1014 89 6437 0.51 290 08:51 14.01.2022
153 Clouds -7 1014 89 4828 2.06 350 06:57 14.01.2022
154 Clouds -8 1014 87 4828 2.06 10 01:33 14.01.2022
155 Clouds -8 1014 84 8047 2.06 360 23:32 13.01.2022
156 Clouds -8 1014 84 8047 2.57 360 21:40 13.01.2022
157 Clouds -8 1014 84 9656 2.57 360 21:22 13.01.2022
158 Clouds -9 1015 85 8047 2.57 360 19:40 13.01.2022
159 Clouds -9 1015 85 8047 2.57 360 19:22 13.01.2022
160 Clouds -9 1015 85 8047 2.57 360 19:22 13.01.2022
161 Clouds -9 1016 84 10000 3.09 360 17:53 13.01.2022
162 Clouds -9 1017 85 3621 2.57 360 16:21 13.01.2022
163 Clouds -9 1017 85 3621 2.57 360 16:21 13.01.2022
164 Clouds -10 1018 86 4828 3.09 10 15:37 13.01.2022
165 Clouds -10 1018 86 3219 2.57 360 14:47 13.01.2022
166 Snow -10 1018 84 3621 2.57 360 12:45 13.01.2022
167 Clouds -10 1018 84 6437 1.54 20 10:25 13.01.2022
168 Clouds -10 1018 81 10000 1.54 10 09:20 13.01.2022
169 Clouds -10 1018 81 10000 2.06 20 08:27 13.01.2022
170 Clouds -10 1018 85 10000 2.06 360 07:24 13.01.2022
171 Clouds -10 1018 86 8047 1.54 360 06:38 13.01.2022
172 Clouds -9 1018 87 10000 0.89 41 05:19 13.01.2022
173 Mist -9 1017 87 8047 0.51 10 02:33 13.01.2022
174 Snow -9 1015 88 4828 1.54 10 00:56 13.01.2022
175 Clouds -8 1014 89 2816 1.03 10 23:49 12.01.2022
176 Clouds -8 1014 89 2816 1.03 10 23:24 12.01.2022
177 Clouds -8 1012 85 9656 0.51 10 21:58 12.01.2022
178 Snow -8 1012 83 3219 0.51 10 21:23 12.01.2022
179 Snow -7 1012 81 4023 1.03 130 20:57 12.01.2022
180 Clouds -8 1011 79 10000 0.51 350 19:57 12.01.2022
181 Clouds -7 1011 74 10000 1.54 180 18:43 12.01.2022
182 Clouds -9 1012 77 10000 1.54 170 17:51 12.01.2022
183 Clouds -9 1013 81 8047 1.54 170 16:39 12.01.2022
184 Clouds -10 1013 72 10000 1.54 180 14:49 12.01.2022
185 Clouds -11 1014 77 10000 2.06 170 13:34 12.01.2022
186 Clouds -12 1014 82 9656 1.54 160 12:35 12.01.2022
187 Clouds -14 1020 71 10000 3.09 170 08:50 12.01.2022
188 Clouds -15 1023 68 10000 1.54 150 07:52 12.01.2022
189 Clouds -16 1023 68 10000 1.54 150 07:32 12.01.2022
190 Clear -21 1032 67 10000 1.03 240 01:33 12.01.2022
191 Clear -21 1034 62 10000 1.54 270 23:25 11.01.2022
192 Clear -20 1034 59 10000 1.03 160 22:24 11.01.2022
193 Clear -20 1034 57 10000 1.54 250 21:28 11.01.2022
194 Clear -20 1034 56 10000 2.06 260 20:35 11.01.2022
195 Clear -21 1035 56 10000 2.06 250 18:52 11.01.2022
196 Clouds -21 1036 58 10000 1.54 260 17:46 11.01.2022
197 Clear -22 1036 59 10000 1.54 310 16:39 11.01.2022
198 Clear -22 1036 59 10000 1.54 310 16:18 11.01.2022
199 Clear -24 1035 65 10000 2.06 330 14:44 11.01.2022
200 Clear -24 1035 66 10000 2.06 330 14:18 11.01.2022
201 Clear -24 1034 65 10000 1.03 260 13:42 11.01.2022
202 Clear -24 1034 65 10000 1.03 260 13:24 11.01.2022
203 Clear -24 1034 64 10000 1.03 280 12:24 11.01.2022
204 Clear -22 1030 62 10000 2.06 350 10:26 11.01.2022
205 Clear -21 1027 59 10000 3.6 360 07:38 11.01.2022
206 Clouds -17 1022 58 10000 3.6 350 03:47 11.01.2022
207 Clouds -13 1019 52 10000 3.09 350 00:25 11.01.2022
208 Clear -13 1018 55 10000 1.03 200 23:38 10.01.2022
209 Clear -12 1017 54 10000 1.03 210 22:20 10.01.2022
210 Clouds -11 1017 52 10000 1.54 170 21:57 10.01.2022
211 Clouds -11 1017 52 10000 1.54 170 21:33 10.01.2022
212 Clouds -11 1016 52 10000 2.57 210 20:58 10.01.2022
213 Clouds -11 1016 53 10000 2.57 210 20:36 10.01.2022
214 Clouds -10 1016 54 10000 2.57 210 20:18 10.01.2022
215 Clouds -10 1017 56 10000 2.57 220 19:37 10.01.2022
216 Clouds -10 1017 58 10000 2.57 220 19:18 10.01.2022
217 Clouds -10 1017 61 10000 2.57 220 18:46 10.01.2022
218 Clouds -11 1018 74 8047 2.06 360 16:48 10.01.2022
219 Clouds -11 1018 73 10000 2.06 360 16:20 10.01.2022
220 Clouds -12 1018 67 10000 1.03 280 14:43 10.01.2022
221 Clouds -12 1018 66 10000 1.54 240 13:22 10.01.2022
222 Clear -12 1017 62 10000 1.03 70 11:56 10.01.2022
223 Clear -11 1017 59 10000 1.03 210 10:48 10.01.2022
224 Clear -10 1016 60 10000 1.03 250 09:33 10.01.2022
225 Clouds -3 1011 54 10000 1.54 270 05:51 10.01.2022
226 Clouds 0 1007 66 10000 1.54 180 02:30 10.01.2022
227 Clouds 1 1006 76 10000 1.54 180 01:20 10.01.2022
228 Clouds 2 1005 88 10000 2.06 210 00:19 10.01.2022
229 Snow 1 1004 94 10000 2.06 150 22:44 09.01.2022
230 Rain 1 1004 95 3621 2.06 150 22:18 09.01.2022
231 Mist 1 1004 94 4023 2.06 180 21:41 09.01.2022
232 Mist 0 1004 94 4828 2.06 180 21:22 09.01.2022
233 Mist 0 1004 94 6437 2.06 170 20:46 09.01.2022
234 Clouds 0 1005 94 4828 2.06 170 20:28 09.01.2022
235 Snow -1 1005 93 4023 2.06 190 19:39 09.01.2022
236 Snow -1 1006 94 9656 2.06 190 19:20 09.01.2022
237 Snow -1 1006 94 2012 1.54 180 18:38 09.01.2022
238 Snow -2 1007 93 1609 1.54 180 18:18 09.01.2022
239 Snow -2 1009 93 1609 2.06 170 17:30 09.01.2022
240 Snow -3 1010 92 2414 2.06 180 16:49 09.01.2022
241 Clouds -3 1011 90 2816 2.06 180 15:51 09.01.2022
242 Clouds -3 1012 88 2816 2.06 180 15:32 09.01.2022
243 Clouds -4 1013 79 10000 1.54 180 14:39 09.01.2022
244 Clouds -4 1014 72 10000 1.54 180 13:49 09.01.2022
245 Clouds -5 1016 74 10000 1.54 190 12:19 09.01.2022
246 Clouds -6 1018 76 10000 0 0 11:45 09.01.2022
247 Clouds -6 1021 69 10000 1.03 360 09:55 09.01.2022
248 Clouds -7 1021 72 10000 1.03 360 09:29 09.01.2022
249 Clouds -8 1022 72 10000 1.03 330 08:18 09.01.2022
250 Clouds -13 1033 72 10000 1.54 160 01:43 09.01.2022
251 Clouds -13 1033 73 10000 0.89 326 01:19 09.01.2022
252 Clouds -14 1034 71 10000 2.06 160 23:38 08.01.2022
253 Clear -14 1035 71 10000 1.54 180 22:58 08.01.2022
254 Clear -13 1035 68 10000 1.54 170 21:32 08.01.2022
255 Clear -13 1035 65 10000 2.06 190 20:44 08.01.2022
256 Clear -13 1035 64 10000 2.06 190 20:23 08.01.2022
257 Clear -13 1036 65 10000 2.06 190 19:55 08.01.2022
258 Clear -15 1037 64 10000 2.06 220 17:49 08.01.2022
259 Clear -16 1037 66 10000 3.09 270 16:57 08.01.2022
260 Clear -17 1035 70 6437 1.54 210 15:47 08.01.2022
261 Clear -18 1034 73 10000 5.14 290 14:40 08.01.2022
262 Clear -18 1032 75 10000 3.09 250 12:36 08.01.2022
263 Clear -17 1029 74 10000 1.54 200 10:59 08.01.2022
264 Clear -17 1029 75 10000 1.54 200 10:24 08.01.2022
265 Clear -16 1027 73 10000 1.03 250 09:43 08.01.2022
266 Clouds -14 1024 77 10000 3.58 285 07:18 08.01.2022
267 Clouds -10 1017 76 10000 1.34 323 02:33 08.01.2022
268 Clouds -8 1014 83 10000 1.79 324 00:41 08.01.2022
269 Clouds -6 1012 89 10000 0.89 179 22:40 07.01.2022
270 Clouds -5 1010 87 4507 0.89 10 20:56 07.01.2022
271 Clouds -5 1010 83 1435 1.34 1 19:56 07.01.2022
272 Clouds -5 1010 83 1435 1.34 1 19:56 07.01.2022
273 Clouds -5 1010 83 10000 1.34 15 18:54 07.01.2022
274 Clouds -6 1010 83 10000 1.34 7 18:34 07.01.2022
275 Clouds -6 1011 84 3489 1.34 24 17:25 07.01.2022
276 Clouds -7 1012 85 960 1.34 32 16:23 07.01.2022
277 Clouds -8 1011 87 5684 0.89 33 13:53 07.01.2022
278 Clouds -8 1011 87 10000 0.89 26 13:21 07.01.2022
279 Clouds -8 1012 87 10000 0.89 38 12:48 07.01.2022
280 Clouds -7 1013 88 10000 0.89 34 09:37 07.01.2022
281 Clouds -6 1014 76 10000 1.82 213 02:55 07.01.2022
282 Clouds -6 1014 78 10000 1.91 239 01:54 07.01.2022
283 Clouds -6 1014 77 10000 2.42 235 01:27 07.01.2022
284 Clouds -6 1014 79 10000 2.42 235 00:57 07.01.2022
285 Clouds -5 1013 79 10000 3.59 248 22:54 06.01.2022
286 Clouds -3 1011 77 10000 5.2 257 21:28 06.01.2022
287 Clouds -2 1009 77 10000 5.25 263 20:21 06.01.2022
288 Clouds -2 1009 78 10000 5.25 263 19:44 06.01.2022
289 Clouds -2 1007 79 10000 6.09 260 17:54 06.01.2022
290 Clouds -2 1007 78 10000 6.09 260 17:34 06.01.2022
291 Clouds -2 1007 77 8047 6.41 252 16:42 06.01.2022
292 Clouds -2 1006 77 10000 6.23 245 15:46 06.01.2022
293 Clouds -2 1005 76 10000 6.24 244 15:25 06.01.2022
294 Clouds -2 1005 73 10000 2.06 170 14:43 06.01.2022
295 Clouds -2 1005 73 10000 2.06 170 14:18 06.01.2022
296 Clouds -1 1003 73 10000 2.57 200 12:50 06.01.2022
297 Clouds 0 1002 67 10000 3.09 190 11:43 06.01.2022
298 Clouds 0 1002 68 10000 3.09 190 11:22 06.01.2022
299 Clouds 1 1000 73 10000 2.57 180 08:51 06.01.2022
300 Snow -1 1002 80 10000 1.54 180 00:53 06.01.2022
301 Clouds -1 1003 79 10000 1.03 190 23:37 05.01.2022
302 Clouds -1 1003 78 10000 1.03 180 22:57 05.01.2022
303 Clouds -1 1003 78 10000 1.03 180 22:32 05.01.2022
304 Clouds -1 1004 79 10000 0.93 122 21:48 05.01.2022
305 Clouds -1 1004 74 10000 1.54 180 20:57 05.01.2022
306 Clouds 0 1004 72 10000 1.54 180 20:18 05.01.2022
307 Clear -1 1006 73 10000 2.57 180 18:44 05.01.2022
308 Clouds -2 1007 72 10000 2.06 170 17:26 05.01.2022
309 Clouds -2 1008 73 10000 2.06 180 16:50 05.01.2022
310 Clouds -4 1008 82 10000 1.03 150 15:26 05.01.2022
311 Clouds -5 1010 83 10000 1.54 190 13:52 05.01.2022
312 Clouds -5 1010 83 10000 1.54 190 13:22 05.01.2022
313 Clouds -4 1013 81 10000 2.06 190 10:34 05.01.2022
314 Clouds -4 1016 82 10000 2.06 170 07:47 05.01.2022
315 Clouds -4 1016 82 10000 2.06 170 07:47 05.01.2022
316 Clouds -4 1016 82 10000 2.06 170 07:47 05.01.2022
317 Clear -4 1018 83 10000 2.57 160 06:25 05.01.2022
318 Clouds -4 1022 83 10000 1.03 180 00:59 05.01.2022
319 Clouds -5 1022 83 10000 1.03 180 23:28 04.01.2022
320 Clouds -5 1022 82 10000 1.54 210 22:55 04.01.2022
321 Snow -5 1022 81 10000 1.54 200 21:31 04.01.2022
322 Snow -5 1022 81 10000 1.54 200 21:31 04.01.2022
323 Snow -6 1022 79 10000 1.54 180 19:20 04.01.2022
324 Snow -8 1023 78 10000 1.54 200 17:52 04.01.2022
325 Snow -9 1024 79 10000 2.06 170 16:53 04.01.2022
326 Snow -9 1024 80 10000 2.06 170 16:25 04.01.2022
327 Snow -11 1024 79 10000 2.57 190 14:54 04.01.2022
328 Snow -11 1024 80 10000 2.57 190 14:35 04.01.2022
329 Clouds -12 1024 78 10000 2.06 180 13:29 04.01.2022
330 Clouds -14 1026 80 10000 1.54 170 10:52 04.01.2022
331 Snow -15 1026 79 10000 1.54 180 09:47 04.01.2022
332 Snow -15 1026 77 10000 2.06 190 08:34 04.01.2022
333 Clouds -17 1027 82 10000 0.51 280 02:52 04.01.2022
334 Clear -17 1027 80 10000 1.03 290 00:42 04.01.2022
335 Clear -16 1027 75 10000 1.03 280 23:41 03.01.2022
336 Clear -14 1027 71 10000 0.51 310 22:21 03.01.2022
337 Clear -13 1027 69 10000 1.03 340 21:35 03.01.2022
338 Clear -13 1027 66 10000 0.51 60 20:28 03.01.2022
339 Clear -14 1028 65 10000 0.51 60 18:54 03.01.2022
340 Clear -14 1028 66 10000 0.51 60 18:28 03.01.2022
341 Clear -14 1029 68 10000 1.03 40 17:18 03.01.2022
342 Snow -16 1028 70 10000 2.06 350 15:50 03.01.2022
343 Clear -18 1028 73 10000 2.06 340 14:31 03.01.2022
344 Clear -18 1027 74 10000 2.57 350 12:49 03.01.2022
345 Clear -18 1026 73 10000 2.57 350 11:39 03.01.2022
346 Clear -17 1025 74 10000 3.6 360 10:37 03.01.2022
347 Clear -16 1024 77 10000 2.06 350 08:48 03.01.2022
348 Clear -15 1022 78 10000 1.03 290 07:51 03.01.2022
349 Clouds -9 1016 75 10000 1.03 0 01:55 03.01.2022
350 Clouds -7 1014 80 10000 0.51 270 23:22 02.01.2022
351 Clouds -7 1013 82 10000 1.54 330 22:55 02.01.2022
352 Clouds -7 1012 80 10000 1.54 320 21:52 02.01.2022
353 Snow -7 1011 81 4828 2.06 360 20:45 02.01.2022
354 Snow -7 1011 81 3219 2.06 360 20:25 02.01.2022
355 Snow -8 1011 82 2816 2.06 350 19:31 02.01.2022
356 Snow -8 1010 84 4828 2.57 360 18:51 02.01.2022
357 Snow -8 1010 86 2816 2.57 350 17:56 02.01.2022
358 Snow -9 1011 86 2816 2.57 350 17:38 02.01.2022
359 Snow -9 1011 86 2816 2.57 350 17:19 02.01.2022
360 Snow -9 1011 84 2816 3.6 10 16:27 02.01.2022
361 Snow -8 1009 77 6437 4.12 10 14:38 02.01.2022
362 Snow -7 1009 83 10000 3.09 10 13:25 02.01.2022
363 Snow -7 1008 87 4828 4.12 360 12:31 02.01.2022
364 Snow -7 1008 89 3219 3.09 10 11:36 02.01.2022
365 Snow -6 1009 89 3219 4.12 360 10:50 02.01.2022
366 Snow -5 1009 87 3219 3.6 10 09:52 02.01.2022
367 Snow -2 1008 82 10000 3.6 10 07:29 02.01.2022
368 Rain 1 1008 96 2414 0.89 26 02:20 02.01.2022
369 Rain 1 1007 96 1207 1.03 350 23:41 01.01.2022
370 Mist 1 1007 96 1006 1.03 350 23:22 01.01.2022
371 Mist 1 1007 96 1609 2.57 20 22:24 01.01.2022
372 Rain 1 1006 96 1006 2.57 20 21:44 01.01.2022
373 Rain 1 1006 95 1609 1.54 360 20:56 01.01.2022
374 Mist 1 1005 95 1207 1.54 360 20:19 01.01.2022
375 Mist 2 1006 94 1609 1.03 360 19:32 01.01.2022
376 Rain 1 1006 94 1609 1.03 360 18:29 01.01.2022
377 Rain 1 1007 94 2012 1.54 360 16:55 01.01.2022
378 Rain 1 1007 94 2414 1.54 360 16:34 01.01.2022
379 Mist 1 1007 94 8047 1.54 200 15:33 01.01.2022
380 Mist 1 1006 96 4828 1.54 160 14:22 01.01.2022
381 Fog 0 1008 94 604 1.03 180 13:28 01.01.2022
382 Clouds 0 1009 95 201 0.51 310 11:59 01.01.2022
383 Snow 0 1010 95 201 0.51 310 11:24 01.01.2022
384 Fog 0 1010 95 201 0.51 100 10:43 01.01.2022
385 Fog 0 1011 94 201 1.03 180 09:47 01.01.2022
386 Fog 0 1011 93 402 1.54 200 08:27 01.01.2022
387 Fog 0 1011 93 604 1.03 210 07:56 01.01.2022
388 Mist 0 1011 93 1609 1.03 210 07:37 01.01.2022
389 Mist 0 1011 93 1609 1.03 210 07:37 01.01.2022
390 Mist 0 1012 91 2414 1.03 200 06:43 01.01.2022
391 Mist -1 1013 90 4023 1.03 320 04:39 01.01.2022
392 Mist -1 1013 89 4023 0.51 310 03:48 01.01.2022
393 Mist -1 1012 90 4828 1.03 20 23:53 31.12.2021
394 Mist 0 1012 85 8047 1.03 40 21:56 31.12.2021
395 Snow 0 1012 84 10000 1.03 40 21:32 31.12.2021
396 Clouds 0 1013 84 10000 0.51 60 19:43 31.12.2021
397 Clouds -1 1013 80 10000 1.03 30 18:47 31.12.2021
398 Clouds -1 1014 83 10000 2.06 360 17:49 31.12.2021
399 Clouds -1 1014 83 10000 2.06 360 17:24 31.12.2021
400 Clouds -1 1015 84 10000 1.54 30 16:51 31.12.2021
401 Clouds -2 1015 85 10000 1.54 30 16:18 31.12.2021
402 Clouds -2 1015 86 10000 1.54 10 15:42 31.12.2021
403 Clouds -2 1015 85 10000 1.54 10 15:20 31.12.2021
404 Clouds -2 1015 87 10000 1.54 360 14:37 31.12.2021
405 Mist -3 1015 88 10000 1.54 360 13:45 31.12.2021
406 Mist -3 1015 88 10000 1.54 360 13:45 31.12.2021
407 Mist -3 1014 88 9656 1.03 360 12:50 31.12.2021
408 Mist -3 1014 88 9656 1.03 360 12:19 31.12.2021
409 Mist -3 1014 88 9656 1.03 360 11:41 31.12.2021
410 Mist -3 1014 88 8047 1.54 360 10:50 31.12.2021
411 Mist -3 1014 90 8047 1.54 360 10:28 31.12.2021
412 Mist -3 1014 89 9656 2.57 360 09:34 31.12.2021
413 Mist -3 1014 87 9656 1.79 17 08:50 31.12.2021
414 Mist -3 1014 88 9656 2.57 360 07:53 31.12.2021
415 Snow -3 1015 87 4023 2.57 350 02:36 31.12.2021
416 Snow -2 1014 81 10000 1.54 360 23:18 30.12.2021
417 Clouds -2 1014 81 10000 0.51 360 22:31 30.12.2021
418 Clouds -2 1014 80 10000 1.03 360 21:39 30.12.2021
419 Clouds -2 1014 79 10000 1.03 360 21:18 30.12.2021
420 Clouds -2 1014 79 10000 1.03 20 20:39 30.12.2021
421 Clouds -2 1014 79 10000 1.03 30 19:55 30.12.2021
422 Clouds -2 1014 79 10000 1.03 30 19:31 30.12.2021
423 Clouds -3 1015 78 10000 0.51 10 18:26 30.12.2021
424 Clouds -4 1016 82 10000 0.51 350 16:53 30.12.2021
425 Clouds -5 1016 83 10000 0.51 20 15:53 30.12.2021
426 Clouds -5 1015 84 10000 1.54 350 14:55 30.12.2021
427 Clouds -5 1015 84 10000 1.54 350 14:36 30.12.2021
428 Clouds -6 1015 84 10000 1.54 360 13:25 30.12.2021
429 Clouds -6 1015 84 10000 1.54 360 13:25 30.12.2021
430 Clouds -6 1014 85 10000 1.54 10 11:57 30.12.2021
431 Snow -6 1014 85 9656 2.06 360 10:40 30.12.2021
432 Snow -6 1014 84 9656 2.57 350 09:49 30.12.2021
433 Clouds -6 1015 81 10000 1.54 20 06:59 30.12.2021
434 Clouds -7 1015 81 10000 1.03 20 05:27 30.12.2021
435 Clouds -7 1016 81 10000 2.06 350 03:41 30.12.2021
436 Clouds -6 1016 80 10000 1.54 20 02:28 30.12.2021
437 Clouds -5 1015 76 10000 1.54 10 23:39 29.12.2021
438 Clouds -5 1015 75 10000 1.54 30 22:55 29.12.2021
439 Clouds -4 1015 74 10000 1.54 30 22:18 29.12.2021
440 Clouds -4 1015 74 10000 2.06 20 20:59 29.12.2021
441 Clouds -4 1015 74 10000 2.06 20 20:30 29.12.2021
442 Clouds -4 1015 74 10000 2.06 20 20:30 29.12.2021
443 Clouds -4 1015 75 10000 2.06 20 19:38 29.12.2021
444 Clouds -4 1015 75 10000 1.54 30 18:43 29.12.2021
445 Clouds -4 1015 77 10000 2.06 20 17:52 29.12.2021
446 Clouds -4 1015 77 10000 2.06 20 17:27 29.12.2021
447 Clouds -4 1015 78 10000 2.57 20 16:22 29.12.2021
448 Clouds -4 1015 78 10000 2.06 10 15:26 29.12.2021
449 Clouds -4 1014 74 10000 2.06 20 13:42 29.12.2021
450 Clouds -4 1013 72 10000 2.06 30 12:36 29.12.2021
451 Clouds -4 1012 77 10000 1.54 70 11:26 29.12.2021
452 Haze -3 1012 74 9656 1.54 20 09:46 29.12.2021
453 Clouds -3 1012 77 10000 1.03 270 07:51 29.12.2021
454 Clouds -3 1012 79 10000 2.06 350 06:38 29.12.2021
455 Clouds -3 1012 81 10000 2.06 360 05:58 29.12.2021
456 Snow -3 1012 81 10000 2.06 360 05:36 29.12.2021
457 Clouds -3 1012 80 10000 1.54 360 02:22 29.12.2021
458 Clouds -3 1012 81 10000 1.03 200 00:19 29.12.2021
459 Clouds -3 1010 85 10000 1.54 180 23:31 28.12.2021
460 Clear -4 1008 85 10000 1.54 170 22:42 28.12.2021
461 Clear -3 1008 84 10000 1.54 170 22:23 28.12.2021
462 Clouds -3 1008 83 10000 1.54 180 21:36 28.12.2021
463 Snow -3 1008 82 10000 1.54 180 20:36 28.12.2021
464 Snow -4 1007 85 2816 1.54 110 19:22 28.12.2021
465 Snow -5 1007 86 8047 1.03 180 18:37 28.12.2021
466 Snow -5 1007 86 10000 1.54 210 17:59 28.12.2021
467 Snow -6 1007 83 10000 1.54 180 16:34 28.12.2021
468 Snow -7 1007 86 10000 1.03 340 15:49 28.12.2021
469 Snow -8 1007 86 10000 1.03 340 15:20 28.12.2021
470 Snow -8 1006 87 10000 1.03 320 14:47 28.12.2021
471 Snow -8 1006 87 4828 1.03 320 14:21 28.12.2021
472 Snow -8 1006 86 1609 2.06 350 13:42 28.12.2021
473 Snow -8 1006 86 1609 2.06 350 13:42 28.12.2021
474 Snow -8 1006 86 1609 2.06 350 13:24 28.12.2021
475 Snow -9 1005 88 2012 2.06 350 12:49 28.12.2021
476 Snow -9 1005 85 4023 1.54 30 11:36 28.12.2021
477 Clouds -9 1009 80 10000 3.09 360 08:30 28.12.2021
478 Clouds -10 1010 75 10000 2.06 30 06:41 28.12.2021
479 Clouds -9 1017 67 10000 1.54 20 23:43 27.12.2021
480 Clouds -9 1017 67 10000 1.54 20 23:23 27.12.2021
481 Clouds -8 1018 65 10000 1.54 40 21:42 27.12.2021
482 Clouds -8 1018 65 10000 1.54 40 21:20 27.12.2021
483 Clouds -8 1019 66 10000 1.54 60 20:23 27.12.2021
484 Clouds -8 1020 67 10000 1.54 340 19:41 27.12.2021
485 Clear -8 1021 67 10000 2.06 360 18:34 27.12.2021
486 Clouds -9 1021 68 10000 1.03 30 17:48 27.12.2021
487 Clouds -9 1022 70 10000 1.54 20 16:40 27.12.2021
488 Clouds -10 1022 72 10000 2.06 10 15:52 27.12.2021
489 Clear -10 1022 74 10000 2.06 50 14:33 27.12.2021
490 Clear -10 1022 75 10000 3.09 360 13:39 27.12.2021
491 Clouds -9 1023 75 10000 2.57 10 12:40 27.12.2021
492 Clouds -6 1022 76 10000 1.54 320 10:32 27.12.2021
493 Clouds -6 1022 73 10000 2.06 340 09:47 27.12.2021
494 Clouds -4 1021 71 10000 2.06 350 07:50 27.12.2021
495 Clouds -4 1021 73 10000 2.06 350 07:29 27.12.2021
496 Snow -1 1018 77 10000 1.03 320 02:21 27.12.2021
497 Snow -1 1016 77 10000 1.03 320 23:58 26.12.2021
498 Snow -1 1016 77 10000 1.03 320 23:40 26.12.2021
499 Snow -1 1015 75 10000 2.06 340 22:36 26.12.2021
500 Clouds 0 1014 74 10000 2.57 340 20:59 26.12.2021
501 Clouds -1 1013 74 10000 1.03 300 19:49 26.12.2021
502 Clouds -1 1013 78 10000 0.51 330 18:24 26.12.2021
503 Clouds -1 1013 81 10000 1.54 340 17:30 26.12.2021
504 Snow -3 1011 90 3621 1.03 320 14:32 26.12.2021
505 Snow -3 1010 91 2816 0.51 40 13:43 26.12.2021
506 Snow -3 1010 91 9656 0.51 40 13:20 26.12.2021
507 Snow -3 1009 91 8047 0.51 290 12:33 26.12.2021
508 Snow -3 1008 91 4023 1.03 240 10:43 26.12.2021
509 Snow -4 1008 89 4023 0.51 170 09:28 26.12.2021
510 Snow -4 1007 85 10000 0.51 260 08:44 26.12.2021
511 Snow -4 1006 81 10000 0.51 250 07:59 26.12.2021
512 Snow -6 1003 87 10000 3.09 360 01:36 26.12.2021
513 Snow -6 1002 88 10000 3.6 10 23:58 25.12.2021
514 Snow -6 1002 87 10000 3.6 10 23:28 25.12.2021
515 Snow -6 1001 87 10000 3.6 360 22:28 25.12.2021
516 Snow -6 1001 87 8047 3.6 360 21:25 25.12.2021
517 Snow -6 1001 87 3621 4.12 360 19:28 25.12.2021
518 Snow -7 1002 85 3219 3.6 360 18:57 25.12.2021
519 Snow -7 1002 84 4023 3.6 360 18:26 25.12.2021
520 Snow -7 1003 77 10000 3.09 360 16:49 25.12.2021
521 Snow -8 1004 80 10000 3.6 350 15:30 25.12.2021
522 Snow -8 1006 79 8047 4.12 350 13:47 25.12.2021
523 Snow -8 1006 76 10000 2.57 30 12:19 25.12.2021
524 Clouds -8 1008 76 10000 2.57 10 10:36 25.12.2021
525 Clouds -8 1009 75 10000 3.09 10 09:48 25.12.2021
526 Clouds -9 1012 77 10000 2.06 350 07:27 25.12.2021
527 Clouds -9 1016 73 10000 1.54 20 01:36 25.12.2021
528 Clear -9 1017 75 10000 1.54 10 00:19 25.12.2021
529 Clear -6 1018 64 10000 1.03 180 21:51 24.12.2021
530 Clear -7 1018 65 10000 1.54 10 19:27 24.12.2021
531 Clear -7 1020 64 10000 1.03 350 18:55 24.12.2021
532 Clear -10 1021 71 10000 1.03 30 16:44 24.12.2021
533 Clear -12 1021 77 10000 1.03 360 15:50 24.12.2021
534 Clear -12 1021 77 10000 1.03 360 15:50 24.12.2021
535 Clear -13 1021 77 10000 1.03 360 15:20 24.12.2021
536 Clear -15 1021 81 10000 2.06 340 14:34 24.12.2021
537 Clear -15 1021 81 10000 2.06 350 13:57 24.12.2021
538 Clear -15 1021 82 10000 2.06 350 13:32 24.12.2021
539 Clear -15 1021 80 10000 2.06 340 12:45 24.12.2021
540 Clear -14 1021 76 10000 1.54 350 11:45 24.12.2021
541 Clear -14 1021 76 10000 1.54 350 11:24 24.12.2021
542 Clear -14 1021 76 10000 0.51 360 10:35 24.12.2021
543 Clouds -13 1021 77 10000 1.54 190 08:58 24.12.2021
544 Clouds -13 1021 78 10000 1.54 190 08:19 24.12.2021
545 Clouds -13 1022 80 10000 1.03 180 07:42 24.12.2021
546 Clear -13 1023 67 10000 1.03 250 00:47 24.12.2021
547 Clear -12 1023 66 10000 1.03 240 23:50 23.12.2021
548 Clear -12 1023 62 10000 1.03 240 22:53 23.12.2021
549 Clear -12 1023 61 10000 1.03 240 22:25 23.12.2021
550 Clear -11 1022 58 10000 1.03 290 21:50 23.12.2021
551 Clear -11 1022 58 10000 1.03 250 20:53 23.12.2021
552 Clear -11 1022 61 10000 1.54 230 19:31 23.12.2021
553 Clear -12 1022 62 10000 2.06 260 18:28 23.12.2021
554 Clear -12 1021 62 10000 1.54 210 17:47 23.12.2021
555 Snow -13 1022 67 10000 1.03 250 16:40 23.12.2021
556 Snow -13 1022 67 10000 1.03 250 16:20 23.12.2021
557 Clear -13 1021 68 10000 1.03 250 15:31 23.12.2021
558 Clear -14 1020 70 10000 0.51 200 14:42 23.12.2021
559 Clear -14 1020 70 10000 0.51 200 14:42 23.12.2021
560 Clear -14 1020 72 10000 0.51 200 14:19 23.12.2021
561 Clear -13 1018 71 10000 1.54 280 12:39 23.12.2021
562 Clear -12 1016 68 10000 1.54 350 10:41 23.12.2021
563 Clear -11 1015 68 10000 1.03 180 09:34 23.12.2021
564 Clear -10 1014 68 10000 1.54 170 08:59 23.12.2021
565 Clear -9 1011 69 10000 2.06 230 06:48 23.12.2021
566 Snow -5 1007 66 10000 1.54 340 03:41 23.12.2021
567 Snow 0 1001 81 10000 2.06 190 22:57 22.12.2021
568 Snow 0 1001 82 10000 2.06 190 22:32 22.12.2021
569 Snow 0 1000 80 10000 1.54 170 21:53 22.12.2021
570 Clouds 0 1000 80 10000 1.54 170 21:28 22.12.2021
571 Snow -1 1000 81 10000 1.54 200 20:41 22.12.2021
572 Snow -1 1000 81 10000 1.54 200 20:20 22.12.2021
573 Rain 0 999 80 10000 1.03 300 19:19 22.12.2021
574 Snow 0 999 81 10000 1.03 190 17:39 22.12.2021
575 Snow -2 1000 83 10000 0.51 360 16:38 22.12.2021
576 Snow -3 1000 81 9656 0.51 10 15:39 22.12.2021
577 Clouds -5 1000 81 10000 0.51 110 13:32 22.12.2021
578 Clouds -6 1001 81 10000 0.45 81 12:31 22.12.2021
579 Clouds -6 1003 78 10000 1.54 360 09:53 22.12.2021
580 Clouds -6 1003 77 10000 1.54 360 09:35 22.12.2021
581 Clouds -6 1006 74 10000 3.09 360 07:25 22.12.2021
582 Clouds -6 1009 72 10000 2.57 10 05:42 22.12.2021
583 Clouds -6 1010 72 10000 2.57 10 05:24 22.12.2021
584 Clouds -6 1011 71 10000 2.57 10 04:47 22.12.2021
585 Clouds -6 1011 71 10000 2.57 10 04:24 22.12.2021
586 Clouds -6 1013 68 10000 2.06 40 03:32 22.12.2021
587 Clouds -5 1016 62 10000 1.54 50 00:33 22.12.2021
588 Clouds -4 1018 58 10000 0.51 90 22:52 21.12.2021
589 Clouds -4 1018 56 10000 0.51 90 22:28 21.12.2021
590 Clear -3 1017 54 10000 1.54 340 21:44 21.12.2021
591 Clear -3 1018 53 10000 1.03 10 20:55 21.12.2021
592 Clear -2 1018 52 10000 1.03 10 20:21 21.12.2021
593 Clear -2 1018 54 10000 1.54 300 19:41 21.12.2021
594 Clear -3 1018 54 10000 2.06 350 18:46 21.12.2021
595 Clear -3 1018 54 10000 2.06 350 18:21 21.12.2021
596 Clouds -2 1019 56 10000 3.6 340 17:41 21.12.2021
597 Clouds -2 1017 65 10000 2.57 340 15:59 21.12.2021
598 Snow -2 1017 67 10000 2.57 340 15:24 21.12.2021
599 Clear 0 1014 74 10000 1.54 230 13:50 21.12.2021
600 Clear 0 1014 76 10000 1.54 230 13:30 21.12.2021
601 Snow 1 1012 85 9656 2.57 200 11:49 21.12.2021
602 Rain 1 1011 85 10000 2.57 180 10:25 21.12.2021
603 Snow 1 1011 85 10000 2.06 180 09:27 21.12.2021
604 Snow 1 1011 77 10000 1.03 160 07:59 21.12.2021
605 Snow 0 1011 76 10000 1.03 160 07:29 21.12.2021
606 Snow 0 1011 75 10000 1.54 180 06:50 21.12.2021
607 Clouds -2 1015 77 10000 2.06 180 02:51 21.12.2021
608 Snow -3 1017 78 10000 1.54 180 23:59 20.12.2021
609 Snow -3 1017 78 10000 1.54 180 23:32 20.12.2021
610 Snow -4 1018 77 4023 2.06 180 22:33 20.12.2021
611 Clouds -4 1019 76 10000 2.57 170 21:48 20.12.2021
612 Clouds -4 1019 76 10000 2.57 170 21:24 20.12.2021
613 Clouds -4 1020 72 10000 2.06 170 20:45 20.12.2021
614 Clouds -5 1021 71 10000 2.57 170 19:54 20.12.2021
615 Clouds -5 1021 71 10000 2.57 170 19:31 20.12.2021
616 Clouds -6 1023 71 10000 1.54 170 18:54 20.12.2021
617 Clouds -7 1025 73 10000 1.54 190 17:55 20.12.2021
618 Clouds -8 1025 74 10000 1.54 190 17:37 20.12.2021
619 Clouds -9 1026 78 10000 2.06 180 16:42 20.12.2021
620 Snow -10 1026 83 10000 2.06 200 15:51 20.12.2021
621 Clouds -12 1027 87 10000 2.06 200 14:56 20.12.2021
622 Clouds -13 1027 86 10000 1.54 190 13:18 20.12.2021
623 Clouds -14 1027 84 10000 1.03 260 11:23 20.12.2021
624 Clouds -14 1028 84 10000 0.51 300 09:51 20.12.2021
625 Clouds -14 1028 83 10000 0.51 300 09:31 20.12.2021
626 Clear -14 1028 82 10000 1.54 300 08:42 20.12.2021
627 Clear -14 1027 82 10000 1.54 310 07:55 20.12.2021
628 Clear -13 1027 82 10000 1.54 310 07:30 20.12.2021
629 Clouds -11 1028 77 10000 2.06 310 04:36 20.12.2021
630 Snow -8 1026 71 10000 1.54 330 00:18 20.12.2021
631 Snow -6 1024 70 10000 1.03 250 22:53 19.12.2021
632 Snow -5 1024 70 10000 1.54 230 21:55 19.12.2021
633 Clouds -5 1024 70 10000 1.54 230 21:30 19.12.2021
634 Clouds -4 1023 67 10000 1.54 240 20:34 19.12.2021
635 Clouds -4 1022 69 10000 2.06 310 19:52 19.12.2021
636 Clouds -4 1022 69 10000 2.06 310 19:27 19.12.2021
637 Clouds -5 1022 69 10000 2.06 350 18:30 19.12.2021
638 Clouds -5 1022 72 10000 2.57 330 17:53 19.12.2021
639 Snow -5 1022 73 9656 2.57 330 17:20 19.12.2021
640 Snow -6 1022 75 10000 2.57 320 16:26 19.12.2021
641 Snow -6 1021 79 10000 1.54 310 15:43 19.12.2021
642 Snow -6 1021 79 8047 1.54 310 15:21 19.12.2021
643 Clouds -6 1020 80 10000 1.54 320 14:42 19.12.2021
644 Clouds -6 1019 83 10000 2.06 320 13:24 19.12.2021
645 Clouds -6 1018 84 10000 1.54 310 12:46 19.12.2021
646 Clouds -6 1018 85 10000 1.54 310 12:23 19.12.2021
647 Snow -6 1017 89 9656 2.57 340 11:21 19.12.2021
648 Snow -6 1016 89 6437 3.09 360 10:26 19.12.2021
649 Snow -6 1015 90 4828 3.6 360 09:48 19.12.2021
650 Snow -6 1014 90 4828 4.12 360 08:43 19.12.2021
651 Snow -6 1014 89 3219 3.09 360 04:45 19.12.2021
652 Snow -6 1017 87 2414 3.09 360 01:34 19.12.2021
653 Snow -6 1018 87 1609 2.06 30 00:53 19.12.2021
654 Snow -5 1019 79 4023 2.06 40 22:42 18.12.2021
655 Snow -5 1019 77 4828 2.06 40 22:20 18.12.2021
656 Snow -5 1020 70 10000 2.06 50 21:41 18.12.2021
657 Snow -4 1020 68 10000 2.06 50 21:22 18.12.2021
658 Snow -4 1021 61 10000 1.54 30 20:20 18.12.2021
659 Clouds -4 1022 60 10000 1.54 70 19:25 18.12.2021
660 Clouds -4 1023 60 10000 2.06 40 18:22 18.12.2021
661 Clouds -4 1024 61 10000 2.06 50 17:48 18.12.2021
662 Clouds -4 1025 62 10000 3.09 40 16:26 18.12.2021
663 Clouds -4 1025 63 10000 2.06 40 15:28 18.12.2021
664 Clouds -5 1026 65 10000 2.57 30 14:51 18.12.2021
665 Clouds -5 1026 65 10000 3.09 10 13:29 18.12.2021
666 Clouds -5 1026 65 10000 3.09 10 13:29 18.12.2021
667 Clouds -4 1026 66 10000 2.57 10 11:47 18.12.2021
668 Clear -3 1025 64 10000 4.12 360 09:52 18.12.2021
669 Clear -2 1025 63 10000 2.06 340 08:48 18.12.2021
670 Clear -2 1025 64 10000 2.06 340 08:27 18.12.2021
671 Clear 0 1023 61 10000 1.03 320 05:56 18.12.2021
672 Clear 2 1019 57 10000 1.03 90 00:34 18.12.2021
673 Clouds 2 1018 56 10000 2.57 30 23:46 17.12.2021
674 Clouds 4 1015 58 10000 1.54 180 21:58 17.12.2021
675 Clouds 5 1015 58 10000 1.54 180 21:23 17.12.2021
676 Clouds 5 1014 58 10000 2.06 220 20:42 17.12.2021
677 Clouds 5 1013 58 10000 2.06 220 19:45 17.12.2021
678 Clouds 6 1013 59 10000 2.06 210 18:39 17.12.2021
679 Clouds 6 1012 60 10000 1.54 210 17:40 17.12.2021
680 Clouds 6 1012 61 10000 1.54 190 16:50 17.12.2021
681 Clouds 6 1012 62 10000 1.54 190 16:25 17.12.2021
682 Clouds 6 1011 61 10000 2.06 200 15:25 17.12.2021
683 Clouds 6 1010 63 10000 2.57 180 14:41 17.12.2021
684 Clouds 6 1009 66 10000 2.57 180 13:30 17.12.2021
685 Clouds 6 1008 64 10000 2.57 180 12:21 17.12.2021
686 Clouds 7 1004 63 10000 2.57 190 10:39 17.12.2021
687 Clear 7 1003 64 10000 2.57 250 09:44 17.12.2021
688 Clouds 9 1001 62 10000 1.03 200 08:31 17.12.2021
689 Clear 12 1000 63 10000 4.12 180 07:20 17.12.2021
690 Clouds 15 998 68 10000 0 0 04:40 17.12.2021
691 Clouds 12 1002 83 10000 1.54 190 23:58 16.12.2021
692 Clouds 11 1002 85 10000 2.06 190 22:24 16.12.2021
693 Clouds 11 1003 85 10000 2.06 190 21:51 16.12.2021
694 Clouds 10 1003 85 10000 2.06 190 21:30 16.12.2021
695 Clouds 9 1003 86 10000 2.06 180 20:31 16.12.2021
696 Clouds 9 1004 87 10000 2.06 180 19:51 16.12.2021
697 Clouds 8 1005 89 10000 1.54 180 18:41 16.12.2021
698 Clouds 8 1006 90 10000 2.06 180 17:57 16.12.2021
699 Clouds 8 1007 90 10000 2.06 180 17:31 16.12.2021
700 Clouds 6 1009 94 10000 1.79 196 16:23 16.12.2021
701 Clouds 5 1010 95 10000 1.54 180 15:20 16.12.2021
702 Clouds 4 1012 95 10000 1.54 190 13:43 16.12.2021
703 Mist 2 1014 95 9656 0 0 11:46 16.12.2021
704 Mist 2 1014 94 10000 0 0 11:18 16.12.2021
705 Mist 2 1015 95 10000 0.51 340 10:32 16.12.2021
706 Rain 2 1016 95 10000 1.03 190 08:56 16.12.2021
707 Rain 1 1017 95 9656 1.54 190 06:22 16.12.2021
708 Rain 1 1021 96 9656 0.51 140 02:59 16.12.2021
709 Snow -2 1027 84 2012 1.03 20 23:35 15.12.2021
710 Snow -1 1027 74 10000 2.06 350 22:49 15.12.2021
711 Snow -1 1028 68 10000 1.54 10 21:58 15.12.2021
712 Snow -1 1028 67 10000 1.54 10 21:31 15.12.2021
713 Snow -1 1029 64 10000 1.54 70 20:32 15.12.2021
714 Clouds -1 1031 63 10000 2.06 30 19:53 15.12.2021
715 Clouds -1 1033 61 10000 2.06 10 18:40 15.12.2021
716 Clouds -1 1035 61 10000 1.03 20 17:57 15.12.2021
717 Clouds -1 1035 61 10000 1.03 20 17:39 15.12.2021
718 Clouds -2 1036 62 10000 2.06 60 16:57 15.12.2021
719 Clouds -3 1037 61 10000 2.57 70 15:47 15.12.2021
720 Clouds -3 1037 61 10000 2.57 70 15:29 15.12.2021
721 Clouds -4 1038 64 10000 2.57 110 14:44 15.12.2021
722 Clouds -4 1039 64 10000 1.54 120 13:27 15.12.2021
723 Clouds -4 1040 69 10000 0.51 270 10:58 15.12.2021
724 Clouds -6 1040 73 10000 3.09 40 09:31 15.12.2021
725 Clouds -6 1039 76 10000 1.03 30 07:47 15.12.2021
726 Clear -3 1039 58 10000 1.54 320 02:40 15.12.2021
727 Clear -1 1038 54 10000 0.51 310 23:46 14.12.2021
728 Clear 0 1037 52 10000 1.03 280 22:52 14.12.2021
729 Clear 0 1037 50 10000 1.03 280 22:34 14.12.2021
730 Clear 2 1036 48 10000 1.03 300 21:24 14.12.2021
731 Clear 2 1036 46 10000 1.03 340 20:18 14.12.2021
732 Clear 2 1035 45 10000 1.03 20 19:21 14.12.2021
733 Clear 2 1035 45 10000 1.03 20 19:21 14.12.2021
734 Clear 1 1035 46 10000 2.06 350 18:38 14.12.2021
735 Clear 1 1035 48 10000 3.6 360 17:50 14.12.2021
736 Clear 1 1035 51 10000 3.09 360 16:43 14.12.2021
737 Clear 1 1033 54 10000 2.57 10 15:52 14.12.2021
738 Clear 1 1030 66 10000 3.09 350 13:35 14.12.2021
739 Clear 1 1028 68 10000 2.57 360 12:41 14.12.2021
740 Clear 2 1026 75 10000 1.54 30 11:24 14.12.2021
741 Clear 3 1025 77 10000 1.54 210 10:27 14.12.2021
742 Clear 3 1024 77 10000 1.03 200 09:53 14.12.2021
743 Clear 4 1022 76 10000 1.54 190 08:40 14.12.2021
744 Clear 4 1022 76 10000 1.54 190 08:20 14.12.2021
745 Clear 4 1019 72 10000 2.06 170 06:27 14.12.2021
746 Clear 6 1013 70 10000 3.09 180 23:39 13.12.2021
747 Clear 8 1013 66 10000 2.57 190 21:57 13.12.2021
748 Clear 8 1013 65 10000 2.57 190 21:34 13.12.2021
749 Clouds 8 1013 63 10000 2.57 190 20:50 13.12.2021
750 Clear 8 1014 61 10000 2.57 180 19:59 13.12.2021
751 Clear 8 1014 61 10000 2.57 180 19:27 13.12.2021
752 Clear 7 1015 63 10000 2.06 190 17:27 13.12.2021
753 Clear 7 1016 66 10000 2.57 190 16:24 13.12.2021
754 Clear 6 1016 67 10000 2.06 190 15:43 13.12.2021
755 Clear 6 1016 67 10000 2.06 190 15:43 13.12.2021
756 Clouds 5 1015 68 10000 2.06 190 13:57 13.12.2021
757 Clouds 5 1015 68 10000 2.06 190 13:31 13.12.2021
758 Clouds 5 1014 67 10000 2.57 190 12:36 13.12.2021
759 Clouds 5 1014 67 10000 3.09 180 11:43 13.12.2021
760 Clouds 5 1014 67 10000 3.09 180 11:24 13.12.2021
761 Clouds 5 1013 67 10000 2.06 200 10:21 13.12.2021
762 Clouds 5 1012 69 10000 2.06 190 08:43 13.12.2021
763 Clear 5 1011 69 10000 2.57 190 05:38 13.12.2021
764 Clouds 5 1012 69 10000 3.09 190 03:57 13.12.2021
765 Clear 4 1012 62 10000 2.57 190 23:43 12.12.2021
766 Clear 5 1011 47 10000 3.09 190 21:56 12.12.2021
767 Clear 6 1011 46 10000 2.57 200 20:46 12.12.2021
768 Clear 5 1011 53 10000 2.57 200 19:34 12.12.2021
769 Clear 4 1011 60 10000 3.09 180 17:54 12.12.2021
770 Clear 3 1011 63 10000 2.57 190 16:29 12.12.2021
771 Clear 2 1011 64 10000 2.57 190 15:53 12.12.2021
772 Clear 2 1011 64 10000 2.57 190 15:28 12.12.2021
773 Clear 1 1010 65 10000 2.57 170 14:38 12.12.2021
774 Clear 1 1010 62 10000 2.06 180 13:43 12.12.2021
775 Clear 1 1009 61 10000 2.06 200 12:47 12.12.2021
776 Clear 1 1007 62 10000 2.06 230 11:45 12.12.2021
777 Clear 1 1007 62 10000 2.06 230 11:25 12.12.2021
778 Clouds 2 1005 61 10000 2.57 210 10:43 12.12.2021
779 Clouds 2 1004 62 10000 2.06 190 09:45 12.12.2021
780 Clouds 3 1001 61 10000 3.09 200 08:38 12.12.2021
781 Clouds 5 995 62 10000 4.63 180 06:38 12.12.2021
782 Clouds 6 992 64 10000 4.63 190 05:28 12.12.2021
783 Clouds 7 990 71 10000 3.6 190 03:58 12.12.2021
784 Clouds 10 987 91 10000 2.06 180 00:45 12.12.2021
785 Clouds 8 990 92 10000 2.06 190 22:42 11.12.2021
786 Clouds 7 990 91 10000 2.06 190 22:20 11.12.2021
787 Clouds 7 992 93 10000 2.57 200 21:25 11.12.2021
788 Clouds 6 994 92 10000 2.06 180 19:46 11.12.2021
789 Clouds 6 994 92 10000 2.06 180 19:21 11.12.2021
790 Clouds 5 996 92 10000 2.57 180 18:39 11.12.2021
791 Clouds 4 997 94 10000 2.57 180 17:41 11.12.2021
792 Snow 1 1002 96 2414 0.51 60 15:57 11.12.2021
793 Mist 1 1002 96 4023 0.51 60 15:39 11.12.2021
794 Snow 0 1005 93 2816 1.03 10 14:33 11.12.2021
795 Mist -2 1011 90 9656 3.09 350 12:20 11.12.2021
796 Mist -3 1014 90 9656 3.09 350 10:49 11.12.2021
797 Mist -3 1016 91 9656 2.57 360 09:40 11.12.2021
798 Mist -3 1020 87 8047 2.06 360 03:57 11.12.2021
799 Clouds -2 1019 87 10000 0.51 350 00:47 11.12.2021
800 Clouds -2 1019 86 10000 0.51 10 23:42 10.12.2021
801 Clouds -3 1019 86 10000 2.06 20 22:39 10.12.2021
802 Clouds -2 1018 86 10000 2.06 10 21:40 10.12.2021
803 Clouds -3 1017 86 10000 2.57 10 20:26 10.12.2021
804 Clouds -3 1017 86 10000 1.54 350 19:18 10.12.2021
805 Clouds -3 1018 89 10000 2.06 350 17:46 10.12.2021
806 Snow -4 1019 91 10000 2.06 350 16:37 10.12.2021
807 Snow -4 1018 88 9656 1.54 360 15:45 10.12.2021
808 Snow -5 1018 90 4828 1.54 360 15:26 10.12.2021
809 Snow -5 1018 91 9656 1.54 350 14:35 10.12.2021
810 Snow -7 1019 86 9656 1.03 360 13:49 10.12.2021
811 Snow -7 1019 86 4828 1.54 360 12:56 10.12.2021
812 Snow -8 1020 81 10000 1.54 10 11:43 10.12.2021
813 Snow -8 1020 82 10000 1.54 360 10:57 10.12.2021
814 Clouds -8 1021 78 10000 1.54 50 09:49 10.12.2021
815 Clouds -8 1022 76 10000 1.54 120 07:49 10.12.2021
816 Clouds -8 1024 79 10000 1.54 180 04:57 10.12.2021
817 Clouds -8 1024 83 10000 1.54 140 02:42 10.12.2021
818 Clouds -7 1024 75 10000 1.03 290 23:42 09.12.2021
819 Clouds -6 1024 74 10000 0.51 270 22:43 09.12.2021
820 Clouds -6 1024 73 10000 0.51 270 22:23 09.12.2021
821 Clouds -6 1024 72 10000 0.51 240 21:40 09.12.2021
822 Clouds -5 1024 70 10000 1.03 230 20:36 09.12.2021
823 Snow -6 1023 71 10000 1.54 220 19:45 09.12.2021
824 Clouds -6 1023 72 10000 1.54 220 19:20 09.12.2021
825 Clouds -6 1023 74 10000 2.06 320 18:22 09.12.2021
826 Snow -7 1023 78 10000 2.06 270 17:48 09.12.2021
827 Snow -7 1022 79 10000 2.06 270 17:24 09.12.2021
828 Snow -7 1022 79 10000 1.03 340 16:41 09.12.2021
829 Snow -9 1021 84 10000 1.54 340 15:19 09.12.2021
830 Snow -9 1020 85 9656 2.06 350 14:36 09.12.2021
831 Snow -10 1018 85 9656 2.57 360 12:49 09.12.2021
832 Snow -10 1018 87 10000 2.57 360 12:24 09.12.2021
833 Snow -9 1017 87 2012 0.51 280 10:40 09.12.2021
834 Snow -9 1015 86 4828 2.57 360 07:53 09.12.2021
835 Snow -10 1015 85 10000 3.6 350 03:59 09.12.2021
836 Snow -10 1016 84 10000 2.57 10 01:43 09.12.2021
837 Snow -9 1017 86 10000 3.6 10 23:38 08.12.2021
838 Snow -8 1017 84 9656 3.09 360 22:59 08.12.2021
839 Snow -8 1017 84 9656 3.09 360 22:37 08.12.2021
840 Snow -8 1017 82 9656 3.09 360 21:39 08.12.2021
841 Snow -8 1017 82 9656 3.09 360 21:39 08.12.2021
842 Snow -8 1017 82 9656 2.57 10 20:58 08.12.2021
843 Snow -8 1018 82 4023 2.57 10 19:57 08.12.2021
844 Snow -8 1018 81 9656 2.57 10 19:29 08.12.2021
845 Snow -8 1019 78 8047 2.57 50 18:28 08.12.2021
846 Snow -8 1021 75 10000 1.54 30 17:24 08.12.2021
847 Snow -8 1023 66 10000 1.54 80 15:45 08.12.2021
848 Clouds -8 1023 66 10000 1.54 80 15:23 08.12.2021
849 Clouds -9 1023 69 10000 1.03 80 13:40 08.12.2021
850 Clouds -9 1024 70 10000 1.03 30 10:45 08.12.2021
851 Clouds -9 1024 69 10000 1.03 30 10:23 08.12.2021
852 Clouds -8 1024 67 10000 2.06 320 08:54 08.12.2021
853 Clouds -8 1024 62 10000 1.03 320 06:52 08.12.2021
854 Clouds -6 1023 55 10000 1.03 330 01:21 08.12.2021
855 Clouds -5 1021 53 10000 1.03 300 23:29 07.12.2021
856 Clouds -4 1019 57 10000 2.06 200 21:26 07.12.2021
857 Clouds -3 1019 60 10000 2.06 210 20:30 07.12.2021
858 Clouds -3 1019 60 10000 1.54 190 19:48 07.12.2021
859 Clear -3 1019 61 10000 2.57 250 18:37 07.12.2021
860 Clear -4 1019 64 10000 2.06 230 17:27 07.12.2021
861 Snow -4 1019 64 10000 1.54 280 16:57 07.12.2021
862 Snow -4 1019 64 10000 1.54 280 16:27 07.12.2021
863 Clouds -5 1016 67 10000 1.54 190 14:47 07.12.2021
864 Clear -5 1015 66 10000 1.03 220 13:46 07.12.2021
865 Clear -4 1014 62 10000 1.54 230 12:41 07.12.2021
866 Clouds -4 1012 61 10000 1.03 220 11:23 07.12.2021
867 Clouds -1 1007 61 10000 2.06 220 09:44 07.12.2021
868 Clouds 2 1002 69 10000 3.6 190 07:55 07.12.2021
869 Clouds 2 1001 73 10000 2.68 213 05:55 07.12.2021
870 Clouds 2 1001 74 10000 2.68 206 05:27 07.12.2021
871 Rain 7 994 93 9656 2.06 180 23:45 06.12.2021
872 Rain 7 993 95 10000 1.54 190 22:44 06.12.2021
873 Rain 7 993 95 10000 1.54 190 22:18 06.12.2021
874 Rain 7 993 95 10000 2.57 180 21:42 06.12.2021
875 Rain 6 994 95 10000 2.57 180 20:33 06.12.2021
876 Rain 6 995 94 8047 1.54 180 19:27 06.12.2021
877 Rain 5 997 94 9656 2.57 190 18:57 06.12.2021
878 Rain 5 999 93 10000 3.09 180 17:56 06.12.2021
879 Rain 5 1000 93 10000 3.09 180 17:36 06.12.2021
880 Rain 4 1002 92 10000 2.06 180 16:21 06.12.2021
881 Clouds 3 1006 92 10000 2.06 180 14:54 06.12.2021
882 Mist 2 1007 95 6437 2.06 180 13:45 06.12.2021
883 Rain 1 1009 96 10000 1.03 130 12:39 06.12.2021
884 Snow -1 1013 93 6437 1.54 20 10:31 06.12.2021
885 Snow -3 1018 93 1207 1.03 60 08:35 06.12.2021
886 Snow -5 1025 86 2816 1.54 20 04:28 06.12.2021
887 Clouds -3 1030 66 10000 0.51 150 22:30 05.12.2021
888 Clouds -3 1030 63 10000 1.03 300 21:26 05.12.2021
889 Clear -3 1030 62 10000 1.54 180 20:59 05.12.2021
890 Clear -3 1030 62 10000 1.54 180 20:19 05.12.2021
891 Clouds -3 1030 62 10000 1.54 280 19:33 05.12.2021
892 Clouds -3 1030 63 10000 2.06 340 18:41 05.12.2021
893 Clouds -4 1030 64 10000 2.06 340 18:19 05.12.2021
894 Clear -4 1030 66 10000 0.51 20 17:47 05.12.2021
895 Clear -5 1030 70 10000 1.03 300 16:45 05.12.2021
896 Clear -5 1030 72 10000 1.03 300 16:26 05.12.2021
897 Clear -7 1028 87 10000 0.51 210 14:49 05.12.2021
898 Clear -7 1028 87 10000 0.51 210 14:31 05.12.2021
899 Clear -8 1026 85 10000 0.51 260 13:50 05.12.2021
900 Clear -8 1026 86 10000 0.51 260 13:22 05.12.2021
901 Clear -8 1026 85 10000 1.03 280 12:40 05.12.2021
902 Clear -8 1026 85 10000 1.03 280 12:18 05.12.2021
903 Clear -7 1024 86 10000 0.51 270 11:20 05.12.2021
904 Clear -7 1022 88 10000 1.03 300 09:59 05.12.2021
905 Clouds -6 1020 89 10000 1.03 240 07:55 05.12.2021
906 Snow -6 1018 84 10000 0.51 310 03:27 05.12.2021
907 Clouds -5 1015 85 10000 2.57 360 23:34 04.12.2021
908 Snow -5 1014 84 9656 2.06 10 21:55 04.12.2021
909 Snow -4 1014 81 2816 1.03 250 20:57 04.12.2021
910 Snow -4 1014 69 10000 1.54 160 19:55 04.12.2021
911 Snow -4 1015 67 10000 1.54 160 19:32 04.12.2021
912 Snow -5 1016 58 10000 2.57 130 18:21 04.12.2021
913 Clouds -5 1017 52 10000 2.06 170 17:39 04.12.2021
914 Clouds -5 1018 56 10000 1.54 80 16:51 04.12.2021
915 Clouds -6 1018 55 10000 1.54 80 16:30 04.12.2021
916 Snow -6 1018 59 10000 1.03 140 15:40 04.12.2021
917 Clouds -9 1019 61 10000 1.03 290 11:51 04.12.2021
918 Clouds -8 1019 61 10000 1.03 290 11:32 04.12.2021
919 Clouds -8 1018 58 10000 0.51 320 10:53 04.12.2021
920 Clouds -8 1018 57 10000 1.54 330 08:48 04.12.2021
921 Clouds -7 1018 54 10000 2.57 360 06:28 04.12.2021
922 Clouds -7 1018 51 10000 3.09 360 04:42 04.12.2021
923 Clear -5 1016 50 10000 1.54 210 00:35 04.12.2021
924 Clear -5 1015 50 10000 1.54 220 23:27 03.12.2021
925 Clear -5 1014 49 10000 1.54 220 22:47 03.12.2021
926 Clear -4 1014 47 10000 1.03 210 21:26 03.12.2021
927 Clear -3 1013 47 10000 1.54 210 20:54 03.12.2021
928 Clear -3 1013 47 10000 1.54 210 20:26 03.12.2021
929 Clear -3 1012 46 10000 2.06 340 18:44 03.12.2021
930 Clouds -3 1012 52 10000 1.54 350 17:59 03.12.2021
931 Clouds -3 1012 56 10000 2.06 350 16:33 03.12.2021
932 Snow -3 1010 62 10000 3.09 360 13:27 03.12.2021
933 Clouds -2 1008 68 10000 1.03 20 12:20 03.12.2021
934 Clouds -1 1006 64 10000 3.6 350 10:56 03.12.2021
935 Clouds 1 1001 70 10000 1.54 10 08:29 03.12.2021
936 Clouds 1 1000 75 10000 2.06 150 07:43 03.12.2021
937 Clouds 1 1000 75 10000 2.06 150 07:43 03.12.2021
938 Clouds 1 1000 75 10000 2.06 150 07:43 03.12.2021
939 Clouds 3 997 80 10000 1.54 200 05:42 03.12.2021
940 Mist 5 993 88 9656 3.6 190 00:48 03.12.2021
941 Rain 5 993 93 10000 2.06 180 23:47 02.12.2021
942 Mist 5 993 94 4828 2.57 180 22:38 02.12.2021
943 Rain 5 993 93 4023 2.06 180 21:41 02.12.2021
944 Clouds 4 994 92 10000 1.54 190 20:44 02.12.2021
945 Clouds 4 994 92 10000 1.54 190 20:22 02.12.2021
946 Rain 4 996 91 10000 1.54 190 18:47 02.12.2021
947 Clouds 3 1000 87 10000 2.06 180 16:35 02.12.2021
948 Clouds 3 1001 89 10000 2.06 180 15:41 02.12.2021
949 Clouds 2 1002 89 10000 2.06 170 14:52 02.12.2021
950 Rain 1 1004 92 8047 2.57 180 13:39 02.12.2021
951 Rain 1 1005 91 10000 2.06 180 12:36 02.12.2021
952 Snow 0 1009 76 10000 2.06 180 10:42 02.12.2021
953 Clouds -1 1011 77 10000 1.54 180 09:26 02.12.2021
954 Clouds -3 1013 74 10000 1.34 143 07:20 02.12.2021
955 Clouds -4 1019 64 10000 0.51 200 01:28 02.12.2021
956 Clouds -4 1019 64 10000 0.51 330 00:35 02.12.2021
957 Clear -3 1019 59 10000 1.03 210 22:32 01.12.2021
958 Clear -2 1018 57 10000 2.06 220 21:44 01.12.2021
959 Clouds -1 1018 61 10000 1.54 170 20:24 01.12.2021
960 Clouds 0 1018 64 10000 2.06 220 19:46 01.12.2021
961 Clouds 0 1018 65 10000 1.54 230 18:55 01.12.2021
962 Clouds 0 1017 63 10000 1.54 190 17:31 01.12.2021
963 Snow 0 1016 62 10000 1.54 340 16:36 01.12.2021
964 Clouds 0 1013 82 10000 1.03 190 14:39 01.12.2021
965 Snow 0 1012 83 10000 1.54 260 13:37 01.12.2021
966 Snow 0 1010 92 9656 1.54 190 11:26 01.12.2021
967 Snow -1 1009 93 8047 2.06 200 10:40 01.12.2021
968 Snow -1 1010 91 6437 1.54 170 08:53 01.12.2021
969 Clouds -2 1010 91 10000 1.54 170 08:26 01.12.2021
970 Clouds -2 1009 91 10000 2.06 170 07:32 01.12.2021
971 Snow -2 1010 83 4828 1.03 200 04:18 01.12.2021
972 Snow -2 1011 79 10000 1.54 210 03:32 01.12.2021
973 Clouds -3 1011 76 10000 0.51 240 00:45 01.12.2021
974 Clouds -3 1011 73 10000 0.51 290 23:35 30.11.2021
975 Clouds -2 1011 72 10000 0.51 230 22:39 30.11.2021
976 Clouds -1 1011 71 10000 1.03 250 20:53 30.11.2021
977 Clouds -1 1011 71 10000 1.03 250 20:34 30.11.2021
978 Clouds -1 1011 70 10000 1.54 250 19:51 30.11.2021
979 Clouds -1 1011 69 10000 1.54 250 19:24 30.11.2021
980 Clouds -1 1011 66 10000 1.03 270 18:24 30.11.2021
981 Snow -2 1012 77 10000 0.51 350 16:25 30.11.2021
982 Snow -4 1013 86 1609 1.03 310 14:35 30.11.2021
983 Snow -4 1013 85 2816 1.03 300 13:52 30.11.2021
984 Snow -4 1013 84 2816 1.03 300 13:23 30.11.2021
985 Snow -4 1013 83 8047 1.03 310 12:44 30.11.2021
986 Snow -4 1013 83 10000 1.54 300 11:26 30.11.2021
987 Clouds -5 1013 84 10000 1.03 270 10:47 30.11.2021
988 Clouds -5 1013 84 10000 1.03 270 10:29 30.11.2021
989 Clouds -5 1014 82 10000 1.54 280 08:51 30.11.2021
990 Clouds -5 1014 80 10000 1.54 280 08:20 30.11.2021
991 Clouds -5 1014 79 10000 1.03 260 07:39 30.11.2021
992 Clouds -4 1015 77 10000 0.51 230 01:52 30.11.2021
993 Clouds -5 1015 77 10000 0.51 230 01:32 30.11.2021
994 Clear -4 1015 71 10000 1.03 280 23:57 29.11.2021
995 Clear -5 1015 71 10000 1.03 280 23:21 29.11.2021
996 Clouds -4 1014 68 10000 0.51 280 22:44 29.11.2021
997 Clouds -4 1014 67 10000 0.51 280 22:25 29.11.2021
998 Clear -3 1014 64 10000 2.06 340 21:22 29.11.2021
999 Clear -3 1014 63 10000 1.54 320 20:56 29.11.2021
1000 Clear -3 1014 62 10000 1.54 320 20:22 29.11.2021
1001 Clouds -3 1014 62 10000 1.54 350 19:44 29.11.2021
1002 Clouds -3 1014 62 10000 1.54 350 19:26 29.11.2021
1003 Clouds -3 1015 65 10000 1.79 15 18:47 29.11.2021
1004 Clouds -3 1015 69 10000 1.66 341 17:22 29.11.2021
1005 Clouds -3 1015 69 10000 1.66 341 16:56 29.11.2021
1006 Clouds -3 1015 73 10000 1.47 8 16:25 29.11.2021
1007 Clouds -4 1015 79 10000 1.75 34 15:27 29.11.2021
1008 Clouds -4 1015 79 10000 1.75 34 14:42 29.11.2021
1009 Clouds -5 1014 87 10000 1.9 19 13:28 29.11.2021
1010 Clouds -5 1014 88 10000 2.17 11 12:22 29.11.2021
1011 Clouds -5 1014 88 10000 2.17 11 11:31 29.11.2021
1012 Clouds -4 1013 88 10000 2.2 25 10:32 29.11.2021
1013 Clouds -5 1012 75 10000 2.06 360 08:45 29.11.2021
1014 Clouds -4 1012 72 10000 1.54 350 05:58 29.11.2021
1015 Clouds -4 1011 74 10000 0.51 250 01:35 29.11.2021
1016 Clouds -4 1011 69 10000 0.51 260 00:36 29.11.2021
1017 Clouds -4 1010 64 10000 1.03 260 23:42 28.11.2021
1018 Clouds -3 1010 67 10000 1.03 270 22:42 28.11.2021
1019 Clouds -3 1010 69 10000 1.03 270 21:41 28.11.2021
1020 Clouds -2 1010 58 10000 1.03 220 20:58 28.11.2021
1021 Clear -3 1010 63 10000 1.54 270 19:55 28.11.2021
1022 Clear -3 1010 62 10000 2.06 260 18:45 28.11.2021
1023 Clear -3 1010 62 10000 2.06 260 18:27 28.11.2021
1024 Snow -4 1011 66 10000 1.03 220 17:49 28.11.2021
1025 Snow -4 1011 66 10000 1.03 220 17:30 28.11.2021
1026 Clear -5 1011 68 10000 1.54 220 16:28 28.11.2021
1027 Clear -6 1011 73 10000 2.57 270 15:53 28.11.2021
1028 Clear -7 1011 81 10000 2.57 260 14:57 28.11.2021
1029 Clear -7 1011 81 10000 2.57 260 14:35 28.11.2021
1030 Clear -8 1010 84 10000 1.54 240 12:58 28.11.2021
1031 Clear -8 1010 84 10000 1.54 240 12:29 28.11.2021
1032 Clear -7 1010 73 10000 1.54 250 10:53 28.11.2021
1033 Clear -7 1010 73 10000 1.54 250 10:20 28.11.2021
1034 Clear -7 1010 73 10000 1.03 250 09:37 28.11.2021
1035 Clear -6 1010 71 10000 1.03 170 06:29 28.11.2021
1036 Clear -4 1008 67 10000 1.54 230 23:37 27.11.2021
1037 Clouds -3 1006 70 10000 1.54 180 20:44 27.11.2021
1038 Clouds -4 1006 70 10000 1.54 250 18:57 27.11.2021
1039 Snow -4 1006 74 10000 1.54 20 16:52 27.11.2021
1040 Clouds -4 1005 74 10000 2.06 290 15:55 27.11.2021
1041 Clouds -4 1005 80 10000 1.03 150 13:47 27.11.2021
1042 Snow -4 1004 78 10000 1.54 90 12:31 27.11.2021
1043 Clouds -3 1003 80 10000 1.54 30 10:42 27.11.2021
1044 Clouds -2 1003 76 10000 1.54 10 09:51 27.11.2021
1045 Clouds -2 1002 78 10000 1.03 160 08:40 27.11.2021
1046 Snow 0 1000 93 3219 2.57 340 04:58 27.11.2021
1047 Snow 1 1000 95 3219 2.06 340 01:55 27.11.2021
1048 Snow 1 999 95 6437 2.06 310 23:35 26.11.2021
1049 Snow 1 999 97 2816 1.03 320 22:25 26.11.2021
1050 Snow 1 999 97 2414 1.54 360 21:36 26.11.2021
1051 Snow 1 998 95 2816 2.06 360 20:53 26.11.2021
1052 Snow 1 998 95 2816 2.06 360 20:19 26.11.2021
1053 Snow 1 999 95 2816 2.06 340 19:47 26.11.2021
1054 Snow 1 999 95 4828 2.57 350 18:39 26.11.2021
1055 Rain 2 1000 97 9656 2.06 360 17:23 26.11.2021
1056 Rain 2 1000 100 3219 2.06 360 15:57 26.11.2021
1057 Rain 2 1001 94 3219 1.54 90 13:36 26.11.2021
1058 Rain 2 1002 95 2012 1.03 170 12:40 26.11.2021
1059 Mist 2 1003 94 3219 1.54 190 10:38 26.11.2021
1060 Rain 2 1004 94 4023 2.06 140 08:59 26.11.2021
1061 Mist 2 1005 93 8047 1.54 150 08:21 26.11.2021
1062 Mist 2 1005 93 9656 1.54 190 07:33 26.11.2021
1063 Rain 1 1006 94 8047 1.03 190 06:28 26.11.2021
1064 Rain 1 1008 92 10000 0.45 156 04:51 26.11.2021
1065 Rain 1 1009 91 10000 1.03 20 03:26 26.11.2021
1066 Clouds 2 1011 80 10000 1.54 150 23:27 25.11.2021
1067 Clouds 3 1012 79 10000 1.03 70 21:50 25.11.2021
1068 Clouds 3 1013 78 10000 0.51 20 20:40 25.11.2021
1069 Clouds 2 1014 78 10000 0 0 18:49 25.11.2021
1070 Clouds 2 1015 78 10000 1.03 190 17:58 25.11.2021
1071 Clouds 2 1015 78 10000 1.03 190 17:26 25.11.2021
1072 Clouds 2 1016 78 10000 1.03 150 16:38 25.11.2021
1073 Clouds 1 1017 78 10000 1.03 180 15:58 25.11.2021
1074 Clouds 0 1018 79 10000 1.03 180 14:19 25.11.2021
1075 Clouds -1 1018 78 10000 1.54 200 12:48 25.11.2021
1076 Clouds -1 1019 78 10000 1.54 200 11:55 25.11.2021
1077 Clouds -2 1019 78 10000 1.54 210 10:25 25.11.2021
1078 Clouds -2 1021 74 10000 1.03 220 06:24 25.11.2021
1079 Clouds -1 1024 71 10000 1.03 170 02:54 25.11.2021
1080 Clear 0 1025 67 10000 1.03 220 23:39 24.11.2021
1081 Clear 1 1025 64 10000 0.51 210 22:28 24.11.2021
1082 Clear 2 1025 60 10000 1.54 190 21:45 24.11.2021
1083 Clear 2 1025 59 10000 2.06 190 20:58 24.11.2021
1084 Clear 2 1025 58 10000 2.06 190 20:26 24.11.2021
1085 Clear 1 1025 60 10000 2.57 170 18:58 24.11.2021
1086 Clear 1 1025 60 10000 2.57 170 18:18 24.11.2021
1087 Clear -2 1027 67 10000 1.03 220 16:20 24.11.2021
1088 Clouds -4 1026 80 10000 1.54 260 14:57 24.11.2021
1089 Clear -5 1026 83 10000 1.54 260 14:21 24.11.2021
1090 Clear -7 1025 83 10000 1.03 210 12:51 24.11.2021
1091 Clear -7 1025 85 10000 1.03 0 11:24 24.11.2021
1092 Clear -7 1024 84 10000 0 0 10:52 24.11.2021
1093 Clear -7 1024 84 10000 0 0 10:52 24.11.2021
1094 Clear -6 1024 80 10000 1.03 220 10:34 24.11.2021
1095 Clear -6 1023 77 10000 1.54 290 08:35 24.11.2021
1096 Clear -5 1022 75 10000 1.03 290 07:31 24.11.2021
1097 Clear -5 1022 74 10000 1.54 320 05:23 24.11.2021
1098 Clouds -3 1021 68 10000 1.03 350 02:44 24.11.2021
1099 Clouds -3 1019 59 10000 3.09 350 23:33 23.11.2021
1100 Clouds -2 1018 57 10000 2.06 330 22:38 23.11.2021
1101 Clouds -2 1018 56 10000 2.06 340 21:45 23.11.2021
1102 Clouds -2 1018 54 10000 2.57 360 20:22 23.11.2021
1103 Clouds -2 1017 55 10000 2.06 350 19:29 23.11.2021
1104 Clouds -2 1017 55 10000 3.09 340 18:33 23.11.2021
1105 Snow -3 1017 60 10000 2.06 340 17:31 23.11.2021
1106 Clouds -3 1017 65 10000 2.57 350 16:35 23.11.2021
1107 Snow -4 1017 71 2816 3.09 340 15:27 23.11.2021
1108 Snow -4 1016 73 9656 1.54 10 14:54 23.11.2021
1109 Snow -4 1015 75 10000 1.54 320 13:20 23.11.2021
1110 Clouds -4 1013 70 10000 1.03 350 10:28 23.11.2021
1111 Clear -3 1013 71 10000 2.24 352 09:47 23.11.2021
1112 Clear -2 1012 71 10000 1.03 180 07:58 23.11.2021
1113 Clear -1 1011 68 10000 1.03 180 04:53 23.11.2021
1114 Clear 0 1011 69 10000 1.03 190 03:35 23.11.2021
1115 Clouds 2 1010 66 10000 1.54 210 23:41 22.11.2021
1116 Rain 2 1010 65 10000 1.54 210 23:20 22.11.2021
1117 Clear 2 1009 60 10000 2.06 200 22:30 22.11.2021
1118 Clouds 3 1009 57 10000 1.03 230 21:45 22.11.2021
1119 Clouds 3 1009 56 10000 1.03 230 21:19 22.11.2021
1120 Clouds 4 1008 53 10000 2.06 210 20:42 22.11.2021
1121 Clouds 4 1008 51 10000 2.57 200 19:21 22.11.2021
1122 Clouds 4 1008 51 10000 2.06 220 18:41 22.11.2021
1123 Clouds 4 1008 53 10000 2.06 220 18:21 22.11.2021
1124 Clouds 3 1008 53 10000 2.57 190 16:41 22.11.2021
1125 Clouds 3 1007 71 10000 1.54 220 15:29 22.11.2021
1126 Clouds 7 1004 83 10000 1.54 180 12:51 22.11.2021
1127 Clouds 7 1004 85 10000 1.54 180 11:39 22.11.2021
1128 Clouds 6 1004 87 10000 1.54 180 10:26 22.11.2021
1129 Clouds 6 1006 86 10000 1.54 180 08:44 22.11.2021
1130 Clouds 6 1006 86 10000 1.54 180 08:24 22.11.2021
1131 Clouds 5 1014 76 10000 0.51 170 01:40 22.11.2021
1132 Clouds 4 1017 78 10000 1.54 100 23:21 21.11.2021
1133 Clear 5 1018 76 10000 2.06 100 22:45 21.11.2021
1134 Clear 6 1019 71 10000 1.54 150 21:22 21.11.2021
1135 Clouds 7 1020 69 10000 2.06 120 20:36 21.11.2021
1136 Clouds 6 1022 78 10000 1.03 150 19:35 21.11.2021
1137 Clouds 5 1024 84 10000 1.54 160 17:59 21.11.2021
1138 Clouds 5 1024 85 10000 1.54 160 17:36 21.11.2021
1139 Clouds 3 1025 92 10000 1.03 170 15:21 21.11.2021
1140 Clouds 2 1025 92 10000 2.06 200 14:42 21.11.2021
1141 Clouds 2 1025 90 10000 1.54 180 13:23 21.11.2021
1142 Clouds 2 1025 90 10000 2.06 180 12:27 21.11.2021
1143 Clouds 2 1025 90 10000 2.57 190 11:38 21.11.2021
1144 Clouds 3 1024 84 10000 2.06 190 10:19 21.11.2021
1145 Clouds 3 1024 77 10000 1.54 190 09:47 21.11.2021
1146 Clouds 3 1024 69 10000 1.54 190 08:34 21.11.2021
1147 Clouds 3 1024 68 10000 1.54 190 07:54 21.11.2021
1148 Clouds 3 1024 68 10000 1.54 190 07:33 21.11.2021
1149 Clouds 3 1024 66 10000 1.54 190 05:47 21.11.2021
1150 Clouds 3 1025 68 10000 1.54 170 04:35 21.11.2021
1151 Clouds 3 1025 68 10000 1.54 170 04:35 21.11.2021
1152 Clouds 3 1025 67 10000 1.03 170 03:18 21.11.2021
1153 Clouds 3 1026 65 10000 1.54 160 02:42 21.11.2021
1154 Clouds 3 1027 66 10000 1.54 160 00:51 21.11.2021
1155 Clouds 3 1028 65 10000 1.54 170 23:22 20.11.2021
1156 Clouds 4 1029 58 10000 2.57 180 21:39 20.11.2021
1157 Clouds 5 1029 55 10000 1.03 170 20:39 20.11.2021
1158 Clear 4 1031 58 10000 2.57 160 18:46 20.11.2021
1159 Clear 4 1031 58 10000 2.57 160 18:46 20.11.2021
1160 Clear 4 1031 60 10000 2.57 160 18:25 20.11.2021
1161 Clouds 3 1032 66 10000 1.54 170 17:22 20.11.2021
1162 Clouds 1 1033 80 10000 1.03 190 15:54 20.11.2021
1163 Clear -1 1033 82 10000 1.54 190 14:40 20.11.2021
1164 Clear -2 1033 82 10000 1.54 190 14:21 20.11.2021
1165 Clear -3 1032 82 10000 0.45 101 11:56 20.11.2021
1166 Clear -2 1032 79 10000 0.51 210 10:29 20.11.2021
1167 Clear -2 1030 77 10000 0.51 200 08:57 20.11.2021
1168 Clear -1 1030 78 10000 0.89 58 07:20 20.11.2021
1169 Clear 0 1029 76 10000 0.89 356 05:25 20.11.2021
1170 Clear 0 1028 74 10000 1.03 170 04:50 20.11.2021
1171 Clouds 1 1026 74 10000 1.54 110 01:41 20.11.2021
1172 Clouds 1 1024 75 10000 1.03 160 00:38 20.11.2021
1173 Clouds 2 1022 73 10000 1.03 210 22:55 19.11.2021
1174 Clouds 3 1021 70 10000 1.54 190 21:58 19.11.2021
1175 Clouds 3 1020 66 10000 2.06 350 20:57 19.11.2021
1176 Clouds 3 1020 67 10000 2.06 350 20:36 19.11.2021
1177 Clouds 4 1019 63 10000 2.57 360 19:50 19.11.2021
1178 Clouds 4 1018 68 10000 1.54 40 18:53 19.11.2021
1179 Clouds 4 1018 73 10000 2.68 312 18:22 19.11.2021
1180 Clouds 3 1017 75 10000 1.54 200 16:47 19.11.2021
1181 Clouds 2 1016 80 10000 1.54 200 15:32 19.11.2021
1182 Clouds 2 1015 84 10000 1.54 180 13:25 19.11.2021
1183 Clouds 2 1012 81 10000 1.03 160 10:27 19.11.2021
1184 Clouds 2 1012 81 10000 1.03 160 10:27 19.11.2021
1185 Clear 2 1013 81 10000 1.54 160 09:37 19.11.2021
1186 Clear 3 1012 79 10000 2.06 180 07:41 19.11.2021
1187 Clouds 5 1012 79 10000 1.54 160 04:51 19.11.2021
1188 Clouds 6 1011 89 10000 1.54 170 02:27 19.11.2021
1189 Clouds 6 1011 92 10000 1.54 180 23:51 18.11.2021
1190 Rain 7 1010 93 10000 1.03 160 21:56 18.11.2021
1191 Rain 7 1009 94 9656 1.03 210 20:49 18.11.2021
1192 Mist 7 1009 94 9656 1.03 210 20:31 18.11.2021
1193 Rain 7 1008 95 9656 1.03 70 19:52 18.11.2021
1194 Mist 7 1008 95 4828 1.03 70 19:33 18.11.2021
1195 Rain 7 1008 96 2816 0.51 100 18:33 18.11.2021
1196 Rain 7 1007 94 4023 1.03 170 17:51 18.11.2021
1197 Clouds 9 1008 93 10000 2.06 190 16:44 18.11.2021
1198 Clouds 9 1008 94 10000 1.54 190 15:46 18.11.2021
1199 Clouds 8 1008 93 10000 1.54 180 13:40 18.11.2021
1200 Clouds 7 1008 92 10000 0 0 12:34 18.11.2021
1201 Clouds 6 1009 93 10000 0.51 360 11:43 18.11.2021
1202 Clouds 6 1009 93 10000 0.51 360 11:24 18.11.2021
1203 Clouds 6 1009 93 10000 0.51 360 11:24 18.11.2021
1204 Mist 5 1010 95 9656 0 0 09:59 18.11.2021
1205 Mist 4 1012 98 4023 1.03 350 07:35 18.11.2021
1206 Mist 3 1013 93 4828 1.54 350 05:57 18.11.2021
1207 Mist 3 1013 93 4828 1.54 350 05:38 18.11.2021
1208 Clouds 2 1017 78 10000 2.06 360 01:24 18.11.2021
1209 Clouds 2 1017 78 10000 2.06 360 01:24 18.11.2021
1210 Rain 1 1019 77 10000 2.06 10 23:19 17.11.2021
1211 Rain 1 1019 75 10000 2.57 60 22:34 17.11.2021
1212 Clouds 1 1020 73 10000 2.06 70 21:54 17.11.2021
1213 Clouds 1 1020 72 10000 2.06 70 21:34 17.11.2021
1214 Clouds 2 1022 69 10000 2.06 110 19:22 17.11.2021
1215 Clouds 1 1024 70 10000 1.54 120 17:31 17.11.2021
1216 Clear -1 1026 80 10000 0 0 14:53 17.11.2021
1217 Clear -4 1026 87 10000 0.51 290 12:42 17.11.2021
1218 Clear -4 1025 85 10000 0.51 290 11:52 17.11.2021
1219 Clear -3 1025 78 10000 1.54 320 10:50 17.11.2021
1220 Clear -3 1025 76 10000 0.89 39 09:27 17.11.2021
1221 Clear -2 1024 74 10000 0.51 260 07:46 17.11.2021
1222 Clear -2 1023 72 10000 0.51 190 06:42 17.11.2021
1223 Clear -1 1021 70 10000 0.51 250 02:43 17.11.2021
1224 Clouds 1 1020 65 10000 1.03 180 23:27 16.11.2021
1225 Clouds 2 1017 60 10000 2.06 350 21:51 16.11.2021
1226 Clouds 3 1016 59 10000 1.03 20 20:19 16.11.2021
1227 Clouds 3 1016 65 10000 1.03 90 19:23 16.11.2021
1228 Clouds 2 1016 78 8047 2.06 350 18:38 16.11.2021
1229 Rain 2 1015 75 10000 1.54 230 17:44 16.11.2021
1230 Clouds 2 1015 72 10000 1.54 300 16:59 16.11.2021
1231 Clouds 2 1015 71 10000 1.54 300 16:19 16.11.2021
1232 Clouds 2 1015 70 10000 1.03 170 15:42 16.11.2021
1233 Clouds 1 1014 73 10000 0.51 40 13:42 16.11.2021
1234 Clouds 1 1013 85 10000 1.03 190 10:22 16.11.2021
1235 Clouds 1 1012 83 10000 1.03 260 09:39 16.11.2021
1236 Clouds 1 1011 84 10000 2.06 180 07:41 16.11.2021
1237 Clouds 1 1010 80 10000 1.03 230 06:43 16.11.2021
1238 Clouds 3 1006 88 10000 1.03 30 23:26 15.11.2021
1239 Clouds 4 1005 87 10000 0.51 330 22:41 15.11.2021
1240 Rain 4 1005 86 10000 1.03 230 21:57 15.11.2021
1241 Clouds 4 1005 86 10000 1.03 230 21:31 15.11.2021
1242 Clouds 4 1004 85 10000 1.03 260 20:35 15.11.2021
1243 Clouds 4 1004 88 10000 1.54 360 19:25 15.11.2021
1244 Clouds 3 1003 91 10000 1.54 340 17:33 15.11.2021
1245 Clouds 3 1003 92 10000 0.51 300 15:52 15.11.2021
1246 Clouds 3 1003 93 10000 0.51 300 15:33 15.11.2021
1247 Mist 3 1003 94 6437 0.51 200 14:27 15.11.2021
1248 Clouds 3 1003 93 10000 2.06 200 12:37 15.11.2021
1249 Rain 3 1004 93 10000 0.51 120 09:59 15.11.2021
1250 Rain 3 1004 93 10000 0.51 120 09:19 15.11.2021
1251 Rain 3 1006 93 10000 0.51 140 07:23 15.11.2021
1252 Clouds 4 1008 72 10000 0.51 260 00:56 15.11.2021
1253 Clouds 5 1008 65 10000 1.03 200 22:44 14.11.2021
1254 Clear 6 1008 63 10000 1.03 210 21:45 14.11.2021
1255 Clouds 6 1008 65 10000 2.06 220 19:22 14.11.2021
1256 Clear 5 1008 65 10000 2.06 200 18:55 14.11.2021
1257 Clear 6 1008 65 10000 2.06 200 18:36 14.11.2021
1258 Clear 6 1008 66 10000 2.06 200 18:18 14.11.2021
1259 Clouds 5 1008 69 10000 2.06 180 17:58 14.11.2021
1260 Clouds 5 1008 69 10000 2.06 180 17:40 14.11.2021
1261 Clouds 5 1008 69 10000 2.06 180 17:21 14.11.2021
1262 Clouds 4 1009 71 10000 2.06 220 16:58 14.11.2021
1263 Clouds 4 1009 72 10000 2.06 220 16:40 14.11.2021
1264 Clouds 4 1009 74 10000 2.06 220 16:18 14.11.2021
1265 Clear 4 1008 77 10000 1.54 200 15:19 14.11.2021
1266 Clouds 3 1007 80 10000 2.06 180 14:45 14.11.2021
1267 Clouds 3 1007 81 10000 2.06 180 14:20 14.11.2021
1268 Clouds 3 1006 81 10000 2.06 200 13:52 14.11.2021
1269 Clouds 3 1006 81 10000 2.06 200 13:27 14.11.2021
1270 Clouds 3 1005 83 10000 2.06 190 12:23 14.11.2021
1271 Clouds 4 1004 85 10000 2.06 190 11:25 14.11.2021
1272 Clouds 4 1004 84 10000 1.54 200 10:37 14.11.2021
1273 Clouds 3 1004 85 10000 1.54 190 09:27 14.11.2021
1274 Clear 3 1004 87 10000 2.06 190 08:51 14.11.2021
1275 Clouds 4 1003 86 10000 0.89 279 04:47 14.11.2021
1276 Rain 5 1003 91 10000 1.54 190 23:20 13.11.2021
1277 Rain 6 1002 92 10000 1.54 190 22:20 13.11.2021
1278 Clouds 6 1002 92 10000 1.54 230 21:35 13.11.2021
1279 Mist 7 1002 91 9656 1.54 270 20:43 13.11.2021
1280 Clouds 8 1002 88 10000 2.06 170 19:32 13.11.2021
1281 Clouds 8 1003 89 10000 2.06 160 18:32 13.11.2021
1282 Clouds 7 1004 91 10000 1.03 160 17:41 13.11.2021
1283 Rain 6 1007 87 10000 1.54 180 15:55 13.11.2021
1284 Mist 6 1008 87 9656 1.54 190 14:45 13.11.2021
1285 Mist 5 1007 87 8047 1.54 190 13:47 13.11.2021
1286 Mist 4 1007 88 8047 2.06 200 12:43 13.11.2021
1287 Clouds 4 1008 87 10000 1.54 200 11:51 13.11.2021
1288 Clouds 4 1008 88 10000 1.54 200 11:22 13.11.2021
1289 Clouds 4 1008 88 10000 1.54 200 10:34 13.11.2021
1290 Clear 3 1009 84 10000 2.06 200 09:49 13.11.2021
1291 Clear 4 1009 84 10000 2.06 200 09:28 13.11.2021
1292 Clear 3 1010 84 10000 1.03 210 08:49 13.11.2021
1293 Clear 4 1010 82 10000 1.03 200 07:54 13.11.2021
1294 Clear 6 1012 79 10000 1.54 200 04:43 13.11.2021
1295 Clear 6 1012 81 10000 1.54 200 04:20 13.11.2021
1296 Clouds 9 1009 93 10000 1.34 266 00:18 13.11.2021
1297 Clouds 10 1008 93 10000 2.06 180 22:42 12.11.2021
1298 Mist 10 1008 94 9656 1.54 180 20:54 12.11.2021
1299 Rain 10 1009 94 10000 1.54 150 19:40 12.11.2021
1300 Rain 10 1009 93 10000 1.54 150 19:22 12.11.2021
1301 Mist 9 1011 92 9656 1.54 180 18:20 12.11.2021
1302 Rain 9 1013 89 10000 1.54 140 16:18 12.11.2021
1303 Rain 9 1015 81 10000 1.54 160 14:46 12.11.2021
1304 Clouds 9 1015 76 10000 1.54 140 11:31 12.11.2021
1305 Rain 9 1017 72 10000 1.03 150 10:48 12.11.2021
1306 Clouds 8 1019 65 10000 1.03 120 09:27 12.11.2021
1307 Clouds 7 1019 63 10000 1.03 100 08:35 12.11.2021
1308 Clouds 7 1023 59 10000 2.06 10 02:19 12.11.2021
1309 Clouds 6 1025 59 10000 2.57 40 23:31 11.11.2021
1310 Clouds 7 1025 58 10000 2.06 30 22:28 11.11.2021
1311 Clouds 8 1026 56 10000 1.54 70 21:26 11.11.2021
1312 Clear 8 1026 54 10000 1.54 40 20:26 11.11.2021
1313 Clear 7 1027 57 10000 2.06 80 18:54 11.11.2021
1314 Clear 7 1027 59 10000 2.06 50 17:42 11.11.2021
1315 Clear 6 1028 65 10000 1.34 103 16:38 11.11.2021
1316 Clear 3 1028 75 10000 2.06 10 14:44 11.11.2021
1317 Clear 2 1028 75 10000 2.06 10 14:26 11.11.2021
1318 Clear 1 1027 77 10000 2.06 350 13:36 11.11.2021
1319 Clear 0 1026 79 10000 1.34 37 12:48 11.11.2021
1320 Clear -1 1025 82 10000 2.57 20 10:35 11.11.2021
1321 Clouds 0 1025 78 10000 1.03 0 09:33 11.11.2021
1322 Clouds 1 1024 82 10000 1.03 0 07:36 11.11.2021
1323 Clear 6 1022 61 10000 0.89 306 02:36 11.11.2021
1324 Clear 10 1019 44 10000 1.03 30 22:59 10.11.2021
1325 Clear 11 1019 42 10000 1.03 30 22:22 10.11.2021
1326 Clear 12 1018 40 10000 1.54 230 21:18 10.11.2021
1327 Clear 12 1017 41 10000 1.54 300 20:45 10.11.2021
1328 Clear 12 1017 42 10000 1.54 240 19:46 10.11.2021
1329 Clear 11 1017 49 10000 2.06 250 17:50 10.11.2021
1330 Clear 10 1017 55 10000 1.03 250 16:33 10.11.2021
1331 Clouds 6 1016 72 10000 1.54 310 14:52 10.11.2021
1332 Clouds 4 1016 75 10000 2.57 330 13:41 10.11.2021
1333 Clouds 4 1016 70 10000 1.03 360 12:47 10.11.2021
1334 Clouds 5 1015 71 10000 1.54 10 10:48 10.11.2021
1335 Clouds 5 1015 69 10000 2.06 20 08:45 10.11.2021
1336 Clouds 6 1016 65 10000 3.6 340 07:44 10.11.2021
1337 Clouds 7 1016 63 10000 0.45 304 06:26 10.11.2021
1338 Clouds 7 1016 62 10000 0.89 300 05:51 10.11.2021
1339 Clouds 11 1018 61 10000 1.03 190 23:55 09.11.2021
1340 Clear 14 1018 60 10000 1.03 260 21:50 09.11.2021
1341 Clear 14 1018 60 10000 1.03 260 21:50 09.11.2021
1342 Clouds 15 1017 60 10000 1.54 350 20:32 09.11.2021
1343 Clouds 15 1017 60 10000 1.54 350 20:32 09.11.2021
1344 Clouds 15 1017 66 10000 1.54 340 19:25 09.11.2021
1345 Clouds 14 1018 75 10000 1.54 300 17:57 09.11.2021
1346 Clouds 11 1018 81 10000 1.54 280 16:24 09.11.2021
1347 Clouds 10 1018 85 10000 1.54 260 14:44 09.11.2021
1348 Clouds 9 1016 86 10000 3.09 270 12:53 09.11.2021
1349 Clouds 9 1016 85 10000 3.09 260 11:58 09.11.2021
1350 Clouds 9 1016 85 10000 2.57 240 10:45 09.11.2021
1351 Clouds 8 1016 88 10000 2.06 230 09:35 09.11.2021
1352 Clear 7 1015 88 10000 1.03 190 08:27 09.11.2021
1353 Clear 8 1016 85 10000 1.54 180 05:57 09.11.2021
1354 Clear 9 1017 75 10000 2.06 190 02:25 09.11.2021
1355 Clear 10 1017 75 10000 2.06 190 01:46 09.11.2021
1356 Clear 11 1018 72 10000 1.03 180 23:59 08.11.2021
1357 Clear 13 1018 68 10000 0.51 240 22:59 08.11.2021
1358 Clear 13 1018 66 10000 0.51 240 22:28 08.11.2021
1359 Clear 15 1019 63 10000 1.54 190 21:20 08.11.2021
1360 Clear 15 1020 62 10000 1.03 170 19:56 08.11.2021
1361 Clear 14 1020 63 10000 1.03 230 18:57 08.11.2021
1362 Clear 13 1021 67 10000 1.54 190 17:22 08.11.2021
1363 Clouds 10 1022 77 10000 1.03 200 15:31 08.11.2021
1364 Clouds 9 1022 80 10000 0.51 250 14:53 08.11.2021
1365 Clouds 8 1021 80 10000 0.51 200 13:56 08.11.2021
1366 Clouds 8 1020 80 10000 1.03 210 12:44 08.11.2021
1367 Clouds 8 1020 79 10000 1.03 200 11:27 08.11.2021
1368 Clouds 8 1019 78 10000 1.87 259 10:00 08.11.2021
1369 Clouds 8 1020 77 10000 0.51 240 08:56 08.11.2021
1370 Clouds 7 1019 79 10000 0.51 190 07:38 08.11.2021
1371 Clouds 7 1019 75 10000 1.03 180 06:50 08.11.2021
1372 Clouds 8 1019 69 10000 1.54 170 03:34 08.11.2021
1373 Clouds 10 1018 57 10000 1.54 190 23:51 07.11.2021
1374 Clouds 12 1018 53 10000 1.54 190 22:30 07.11.2021
1375 Clouds 12 1018 51 10000 1.54 180 21:22 07.11.2021
1376 Clear 13 1019 51 10000 2.06 190 19:55 07.11.2021
1377 Clear 11 1020 53 10000 2.06 190 18:26 07.11.2021
1378 Clear 10 1021 55 10000 2.06 160 17:38 07.11.2021
1379 Clear 7 1022 67 10000 1.54 160 15:55 07.11.2021
1380 Clear 4 1022 79 10000 1.54 200 14:42 07.11.2021
1381 Mist 2 1022 85 9656 1.03 190 13:55 07.11.2021
1382 Clouds 2 1022 83 10000 1.54 210 11:53 07.11.2021
1383 Clear 1 1022 83 10000 1.03 200 10:19 07.11.2021
1384 Clear 1 1023 80 10000 1.03 220 08:48 07.11.2021
1385 Clear 4 1023 73 10000 1.03 200 02:49 07.11.2021
1386 Clear 7 1024 63 10000 1.03 290 23:42 06.11.2021
1387 Clear 9 1024 55 10000 0.51 260 22:52 06.11.2021
1388 Clear 10 1024 52 10000 1.54 210 21:36 06.11.2021
1389 Clear 10 1025 55 10000 2.57 190 20:52 06.11.2021
1390 Clouds 10 1026 56 10000 2.57 200 19:36 06.11.2021
1391 Clear 9 1028 63 10000 2.57 190 17:25 06.11.2021
1392 Clear 6 1028 71 10000 1.54 190 15:39 06.11.2021
1393 Clear 1 1029 82 10000 0.51 140 13:39 06.11.2021
1394 Clear 1 1028 82 10000 1.03 180 12:36 06.11.2021
1395 Clear 1 1028 78 10000 1.54 180 09:49 06.11.2021
1396 Clear 1 1028 77 10000 1.54 180 08:24 06.11.2021
1397 Clear 3 1028 68 10000 2.06 160 03:20 06.11.2021
1398 Clear 5 1026 60 10000 0.51 250 23:40 05.11.2021
1399 Clear 6 1026 54 10000 1.03 200 22:52 05.11.2021
1400 Clear 8 1026 52 10000 1.54 290 21:55 05.11.2021
1401 Clear 8 1026 56 10000 1.03 230 20:21 05.11.2021
1402 Clouds 8 1027 59 10000 1.54 190 19:49 05.11.2021
1403 Clouds 7 1027 64 10000 1.54 240 18:42 05.11.2021
1404 Clouds 6 1028 70 10000 1.54 240 17:42 05.11.2021
1405 Clouds 5 1028 73 10000 1.54 190 16:35 05.11.2021
1406 Clouds 1 1027 85 10000 0.89 149 13:59 05.11.2021
1407 Clouds 0 1027 87 10000 0.89 141 11:43 05.11.2021
1408 Clouds -1 1026 87 10000 0.45 112 09:22 05.11.2021
1409 Clouds -1 1026 85 10000 0.45 64 07:46 05.11.2021
1410 Clear -1 1026 83 10000 0.45 95 05:33 05.11.2021
1411 Clouds 2 1026 68 10000 0.51 280 02:27 05.11.2021
1412 Clouds 3 1026 66 10000 0.51 300 00:54 05.11.2021
1413 Clouds 4 1025 62 10000 1.03 300 23:45 04.11.2021
1414 Clouds 5 1025 54 10000 1.03 290 22:21 04.11.2021
1415 Clouds 6 1025 52 10000 2.06 210 21:52 04.11.2021
1416 Clouds 6 1025 51 10000 2.06 210 21:22 04.11.2021
1417 Clouds 6 1026 49 10000 1.03 170 20:25 04.11.2021
1418 Clear 6 1026 52 10000 2.06 190 19:49 04.11.2021
1419 Clear 7 1026 52 10000 2.06 190 19:22 04.11.2021
1420 Clouds 6 1027 56 10000 2.57 210 18:22 04.11.2021
1421 Clouds 5 1027 64 10000 2.06 170 17:26 04.11.2021
1422 Clouds 3 1027 77 10000 1.03 10 15:36 04.11.2021
1423 Clear -2 1027 89 10000 1.03 280 13:45 04.11.2021
1424 Clear -2 1027 85 10000 0 0 10:22 04.11.2021
1425 Clear -2 1027 83 10000 1.54 150 08:31 04.11.2021
1426 Clear -2 1026 82 10000 1.03 230 07:36 04.11.2021
1427 Clear -1 1026 79 10000 2.06 240 06:38 04.11.2021
1428 Clouds 5 1023 58 10000 1.03 200 22:54 03.11.2021
1429 Clouds 6 1023 55 10000 1.54 250 21:57 03.11.2021
1430 Clouds 6 1023 54 10000 1.54 250 21:35 03.11.2021
1431 Clouds 6 1023 53 10000 1.03 300 20:39 03.11.2021
1432 Clouds 6 1023 53 10000 1.03 300 20:39 03.11.2021
1433 Clouds 6 1023 53 10000 1.03 300 20:19 03.11.2021
1434 Clouds 6 1022 51 10000 2.06 350 19:28 03.11.2021
1435 Clear 6 1023 53 10000 2.57 350 18:26 03.11.2021
1436 Clear 6 1023 54 10000 2.06 330 17:41 03.11.2021
1437 Clouds 5 1023 61 10000 2.57 10 16:42 03.11.2021
1438 Clouds 4 1022 72 10000 1.54 360 15:47 03.11.2021
1439 Clouds 4 1022 74 10000 1.54 360 15:29 03.11.2021
1440 Clouds 2 1022 91 10000 1.54 310 13:18 03.11.2021
1441 Clouds 2 1020 91 10000 1.54 320 11:34 03.11.2021
1442 Clouds 3 1020 92 10000 2.57 310 10:49 03.11.2021
1443 Clouds 3 1020 92 10000 1.54 270 09:40 03.11.2021
1444 Clouds 3 1020 93 10000 1.03 290 08:41 03.11.2021
1445 Clouds 3 1020 92 10000 1.03 250 07:40 03.11.2021
1446 Clouds 4 1019 91 10000 1.03 270 05:45 03.11.2021
1447 Clouds 4 1019 91 10000 1.03 260 04:22 03.11.2021
1448 Rain 5 1019 80 10000 0.51 340 00:55 03.11.2021
1449 Clouds 6 1018 72 10000 2.06 190 22:52 02.11.2021
1450 Clouds 8 1018 69 10000 2.06 180 21:47 02.11.2021
1451 Clouds 8 1018 65 10000 1.03 240 20:35 02.11.2021
1452 Clouds 8 1018 67 10000 2.57 210 19:56 02.11.2021
1453 Clouds 8 1018 67 10000 2.57 210 19:26 02.11.2021
1454 Clouds 8 1018 67 10000 2.06 210 18:34 02.11.2021
1455 Clouds 8 1018 69 10000 3.09 180 17:43 02.11.2021
1456 Clouds 7 1019 72 10000 2.06 220 16:34 02.11.2021
1457 Clouds 7 1019 73 10000 1.03 200 15:49 02.11.2021
1458 Clouds 5 1019 79 10000 1.03 160 14:51 02.11.2021
1459 Clouds 3 1018 85 10000 1.03 180 13:29 02.11.2021
1460 Clouds 3 1018 86 10000 1.54 180 12:46 02.11.2021
1461 Clear 3 1018 85 10000 1.03 160 11:38 02.11.2021
1462 Clouds 3 1018 84 10000 1.03 170 10:55 02.11.2021
1463 Clouds 3 1018 83 10000 1.03 170 10:32 02.11.2021
1464 Clouds 4 1018 82 10000 1.54 180 09:40 02.11.2021
1465 Clear 4 1018 80 10000 1.54 190 07:45 02.11.2021
1466 Clear 6 1017 72 10000 2.06 180 04:39 02.11.2021
1467 Clear 7 1016 68 10000 2.06 170 03:20 02.11.2021
1468 Clouds 9 1014 63 10000 2.06 180 23:39 01.11.2021
1469 Clouds 11 1013 45 10000 2.06 220 21:29 01.11.2021
1470 Clear 11 1013 44 10000 1.54 220 20:42 01.11.2021
1471 Clear 11 1013 44 10000 2.06 210 19:58 01.11.2021
1472 Clear 11 1013 45 10000 2.06 210 19:38 01.11.2021
1473 Clear 10 1012 50 10000 2.57 220 18:23 01.11.2021
1474 Clear 9 1012 55 10000 2.57 190 17:36 01.11.2021
1475 Clear 9 1012 60 10000 1.54 200 16:51 01.11.2021
1476 Clouds 8 1011 64 10000 2.68 308 15:57 01.11.2021
1477 Clouds 8 1010 66 10000 2.68 282 15:27 01.11.2021
1478 Clouds 7 1010 70 10000 2.06 200 14:45 01.11.2021
1479 Clouds 7 1010 71 10000 2.06 200 14:23 01.11.2021
1480 Clouds 7 1008 73 10000 2.06 180 13:50 01.11.2021
1481 Clouds 8 1006 75 10000 3.09 180 12:34 01.11.2021
1482 Clouds 10 1004 75 10000 2.57 190 11:27 01.11.2021
1483 Clouds 10 1003 83 10000 1.54 190 09:47 01.11.2021
1484 Clouds 10 1002 83 10000 2.06 180 08:18 01.11.2021
1485 Clear 10 1002 84 10000 2.57 180 07:45 01.11.2021
1486 Clouds 11 1000 90 10000 2.06 170 03:49 01.11.2021
1487 Clouds 11 999 95 10000 2.06 170 01:43 01.11.2021
1488 Rain 9 996 96 10000 1.03 170 22:42 31.10.2021
1489 Rain 9 995 95 10000 1.03 190 20:50 31.10.2021
1490 Rain 9 994 95 10000 1.03 190 19:22 31.10.2021
1491 Rain 9 994 95 10000 1.03 190 19:22 31.10.2021
1492 Rain 9 994 95 4828 0.51 340 18:40 31.10.2021
1493 Rain 9 994 96 4828 2.06 330 17:52 31.10.2021
1494 Mist 8 995 96 8047 3.6 350 15:51 31.10.2021
1495 Rain 8 996 95 6437 2.57 360 14:24 31.10.2021
1496 Mist 8 998 96 3621 2.57 360 12:50 31.10.2021
1497 Rain 8 999 97 10000 2.06 10 11:41 31.10.2021
1498 Clouds 8 1000 97 10000 2.57 10 10:44 31.10.2021
1499 Rain 9 1001 96 9656 2.06 10 09:22 31.10.2021
1500 Rain 9 1002 95 9656 2.57 10 08:29 31.10.2021
1501 Clouds 10 1008 91 10000 1.54 10 01:57 31.10.2021
1502 Clouds 12 1008 80 10000 2.06 40 22:47 30.10.2021
1503 Clouds 12 1008 74 10000 2.57 40 21:35 30.10.2021
1504 Clouds 11 1008 74 10000 2.06 40 20:50 30.10.2021
1505 Clouds 10 1010 74 10000 2.06 10 18:48 30.10.2021
1506 Clouds 8 1011 76 10000 1.54 10 17:27 30.10.2021
1507 Clouds 6 1011 78 10000 1.54 340 15:21 30.10.2021
1508 Clouds 4 1012 80 10000 1.54 340 13:40 30.10.2021
1509 Clouds 4 1012 79 10000 1.54 340 13:21 30.10.2021
1510 Clouds 4 1012 79 10000 2.06 350 12:51 30.10.2021
1511 Clouds 4 1012 79 10000 1.54 360 11:44 30.10.2021
1512 Clear 3 1012 80 10000 1.54 350 10:32 30.10.2021
1513 Clear 4 1011 74 10000 2.57 340 08:53 30.10.2021
1514 Clear 5 1011 72 10000 2.57 340 07:29 30.10.2021
1515 Clear 6 1012 70 10000 2.06 360 05:39 30.10.2021
1516 Clear 10 1013 65 10000 2.06 10 00:56 30.10.2021
1517 Clear 13 1013 57 10000 2.57 20 22:53 29.10.2021
1518 Clear 13 1013 57 10000 2.57 20 22:32 29.10.2021
1519 Clear 13 1015 59 10000 2.06 40 20:46 29.10.2021
1520 Clear 12 1015 59 10000 2.06 40 20:24 29.10.2021
1521 Clear 10 1016 67 10000 2.06 20 18:36 29.10.2021
1522 Clear 7 1017 78 10000 2.57 350 16:54 29.10.2021
1523 Clear 4 1017 86 10000 2.57 350 15:21 29.10.2021
1524 Clear 2 1017 91 10000 2.06 340 12:26 29.10.2021
1525 Clear 2 1016 89 10000 2.06 350 10:46 29.10.2021
1526 Clear 3 1017 88 10000 3.09 350 08:47 29.10.2021
1527 Clear 8 1017 71 10000 1.54 360 00:37 29.10.2021
1528 Clear 10 1017 64 10000 2.06 30 23:41 28.10.2021
1529 Clear 11 1016 60 10000 1.54 40 22:19 28.10.2021
1530 Clear 11 1017 61 10000 3.09 10 20:56 28.10.2021
1531 Clear 10 1017 61 10000 2.57 20 19:52 28.10.2021
1532 Clouds 9 1018 66 10000 2.57 50 18:30 28.10.2021
1533 Clouds 8 1019 70 10000 2.57 30 17:20 28.10.2021
1534 Clouds 7 1019 74 10000 2.57 50 16:24 28.10.2021
1535 Clouds 5 1018 82 10000 3.09 20 14:40 28.10.2021
1536 Clouds 5 1018 84 10000 3.09 10 13:30 28.10.2021
1537 Clouds 5 1018 85 10000 3.6 10 12:47 28.10.2021
1538 Clouds 5 1018 86 10000 3.09 10 11:20 28.10.2021
1539 Clouds 5 1018 83 10000 3.09 10 09:55 28.10.2021
1540 Clouds 5 1018 83 10000 3.09 10 09:35 28.10.2021
1541 Clouds 6 1017 82 10000 2.57 10 08:36 28.10.2021
1542 Clouds 6 1017 80 10000 2.57 20 07:40 28.10.2021
1543 Clear 11 1015 63 10000 0.89 1 00:41 28.10.2021
1544 Clear 12 1015 58 10000 2.57 10 22:45 27.10.2021
1545 Clear 13 1015 58 10000 3.09 20 21:52 27.10.2021
1546 Clear 13 1015 59 10000 3.09 20 21:18 27.10.2021
1547 Clear 13 1015 61 10000 4.12 10 20:40 27.10.2021
1548 Clear 12 1015 61 10000 3.6 30 19:45 27.10.2021
1549 Clear 12 1015 62 10000 3.6 20 18:55 27.10.2021
1550 Clear 9 1015 68 10000 3.6 20 16:55 27.10.2021
1551 Clear 9 1015 68 10000 3.6 20 16:24 27.10.2021
1552 Clear 8 1015 72 10000 4.12 20 15:24 27.10.2021
1553 Clear 7 1015 72 10000 3.6 10 14:19 27.10.2021
1554 Clear 8 1013 69 10000 4.12 10 11:18 27.10.2021
1555 Clear 8 1012 67 10000 4.12 20 10:36 27.10.2021
1556 Clear 8 1012 68 10000 4.63 10 09:21 27.10.2021
1557 Clear 9 1012 67 10000 3.6 10 07:39 27.10.2021
1558 Clear 10 1012 70 10000 4.12 10 05:38 27.10.2021
1559 Clouds 10 1010 78 10000 4.63 10 01:21 27.10.2021
1560 Clouds 10 1010 80 10000 4.63 10 00:54 27.10.2021
1561 Clouds 10 1009 84 10000 4.12 10 23:54 26.10.2021
1562 Clouds 10 1009 87 10000 3.6 360 22:44 26.10.2021
1563 Rain 10 1009 87 10000 3.6 360 22:21 26.10.2021
1564 Clouds 10 1009 83 10000 3.6 20 21:32 26.10.2021
1565 Clouds 9 1009 89 10000 3.6 20 19:54 26.10.2021
1566 Rain 9 1010 90 10000 3.6 20 19:18 26.10.2021
1567 Clouds 8 1011 89 10000 2.57 10 17:58 26.10.2021
1568 Clouds 8 1011 85 10000 2.57 20 15:49 26.10.2021
1569 Clouds 8 1011 81 10000 3.09 360 13:21 26.10.2021
1570 Clouds 8 1011 83 10000 2.57 360 10:54 26.10.2021
1571 Clouds 7 1013 84 10000 2.57 20 08:42 26.10.2021
1572 Clouds 7 1013 84 10000 2.06 30 07:22 26.10.2021
1573 Rain 7 1016 79 10000 2.57 30 00:19 26.10.2021
1574 Rain 7 1017 78 10000 2.57 20 23:37 25.10.2021
1575 Clouds 8 1017 79 10000 2.57 30 22:33 25.10.2021
1576 Clouds 8 1018 80 10000 2.06 50 21:43 25.10.2021
1577 Clouds 8 1018 82 10000 2.06 50 20:38 25.10.2021
1578 Rain 7 1019 84 10000 1.54 50 19:43 25.10.2021
1579 Rain 7 1020 83 10000 1.54 50 19:23 25.10.2021
1580 Rain 7 1020 81 10000 1.54 30 18:38 25.10.2021
1581 Rain 7 1020 77 10000 1.54 10 17:34 25.10.2021
1582 Clouds 6 1020 78 10000 1.54 20 14:53 25.10.2021
1583 Clouds 5 1020 83 10000 2.06 350 12:33 25.10.2021
1584 Clouds 4 1020 86 10000 2.57 20 10:54 25.10.2021
1585 Clouds 4 1021 86 10000 1.03 90 08:59 25.10.2021
1586 Clouds 4 1021 85 10000 1.54 110 07:19 25.10.2021
1587 Clear 5 1020 80 10000 0.51 220 04:35 25.10.2021
1588 Clear 8 1020 65 10000 0.51 280 00:52 25.10.2021
1589 Clear 9 1020 62 10000 0.51 280 00:33 25.10.2021
1590 Clouds 11 1019 54 10000 0.51 240 23:41 24.10.2021
1591 Clouds 12 1019 52 10000 1.03 240 22:39 24.10.2021
1592 Clouds 12 1019 53 10000 1.03 240 22:19 24.10.2021
1593 Clouds 12 1019 53 10000 1.54 330 21:18 24.10.2021
1594 Clouds 12 1019 53 10000 1.54 210 20:36 24.10.2021
1595 Clouds 11 1020 54 10000 2.57 170 19:40 24.10.2021
1596 Clouds 10 1020 55 10000 1.54 240 18:29 24.10.2021
1597 Clouds 10 1020 58 10000 2.06 250 17:45 24.10.2021
1598 Clouds 6 1020 72 10000 1.03 210 15:56 24.10.2021
1599 Clouds 6 1020 75 10000 1.03 210 15:19 24.10.2021
1600 Clouds 4 1019 80 10000 0 0 13:19 24.10.2021
1601 Clouds 4 1018 75 10000 1.03 180 11:56 24.10.2021
1602 Clouds 4 1018 75 10000 1.03 180 11:26 24.10.2021
1603 Clouds 4 1018 73 10000 1.03 190 10:30 24.10.2021
1604 Clouds 3 1017 78 10000 2.57 290 08:00 24.10.2021
1605 Clouds 6 1016 68 10000 0.51 290 01:26 24.10.2021
1606 Clouds 7 1015 64 10000 1.03 280 23:51 23.10.2021
1607 Clouds 8 1015 62 10000 1.54 300 22:40 23.10.2021
1608 Clouds 8 1015 60 10000 1.54 250 20:39 23.10.2021
1609 Clouds 7 1016 66 10000 1.03 10 19:00 23.10.2021
1610 Clouds 7 1016 68 10000 1.03 10 18:31 23.10.2021
1611 Clouds 6 1016 70 10000 1.54 350 17:44 23.10.2021
1612 Clouds 5 1017 77 10000 1.54 360 16:45 23.10.2021
1613 Clouds 3 1016 82 10000 2.06 350 14:45 23.10.2021
1614 Clouds 4 1016 81 10000 1.54 300 09:45 23.10.2021
1615 Clouds 7 1015 72 10000 1.03 150 00:28 23.10.2021
1616 Clouds 7 1014 75 10000 1.03 210 23:28 22.10.2021
1617 Clouds 8 1012 78 10000 1.54 240 20:56 22.10.2021
1618 Clouds 8 1010 82 10000 2.06 280 18:57 22.10.2021
1619 Clouds 8 1009 85 10000 2.06 210 17:44 22.10.2021
1620 Clouds 10 1007 91 10000 2.06 230 15:57 22.10.2021
1621 Rain 12 1004 94 10000 1.54 320 14:31 22.10.2021
1622 Rain 13 1002 96 6437 1.54 190 12:41 22.10.2021
1623 Rain 13 1002 96 6437 1.54 190 12:41 22.10.2021
1624 Rain 13 1002 97 4828 1.54 190 10:50 22.10.2021
1625 Rain 13 1003 96 3219 0.51 170 09:56 22.10.2021
1626 Rain 13 1003 96 3219 0.51 170 09:56 22.10.2021
1627 Rain 13 1003 95 4828 0.51 170 09:32 22.10.2021
1628 Clouds 13 1003 94 10000 1.03 210 07:28 22.10.2021
1629 Clouds 13 1004 94 10000 1.03 200 06:19 22.10.2021
1630 Mist 11 1008 95 4828 1.54 10 00:31 22.10.2021
1631 Mist 12 1008 94 8047 1.03 10 23:48 21.10.2021
1632 Clouds 12 1008 94 10000 1.54 350 22:22 21.10.2021
1633 Clouds 11 1009 94 10000 1.03 10 21:19 21.10.2021
1634 Drizzle 11 1010 94 10000 0.51 80 20:21 21.10.2021
1635 Clouds 10 1012 93 10000 1.03 20 19:31 21.10.2021
1636 Rain 10 1012 93 10000 1.54 10 18:59 21.10.2021
1637 Mist 10 1013 92 8047 1.54 10 18:27 21.10.2021
1638 Rain 10 1013 90 10000 2.06 40 17:47 21.10.2021
1639 Rain 10 1013 90 10000 2.06 40 17:47 21.10.2021
1640 Clouds 11 1013 83 10000 2.06 30 16:40 21.10.2021
1641 Clouds 11 1013 79 10000 2.06 10 15:22 21.10.2021
1642 Clouds 11 1013 78 10000 1.54 20 14:50 21.10.2021
1643 Clouds 11 1013 78 10000 1.54 50 13:39 21.10.2021
1644 Clouds 12 1013 84 10000 1.03 340 11:47 21.10.2021
1645 Clouds 12 1012 88 10000 1.03 210 09:24 21.10.2021
1646 Clear 13 1012 87 10000 1.03 170 07:33 21.10.2021
1647 Clear 13 1012 85 10000 1.03 200 05:33 21.10.2021
1648 Clouds 16 1012 68 10000 2.06 110 00:22 21.10.2021
1649 Clear 18 1012 58 10000 1.54 180 22:22 20.10.2021
1650 Clear 18 1012 57 10000 0.45 192 21:46 20.10.2021
1651 Clear 17 1012 54 10000 1.54 90 20:58 20.10.2021
1652 Clear 17 1012 54 10000 1.54 90 20:37 20.10.2021
1653 Clear 17 1013 55 10000 1.03 200 19:59 20.10.2021
1654 Clear 16 1013 56 10000 1.03 200 19:18 20.10.2021
1655 Clear 15 1013 58 10000 1.03 10 18:29 20.10.2021
1656 Clear 15 1013 58 10000 1.03 10 18:29 20.10.2021
1657 Clear 11 1013 76 10000 1.03 50 15:57 20.10.2021
1658 Clear 5 1012 92 10000 1.03 180 13:46 20.10.2021
1659 Clouds 8 1010 84 10000 4.12 300 09:50 20.10.2021
1660 Clouds 8 1009 83 10000 0.45 305 05:29 20.10.2021
1661 Clear 9 1009 75 10000 1.03 210 01:24 20.10.2021
1662 Clear 10 1008 72 10000 1.54 160 00:32 20.10.2021
1663 Clouds 11 1008 67 10000 2.06 230 22:28 19.10.2021
1664 Clouds 10 1008 67 10000 1.03 150 21:33 19.10.2021
1665 Clouds 10 1008 69 10000 1.54 240 20:26 19.10.2021
1666 Clouds 9 1009 70 10000 2.06 180 19:51 19.10.2021
1667 Clouds 9 1009 70 10000 2.06 180 19:29 19.10.2021
1668 Clouds 8 1010 73 10000 1.54 170 18:31 19.10.2021
1669 Clouds 8 1011 76 10000 2.06 200 17:20 19.10.2021
1670 Clouds 7 1011 76 10000 1.54 200 15:26 19.10.2021
1671 Clouds 7 1011 75 10000 1.54 210 14:31 19.10.2021
1672 Clouds 7 1011 76 10000 1.54 230 13:49 19.10.2021
1673 Clouds 7 1011 79 10000 1.03 280 11:59 19.10.2021
1674 Clouds 7 1011 79 10000 1.03 280 11:23 19.10.2021
1675 Clouds 7 1010 80 10000 1.03 20 09:42 19.10.2021
1676 Clouds 7 1011 81 10000 0.51 130 08:56 19.10.2021
1677 Clouds 10 1009 67 10000 1.54 310 00:39 19.10.2021
1678 Clouds 11 1009 67 10000 1.03 270 23:57 18.10.2021
1679 Clouds 11 1009 67 10000 1.03 270 23:36 18.10.2021
1680 Clouds 11 1009 70 10000 0.51 190 22:55 18.10.2021
1681 Clouds 11 1009 72 10000 0.51 190 22:18 18.10.2021
1682 Clouds 11 1008 71 10000 1.54 300 20:46 18.10.2021
1683 Clouds 11 1008 69 10000 1.54 300 20:21 18.10.2021
1684 Clouds 11 1009 72 10000 2.57 330 19:31 18.10.2021
1685 Clouds 10 1009 76 10000 2.06 340 18:58 18.10.2021
1686 Rain 9 1008 87 10000 1.54 340 16:38 18.10.2021
1687 Clouds 8 1008 88 10000 2.06 340 14:44 18.10.2021
1688 Mist 8 1006 90 9656 0.51 350 11:59 18.10.2021
1689 Clouds 9 1006 90 10000 1.03 220 09:48 18.10.2021
1690 Mist 9 1006 89 9656 1.03 300 08:21 18.10.2021
1691 Clouds 12 1005 74 10000 0.51 290 00:30 18.10.2021
1692 Clouds 14 1004 69 10000 1.03 250 22:48 17.10.2021
1693 Clouds 14 1004 67 10000 1.03 240 21:44 17.10.2021
1694 Clouds 14 1005 65 10000 1.54 290 20:57 17.10.2021
1695 Clouds 14 1005 64 10000 1.54 290 20:25 17.10.2021
1696 Clouds 13 1005 66 10000 1.03 310 19:38 17.10.2021
1697 Clouds 13 1005 69 10000 1.79 313 18:35 17.10.2021
1698 Clouds 11 1006 77 10000 1.54 250 16:49 17.10.2021
1699 Clouds 9 1006 87 10000 1.03 210 14:42 17.10.2021
1700 Clouds 9 1006 88 10000 1.03 210 14:22 17.10.2021
1701 Clouds 9 1005 86 10000 1.54 240 13:33 17.10.2021
1702 Clouds 11 1004 82 10000 1.54 290 11:54 17.10.2021
1703 Clouds 11 1003 83 10000 1.54 230 10:20 17.10.2021
1704 Clouds 11 1003 85 10000 1.54 200 09:22 17.10.2021
1705 Clouds 12 1003 86 10000 2.06 200 06:55 17.10.2021
1706 Rain 16 1000 93 10000 1.54 190 00:49 17.10.2021
1707 Rain 17 999 93 10000 1.54 190 23:43 16.10.2021
1708 Rain 19 996 96 10000 2.57 170 21:29 16.10.2021
1709 Rain 20 997 94 4828 2.06 170 20:30 16.10.2021
1710 Rain 20 997 94 10000 2.06 170 19:43 16.10.2021
1711 Clouds 20 997 95 10000 2.06 170 19:21 16.10.2021
1712 Clouds 20 998 94 10000 2.57 180 18:51 16.10.2021
1713 Mist 20 998 94 6437 2.57 180 18:29 16.10.2021
1714 Rain 20 999 93 10000 2.06 170 17:53 16.10.2021
1715 Rain 20 999 92 10000 2.06 170 17:21 16.10.2021
1716 Mist 19 1002 95 9656 1.54 180 14:48 16.10.2021
1717 Mist 17 1004 97 6437 0.51 90 11:31 16.10.2021
1718 Rain 17 1006 96 3219 0.51 350 10:25 16.10.2021
1719 Mist 17 1008 95 4828 0.51 20 06:51 16.10.2021
1720 Mist 18 1010 93 6437 1.54 360 01:25 16.10.2021
1721 Clouds 18 1010 89 10000 1.54 10 23:50 15.10.2021
1722 Clouds 19 1009 88 10000 1.54 340 22:24 15.10.2021
1723 Clouds 19 1009 86 10000 0.51 60 21:56 15.10.2021
1724 Clouds 20 1009 86 10000 0.51 60 21:25 15.10.2021
1725 Clouds 20 1010 84 10000 0.51 210 20:45 15.10.2021
1726 Clouds 19 1010 86 10000 0.51 150 19:26 15.10.2021
1727 Mist 19 1011 90 10000 1.03 10 18:40 15.10.2021
1728 Mist 17 1012 95 9656 1.54 340 16:28 15.10.2021
1729 Mist 17 1012 94 9656 0.51 190 15:36 15.10.2021
1730 Mist 15 1012 96 2012 1.03 10 12:42 15.10.2021
1731 Mist 15 1012 97 2816 1.03 10 11:31 15.10.2021
1732 Mist 16 1012 95 2816 0.51 350 10:46 15.10.2021
1733 Mist 16 1012 94 2816 1.03 350 09:46 15.10.2021
1734 Mist 18 1013 91 8047 0.51 170 05:32 15.10.2021
1735 Clouds 19 1013 88 10000 0.51 260 01:45 15.10.2021
1736 Clouds 19 1013 86 10000 0 0 00:21 15.10.2021
1737 Clouds 20 1013 84 10000 0 0 22:51 14.10.2021
1738 Clouds 20 1013 84 10000 1.54 210 21:44 14.10.2021
1739 Clouds 20 1013 86 10000 2.57 240 20:48 14.10.2021
1740 Clouds 20 1014 86 10000 2.06 240 20:18 14.10.2021
1741 Clouds 20 1014 87 10000 0.45 311 19:35 14.10.2021
1742 Mist 18 1014 92 4828 0.45 296 17:31 14.10.2021
1743 Mist 18 1014 93 4023 0.89 292 16:49 14.10.2021
1744 Mist 17 1014 94 4023 0.45 269 15:44 14.10.2021
1745 Mist 17 1015 96 3219 0.45 296 14:43 14.10.2021
1746 Mist 17 1014 96 2012 2.06 10 14:21 14.10.2021
1747 Mist 17 1013 97 4828 0 0 11:44 14.10.2021
1748 Mist 17 1013 96 4023 1.03 170 09:55 14.10.2021
1749 Mist 17 1013 96 4023 1.03 170 09:55 14.10.2021
1750 Clouds 17 1013 95 10000 1.32 214 06:56 14.10.2021
1751 Clouds 18 1014 91 10000 0.89 237 01:29 14.10.2021
1752 Clouds 18 1014 91 10000 0.16 304 00:28 14.10.2021
1753 Clouds 20 1014 80 10000 0.89 306 21:58 13.10.2021
1754 Clouds 20 1014 81 10000 1.34 301 21:32 13.10.2021
1755 Clouds 21 1014 76 10000 0.89 218 20:21 13.10.2021
1756 Clouds 21 1015 71 10000 1.03 170 18:57 13.10.2021
1757 Clouds 21 1015 72 10000 1.03 170 18:35 13.10.2021
1758 Clouds 17 1015 86 10000 1.03 190 15:32 13.10.2021
1759 Clouds 15 1015 91 10000 1.03 200 14:46 13.10.2021
1760 Clouds 15 1015 92 10000 1.03 200 14:22 13.10.2021
1761 Clear 14 1015 93 10000 0.51 200 12:22 13.10.2021
1762 Clear 14 1015 92 10000 1.03 190 11:35 13.10.2021
1763 Clouds 15 1015 89 10000 1.03 210 08:48 13.10.2021
1764 Clouds 15 1015 86 10000 1.03 190 07:36 13.10.2021
1765 Clouds 19 1015 75 10000 1.03 160 02:29 13.10.2021
1766 Clouds 19 1016 74 10000 0.51 180 01:46 13.10.2021
1767 Clouds 22 1016 65 10000 1.03 140 23:31 12.10.2021
1768 Clouds 22 1016 65 10000 1.03 140 23:31 12.10.2021
1769 Clear 23 1016 62 10000 2.57 140 22:47 12.10.2021
1770 Clear 24 1016 61 10000 2.57 140 22:23 12.10.2021
1771 Clouds 23 1017 64 10000 1.54 180 20:46 12.10.2021
1772 Clouds 23 1017 65 10000 1.54 180 20:18 12.10.2021
1773 Clear 22 1018 66 10000 1.03 180 18:45 12.10.2021
1774 Clouds 21 1019 70 10000 1.54 150 17:57 12.10.2021
1775 Clouds 19 1019 79 10000 1.03 170 16:44 12.10.2021
1776 Clouds 17 1020 88 10000 1.54 180 15:58 12.10.2021
1777 Clear 15 1019 92 10000 1.54 190 14:46 12.10.2021
1778 Clear 14 1019 94 10000 1.54 200 13:44 12.10.2021
1779 Clear 13 1019 95 10000 1.03 190 12:40 12.10.2021
1780 Mist 14 1019 95 2414 1.03 210 10:20 12.10.2021
1781 Clear 14 1018 91 10000 1.54 190 08:44 12.10.2021
1782 Clear 15 1018 90 10000 1.54 190 07:54 12.10.2021
1783 Clear 15 1017 88 10000 1.54 190 06:40 12.10.2021
1784 Clear 16 1017 83 10000 1.54 180 04:33 12.10.2021
1785 Clear 18 1018 76 10000 1.03 180 01:28 12.10.2021
1786 Clear 21 1017 68 10000 2.06 100 23:41 11.10.2021
1787 Clear 21 1018 68 10000 2.06 130 22:59 11.10.2021
1788 Clouds 21 1018 68 10000 1.03 150 21:46 11.10.2021
1789 Clouds 21 1018 69 10000 1.03 150 21:18 11.10.2021
1790 Clouds 20 1019 71 10000 1.03 160 19:46 11.10.2021
1791 Clouds 20 1020 73 10000 1.54 110 18:44 11.10.2021
1792 Clouds 19 1020 77 10000 1.54 140 17:59 11.10.2021
1793 Clouds 17 1021 81 10000 1.54 140 16:39 11.10.2021
1794 Clouds 16 1020 84 10000 1.54 170 15:52 11.10.2021
1795 Clouds 16 1020 84 10000 1.54 170 15:32 11.10.2021
1796 Clouds 15 1020 86 10000 1.54 190 14:46 11.10.2021
1797 Clouds 15 1020 87 10000 1.03 190 13:38 11.10.2021
1798 Clouds 15 1020 86 10000 1.03 170 11:52 11.10.2021
1799 Clouds 15 1019 85 10000 1.54 190 10:43 11.10.2021
1800 Clouds 15 1019 84 10000 1.54 190 09:44 11.10.2021
1801 Clouds 15 1020 85 10000 1.03 190 07:29 11.10.2021
1802 Clouds 16 1020 75 10000 1.54 170 01:41 11.10.2021
1803 Clouds 17 1021 71 10000 2.06 170 00:50 11.10.2021
1804 Clouds 17 1021 70 10000 2.06 170 00:28 11.10.2021
1805 Clouds 18 1021 70 10000 1.54 160 21:57 10.10.2021
1806 Clouds 18 1021 71 10000 1.54 160 21:32 10.10.2021
1807 Clouds 17 1022 74 10000 2.06 170 20:48 10.10.2021
1808 Clouds 17 1022 75 10000 2.06 170 20:21 10.10.2021
1809 Clouds 17 1022 78 10000 2.06 170 19:59 10.10.2021
1810 Clouds 16 1022 79 10000 2.06 170 19:36 10.10.2021
1811 Clouds 15 1023 84 10000 1.03 150 18:37 10.10.2021
1812 Rain 14 1024 85 10000 1.54 190 16:57 10.10.2021
1813 Clouds 14 1024 83 10000 2.06 190 15:47 10.10.2021
1814 Clouds 13 1024 82 10000 1.54 180 14:42 10.10.2021
1815 Clouds 13 1023 84 10000 1.54 190 13:34 10.10.2021
1816 Clouds 13 1023 85 10000 2.06 180 12:35 10.10.2021
1817 Clouds 13 1023 83 10000 1.03 170 10:44 10.10.2021
1818 Clouds 13 1023 82 10000 1.54 170 09:31 10.10.2021
1819 Clouds 13 1024 81 10000 1.54 170 08:54 10.10.2021
1820 Clouds 13 1024 80 10000 1.54 180 07:53 10.10.2021
1821 Clouds 15 1024 73 10000 1.54 180 03:20 10.10.2021
1822 Clouds 17 1024 67 10000 2.06 160 01:28 10.10.2021
1823 Clear 17 1023 65 10000 1.54 140 00:33 10.10.2021
1824 Clouds 19 1023 62 10000 2.57 180 23:20 09.10.2021
1825 Clear 21 1023 58 10000 2.57 170 21:48 09.10.2021
1826 Clear 21 1023 58 10000 2.57 170 21:29 09.10.2021
1827 Clear 20 1024 59 10000 3.09 140 19:45 09.10.2021
1828 Clear 20 1024 60 10000 3.09 140 19:20 09.10.2021
1829 Clear 19 1024 62 10000 2.57 180 18:33 09.10.2021
1830 Clear 19 1024 62 10000 2.57 180 18:33 09.10.2021
1831 Clear 18 1025 66 10000 3.09 170 17:21 09.10.2021
1832 Clear 16 1025 73 10000 2.57 150 16:19 09.10.2021
1833 Clouds 11 1024 92 10000 0.51 20 13:46 09.10.2021
1834 Clouds 10 1024 91 10000 1.03 360 12:54 09.10.2021
1835 Mist 10 1024 92 9656 1.03 350 11:48 09.10.2021
1836 Mist 10 1024 91 9656 1.03 360 10:42 09.10.2021
1837 Mist 10 1023 89 4828 1.03 340 09:53 09.10.2021
1838 Mist 11 1023 87 4828 1.54 360 08:30 09.10.2021
1839 Mist 12 1023 87 4828 2.57 350 07:49 09.10.2021
1840 Mist 14 1022 83 8047 2.57 350 05:39 09.10.2021
1841 Clear 16 1022 80 10000 2.57 350 03:44 09.10.2021
1842 Clear 17 1022 80 10000 1.54 360 02:41 09.10.2021
1843 Clear 21 1021 63 10000 2.06 360 23:52 08.10.2021
1844 Clear 22 1021 58 10000 1.54 10 22:59 08.10.2021
1845 Clear 23 1021 57 10000 1.54 10 22:24 08.10.2021
1846 Clear 23 1021 56 10000 1.54 70 21:35 08.10.2021
1847 Clear 21 1022 63 10000 1.54 80 19:39 08.10.2021
1848 Clear 19 1023 71 10000 1.03 60 17:36 08.10.2021
1849 Clouds 17 1023 78 10000 1.03 60 16:53 08.10.2021
1850 Clouds 16 1023 81 10000 1.03 60 16:24 08.10.2021
1851 Mist 10 1022 95 8047 0.51 230 13:58 08.10.2021
1852 Mist 10 1022 95 6437 0.51 230 13:35 08.10.2021
1853 Mist 10 1021 94 6437 0.51 260 11:33 08.10.2021
1854 Mist 11 1021 93 4828 0.51 280 10:41 08.10.2021
1855 Mist 11 1021 91 2012 0.89 267 09:44 08.10.2021
1856 Clear 19 1022 64 10000 0.51 300 00:34 08.10.2021
1857 Clear 22 1022 57 10000 1.03 240 23:22 07.10.2021
1858 Clear 22 1023 55 10000 1.54 300 21:46 07.10.2021
1859 Clear 22 1023 55 10000 1.54 300 21:27 07.10.2021
1860 Clear 22 1024 56 10000 2.06 180 20:28 07.10.2021
1861 Clear 21 1025 60 10000 1.54 170 19:30 07.10.2021
1862 Clear 20 1025 69 10000 1.03 160 18:24 07.10.2021
1863 Clear 17 1026 78 10000 1.54 150 17:27 07.10.2021
1864 Clouds 14 1026 91 10000 1.03 160 15:55 07.10.2021
1865 Mist 11 1027 97 1207 2.06 180 14:24 07.10.2021
1866 Fog 10 1026 97 201 1.54 190 13:43 07.10.2021
1867 Fog 10 1026 96 604 1.03 210 12:48 07.10.2021
1868 Fog 10 1026 95 402 0 0 10:57 07.10.2021
1869 Fog 10 1026 94 402 0 0 10:20 07.10.2021
1870 Mist 10 1026 91 2414 0.51 220 09:34 07.10.2021
1871 Mist 10 1026 90 8047 0.51 230 08:52 07.10.2021
1872 Clear 10 1026 92 10000 1.54 140 07:56 07.10.2021
1873 Clear 10 1026 90 10000 0 0 07:36 07.10.2021
1874 Clear 12 1027 83 10000 0 0 03:54 07.10.2021
1875 Clear 19 1026 60 10000 1.03 260 00:29 07.10.2021
1876 Clear 21 1027 55 10000 1.03 320 22:55 06.10.2021
1877 Clear 21 1027 54 10000 1.03 320 22:23 06.10.2021
1878 Clear 21 1028 63 10000 1.03 190 20:43 06.10.2021
1879 Clear 21 1028 65 10000 1.03 190 20:20 06.10.2021
1880 Clear 19 1029 74 10000 1.54 150 18:43 06.10.2021
1881 Mist 16 1030 85 4828 0.51 20 16:58 06.10.2021
1882 Mist 16 1030 85 4828 0.51 20 16:58 06.10.2021
1883 Fog 13 1030 93 201 0.51 30 15:33 06.10.2021
1884 Fog 10 1029 97 10000 0 0 14:30 06.10.2021
1885 Mist 9 1029 95 9656 1.03 200 13:24 06.10.2021
1886 Fog 9 1029 96 604 0.51 250 12:45 06.10.2021
1887 Fog 9 1028 97 402 0.51 250 12:23 06.10.2021
1888 Fog 8 1028 96 604 0.51 220 10:36 06.10.2021
1889 Fog 9 1028 95 10000 1.03 210 09:39 06.10.2021
1890 Clouds 9 1028 96 10000 1.54 150 08:57 06.10.2021
1891 Mist 9 1028 94 2012 0 0 07:54 06.10.2021
1892 Mist 10 1027 93 2816 0 0 05:37 06.10.2021
1893 Clear 14 1026 82 10000 0.51 210 01:37 06.10.2021
1894 Clouds 17 1026 74 10000 1.03 160 00:20 06.10.2021
1895 Clouds 17 1025 72 10000 0 0 23:50 05.10.2021
1896 Clouds 18 1025 71 10000 0 0 23:29 05.10.2021
1897 Clouds 17 1025 73 10000 1.03 340 22:30 05.10.2021
1898 Clouds 17 1025 73 10000 1.54 340 21:56 05.10.2021
1899 Clouds 17 1025 73 10000 1.54 340 21:56 05.10.2021
1900 Clouds 17 1025 72 10000 1.54 340 21:19 05.10.2021
1901 Clouds 17 1025 74 10000 1.03 340 20:26 05.10.2021
1902 Clouds 16 1025 75 10000 2.06 350 19:50 05.10.2021
1903 Clouds 16 1025 75 10000 2.06 350 19:23 05.10.2021
1904 Clouds 15 1026 77 10000 1.54 350 18:20 05.10.2021
1905 Clouds 12 1025 84 10000 2.57 360 15:28 05.10.2021
1906 Clouds 12 1023 85 10000 2.57 350 13:49 05.10.2021
1907 Clouds 12 1023 85 10000 2.57 350 13:18 05.10.2021
1908 Clouds 12 1023 85 10000 2.57 350 12:33 05.10.2021
1909 Clouds 12 1023 84 10000 2.06 360 11:41 05.10.2021
1910 Clouds 12 1022 84 10000 2.06 360 10:34 05.10.2021
1911 Clouds 14 1021 83 10000 1.03 10 07:38 05.10.2021
1912 Clouds 16 1020 78 10000 0.51 80 01:28 05.10.2021
1913 Clouds 17 1019 73 10000 1.03 70 22:53 04.10.2021
1914 Clouds 16 1019 72 10000 1.54 40 21:23 04.10.2021
1915 Clouds 14 1019 77 10000 2.06 30 18:48 04.10.2021
1916 Clouds 12 1020 77 10000 2.57 10 17:26 04.10.2021
1917 Clear 9 1019 84 10000 2.57 20 15:32 04.10.2021
1918 Clear 8 1019 86 10000 3.6 360 14:46 04.10.2021
1919 Clouds 8 1018 87 10000 3.09 360 13:59 04.10.2021
1920 Clear 7 1018 88 10000 3.09 360 13:31 04.10.2021
1921 Clear 7 1018 87 10000 2.57 10 12:50 04.10.2021
1922 Clear 8 1018 88 10000 3.09 360 11:33 04.10.2021
1923 Clouds 8 1017 88 10000 3.09 10 10:45 04.10.2021
1924 Clear 8 1017 88 10000 3.6 360 09:35 04.10.2021
1925 Clear 9 1017 87 10000 3.6 350 07:53 04.10.2021
1926 Clear 10 1017 86 10000 2.57 360 06:50 04.10.2021
1927 Clouds 16 1015 64 10000 1.54 20 22:51 03.10.2021
1928 Clouds 16 1015 65 10000 2.06 30 21:54 03.10.2021
1929 Clouds 16 1015 65 10000 2.06 30 21:31 03.10.2021
1930 Clouds 16 1015 68 10000 2.06 20 20:45 03.10.2021
1931 Clouds 15 1016 73 10000 2.06 20 19:46 03.10.2021
1932 Clouds 14 1016 80 10000 1.54 20 18:29 03.10.2021
1933 Clouds 13 1016 85 10000 2.06 10 17:37 03.10.2021
1934 Clouds 11 1016 90 10000 2.57 350 15:29 03.10.2021
1935 Clouds 10 1016 93 10000 2.57 360 14:31 03.10.2021
1936 Clouds 10 1016 94 10000 1.54 350 13:36 03.10.2021
1937 Clouds 10 1016 93 10000 2.06 350 12:47 03.10.2021
1938 Rain 10 1016 93 10000 2.06 360 11:37 03.10.2021
1939 Clouds 11 1016 93 10000 1.03 30 09:58 03.10.2021
1940 Clouds 11 1016 94 10000 1.54 360 06:42 03.10.2021
1941 Clouds 12 1015 94 10000 1.54 30 22:59 02.10.2021
1942 Clouds 12 1015 94 10000 1.03 60 21:59 02.10.2021
1943 Rain 12 1015 94 10000 1.03 60 20:33 02.10.2021
1944 Rain 12 1016 95 8047 1.54 90 18:57 02.10.2021
1945 Clouds 12 1016 94 10000 1.54 90 18:20 02.10.2021
1946 Mist 12 1016 94 8047 1.03 150 17:38 02.10.2021
1947 Clouds 12 1016 95 10000 1.54 150 16:39 02.10.2021
1948 Clouds 12 1019 83 10000 0.89 278 07:51 02.10.2021
1949 Clear 11 1020 77 10000 2.06 350 15:37 30.09.2021
1950 Clear 9 1020 85 10000 2.06 340 14:22 30.09.2021
1951 Clouds 8 1019 89 10000 2.06 340 11:59 30.09.2021
1952 Clouds 8 1019 89 10000 2.06 340 11:23 30.09.2021
1953 Clouds 8 1019 87 10000 2.06 350 10:25 30.09.2021
1954 Clouds 8 1019 87 10000 2.06 350 10:25 30.09.2021
1955 Clouds 9 1018 84 10000 2.06 360 08:32 30.09.2021
1956 Clouds 9 1018 85 10000 0.89 295 07:45 30.09.2021
1957 Clouds 10 1018 86 10000 1.54 310 05:25 30.09.2021
1958 Clouds 11 1017 80 10000 0.51 310 02:33 30.09.2021
1959 Clouds 12 1016 76 10000 1.54 360 00:33 30.09.2021
1960 Clouds 13 1016 70 10000 2.57 330 22:42 29.09.2021
1961 Clouds 13 1016 68 10000 1.54 330 21:52 29.09.2021
1962 Clouds 13 1016 70 10000 1.54 280 20:38 29.09.2021
1963 Clouds 13 1016 71 10000 1.54 280 20:19 29.09.2021
1964 Clouds 12 1016 71 10000 1.03 280 19:22 29.09.2021
1965 Clouds 13 1016 69 10000 1.54 320 18:18 29.09.2021
1966 Clouds 12 1016 72 10000 1.54 320 16:55 29.09.2021
1967 Clouds 12 1016 73 10000 1.54 320 16:27 29.09.2021
1968 Clouds 11 1016 75 10000 0.51 300 15:24 29.09.2021
1969 Clouds 10 1015 79 10000 1.54 350 14:37 29.09.2021
1970 Clouds 9 1015 83 10000 2.06 340 13:33 29.09.2021
1971 Clouds 9 1014 81 10000 2.06 340 12:38 29.09.2021
1972 Clouds 10 1014 82 10000 2.06 350 11:20 29.09.2021
1973 Clouds 9 1014 87 10000 0.89 294 10:28 29.09.2021
1974 Clouds 9 1013 86 10000 0.89 295 09:41 29.09.2021
1975 Clouds 10 1013 82 10000 0.89 293 07:51 29.09.2021
1976 Clouds 10 1013 81 10000 1.34 285 06:46 29.09.2021
1977 Clouds 14 1012 60 10000 1.03 280 00:28 29.09.2021
1978 Clouds 15 1012 54 10000 2.06 340 22:26 28.09.2021
1979 Clouds 15 1012 55 10000 1.03 260 21:54 28.09.2021
1980 Clouds 15 1012 55 10000 1.03 260 21:19 28.09.2021
1981 Clouds 15 1012 57 10000 2.06 330 19:49 28.09.2021
1982 Clouds 15 1012 57 10000 2.06 330 19:29 28.09.2021
1983 Clouds 14 1013 59 10000 1.54 360 18:41 28.09.2021
1984 Clear 12 1013 68 10000 2.06 360 16:57 28.09.2021
1985 Clear 10 1013 79 10000 2.06 340 15:21 28.09.2021
1986 Clear 7 1012 89 10000 2.57 330 13:27 28.09.2021
1987 Clear 7 1011 87 10000 2.06 330 12:25 28.09.2021
1988 Clear 8 1011 86 10000 2.57 340 11:48 28.09.2021
1989 Clear 8 1010 86 10000 2.57 340 11:27 28.09.2021
1990 Clear 8 1010 84 10000 2.06 350 10:30 28.09.2021
1991 Clear 9 1010 82 10000 2.57 340 09:29 28.09.2021
1992 Clear 10 1010 83 10000 2.06 10 08:44 28.09.2021
1993 Clear 10 1010 84 10000 2.06 10 08:20 28.09.2021
1994 Clouds 13 1009 92 10000 2.06 320 06:46 28.09.2021
1995 Clouds 15 1007 91 10000 1.03 220 01:38 28.09.2021
1996 Clouds 16 1006 90 10000 1.54 190 00:34 28.09.2021
1997 Clouds 16 1006 91 10000 1.54 180 23:52 27.09.2021
1998 Clouds 16 1006 89 10000 1.54 180 23:25 27.09.2021
1999 Clouds 16 1006 89 10000 1.54 180 22:31 27.09.2021
2000 Clouds 16 1006 89 10000 1.03 190 21:38 27.09.2021
2001 Rain 16 1006 86 10000 1.54 180 20:29 27.09.2021
2002 Rain 16 1006 83 10000 2.06 190 19:40 27.09.2021
2003 Clouds 16 1007 78 10000 1.54 210 18:54 27.09.2021
2004 Clouds 16 1007 77 10000 2.06 190 17:41 27.09.2021
2005 Clouds 16 1007 78 10000 2.06 190 17:21 27.09.2021
2006 Clouds 16 1007 78 10000 2.06 190 17:21 27.09.2021
2007 Clouds 15 1008 76 10000 1.54 190 16:37 27.09.2021
2008 Clouds 15 1008 74 10000 2.06 170 15:39 27.09.2021
2009 Clouds 13 1009 76 10000 2.06 180 13:57 27.09.2021
2010 Clouds 13 1009 77 10000 1.03 180 12:26 27.09.2021
2011 Clouds 13 1009 78 10000 1.54 180 10:51 27.09.2021
2012 Clear 12 1009 82 10000 1.03 190 09:46 27.09.2021
2013 Clouds 13 1009 78 10000 2.06 190 08:26 27.09.2021
2014 Clear 13 1010 71 10000 0.51 190 04:51 27.09.2021
2015 Clear 18 1007 56 10000 1.54 250 00:21 27.09.2021
2016 Clouds 19 1007 54 10000 2.06 200 22:27 26.09.2021
2017 Clouds 19 1007 52 10000 2.06 180 21:31 26.09.2021
2018 Clouds 19 1008 51 10000 1.54 280 20:45 26.09.2021
2019 Clouds 19 1008 51 10000 1.54 280 20:18 26.09.2021
2020 Clouds 19 1009 52 10000 2.57 280 19:37 26.09.2021
2021 Clouds 19 1009 54 10000 1.03 260 18:45 26.09.2021
2022 Clear 18 1010 58 10000 1.54 200 17:50 26.09.2021
2023 Clear 17 1010 58 10000 1.54 200 17:21 26.09.2021
2024 Clouds 16 1010 69 10000 2.06 250 16:28 26.09.2021
2025 Clouds 15 1010 76 10000 1.03 200 15:56 26.09.2021
2026 Clouds 14 1010 81 10000 1.03 210 14:45 26.09.2021
2027 Clouds 14 1010 83 10000 1.03 200 13:45 26.09.2021
2028 Clouds 14 1009 86 10000 1.54 170 12:33 26.09.2021
2029 Clear 15 1009 87 10000 1.54 200 11:59 26.09.2021
2030 Clear 15 1009 88 10000 1.54 200 11:37 26.09.2021
2031 Clouds 14 1009 86 10000 1.54 210 10:23 26.09.2021
2032 Clear 14 1009 88 10000 1.03 200 08:55 26.09.2021
2033 Clouds 16 1012 78 10000 0 0 03:26 26.09.2021
2034 Clear 20 1012 59 10000 2.06 170 00:20 26.09.2021
2035 Clear 21 1013 55 10000 1.03 130 23:23 25.09.2021
2036 Clear 22 1013 54 10000 1.54 140 22:37 25.09.2021
2037 Clear 22 1014 53 10000 2.06 140 21:55 25.09.2021
2038 Clear 22 1014 53 10000 2.06 140 21:30 25.09.2021
2039 Clear 22 1015 55 10000 2.06 220 20:45 25.09.2021
2040 Clear 20 1016 59 10000 1.03 180 18:47 25.09.2021
2041 Clear 19 1017 63 10000 1.54 160 17:47 25.09.2021
2042 Clear 16 1017 78 10000 0 0 15:41 25.09.2021
2043 Clear 13 1017 88 10000 1.03 270 13:57 25.09.2021
2044 Clear 12 1017 88 10000 1.03 270 13:30 25.09.2021
2045 Clear 12 1017 85 10000 0.51 250 12:25 25.09.2021
2046 Clouds 14 1017 78 10000 1.03 300 10:34 25.09.2021
2047 Clouds 15 1017 72 10000 0.51 290 09:26 25.09.2021
2048 Clouds 16 1016 71 10000 2.06 200 07:56 25.09.2021
2049 Clouds 17 1016 69 10000 2.06 180 05:46 25.09.2021
2050 Clear 19 1014 57 10000 3.09 240 23:51 24.09.2021
2051 Clouds 21 1013 55 10000 2.06 230 21:42 24.09.2021
2052 Clouds 21 1013 59 10000 2.06 200 20:34 24.09.2021
2053 Clouds 20 1013 63 10000 1.54 250 19:47 24.09.2021
2054 Clouds 18 1014 67 10000 1.54 190 18:33 24.09.2021
2055 Clouds 17 1014 74 10000 1.54 190 17:54 24.09.2021
2056 Clouds 17 1014 76 10000 1.54 190 17:36 24.09.2021
2057 Clouds 17 1014 80 10000 1.54 190 17:18 24.09.2021
2058 Rain 16 1014 92 8047 0.51 130 13:58 24.09.2021
2059 Rain 16 1014 93 9656 0.51 130 13:18 24.09.2021
2060 Mist 16 1014 93 8047 0.51 190 12:39 24.09.2021
2061 Rain 16 1014 94 8047 0.51 190 12:20 24.09.2021
2062 Rain 18 1012 93 4828 1.54 190 10:27 24.09.2021
2063 Rain 20 1012 89 10000 1.54 200 08:55 24.09.2021
2064 Clouds 21 1012 85 10000 0.51 200 07:35 24.09.2021
2065 Clouds 22 1012 83 10000 0.51 210 06:46 24.09.2021
2066 Clouds 23 1013 75 10000 1.03 150 04:55 24.09.2021
2067 Clouds 26 1012 59 10000 1.54 150 00:26 24.09.2021
2068 Clouds 28 1013 53 10000 2.06 180 22:30 23.09.2021
2069 Clear 29 1013 53 10000 2.57 170 21:56 23.09.2021
2070 Clouds 29 1014 53 10000 2.57 170 20:34 23.09.2021
2071 Clouds 28 1014 57 10000 3.6 170 19:48 23.09.2021
2072 Clear 27 1014 63 10000 3.09 170 17:47 23.09.2021
2073 Clear 23 1014 80 10000 1.54 170 15:32 23.09.2021
2074 Clear 22 1014 85 10000 1.03 160 14:59 23.09.2021
2075 Clear 21 1013 86 10000 1.03 170 13:46 23.09.2021
2076 Clear 21 1013 86 10000 1.03 170 13:21 23.09.2021
2077 Clear 21 1013 87 10000 1.54 190 12:52 23.09.2021
2078 Clear 21 1013 87 10000 1.54 190 12:22 23.09.2021
2079 Clear 21 1013 88 10000 1.54 200 11:40 23.09.2021
2080 Clouds 20 1013 91 10000 0.51 190 10:27 23.09.2021
2081 Clouds 21 1014 90 10000 1.03 190 09:52 23.09.2021
2082 Rain 21 1014 83 10000 1.54 190 08:25 23.09.2021
2083 Clouds 22 1014 85 10000 1.54 190 04:40 23.09.2021
2084 Clouds 24 1014 72 10000 1.54 180 23:35 22.09.2021
2085 Clouds 24 1014 74 10000 1.54 190 22:37 22.09.2021
2086 Clouds 24 1015 72 10000 1.54 150 21:56 22.09.2021
2087 Clouds 25 1015 71 10000 1.54 150 21:34 22.09.2021
2088 Clouds 24 1015 71 10000 2.06 180 20:57 22.09.2021
2089 Clouds 24 1016 71 10000 2.06 170 19:33 22.09.2021
2090 Clouds 24 1017 72 10000 1.03 160 18:40 22.09.2021
2091 Clouds 24 1017 72 10000 1.03 160 18:39 22.09.2021
2092 Clouds 23 1017 75 10000 1.34 171 17:48 22.09.2021
2093 Clouds 20 1018 79 10000 1.34 189 16:38 22.09.2021
2094 Clouds 19 1018 79 10000 0.89 203 15:29 22.09.2021
2095 Clouds 19 1019 80 10000 1.54 180 13:58 22.09.2021
2096 Clouds 18 1019 80 10000 1.54 190 12:19 22.09.2021
2097 Clouds 18 1019 79 10000 1.54 180 10:53 22.09.2021
2098 Clear 18 1020 77 10000 1.03 180 09:25 22.09.2021
2099 Clouds 18 1020 76 10000 1.03 170 08:30 22.09.2021
2100 Clouds 18 1020 76 10000 1.03 170 08:30 22.09.2021
2101 Clear 18 1021 75 10000 1.54 180 07:25 22.09.2021
2102 Clouds 18 1021 73 10000 2.06 180 06:18 22.09.2021
2103 Clouds 18 1022 71 10000 1.54 180 05:36 22.09.2021
2104 Clear 19 1022 65 10000 1.54 190 03:52 22.09.2021
2105 Clear 22 1021 56 10000 1.54 170 00:37 22.09.2021
2106 Clear 23 1022 55 10000 1.54 170 23:24 21.09.2021
2107 Clouds 24 1022 54 10000 2.57 150 21:37 21.09.2021
2108 Clouds 23 1022 60 10000 5.38 163 20:27 21.09.2021
2109 Clouds 23 1023 61 10000 1.79 195 19:22 21.09.2021
2110 Clouds 22 1024 64 10000 1.79 202 17:49 21.09.2021
2111 Clear 21 1024 69 10000 2.57 180 16:38 21.09.2021
2112 Clear 20 1025 72 10000 2.06 160 15:52 21.09.2021
2113 Clear 18 1025 79 10000 1.54 170 14:58 21.09.2021
2114 Clear 17 1025 84 10000 1.54 180 13:57 21.09.2021
2115 Clear 16 1025 85 10000 1.54 180 13:39 21.09.2021
2116 Clear 15 1025 86 10000 1.54 190 12:40 21.09.2021
2117 Clear 16 1024 84 10000 1.54 190 10:33 21.09.2021
2118 Clear 16 1025 77 10000 1.54 180 08:40 21.09.2021
2119 Clear 17 1024 75 10000 1.54 190 07:18 21.09.2021
2120 Clear 23 1025 44 10000 1.54 170 00:48 21.09.2021
2121 Clear 24 1025 41 10000 1.54 140 22:37 20.09.2021
2122 Clear 24 1025 42 10000 1.54 160 21:41 20.09.2021
2123 Clear 23 1025 43 10000 1.03 140 20:58 20.09.2021
2124 Clear 23 1026 52 10000 2.06 150 19:40 20.09.2021
2125 Clear 20 1027 59 10000 1.54 140 17:52 20.09.2021
2126 Clear 18 1027 67 10000 2.06 160 16:50 20.09.2021
2127 Clear 16 1027 75 10000 1.54 160 15:57 20.09.2021
2128 Clear 15 1027 78 10000 1.54 160 15:33 20.09.2021
2129 Clear 12 1027 86 10000 1.03 160 14:25 20.09.2021
2130 Clear 9 1026 88 10000 1.03 210 12:44 20.09.2021
2131 Clear 9 1026 88 10000 1.03 210 12:21 20.09.2021
2132 Clear 10 1025 86 10000 0.51 290 10:36 20.09.2021
2133 Clear 10 1025 85 10000 1.54 120 09:44 20.09.2021
2134 Clear 10 1025 84 10000 1.54 120 09:25 20.09.2021
2135 Clear 10 1024 82 10000 0.45 210 08:31 20.09.2021
2136 Clear 15 1023 61 10000 1.54 270 02:29 20.09.2021
2137 Clear 21 1023 44 10000 1.54 170 22:47 19.09.2021
2138 Clear 21 1023 45 10000 1.54 30 21:48 19.09.2021
2139 Clear 20 1023 46 10000 1.54 30 20:59 19.09.2021
2140 Clear 19 1024 49 10000 2.57 330 19:54 19.09.2021
2141 Clear 18 1024 53 10000 2.57 350 18:42 19.09.2021
2142 Clear 17 1025 57 10000 2.06 10 17:33 19.09.2021
2143 Clear 16 1025 63 10000 3.09 350 16:33 19.09.2021
2144 Clear 14 1025 66 10000 2.57 350 15:31 19.09.2021
2145 Clear 13 1025 70 10000 2.57 360 14:48 19.09.2021
2146 Clear 11 1024 76 10000 2.57 350 13:49 19.09.2021
2147 Clear 10 1023 79 10000 2.57 350 12:52 19.09.2021
2148 Clear 11 1023 77 10000 2.57 350 11:46 19.09.2021
2149 Clear 11 1023 77 10000 2.57 350 11:22 19.09.2021
2150 Clear 12 1022 74 10000 3.09 360 09:51 19.09.2021
2151 Clear 12 1022 73 10000 3.09 360 09:21 19.09.2021
2152 Clear 13 1021 72 10000 0.45 8 06:48 19.09.2021
2153 Clear 13 1021 72 10000 0.45 8 06:48 19.09.2021
2154 Clear 22 1018 45 10000 1.03 10 00:40 19.09.2021
2155 Clear 23 1018 41 10000 2.57 340 22:58 18.09.2021
2156 Clear 24 1018 42 10000 3.09 340 21:56 18.09.2021
2157 Clouds 23 1019 46 10000 2.57 360 20:46 18.09.2021
2158 Haze 22 1019 52 9656 1.03 50 19:42 18.09.2021
2159 Haze 22 1019 52 9656 1.03 50 19:22 18.09.2021
2160 Haze 21 1019 57 4828 1.54 30 18:52 18.09.2021
2161 Clouds 21 1019 59 10000 1.54 30 18:29 18.09.2021
2162 Clouds 19 1019 72 10000 3.09 10 16:35 18.09.2021
2163 Clouds 20 1017 90 10000 1.54 160 13:53 18.09.2021
2164 Clouds 19 1017 90 10000 1.54 160 13:31 18.09.2021
2165 Clouds 19 1017 91 10000 1.03 160 12:52 18.09.2021
2166 Clear 19 1016 91 10000 1.54 200 11:59 18.09.2021
2167 Clear 19 1016 91 10000 1.54 200 11:29 18.09.2021
2168 Clouds 19 1016 89 10000 1.03 180 10:23 18.09.2021
2169 Clouds 19 1017 88 10000 1.54 180 09:23 18.09.2021
2170 Clear 20 1017 85 10000 1.54 190 08:24 18.09.2021
2171 Clouds 24 1019 74 10000 1.34 199 00:52 18.09.2021
2172 Clouds 25 1019 70 10000 2.68 191 23:55 17.09.2021
2173 Clouds 27 1020 65 10000 1.79 187 22:45 17.09.2021
2174 Clouds 26 1020 65 10000 1.79 169 22:22 17.09.2021
2175 Clouds 27 1021 63 10000 2.06 180 21:32 17.09.2021
2176 Clouds 27 1021 63 10000 2.06 180 21:32 17.09.2021
2177 Clouds 26 1023 64 10000 2.06 140 19:31 17.09.2021
2178 Clouds 25 1023 64 10000 1.54 180 18:30 17.09.2021
2179 Clear 21 1024 73 10000 1.54 160 16:35 17.09.2021
2180 Clear 16 1025 85 10000 1.03 170 14:48 17.09.2021
2181 Clear 13 1024 88 10000 1.54 200 11:48 17.09.2021
2182 Clear 13 1024 88 10000 1.54 200 10:21 17.09.2021
2183 Clear 13 1024 82 10000 1.03 130 07:46 17.09.2021
2184 Clear 15 1025 76 10000 0.51 260 05:27 17.09.2021
2185 Clear 22 1024 48 10000 1.03 210 00:31 17.09.2021
2186 Clear 23 1024 48 10000 1.34 172 22:42 16.09.2021
2187 Clear 24 1024 47 10000 0.89 173 22:23 16.09.2021
2188 Clear 23 1025 50 10000 0.45 65 21:35 16.09.2021
2189 Clear 23 1025 51 10000 0.45 198 20:29 16.09.2021
2190 Clear 22 1025 59 10000 0.45 151 18:46 16.09.2021
2191 Clear 22 1025 60 10000 0.45 152 18:18 16.09.2021
2192 Clear 19 1025 70 10000 0.45 297 16:37 16.09.2021
2193 Clear 15 1025 86 10000 0.51 70 14:49 16.09.2021
2194 Clear 12 1024 92 10000 0 0 13:33 16.09.2021
2195 Mist 10 1024 92 6437 0.45 264 12:42 16.09.2021
2196 Mist 11 1022 91 2816 0.51 270 11:49 16.09.2021
2197 Clear 11 1021 91 10000 1.03 120 10:54 16.09.2021
2198 Clear 12 1021 90 10000 0.45 137 10:21 16.09.2021
2199 Clear 12 1020 88 10000 0 0 09:18 16.09.2021
2200 Clear 14 1020 83 10000 1.03 290 07:47 16.09.2021
2201 Clouds 14 1019 82 10000 0 0 06:56 16.09.2021
2202 Clouds 14 1019 82 10000 0 0 06:37 16.09.2021
2203 Clouds 16 1017 72 10000 1.03 300 03:22 16.09.2021
2204 Clouds 19 1013 65 10000 1.03 10 00:46 16.09.2021
2205 Clouds 20 1012 63 10000 1.03 250 23:24 15.09.2021
2206 Clouds 21 1011 63 10000 1.54 270 22:26 15.09.2021
2207 Clouds 22 1010 66 10000 1.54 300 21:30 15.09.2021
2208 Clouds 21 1010 70 10000 1.54 320 20:34 15.09.2021
2209 Clouds 21 1010 70 10000 1.54 270 19:31 15.09.2021
2210 Clouds 21 1010 74 10000 1.54 220 18:41 15.09.2021
2211 Clouds 21 1009 81 10000 1.54 210 17:33 15.09.2021
2212 Clouds 21 1009 87 10000 1.54 210 16:29 15.09.2021
2213 Clouds 20 1008 91 10000 1.54 190 14:59 15.09.2021
2214 Clouds 20 1008 92 10000 1.54 190 14:40 15.09.2021
2215 Clouds 19 1007 94 10000 1.54 190 13:45 15.09.2021
2216 Clouds 19 1007 94 10000 1.54 190 13:26 15.09.2021
2217 Mist 19 1008 94 8047 1.54 200 12:29 15.09.2021
2218 Clouds 19 1008 94 10000 1.54 200 11:50 15.09.2021
2219 Rain 20 1008 91 6437 2.06 340 10:57 15.09.2021
2220 Clouds 21 1006 85 10000 2.57 200 09:59 15.09.2021
2221 Clouds 21 1005 81 10000 2.57 190 08:46 15.09.2021
2222 Clouds 21 1006 76 10000 2.57 190 07:25 15.09.2021
2223 Clouds 21 1013 58 10000 1.54 130 00:41 15.09.2021
2224 Clouds 22 1014 53 10000 2.57 140 22:24 14.09.2021
2225 Clouds 21 1016 54 10000 1.54 190 21:21 14.09.2021
2226 Clouds 21 1016 54 10000 1.54 190 21:21 14.09.2021
2227 Clouds 21 1016 54 10000 1.54 140 20:18 14.09.2021
2228 Clear 20 1018 58 10000 1.54 120 18:44 14.09.2021
2229 Clear 18 1019 63 10000 2.06 80 17:32 14.09.2021
2230 Clear 17 1020 65 10000 1.54 90 16:37 14.09.2021
2231 Clear 13 1020 78 10000 2.06 60 14:32 14.09.2021
2232 Clear 12 1019 83 10000 1.54 360 13:53 14.09.2021
2233 Clear 11 1019 85 10000 0.89 295 11:41 14.09.2021
2234 Clouds 12 1019 79 10000 1.54 340 10:20 14.09.2021
2235 Clouds 13 1019 75 10000 1.03 260 09:45 14.09.2021
2236 Clouds 13 1018 75 10000 1.03 320 07:50 14.09.2021
2237 Clouds 18 1017 53 10000 1.54 360 01:28 14.09.2021
2238 Clouds 21 1016 48 10000 2.57 360 23:27 13.09.2021
2239 Clouds 21 1016 48 10000 2.57 360 22:27 13.09.2021
2240 Clouds 21 1016 49 10000 3.6 360 21:55 13.09.2021
2241 Clouds 21 1016 49 10000 3.6 360 21:23 13.09.2021
2242 Clouds 21 1016 48 10000 3.6 360 19:34 13.09.2021
2243 Clouds 21 1016 48 10000 3.09 10 18:44 13.09.2021
2244 Clouds 19 1017 57 10000 2.57 360 17:21 13.09.2021
2245 Clouds 18 1017 64 10000 2.06 360 16:23 13.09.2021
2246 Clear 16 1016 72 10000 2.57 350 14:43 13.09.2021
2247 Clouds 14 1014 80 10000 0.89 292 11:43 13.09.2021
2248 Clouds 15 1014 76 10000 1.03 300 10:26 13.09.2021
2249 Clouds 15 1014 73 10000 1.03 310 07:57 13.09.2021
2250 Clouds 23 1012 52 10000 1.34 271 00:18 13.09.2021
2251 Clouds 23 1011 50 10000 1.54 250 22:42 12.09.2021
2252 Clouds 24 1011 49 10000 1.54 250 22:21 12.09.2021
2253 Clear 24 1011 47 10000 1.54 330 20:47 12.09.2021
2254 Clear 24 1011 50 10000 2.06 240 19:56 12.09.2021
2255 Clear 23 1011 49 10000 2.06 240 19:29 12.09.2021
2256 Clouds 23 1011 55 10000 2.06 230 18:53 12.09.2021
2257 Clouds 22 1010 69 10000 1.54 320 16:58 12.09.2021
2258 Clouds 21 1010 78 10000 1.03 210 15:41 12.09.2021
2259 Clouds 20 1009 80 10000 1.54 200 14:37 12.09.2021
2260 Clouds 18 1009 85 10000 1.54 190 12:28 12.09.2021
2261 Clouds 19 1009 72 10000 1.54 190 10:19 12.09.2021
2262 Clouds 20 1010 67 10000 2.06 190 08:38 12.09.2021
2263 Clouds 19 1012 67 10000 1.54 190 04:59 12.09.2021
2264 Clouds 22 1014 60 10000 2.06 190 00:46 12.09.2021
2265 Clouds 22 1015 57 10000 2.06 220 22:29 11.09.2021
2266 Clouds 21 1016 58 10000 2.06 200 21:38 11.09.2021
2267 Clear 22 1017 59 10000 2.06 210 19:35 11.09.2021
2268 Clear 21 1017 63 10000 2.57 210 17:56 11.09.2021
2269 Clear 20 1017 65 10000 2.57 210 17:21 11.09.2021
2270 Clouds 17 1017 75 10000 2.57 210 15:24 11.09.2021
2271 Clouds 14 1017 81 10000 0.51 260 13:22 11.09.2021
2272 Clouds 14 1016 78 10000 2.57 270 11:40 11.09.2021
2273 Clouds 14 1016 73 10000 0.51 230 09:42 11.09.2021
2274 Clouds 14 1016 72 10000 1.03 240 08:31 11.09.2021
2275 Clouds 14 1015 71 10000 1.03 250 07:34 11.09.2021
2276 Clear 16 1013 57 10000 0.51 180 02:29 11.09.2021
2277 Clouds 20 1011 51 10000 1.54 360 22:27 10.09.2021
2278 Clouds 20 1011 54 10000 1.54 20 21:56 10.09.2021
2279 Clouds 20 1011 55 10000 1.54 20 21:35 10.09.2021
2280 Clouds 18 1012 65 10000 3.09 360 18:47 10.09.2021
2281 Clouds 17 1012 71 10000 2.06 360 17:42 10.09.2021
2282 Clouds 16 1011 78 10000 2.57 360 15:38 10.09.2021
2283 Clouds 15 1009 89 10000 2.57 330 13:19 10.09.2021
2284 Clouds 15 1008 92 10000 1.34 302 10:32 10.09.2021
2285 Clouds 15 1008 92 10000 1.34 302 10:32 10.09.2021
2286 Clouds 16 1008 91 10000 0.89 309 07:51 10.09.2021
2287 Clouds 17 1008 88 10000 1.54 220 05:23 10.09.2021
2288 Clouds 21 1007 73 10000 1.54 200 23:52 09.09.2021
2289 Clouds 23 1007 68 10000 2.06 200 21:47 09.09.2021
2290 Clouds 23 1007 70 10000 2.06 170 20:47 09.09.2021
2291 Clouds 23 1008 70 10000 2.06 170 20:24 09.09.2021
2292 Clouds 22 1008 73 10000 1.54 210 18:39 09.09.2021
2293 Clear 21 1008 75 10000 2.06 190 17:41 09.09.2021
2294 Clouds 20 1008 79 10000 1.03 170 16:27 09.09.2021
2295 Clear 16 1007 90 10000 1.03 210 13:35 09.09.2021
2296 Mist 16 1007 91 8047 1.03 220 11:50 09.09.2021
2297 Clear 16 1007 93 10000 0.51 220 10:54 09.09.2021
2298 Clear 16 1006 92 10000 1.03 220 09:27 09.09.2021
2299 Clear 17 1006 93 10000 1.54 220 06:55 09.09.2021
2300 Clouds 18 1006 92 10000 1.03 190 04:47 09.09.2021
2301 Clouds 20 1005 86 10000 1.03 170 22:58 08.09.2021
2302 Rain 20 1005 88 10000 1.03 200 21:47 08.09.2021
2303 Clouds 20 1004 87 10000 1.54 180 20:21 08.09.2021
2304 Clouds 20 1005 87 10000 1.03 190 19:44 08.09.2021
2305 Clouds 19 1005 89 10000 1.54 200 18:34 08.09.2021
2306 Rain 18 1005 90 10000 1.03 190 17:58 08.09.2021
2307 Rain 18 1005 91 10000 1.03 190 17:39 08.09.2021
2308 Clouds 18 1006 83 10000 2.06 190 14:50 08.09.2021
2309 Clouds 18 1006 85 10000 2.06 200 13:25 08.09.2021
2310 Clouds 17 1005 86 10000 1.54 200 12:41 08.09.2021
2311 Clouds 17 1005 86 10000 1.54 200 12:21 08.09.2021
2312 Clouds 17 1006 86 10000 1.54 200 11:23 08.09.2021
2313 Clouds 18 1007 82 10000 1.54 200 10:29 08.09.2021
2314 Clouds 17 1007 83 10000 1.54 180 09:36 08.09.2021
2315 Clouds 16 1008 78 10000 1.54 200 07:43 08.09.2021
2316 Clouds 16 1010 78 10000 0.51 210 05:46 08.09.2021
2317 Clouds 22 1011 55 10000 0.51 280 23:18 07.09.2021
2318 Clouds 22 1011 54 10000 1.54 210 22:19 07.09.2021
2319 Clouds 21 1012 57 10000 1.03 350 20:40 07.09.2021
2320 Clouds 20 1012 64 10000 1.54 250 18:52 07.09.2021
2321 Clouds 20 1012 64 10000 1.54 250 18:24 07.09.2021
2322 Clouds 18 1012 72 10000 2.06 230 16:59 07.09.2021
2323 Clear 17 1012 77 10000 2.06 210 15:56 07.09.2021
2324 Clear 15 1012 86 10000 1.54 200 14:47 07.09.2021
2325 Clear 14 1011 91 10000 1.03 200 13:29 07.09.2021
2326 Clear 13 1010 91 10000 1.54 200 11:58 07.09.2021
2327 Clear 14 1009 90 10000 1.03 180 10:45 07.09.2021
2328 Clear 15 1008 87 10000 1.03 180 08:47 07.09.2021
2329 Clear 14 1008 86 10000 1.54 170 07:46 07.09.2021
2330 Clear 15 1008 87 10000 1.03 180 06:19 07.09.2021
2331 Clear 16 1006 84 10000 1.54 190 02:38 07.09.2021
2332 Clouds 18 1005 79 10000 1.03 200 00:55 07.09.2021
2333 Clouds 18 1005 79 10000 1.03 230 23:43 06.09.2021
2334 Clouds 18 1005 81 10000 1.03 230 23:21 06.09.2021
2335 Rain 18 1004 81 10000 2.06 210 22:46 06.09.2021
2336 Clouds 19 1004 79 10000 1.03 210 21:52 06.09.2021
2337 Rain 17 1005 88 10000 1.03 210 19:44 06.09.2021
2338 Rain 17 1005 88 10000 1.03 210 19:18 06.09.2021
2339 Rain 18 1005 83 9656 1.03 230 18:33 06.09.2021
2340 Clouds 20 1005 76 10000 1.54 180 17:50 06.09.2021
2341 Clouds 19 1005 87 10000 1.03 180 16:20 06.09.2021
2342 Clouds 19 1005 87 10000 1.03 180 16:20 06.09.2021
2343 Clouds 17 1006 92 10000 1.03 160 14:37 06.09.2021
2344 Mist 15 1005 94 9656 1.03 220 12:49 06.09.2021
2345 Clear 15 1005 94 10000 1.54 200 11:43 06.09.2021
2346 Clouds 16 1005 95 10000 2.57 240 10:19 06.09.2021
2347 Clouds 16 1005 95 10000 0.45 146 07:35 06.09.2021
2348 Clouds 18 1005 93 10000 1.03 200 02:54 06.09.2021
2349 Mist 18 1004 90 8047 0.51 190 23:20 05.09.2021
2350 Rain 19 1004 92 10000 1.03 180 22:32 05.09.2021
2351 Rain 20 1004 87 8047 0.51 120 21:55 05.09.2021
2352 Rain 21 1004 78 10000 0.51 120 21:19 05.09.2021
2353 Clouds 22 1006 64 10000 1.54 180 19:30 05.09.2021
2354 Clouds 20 1007 76 10000 1.03 180 17:51 05.09.2021
2355 Clouds 18 1008 86 10000 1.03 190 15:43 05.09.2021
2356 Clouds 17 1008 87 10000 1.54 200 14:56 05.09.2021
2357 Clouds 17 1008 82 10000 1.54 200 12:44 05.09.2021
2358 Clouds 17 1009 80 10000 1.54 190 11:31 05.09.2021
2359 Clouds 17 1009 78 10000 1.54 190 10:36 05.09.2021
2360 Clouds 17 1009 75 10000 1.54 190 09:33 05.09.2021
2361 Clouds 17 1010 72 10000 1.03 210 08:28 05.09.2021
2362 Clouds 19 1012 64 10000 0.51 260 03:22 05.09.2021
2363 Clouds 23 1012 49 10000 1.03 230 00:37 05.09.2021
2364 Clouds 24 1012 48 10000 2.06 220 23:54 04.09.2021
2365 Clouds 24 1012 46 10000 2.06 220 23:21 04.09.2021
2366 Clear 25 1012 42 10000 1.54 320 22:34 04.09.2021
2367 Clear 24 1014 42 10000 2.06 270 20:21 04.09.2021
2368 Clear 23 1014 44 10000 1.54 140 19:33 04.09.2021
2369 Clear 21 1016 56 10000 1.03 230 17:21 04.09.2021
2370 Clear 16 1016 78 10000 0.51 20 14:29 04.09.2021
2371 Clouds 14 1015 82 10000 1.03 350 11:22 04.09.2021
2372 Clear 15 1015 81 10000 2.06 330 10:32 04.09.2021
2373 Clear 16 1015 77 10000 2.06 320 07:32 04.09.2021
2374 Clouds 22 1014 61 10000 1.54 360 00:49 04.09.2021
2375 Clouds 22 1014 61 10000 1.54 360 00:49 04.09.2021
2376 Clouds 23 1014 56 10000 2.06 270 23:39 03.09.2021
2377 Clouds 23 1014 57 10000 2.06 270 23:19 03.09.2021
2378 Clouds 23 1015 52 10000 1.03 320 21:41 03.09.2021
2379 Clouds 23 1016 54 10000 2.57 280 20:54 03.09.2021
2380 Clouds 22 1016 56 10000 2.57 280 20:24 03.09.2021
2381 Clouds 21 1016 61 10000 1.54 300 19:33 03.09.2021
2382 Clouds 21 1016 61 10000 1.54 300 19:33 03.09.2021
2383 Clouds 21 1017 64 10000 0.51 360 18:21 03.09.2021
2384 Clouds 19 1017 70 10000 1.54 30 16:47 03.09.2021
2385 Clouds 17 1017 75 10000 2.06 10 15:38 03.09.2021
2386 Clear 14 1016 85 10000 2.06 350 13:48 03.09.2021
2387 Clear 13 1016 86 10000 2.57 330 11:21 03.09.2021
2388 Clouds 14 1015 84 10000 2.57 310 09:21 03.09.2021
2389 Clouds 15 1015 80 10000 2.06 310 08:18 03.09.2021
2390 Clouds 15 1015 77 10000 2.06 320 06:48 03.09.2021
2391 Clouds 19 1012 57 10000 2.57 350 23:56 02.09.2021
2392 Clouds 20 1012 53 10000 1.54 350 21:55 02.09.2021
2393 Clouds 20 1012 53 10000 2.06 340 20:40 02.09.2021
2394 Clouds 19 1012 54 10000 2.57 20 18:27 02.09.2021
2395 Clear 17 1012 62 10000 2.57 40 16:30 02.09.2021
2396 Clouds 15 1012 67 10000 3.09 20 15:30 02.09.2021
2397 Clear 12 1011 75 10000 3.6 360 13:28 02.09.2021
2398 Clear 12 1011 74 10000 3.6 10 11:43 02.09.2021
2399 Clear 12 1011 72 10000 3.09 10 10:53 02.09.2021
2400 Clear 14 1011 64 10000 3.09 10 08:57 02.09.2021
2401 Clear 16 1011 60 10000 2.57 20 07:22 02.09.2021
2402 Clear 16 1011 60 10000 2.57 20 07:22 02.09.2021
2403 Clear 17 1011 54 10000 2.06 360 05:31 02.09.2021
2404 Clear 19 1011 48 10000 1.03 300 02:36 02.09.2021
2405 Clear 20 1011 44 10000 1.54 340 01:48 02.09.2021
2406 Clear 22 1010 38 10000 1.03 270 23:41 01.09.2021
2407 Clouds 23 1010 40 10000 1.03 270 22:44 01.09.2021
2408 Clouds 23 1010 39 10000 1.54 200 21:58 01.09.2021
2409 Clouds 23 1010 40 10000 1.54 200 21:29 01.09.2021
2410 Clear 23 1011 47 10000 1.54 300 19:33 01.09.2021
2411 Clear 20 1012 54 10000 2.57 10 17:51 01.09.2021
2412 Clear 19 1011 57 10000 2.06 20 16:58 01.09.2021
2413 Clear 19 1011 58 10000 2.06 20 16:35 01.09.2021
2414 Clear 16 1011 71 10000 0.51 360 13:57 01.09.2021
2415 Clear 14 1010 71 10000 1.03 300 11:47 01.09.2021
2416 Clear 14 1010 71 10000 1.03 300 11:47 01.09.2021
2417 Clear 15 1009 67 10000 1.03 10 09:41 01.09.2021
2418 Clear 17 1009 65 10000 1.03 330 07:58 01.09.2021
2419 Clear 17 1008 66 10000 3.6 350 06:42 01.09.2021
2420 Clouds 25 1005 45 10000 2.57 260 23:29 31.08.2021
2421 Clouds 26 1005 47 10000 1.54 280 21:57 31.08.2021
2422 Clouds 25 1006 53 10000 2.06 240 19:49 31.08.2021
2423 Clouds 24 1006 55 10000 2.06 280 18:59 31.08.2021
2424 Clear 24 1006 60 10000 2.06 220 17:40 31.08.2021
2425 Clear 23 1006 60 10000 2.06 220 17:21 31.08.2021
2426 Clear 23 1006 60 10000 2.06 220 17:21 31.08.2021
2427 Clear 22 1006 67 10000 2.06 290 16:28 31.08.2021
2428 Clear 20 1006 78 10000 2.06 270 14:57 31.08.2021
2429 Clear 19 1005 81 10000 1.54 230 11:46 31.08.2021
2430 Clear 19 1005 80 10000 1.54 230 11:18 31.08.2021
2431 Clear 19 1005 77 10000 1.54 210 10:42 31.08.2021
2432 Clear 20 1005 76 10000 1.54 190 09:41 31.08.2021
2433 Clear 21 1005 74 10000 1.54 190 07:39 31.08.2021
2434 Clouds 22 1005 71 10000 1.54 200 05:56 31.08.2021
2435 Clear 28 1005 46 10000 2.06 240 23:36 30.08.2021
2436 Clear 28 1005 44 10000 3.09 230 22:32 30.08.2021
2437 Clear 28 1005 46 10000 1.54 240 21:35 30.08.2021
2438 Clouds 28 1005 48 10000 2.06 260 20:40 30.08.2021
2439 Clouds 28 1006 51 10000 2.06 210 19:33 30.08.2021
2440 Clouds 27 1006 58 10000 1.54 210 18:58 30.08.2021
2441 Clouds 26 1006 73 10000 1.54 230 17:49 30.08.2021
2442 Clouds 24 1007 92 10000 1.54 190 16:27 30.08.2021
2443 Clouds 23 1007 94 10000 2.06 190 15:45 30.08.2021
2444 Mist 22 1007 95 3621 1.54 200 13:58 30.08.2021
2445 Clouds 22 1008 94 10000 1.03 190 12:58 30.08.2021
2446 Clouds 22 1008 91 10000 2.06 190 10:42 30.08.2021
2447 Clouds 21 1014 92 10000 2.06 200 03:24 30.08.2021
2448 Clouds 21 1016 92 10000 2.06 180 21:36 29.08.2021
2449 Rain 22 1018 86 10000 0.51 30 20:48 29.08.2021
2450 Clouds 22 1019 83 10000 0.51 70 19:28 29.08.2021
2451 Clouds 22 1019 84 10000 1.03 40 18:24 29.08.2021
2452 Mist 18 1021 93 10000 0.51 330 15:58 29.08.2021
2453 Mist 17 1021 96 2816 1.54 10 14:28 29.08.2021
2454 Mist 17 1021 94 4828 0.51 350 13:55 29.08.2021
2455 Mist 17 1021 94 4828 0.51 350 13:55 29.08.2021
2456 Mist 17 1021 94 3219 1.54 30 12:57 29.08.2021
2457 Mist 17 1021 94 9656 0.51 360 11:59 29.08.2021
2458 Mist 17 1021 94 4023 0.51 360 11:39 29.08.2021
2459 Drizzle 17 1021 92 10000 0 0 10:46 29.08.2021
2460 Drizzle 17 1021 91 10000 0 0 10:28 29.08.2021
2461 Clouds 17 1021 88 10000 1.03 10 09:26 29.08.2021
2462 Clouds 18 1023 84 10000 1.54 120 04:18 29.08.2021
2463 Mist 18 1025 81 8047 1.54 50 22:43 28.08.2021
2464 Clouds 20 1025 68 10000 1.54 100 20:31 28.08.2021
2465 Clouds 19 1026 72 10000 1.54 50 19:19 28.08.2021
2466 Clouds 17 1026 74 10000 2.06 60 18:22 28.08.2021
2467 Clouds 17 1026 74 10000 2.06 20 17:45 28.08.2021
2468 Clouds 17 1026 67 10000 1.54 30 16:28 28.08.2021
2469 Drizzle 16 1026 73 10000 1.54 360 14:51 28.08.2021
2470 Clouds 16 1026 74 10000 1.03 20 13:47 28.08.2021
2471 Rain 16 1026 73 10000 1.54 40 12:47 28.08.2021
2472 Rain 16 1026 71 10000 1.54 40 12:24 28.08.2021
2473 Clouds 16 1026 65 10000 1.54 20 10:45 28.08.2021
2474 Clouds 17 1026 60 10000 2.57 30 09:34 28.08.2021
2475 Clouds 18 1026 56 10000 1.54 50 07:26 28.08.2021
2476 Clear 23 1023 46 10000 2.57 80 22:57 27.08.2021
2477 Clear 23 1023 47 10000 2.06 50 21:26 27.08.2021
2478 Clouds 23 1024 48 10000 2.57 40 20:35 27.08.2021
2479 Clouds 22 1024 50 10000 3.6 30 19:30 27.08.2021
2480 Clear 22 1023 51 10000 3.09 40 18:38 27.08.2021
2481 Clouds 21 1023 54 10000 2.57 40 17:38 27.08.2021
2482 Clouds 20 1023 59 10000 2.57 50 16:28 27.08.2021
2483 Clear 19 1022 65 10000 2.57 20 14:44 27.08.2021
2484 Clouds 19 1021 66 10000 3.09 20 12:56 27.08.2021
2485 Clouds 20 1020 64 10000 2.57 30 11:43 27.08.2021
2486 Clouds 21 1020 61 10000 3.09 20 10:48 27.08.2021
2487 Clouds 22 1019 59 10000 2.06 20 09:52 27.08.2021
2488 Clouds 23 1019 58 10000 3.6 20 08:55 27.08.2021
2489 Clouds 23 1019 58 10000 3.6 20 08:55 27.08.2021
2490 Clouds 23 1018 59 10000 2.57 20 07:39 27.08.2021
2491 Clear 24 1017 58 10000 0.51 40 05:35 27.08.2021
2492 Clear 31 1016 41 10000 1.54 280 00:39 27.08.2021
2493 Clear 32 1015 39 10000 1.54 270 23:52 26.08.2021
2494 Clouds 33 1016 41 10000 2.06 270 22:23 26.08.2021
2495 Clear 32 1016 42 10000 2.57 260 21:32 26.08.2021
2496 Clouds 31 1016 56 10000 2.06 250 19:30 26.08.2021
2497 Clear 30 1017 64 10000 1.54 250 17:50 26.08.2021
2498 Clear 30 1017 65 10000 1.54 250 17:25 26.08.2021
2499 Clear 29 1017 69 10000 2.06 210 16:26 26.08.2021
2500 Clear 25 1017 80 10000 2.06 240 14:20 26.08.2021
2501 Clear 24 1017 81 10000 1.54 210 13:20 26.08.2021
2502 Clear 24 1017 81 10000 1.54 200 12:33 26.08.2021
2503 Clouds 24 1016 81 10000 1.54 200 11:22 26.08.2021
2504 Clear 25 1016 78 10000 2.06 200 08:36 26.08.2021
2505 Clear 25 1016 78 10000 1.54 190 07:54 26.08.2021
2506 Clouds 32 1016 51 10000 1.54 210 23:25 25.08.2021
2507 Clouds 32 1016 50 10000 1.54 200 22:37 25.08.2021
2508 Clouds 32 1016 50 10000 1.54 200 22:18 25.08.2021
2509 Clear 32 1017 50 10000 2.57 200 20:57 25.08.2021
2510 Clear 32 1017 49 10000 2.57 200 20:29 25.08.2021
2511 Clear 31 1018 54 10000 3.09 200 18:46 25.08.2021
2512 Clear 30 1018 57 10000 2.57 210 17:52 25.08.2021
2513 Clear 26 1018 65 10000 1.54 190 15:51 25.08.2021
2514 Clear 25 1018 67 10000 1.54 190 15:26 25.08.2021
2515 Clear 24 1018 71 10000 2.06 190 14:45 25.08.2021
2516 Clear 22 1017 77 10000 1.03 190 13:44 25.08.2021
2517 Clear 21 1017 81 10000 2.57 280 11:36 25.08.2021
2518 Clear 22 1016 80 10000 2.57 290 10:56 25.08.2021
2519 Clear 22 1016 82 10000 2.06 260 09:59 25.08.2021
2520 Clear 22 1016 82 10000 2.06 260 09:30 25.08.2021
2521 Clear 22 1015 79 10000 0.45 236 08:33 25.08.2021
2522 Clear 24 1015 69 10000 1.54 270 06:19 25.08.2021
2523 Clouds 31 1012 43 10000 1.03 360 00:55 25.08.2021
2524 Clouds 32 1011 46 10000 2.57 300 22:52 24.08.2021
2525 Clouds 32 1011 45 10000 1.54 300 20:54 24.08.2021
2526 Clouds 32 1011 48 10000 2.06 340 19:54 24.08.2021
2527 Clouds 30 1011 53 10000 2.57 10 18:54 24.08.2021
2528 Clouds 29 1011 59 10000 1.54 20 17:52 24.08.2021
2529 Clouds 29 1011 62 10000 1.54 20 17:21 24.08.2021
2530 Clear 25 1010 79 10000 1.03 240 14:56 24.08.2021
2531 Clouds 23 1010 85 10000 1.54 250 13:38 24.08.2021
2532 Clouds 22 1010 88 10000 1.03 240 12:41 24.08.2021
2533 Clear 22 1009 88 10000 0.51 250 11:19 24.08.2021
2534 Clouds 22 1009 88 10000 1.54 180 10:46 24.08.2021
2535 Clouds 22 1009 85 10000 1.54 210 09:24 24.08.2021
2536 Clouds 23 1009 81 10000 1.03 240 07:35 24.08.2021
2537 Clouds 24 1009 76 10000 2.06 180 05:37 24.08.2021
2538 Clouds 27 1009 64 10000 1.03 180 02:44 24.08.2021
2539 Clouds 30 1009 58 10000 2.57 150 23:31 23.08.2021
2540 Clouds 30 1010 58 10000 2.06 170 22:43 23.08.2021
2541 Clouds 30 1010 58 10000 2.06 190 20:59 23.08.2021
2542 Clouds 29 1011 59 10000 1.54 170 19:39 23.08.2021
2543 Clouds 27 1012 67 10000 1.54 180 17:45 23.08.2021
2544 Clouds 25 1012 75 10000 2.06 170 15:37 23.08.2021
2545 Clouds 22 1012 83 10000 1.54 60 13:53 23.08.2021
2546 Clouds 22 1011 85 10000 1.54 10 12:31 23.08.2021
2547 Clouds 22 1011 82 10000 1.03 60 10:47 23.08.2021
2548 Clouds 23 1011 81 10000 1.54 40 09:54 23.08.2021
2549 Clouds 23 1011 78 10000 1.54 50 08:35 23.08.2021
2550 Clouds 24 1011 75 10000 2.06 80 07:20 23.08.2021
2551 Clouds 24 1011 73 10000 2.06 110 06:40 23.08.2021
2552 Clear 29 1011 59 10000 1.54 100 01:36 23.08.2021
2553 Clear 31 1011 55 10000 2.06 110 00:45 23.08.2021
2554 Clouds 32 1012 56 10000 2.57 130 22:42 22.08.2021
2555 Clouds 32 1012 56 10000 2.57 150 21:18 22.08.2021
2556 Clear 31 1012 61 10000 0.89 177 20:19 22.08.2021
2557 Clouds 30 1013 66 10000 1.54 190 18:32 22.08.2021
2558 Clouds 26 1014 78 10000 1.03 150 15:49 22.08.2021
2559 Clouds 25 1014 81 10000 1.03 120 14:54 22.08.2021
2560 Clouds 24 1014 84 10000 1.03 200 13:47 22.08.2021
2561 Clouds 24 1014 85 10000 1.03 200 13:19 22.08.2021
2562 Clear 23 1013 86 10000 1.03 190 12:41 22.08.2021
2563 Clouds 23 1013 86 10000 1.54 190 11:45 22.08.2021
2564 Clouds 23 1013 85 10000 1.54 190 11:20 22.08.2021
2565 Clear 24 1013 82 10000 1.03 190 08:42 22.08.2021
2566 Clouds 24 1013 81 10000 1.03 190 07:51 22.08.2021
2567 Clouds 27 1013 69 10000 1.54 150 03:38 22.08.2021
2568 Clear 33 1012 53 10000 2.06 130 22:37 21.08.2021
2569 Clear 33 1012 53 10000 2.06 130 22:37 21.08.2021
2570 Clear 33 1012 52 10000 2.57 160 21:35 21.08.2021
2571 Clear 32 1014 61 10000 1.03 140 18:55 21.08.2021
2572 Clear 31 1014 59 10000 1.03 140 18:37 21.08.2021
2573 Clear 28 1014 73 10000 1.03 30 16:58 21.08.2021
2574 Clear 27 1014 74 10000 1.03 30 16:32 21.08.2021
2575 Clear 26 1014 79 10000 2.06 30 15:39 21.08.2021
2576 Clear 25 1014 80 10000 2.06 30 15:21 21.08.2021
2577 Mist 23 1014 88 9656 2.06 20 13:43 21.08.2021
2578 Clear 22 1014 89 10000 2.06 10 12:39 21.08.2021
2579 Clear 23 1013 86 10000 1.03 340 10:54 21.08.2021
2580 Clouds 24 1013 83 10000 1.03 0 07:53 21.08.2021
2581 Clear 31 1011 56 10000 1.03 210 00:44 21.08.2021
2582 Clear 32 1011 51 10000 1.03 230 22:28 20.08.2021
2583 Clear 30 1012 57 10000 1.54 320 19:31 20.08.2021
2584 Clear 28 1013 68 10000 2.06 10 17:35 20.08.2021
2585 Clouds 23 1012 88 10000 1.03 300 14:34 20.08.2021
2586 Mist 21 1012 93 9656 1.03 340 11:59 20.08.2021
2587 Mist 21 1012 93 4828 1.03 340 11:29 20.08.2021
2588 Mist 22 1012 94 9656 0.45 218 10:22 20.08.2021
2589 Clouds 22 1012 92 10000 2.57 300 09:27 20.08.2021
2590 Clouds 23 1012 92 10000 0.45 318 08:36 20.08.2021
2591 Clouds 23 1013 92 10000 0.51 320 04:42 20.08.2021
2592 Clouds 23 1013 92 10000 0.51 320 04:20 20.08.2021
2593 Rain 25 1014 84 10000 1.03 40 23:27 19.08.2021
2594 Rain 26 1014 80 10000 0.51 10 22:38 19.08.2021
2595 Clouds 26 1015 80 10000 1.03 350 21:55 19.08.2021
2596 Rain 25 1015 84 10000 0.51 210 20:20 19.08.2021
2597 Rain 24 1016 88 10000 1.03 30 17:59 19.08.2021
2598 Clouds 24 1016 88 10000 1.03 80 16:55 19.08.2021
2599 Clouds 22 1017 93 10000 1.03 160 14:37 19.08.2021
2600 Clouds 21 1017 94 10000 0 0 12:50 19.08.2021
2601 Mist 21 1017 94 9656 0 0 12:28 19.08.2021
2602 Mist 21 1017 94 9656 0.45 182 10:56 19.08.2021
2603 Clouds 21 1018 93 10000 0.45 131 09:49 19.08.2021
2604 Clouds 21 1018 93 10000 1.54 120 09:28 19.08.2021
2605 Clear 22 1018 92 10000 0.51 290 08:33 19.08.2021
2606 Clear 23 1019 87 10000 1.03 240 05:39 19.08.2021
2607 Clear 26 1019 78 10000 1.03 190 02:20 19.08.2021
2608 Clear 29 1019 64 10000 1.03 210 23:30 18.08.2021
2609 Clouds 29 1019 62 10000 2.06 240 22:38 18.08.2021
2610 Clouds 29 1019 63 10000 2.57 220 21:34 18.08.2021
2611 Clouds 29 1020 68 10000 1.54 270 20:20 18.08.2021
2612 Clouds 28 1020 71 10000 1.54 220 19:26 18.08.2021
2613 Clouds 27 1021 73 10000 1.03 300 18:34 18.08.2021
2614 Clouds 26 1021 79 10000 1.54 210 17:24 18.08.2021
2615 Clouds 24 1021 87 10000 1.03 180 15:41 18.08.2021
2616 Clouds 23 1021 88 10000 1.03 180 15:21 18.08.2021
2617 Clouds 22 1020 92 10000 0.51 200 13:25 18.08.2021
2618 Clouds 21 1020 93 10000 1.03 210 12:39 18.08.2021
2619 Clouds 21 1020 92 10000 1.03 210 12:21 18.08.2021
2620 Clouds 22 1020 91 10000 1.03 220 08:59 18.08.2021
2621 Clouds 22 1020 87 10000 1.54 190 03:21 18.08.2021
2622 Clouds 24 1020 74 10000 1.54 180 22:40 17.08.2021
2623 Rain 24 1020 71 10000 1.54 180 22:21 17.08.2021
2624 Clouds 25 1020 67 10000 1.54 150 21:22 17.08.2021
2625 Clouds 25 1020 66 10000 2.06 180 20:42 17.08.2021
2626 Clouds 23 1021 66 10000 2.06 190 18:49 17.08.2021
2627 Clouds 24 1021 66 10000 1.54 150 17:26 17.08.2021
2628 Clouds 23 1021 68 10000 1.03 180 16:28 17.08.2021
2629 Clouds 21 1022 72 10000 1.54 160 15:35 17.08.2021
2630 Clear 17 1021 82 10000 0.51 280 13:26 17.08.2021
2631 Clear 17 1021 82 10000 0.51 190 11:25 17.08.2021
2632 Clear 17 1021 77 10000 0.51 220 09:20 17.08.2021
2633 Clear 18 1021 72 10000 0.51 230 07:37 17.08.2021
2634 Clear 26 1021 41 10000 1.54 230 23:29 16.08.2021
2635 Clear 26 1021 41 10000 2.06 210 22:54 16.08.2021
2636 Clear 26 1021 40 10000 2.06 210 22:36 16.08.2021
2637 Clear 27 1022 40 10000 2.06 200 21:52 16.08.2021
2638 Clear 26 1022 42 10000 2.57 160 20:53 16.08.2021
2639 Clear 25 1023 44 10000 2.57 160 19:44 16.08.2021
2640 Clear 25 1023 44 10000 2.57 160 19:22 16.08.2021
2641 Clear 24 1024 46 10000 1.54 220 18:21 16.08.2021
2642 Clear 24 1024 46 10000 1.54 190 17:51 16.08.2021
2643 Clear 20 1024 59 10000 1.54 190 15:29 16.08.2021
2644 Clear 18 1024 69 10000 1.03 170 14:36 16.08.2021
2645 Clear 15 1024 75 10000 0.51 160 13:30 16.08.2021
2646 Clear 13 1024 83 10000 1.03 260 12:31 16.08.2021
2647 Clear 13 1023 82 10000 1.54 120 10:37 16.08.2021
2648 Clear 14 1023 78 10000 0.45 225 08:44 16.08.2021
2649 Clear 15 1023 74 10000 0.45 273 07:33 16.08.2021
2650 Clear 16 1023 71 10000 1.03 280 06:35 16.08.2021
2651 Clear 21 1022 51 10000 0.51 300 02:18 16.08.2021
2652 Clear 24 1023 40 10000 2.06 10 21:53 15.08.2021
2653 Clouds 24 1024 42 10000 1.03 310 20:28 15.08.2021
2654 Clouds 23 1025 42 10000 2.06 360 18:47 15.08.2021
2655 Clear 22 1025 44 10000 3.09 10 17:54 15.08.2021
2656 Clear 22 1025 44 10000 3.09 10 17:32 15.08.2021
2657 Clear 20 1026 50 10000 3.09 360 16:24 15.08.2021
2658 Clear 17 1025 62 10000 1.54 20 14:42 15.08.2021
2659 Clear 17 1025 62 10000 1.54 20 14:42 15.08.2021
2660 Clear 15 1025 70 10000 2.06 10 13:55 15.08.2021
2661 Clear 14 1023 75 10000 2.06 340 11:18 15.08.2021
2662 Clear 16 1022 70 10000 4.63 320 08:50 15.08.2021
2663 Clear 23 1018 46 10000 0.51 320 01:55 15.08.2021
2664 Clear 25 1018 43 10000 1.03 110 00:37 15.08.2021
2665 Clouds 26 1017 43 10000 2.06 330 21:59 14.08.2021
2666 Clear 27 1017 44 10000 2.06 230 20:58 14.08.2021
2667 Clear 27 1017 47 10000 2.06 240 19:44 14.08.2021
2668 Clear 26 1016 53 10000 1.54 250 18:40 14.08.2021
2669 Clouds 24 1016 63 10000 2.06 240 16:59 14.08.2021
2670 Clouds 22 1016 74 10000 1.03 210 15:47 14.08.2021
2671 Rain 22 1015 79 10000 1.03 280 14:25 14.08.2021
2672 Clouds 23 1014 82 10000 1.03 260 12:19 14.08.2021
2673 Clouds 24 1013 84 10000 0.51 240 10:45 14.08.2021
2674 Clouds 24 1013 76 10000 1.03 260 07:48 14.08.2021
2675 Clouds 31 1013 60 10000 1.54 220 23:53 13.08.2021
2676 Clouds 32 1013 55 10000 1.54 250 22:27 13.08.2021
2677 Clouds 32 1013 57 10000 1.54 300 20:47 13.08.2021
2678 Clouds 31 1014 63 10000 2.06 220 18:48 13.08.2021
2679 Clouds 30 1014 65 10000 2.06 200 17:55 13.08.2021
2680 Clouds 28 1015 70 10000 1.54 190 16:25 13.08.2021
2681 Clear 23 1014 86 10000 1.54 180 13:30 13.08.2021
2682 Clear 22 1014 90 10000 2.57 250 11:20 13.08.2021
2683 Clear 23 1013 87 10000 1.03 230 09:42 13.08.2021
2684 Clear 23 1013 85 10000 1.54 220 08:36 13.08.2021
2685 Clear 24 1012 84 10000 1.54 190 07:20 13.08.2021
2686 Clouds 25 1012 81 10000 1.54 200 04:59 13.08.2021
2687 Clouds 29 1010 65 10000 2.57 200 23:37 12.08.2021
2688 Clouds 29 1010 67 10000 2.06 210 21:21 12.08.2021
2689 Clouds 29 1010 68 10000 1.54 190 20:22 12.08.2021
2690 Clouds 29 1010 64 10000 1.03 200 19:45 12.08.2021
2691 Clouds 29 1010 64 10000 1.03 200 19:45 12.08.2021
2692 Clear 29 1011 63 10000 2.57 220 17:51 12.08.2021
2693 Clouds 28 1011 65 10000 3.09 200 16:29 12.08.2021
2694 Clouds 27 1011 75 10000 2.06 210 14:53 12.08.2021
2695 Clouds 24 1010 83 10000 2.06 190 12:59 12.08.2021
2696 Clouds 24 1009 85 10000 1.54 180 11:20 12.08.2021
2697 Clear 24 1010 79 10000 1.54 180 07:57 12.08.2021
2698 Clouds 29 1009 66 10000 1.03 210 01:52 12.08.2021
2699 Clear 31 1011 60 10000 2.57 200 22:54 11.08.2021
2700 Clouds 30 1011 63 10000 2.06 230 21:23 11.08.2021
2701 Clouds 28 1011 78 10000 2.06 220 18:29 11.08.2021
2702 Clouds 24 1012 92 10000 1.54 190 16:30 11.08.2021
2703 Mist 24 1011 94 9656 1.54 220 15:21 11.08.2021
2704 Mist 23 1011 93 8047 1.54 210 14:22 11.08.2021
2705 Mist 23 1011 92 9656 1.03 200 12:35 11.08.2021
2706 Clouds 23 1011 92 10000 1.54 190 11:47 11.08.2021
2707 Clouds 23 1011 93 10000 1.54 190 11:22 11.08.2021
2708 Mist 23 1011 93 8047 0.51 220 10:20 11.08.2021
2709 Clouds 23 1012 92 10000 2.06 220 08:31 11.08.2021
2710 Clear 30 1013 62 10000 1.54 180 00:33 11.08.2021
2711 Clear 31 1014 56 10000 2.06 180 22:32 10.08.2021
2712 Clouds 31 1015 57 10000 2.57 150 21:33 10.08.2021
2713 Clear 31 1016 56 10000 2.57 180 20:35 10.08.2021
2714 Clear 30 1018 61 10000 2.57 150 18:57 10.08.2021
2715 Clear 28 1018 68 10000 2.57 150 16:49 10.08.2021
2716 Clear 26 1019 74 10000 1.54 170 15:21 10.08.2021
2717 Clear 22 1019 85 10000 1.54 210 12:49 10.08.2021
2718 Clear 22 1019 83 10000 1.54 210 10:47 10.08.2021
2719 Clear 24 1019 77 10000 1.54 200 07:23 10.08.2021
2720 Clear 25 1019 71 10000 1.03 200 04:59 10.08.2021
2721 Clouds 29 1018 59 10000 1.03 190 23:48 09.08.2021
2722 Clouds 30 1019 56 10000 2.06 150 21:58 09.08.2021
2723 Clouds 30 1019 55 10000 2.06 150 21:37 09.08.2021
2724 Clouds 28 1019 62 10000 0.89 166 19:55 09.08.2021
2725 Clouds 25 1020 79 10000 1.03 170 17:57 09.08.2021
2726 Clouds 22 1020 89 10000 1.54 160 15:35 09.08.2021
2727 Clouds 21 1020 86 10000 1.03 190 14:25 09.08.2021
2728 Clouds 21 1020 85 10000 1.03 180 13:28 09.08.2021
2729 Mist 20 1019 83 9656 0.51 130 11:47 09.08.2021
2730 Clouds 21 1019 82 10000 2.06 10 08:48 09.08.2021
2731 Clouds 21 1019 79 10000 1.03 340 07:47 09.08.2021
2732 Clouds 28 1018 55 10000 2.06 60 21:30 08.08.2021
2733 Clear 27 1019 58 10000 2.06 50 20:24 08.08.2021
2734 Clouds 23 1020 66 10000 1.54 40 16:59 08.08.2021
2735 Clouds 21 1019 72 10000 2.57 40 15:43 08.08.2021
2736 Clear 19 1018 77 10000 2.57 40 13:54 08.08.2021
2737 Clouds 19 1017 81 10000 1.54 50 11:53 08.08.2021
2738 Clouds 19 1017 81 10000 2.06 20 10:34 08.08.2021
2739 Clouds 21 1017 82 10000 2.06 40 06:41 08.08.2021
2740 Clear 26 1014 61 10000 1.54 250 00:44 08.08.2021
2741 Clear 27 1014 63 10000 1.54 250 00:24 08.08.2021
2742 Clouds 28 1014 61 10000 1.03 300 21:43 07.08.2021
2743 Clouds 27 1014 64 10000 1.03 200 20:59 07.08.2021
2744 Clouds 26 1014 66 10000 1.54 210 18:21 07.08.2021
2745 Clouds 26 1014 61 10000 1.54 220 16:50 07.08.2021
2746 Clouds 25 1015 61 10000 1.03 150 15:36 07.08.2021
2747 Clouds 21 1015 75 10000 0 0 13:34 07.08.2021
2748 Clouds 20 1015 72 10000 0.51 200 10:32 07.08.2021
2749 Clouds 21 1016 65 10000 1.54 210 07:41 07.08.2021
2750 Clear 26 1015 49 10000 0.51 220 02:20 07.08.2021
2751 Clear 30 1017 39 10000 2.06 220 22:23 06.08.2021
2752 Clouds 30 1018 41 10000 2.57 200 20:35 06.08.2021
2753 Clear 29 1018 43 10000 2.06 210 19:57 06.08.2021
2754 Clear 29 1018 45 10000 2.06 210 19:18 06.08.2021
2755 Clear 27 1019 56 10000 2.57 200 17:34 06.08.2021
2756 Clear 19 1018 83 10000 2.57 270 11:22 06.08.2021
2757 Clear 19 1018 81 10000 3.6 220 09:57 06.08.2021
2758 Clear 20 1018 80 10000 3.09 220 08:22 06.08.2021
2759 Clear 29 1017 48 10000 1.54 140 23:35 05.08.2021
2760 Clear 29 1017 49 10000 1.54 230 22:32 05.08.2021
2761 Haze 29 1018 50 9656 2.06 130 20:47 05.08.2021
2762 Clouds 28 1019 51 10000 1.54 140 19:29 05.08.2021
2763 Haze 28 1019 52 8047 2.06 170 18:25 05.08.2021
2764 Clouds 22 1020 74 10000 1.54 140 15:31 05.08.2021
2765 Mist 16 1020 90 9656 1.03 80 11:39 05.08.2021
2766 Clear 18 1020 83 10000 0.51 210 08:51 05.08.2021
2767 Clear 19 1020 76 10000 0.51 230 05:47 05.08.2021
2768 Clear 26 1020 53 10000 1.54 220 00:55 05.08.2021
2769 Clear 27 1020 54 10000 1.54 200 21:53 04.08.2021
2770 Clear 27 1020 54 10000 1.54 200 21:22 04.08.2021
2771 Clear 25 1021 61 10000 2.06 200 18:56 04.08.2021
2772 Clear 22 1020 68 10000 0.89 207 16:43 04.08.2021
2773 Clear 20 1020 72 10000 1.54 160 14:45 04.08.2021
2774 Clouds 17 1018 77 10000 1.54 170 11:49 04.08.2021
2775 Clear 21 1017 69 10000 1.03 200 04:56 04.08.2021
2776 Clear 26 1016 53 10000 2.06 220 20:41 03.08.2021
2777 Clear 26 1016 53 10000 3.6 210 19:59 03.08.2021
2778 Clear 24 1016 56 10000 3.6 200 18:33 03.08.2021
2779 Clear 22 1017 60 10000 2.06 210 16:47 03.08.2021
2780 Clear 17 1016 79 10000 2.57 200 13:31 03.08.2021
2781 Clear 16 1016 82 10000 1.54 200 10:40 03.08.2021
2782 Clear 17 1016 72 10000 1.54 210 07:51 03.08.2021
2783 Clear 21 1013 59 10000 3.09 360 17:59 02.08.2021
2784 Clear 20 1013 63 10000 3.09 10 16:39 02.08.2021
2785 Clear 18 1013 66 10000 3.09 10 15:30 02.08.2021
2786 Clouds 15 1011 90 10000 1.54 330 11:59 02.08.2021
2787 Clouds 15 1011 90 10000 1.54 330 11:39 02.08.2021
2788 Clouds 16 1010 88 10000 0.51 30 09:49 02.08.2021
2789 Clouds 17 1011 81 10000 1.54 330 04:22 02.08.2021
2790 Clouds 19 1012 65 10000 1.54 140 18:26 01.08.2021
2791 Clouds 18 1013 72 10000 1.03 180 15:30 01.08.2021
2792 Clouds 18 1013 72 10000 1.03 180 15:30 01.08.2021
2793 Clouds 15 1012 82 10000 0.51 200 11:38 01.08.2021
2794 Clouds 16 1012 77 10000 2.06 260 09:28 01.08.2021
2795 Clouds 19 1012 60 10000 0.51 280 03:48 01.08.2021
2796 Clouds 23 1011 43 10000 2.57 330 22:52 31.07.2021
2797 Clouds 22 1012 46 10000 1.54 20 20:54 31.07.2021
2798 Clear 21 1013 47 10000 1.54 240 17:49 31.07.2021
2799 Clear 19 1013 50 10000 1.03 360 16:36 31.07.2021
2800 Clouds 12 1013 79 10000 2.06 260 12:50 31.07.2021
2801 Clouds 12 1013 79 10000 2.06 260 12:50 31.07.2021
2802 Clouds 14 1012 71 10000 0.51 230 08:57 31.07.2021
2803 Clouds 16 1012 58 10000 2.57 350 02:29 31.07.2021
2804 Clouds 19 1010 56 10000 2.24 316 20:36 30.07.2021
2805 Clouds 19 1009 57 10000 1.79 310 20:18 30.07.2021
2806 Mist 17 1006 92 10000 0 0 09:38 30.07.2021
2807 Clouds 21 1012 63 10000 1.03 200 17:34 29.07.2021
2808 Clouds 17 1016 73 10000 2.06 270 06:38 29.07.2021
2809 Clear 18 1016 69 10000 0.51 270 04:34 29.07.2021
2810 Clouds 24 1017 45 10000 2.06 200 21:22 28.07.2021
2811 Clear 22 1018 48 10000 1.54 40 17:47 28.07.2021
2812 Clear 20 1019 60 10000 1.03 80 15:52 28.07.2021
2813 Clouds 16 1016 94 10000 0.51 250 08:26 28.07.2021
2814 Clouds 21 1014 73 10000 1.03 220 23:31 27.07.2021
2815 Clouds 19 1015 83 10000 0.51 200 21:29 27.07.2021
2816 Clouds 20 1014 73 10000 1.03 20 14:53 27.07.2021
2817 Clear 16 1013 86 10000 2.06 320 11:41 27.07.2021
2818 Clear 17 1012 89 10000 2.06 230 09:49 27.07.2021
2819 Haze 26 1010 70 8047 1.54 190 18:48 26.07.2021
2820 Clear 22 1010 80 10000 1.54 250 15:32 26.07.2021
2821 Clouds 23 1008 74 10000 0.51 230 04:52 26.07.2021
2822 Clouds 27 1007 60 10000 2.06 290 20:56 25.07.2021
2823 Clouds 26 1007 68 10000 1.54 270 18:31 25.07.2021
2824 Clouds 22 1006 87 10000 1.54 190 15:47 25.07.2021
2825 Mist 19 1005 93 4828 2.06 200 10:57 25.07.2021
2826 Rain 21 1008 72 10000 2.06 200 08:20 25.07.2021
2827 Clear 28 1015 41 10000 2.06 160 22:35 24.07.2021
2828 Clouds 28 1017 49 10000 2.57 200 20:19 24.07.2021
2829 Clear 23 1019 69 10000 1.54 160 15:49 24.07.2021
2830 Clear 19 1019 74 10000 1.03 300 04:20 24.07.2021
2831 Clouds 19 1020 78 10000 2.06 280 14:40 23.07.2021
2832 Clouds 17 1019 83 10000 1.54 280 12:42 23.07.2021
2833 Clouds 18 1019 75 10000 2.06 300 07:25 23.07.2021
2834 Clouds 25 1016 44 10000 1.03 340 20:33 22.07.2021
2835 Clear 14 1016 95 10000 0.51 280 11:28 22.07.2021
2836 Clear 15 1016 91 10000 1.54 330 09:23 22.07.2021
2837 Clouds 16 1016 89 10000 0.51 290 07:38 22.07.2021
2838 Clouds 23 1013 57 10000 1.54 80 21:46 21.07.2021
2839 Clouds 23 1013 54 10000 1.54 80 21:28 21.07.2021
2840 Clouds 17 1013 83 10000 3.29 357 14:42 21.07.2021
2841 Mist 16 1011 86 9656 0.45 3 09:49 21.07.2021
2842 Mist 16 1011 88 4023 3.09 20 08:21 21.07.2021
2843 Clear 25 1010 62 10000 1.54 60 23:47 20.07.2021
2844 Clouds 23 1013 68 10000 2.57 80 17:43 20.07.2021
2845 Clouds 21 1013 74 10000 2.06 20 16:25 20.07.2021
2846 Haze 21 1013 80 9656 1.54 10 15:26 20.07.2021
2847 Clouds 20 1011 87 10000 1.54 290 10:22 20.07.2021
2848 Haze 24 1012 72 9656 2.06 340 04:48 20.07.2021
2849 Clear 28 1012 63 10000 1.54 230 22:25 19.07.2021
2850 Clear 28 1012 63 10000 1.54 230 22:25 19.07.2021
2851 Clouds 20 1015 86 10000 1.54 270 13:36 19.07.2021
2852 Clouds 19 1015 91 10000 0.51 290 12:37 19.07.2021
2853 Clouds 25 1018 69 10000 1.03 140 19:44 18.07.2021
2854 Rain 20 1018 87 9656 2.06 320 15:20 18.07.2021
2855 Clouds 20 1017 84 10000 0.51 270 10:18 18.07.2021
2856 Clouds 26 1018 60 10000 1.03 290 22:25 17.07.2021
2857 Clouds 26 1019 59 10000 1.03 220 21:54 17.07.2021
2858 Clouds 26 1019 59 10000 1.03 220 21:35 17.07.2021
2859 Clouds 18 1019 88 10000 0.51 280 12:34 17.07.2021
2860 Clouds 18 1018 88 10000 1.03 190 10:21 17.07.2021
2861 Clear 21 1017 74 10000 2.57 260 04:46 17.07.2021
2862 Clouds 22 1012 80 10000 1.03 40 14:23 16.07.2021
2863 Clouds 23 1009 89 10000 2.57 200 09:44 16.07.2021
2864 Clouds 25 1009 69 10000 1.54 180 05:46 16.07.2021
2865 Clear 23 1018 81 10000 0.89 286 14:20 15.07.2021
2866 Clear 22 1018 85 10000 0.89 213 13:48 15.07.2021
2867 Clear 22 1018 85 10000 4.63 240 07:58 15.07.2021
2868 Clouds 28 1015 71 10000 5.62 245 21:47 14.07.2021
2869 Clouds 23 1016 85 10000 1.03 230 16:48 14.07.2021
2870 Rain 21 1016 92 10000 1.03 200 09:56 14.07.2021
2871 Rain 24 1020 80 10000 1.54 180 23:30 13.07.2021
2872 Rain 24 1020 80 10000 1.54 180 23:30 13.07.2021
2873 Clouds 24 1021 72 10000 2.06 180 19:59 13.07.2021
2874 Clouds 24 1022 72 10000 2.06 180 19:40 13.07.2021
2875 Clouds 24 1022 72 10000 2.06 180 19:20 13.07.2021
2876 Clouds 23 1022 76 10000 2.57 170 18:43 13.07.2021
2877 Clouds 23 1022 79 10000 2.57 170 18:23 13.07.2021
2878 Clouds 21 1023 78 10000 1.54 160 14:32 13.07.2021
2879 Clouds 21 1022 79 10000 1.54 140 09:38 13.07.2021
2880 Clouds 28 1022 55 10000 2.06 20 21:45 12.07.2021
2881 Clear 25 1022 68 10000 2.06 60 17:28 12.07.2021
2882 Clouds 20 1021 83 10000 2.06 40 14:50 12.07.2021
2883 Clear 27 1018 45 10000 1.54 250 23:23 11.07.2021
2884 Clear 27 1018 46 10000 1.54 200 20:53 11.07.2021
2885 Clear 19 1018 71 10000 0.51 230 14:29 11.07.2021
2886 Clear 25 1016 46 10000 0.51 280 01:27 11.07.2021
2887 Clear 24 1018 54 10000 1.03 320 17:19 10.07.2021
2888 Clear 15 1015 89 10000 1.03 230 07:52 10.07.2021
2889 Clear 21 1012 68 10000 1.03 330 02:18 10.07.2021
2890 Clouds 21 1012 72 10000 2.06 40 19:47 09.07.2021
2891 Clouds 17 1013 85 10000 0.51 170 14:50 09.07.2021
2892 Clouds 17 1012 90 10000 0.51 220 12:46 09.07.2021
2893 Rain 17 1014 88 10000 1.54 70 23:53 08.07.2021
2894 Clouds 18 1015 88 10000 1.54 70 22:49 08.07.2021
2895 Rain 18 1017 69 10000 1.54 100 19:49 08.07.2021
2896 Clouds 19 1017 66 10000 2.57 60 17:47 08.07.2021
2897 Clouds 15 1018 78 10000 2.57 20 13:49 08.07.2021
2898 Clouds 15 1018 78 10000 2.57 20 13:29 08.07.2021
2899 Clouds 15 1018 79 10000 2.57 10 12:33 08.07.2021
2900 Clouds 15 1017 78 10000 1.54 20 10:54 08.07.2021
2901 Clouds 15 1016 73 10000 1.03 200 06:20 08.07.2021
2902 Clouds 18 1016 53 10000 1.03 220 02:53 08.07.2021
2903 Clouds 20 1016 43 10000 1.54 200 22:58 07.07.2021
2904 Clouds 20 1016 46 10000 1.54 200 22:19 07.07.2021
2905 Clouds 20 1016 48 10000 1.54 300 21:45 07.07.2021
2906 Clouds 20 1016 49 10000 1.54 300 21:24 07.07.2021
2907 Clouds 20 1016 38 10000 1.54 340 19:58 07.07.2021
2908 Clouds 20 1016 33 10000 1.54 340 19:29 07.07.2021
2909 Clouds 18 1016 48 10000 2.06 10 17:48 07.07.2021
2910 Clouds 17 1016 52 10000 2.06 20 15:49 07.07.2021
2911 Clouds 17 1016 58 10000 2.57 10 14:33 07.07.2021
2912 Clear 16 1013 72 10000 2.57 10 10:23 07.07.2021
2913 Clear 20 1011 69 10000 2.57 360 06:53 07.07.2021
2914 Clear 21 1010 75 10000 2.57 310 05:49 07.07.2021
2915 Clouds 24 1008 83 10000 1.03 20 02:52 07.07.2021
2916 Clouds 25 1008 80 10000 1.03 200 19:43 06.07.2021
2917 Clouds 24 1008 80 10000 2.06 210 18:54 06.07.2021
2918 Clouds 24 1008 79 10000 2.06 210 18:33 06.07.2021
2919 Clouds 24 1008 78 10000 1.54 200 17:32 06.07.2021
2920 Clouds 22 1009 81 10000 2.06 210 13:33 06.07.2021
2921 Clouds 22 1008 78 10000 1.54 200 09:43 06.07.2021
2922 Rain 23 1008 71 10000 1.54 190 08:35 06.07.2021
2923 Rain 23 1009 68 10000 2.06 190 07:39 06.07.2021
2924 Clouds 25 1012 53 10000 2.06 190 01:55 06.07.2021
2925 Clouds 27 1013 45 10000 1.54 210 23:57 05.07.2021
2926 Clear 27 1014 45 10000 2.06 170 21:58 05.07.2021
2927 Clear 23 1016 59 10000 2.06 160 17:21 05.07.2021
2928 Clear 14 1016 86 10000 0.51 260 09:22 05.07.2021
2929 Clear 17 1016 74 10000 1.54 130 05:49 05.07.2021
2930 Clear 17 1015 74 10000 1.03 170 04:41 05.07.2021
2931 Clear 23 1014 52 10000 2.06 90 23:22 04.07.2021
2932 Clouds 23 1013 54 10000 2.06 80 20:53 04.07.2021
2933 Clouds 20 1014 62 10000 2.06 40 17:35 04.07.2021
2934 Clouds 16 1013 77 10000 2.06 20 14:36 04.07.2021
2935 Clouds 13 1012 86 10000 2.06 40 10:47 04.07.2021
2936 Clouds 14 1012 84 10000 2.06 30 07:24 04.07.2021
2937 Clouds 19 1011 72 10000 2.06 40 23:26 03.07.2021
2938 Clouds 18 1011 73 10000 0.89 33 21:18 03.07.2021
2939 Clouds 14 1011 85 10000 2.57 20 12:51 03.07.2021
2940 Clouds 14 1012 85 10000 2.57 10 11:52 03.07.2021
2941 Clouds 15 1012 81 10000 3.09 10 09:27 03.07.2021
2942 Clouds 15 1012 80 10000 2.06 30 08:45 03.07.2021
2943 Clouds 19 1012 67 10000 3.09 50 23:47 02.07.2021
2944 Clouds 15 1011 86 10000 2.57 30 10:25 02.07.2021
2945 Clouds 17 1011 82 10000 3.09 20 07:28 02.07.2021
2946 Clouds 23 1011 58 10000 1.03 180 02:28 02.07.2021
2947 Clear 25 1011 47 10000 1.03 300 22:31 01.07.2021
2948 Clear 25 1011 49 10000 2.06 210 21:37 01.07.2021
2949 Clouds 25 1011 50 10000 1.54 120 20:22 01.07.2021
2950 Clouds 24 1012 50 10000 1.03 200 19:20 01.07.2021
2951 Clouds 24 1012 51 10000 1.03 130 18:48 01.07.2021
2952 Clouds 24 1012 53 10000 1.54 40 17:43 01.07.2021
2953 Clouds 23 1012 56 10000 1.54 10 16:39 01.07.2021
2954 Clear 21 1012 60 10000 0.51 70 15:24 01.07.2021
2955 Clear 20 1012 68 10000 2.06 30 14:20 01.07.2021
2956 Clouds 18 1011 79 10000 2.57 20 10:30 01.07.2021
2957 Clear 22 1009 83 10000 0.51 220 03:58 01.07.2021
2958 Mist 24 1008 83 9656 1.54 230 23:18 30.06.2021
2959 Clouds 26 1009 81 10000 1.54 210 21:59 30.06.2021
2960 Rain 26 1009 77 10000 1.54 210 21:21 30.06.2021
2961 Rain 26 1010 80 10000 1.54 220 20:25 30.06.2021
2962 Clouds 26 1011 77 10000 1.54 220 17:20 30.06.2021
2963 Clouds 24 1012 85 10000 1.54 200 14:23 30.06.2021
2964 Clouds 24 1012 86 10000 1.54 210 12:31 30.06.2021
2965 Clouds 25 1017 75 10000 1.03 200 03:26 30.06.2021
2966 Clouds 28 1019 64 10000 0.51 320 21:18 29.06.2021
2967 Clouds 29 1020 63 10000 2.57 210 18:22 29.06.2021
2968 Clouds 28 1020 64 10000 2.06 250 17:29 29.06.2021
2969 Clouds 27 1020 70 10000 1.54 270 15:52 29.06.2021
2970 Clear 25 1020 77 10000 1.54 210 14:57 29.06.2021
2971 Clouds 24 1020 84 10000 1.54 200 13:29 29.06.2021
2972 Clear 23 1018 89 10000 0.51 220 09:53 29.06.2021
2973 Clouds 30 1016 70 10000 1.54 200 00:32 29.06.2021
2974 Clouds 31 1017 61 10000 1.54 250 21:47 28.06.2021
2975 Clouds 30 1018 65 10000 2.06 200 19:40 28.06.2021
2976 Clouds 28 1018 70 10000 1.54 230 17:21 28.06.2021
2977 Clouds 28 1018 70 10000 1.54 230 17:21 28.06.2021
2978 Clear 27 1018 73 10000 1.54 260 15:21 28.06.2021
2979 Clouds 24 1016 82 10000 1.03 190 12:58 28.06.2021
2980 Clouds 24 1016 82 10000 1.03 190 12:58 28.06.2021
2981 Clear 27 1013 66 10000 2.57 190 05:50 28.06.2021
2982 Clear 32 1012 52 10000 2.57 210 23:44 27.06.2021
2983 Clouds 32 1012 55 10000 2.57 200 21:24 27.06.2021
2984 Clear 31 1012 58 10000 4.63 200 19:40 27.06.2021
2985 Clouds 28 1013 63 10000 2.57 210 16:50 27.06.2021
2986 Clouds 23 1013 84 10000 1.54 190 13:24 27.06.2021
2987 Mist 22 1014 95 10000 1.03 210 06:41 27.06.2021
2988 Clouds 23 1014 87 10000 1.03 190 22:46 26.06.2021
2989 Clouds 21 1015 91 10000 1.79 209 20:59 26.06.2021
2990 Clouds 21 1015 92 10000 1.79 226 20:40 26.06.2021
2991 Mist 19 1016 94 4023 2.06 180 19:25 26.06.2021
2992 Rain 18 1018 91 10000 1.54 190 15:22 26.06.2021
2993 Rain 19 1019 82 10000 1.03 220 12:28 26.06.2021
2994 Clouds 22 1019 65 10000 1.54 210 08:54 26.06.2021
2995 Clouds 23 1019 54 10000 1.03 200 04:35 26.06.2021
2996 Clouds 26 1021 51 10000 2.06 170 20:50 25.06.2021
2997 Clouds 25 1022 49 10000 2.06 180 19:43 25.06.2021
2998 Clear 24 1022 52 10000 2.57 170 17:52 25.06.2021
2999 Clouds 23 1023 52 10000 2.06 170 16:50 25.06.2021
3000 Clouds 20 1023 60 10000 2.06 180 14:59 25.06.2021
3001 Clouds 18 1022 63 10000 2.06 190 11:46 25.06.2021
3002 Clear 19 1023 59 10000 2.06 190 09:28 25.06.2021
3003 Clear 20 1023 51 10000 1.54 170 07:20 25.06.2021
3004 Clear 23 1022 42 10000 1.54 200 03:54 25.06.2021
3005 Clear 28 1023 38 10000 3.09 190 22:48 24.06.2021
3006 Clear 28 1023 39 10000 3.6 190 21:47 24.06.2021
3007 Clear 27 1023 40 10000 1.54 170 20:41 24.06.2021
3008 Clear 26 1025 41 10000 2.57 190 18:50 24.06.2021
3009 Clear 23 1025 45 10000 3.09 170 16:37 24.06.2021
3010 Clear 20 1025 47 10000 2.57 160 15:22 24.06.2021
3011 Clear 19 1026 52 10000 1.54 190 14:49 24.06.2021
3012 Clear 13 1025 69 10000 1.54 180 11:51 24.06.2021
3013 Clear 13 1024 62 10000 1.54 200 09:35 24.06.2021
3014 Clear 14 1024 60 10000 1.03 220 08:24 24.06.2021
3015 Clear 15 1023 59 10000 1.03 210 05:41 24.06.2021
3016 Clouds 21 1021 40 10000 2.06 200 23:28 23.06.2021
3017 Clouds 21 1020 42 10000 1.54 210 21:46 23.06.2021
3018 Clouds 20 1020 39 10000 1.54 250 20:48 23.06.2021
3019 Clouds 19 1020 38 10000 1.03 130 18:38 23.06.2021
3020 Clouds 18 1020 38 10000 1.54 280 17:40 23.06.2021
3021 Clear 18 1019 41 10000 2.06 10 16:51 23.06.2021
3022 Clouds 15 1018 58 10000 0.51 300 14:30 23.06.2021
3023 Clear 10 1016 76 10000 0.89 293 12:26 23.06.2021
3024 Clear 10 1014 76 10000 0.89 218 10:39 23.06.2021
3025 Clear 11 1013 69 10000 2.06 290 08:52 23.06.2021
3026 Clear 11 1013 69 10000 2.06 290 08:25 23.06.2021
3027 Clear 11 1013 71 10000 1.79 302 07:47 23.06.2021
3028 Clouds 14 1012 60 10000 0.51 320 04:34 23.06.2021
3029 Clouds 16 1009 57 10000 1.54 350 00:46 23.06.2021
3030 Clouds 17 1009 56 10000 1.03 330 23:57 22.06.2021
3031 Clouds 17 1009 56 10000 2.57 350 22:47 22.06.2021
3032 Clouds 17 1009 56 10000 2.57 350 22:29 22.06.2021
3033 Clouds 17 1009 57 10000 3.09 360 21:39 22.06.2021
3034 Clouds 17 1009 60 10000 2.57 310 19:57 22.06.2021
3035 Clouds 16 1009 61 10000 2.57 350 18:57 22.06.2021
3036 Clouds 16 1009 62 10000 2.57 350 18:27 22.06.2021
3037 Clouds 15 1008 64 10000 2.06 340 17:22 22.06.2021
3038 Clouds 14 1008 69 10000 2.06 330 16:38 22.06.2021
3039 Clouds 14 1006 73 10000 2.57 360 14:44 22.06.2021
3040 Clouds 14 1006 74 10000 2.57 360 14:21 22.06.2021
3041 Clouds 15 1004 75 10000 1.03 240 12:59 22.06.2021
3042 Clouds 18 1001 74 10000 1.03 240 11:51 22.06.2021
3043 Clouds 20 1000 79 10000 2.06 20 10:31 22.06.2021
3044 Clouds 22 999 81 10000 3.6 240 07:56 22.06.2021
3045 Clear 28 995 66 10000 3.09 210 00:50 22.06.2021
3046 Clear 27 995 71 10000 3.09 190 23:32 21.06.2021
3047 Clouds 27 996 70 10000 2.57 180 22:29 21.06.2021
3048 Clouds 27 995 80 10000 2.06 190 21:28 21.06.2021
3049 Rain 29 996 65 10000 1.54 190 20:46 21.06.2021
3050 Clouds 29 998 65 10000 3.09 180 19:55 21.06.2021
3051 Clouds 27 998 71 10000 2.06 170 18:58 21.06.2021
3052 Clouds 23 999 84 10000 1.54 200 17:36 21.06.2021
3053 Rain 23 1001 81 10000 1.54 190 16:46 21.06.2021
3054 Clouds 23 1001 79 10000 1.54 190 16:25 21.06.2021
3055 Clouds 23 1001 80 10000 2.06 170 15:45 21.06.2021
3056 Clouds 22 1002 72 10000 1.54 200 14:18 21.06.2021
3057 Clouds 21 1002 72 10000 1.54 190 13:34 21.06.2021
3058 Clouds 20 1003 77 10000 1.03 190 12:38 21.06.2021
3059 Clouds 19 1003 79 10000 1.03 210 11:52 21.06.2021
3060 Clouds 19 1004 76 10000 1.03 190 10:31 21.06.2021
3061 Clouds 19 1005 77 10000 0.51 230 09:29 21.06.2021
3062 Clouds 20 1005 72 10000 0.51 220 08:24 21.06.2021
3063 Clear 20 1005 71 10000 0.51 240 07:28 21.06.2021
3064 Clouds 27 1005 44 10000 1.03 290 00:43 21.06.2021
3065 Clear 28 1006 45 10000 1.03 230 23:35 20.06.2021
3066 Clouds 28 1006 45 10000 2.06 220 22:58 20.06.2021
3067 Clouds 28 1006 44 10000 2.06 220 22:19 20.06.2021
3068 Clouds 28 1006 44 10000 2.57 200 21:32 20.06.2021
3069 Clouds 26 1007 48 10000 1.54 240 19:47 20.06.2021
3070 Clouds 26 1007 48 10000 1.54 240 19:24 20.06.2021
3071 Clouds 25 1007 51 10000 2.06 190 18:21 20.06.2021
3072 Clear 23 1007 59 10000 1.54 270 16:52 20.06.2021
3073 Clear 23 1008 60 10000 2.06 200 15:58 20.06.2021
3074 Clear 22 1008 63 10000 2.06 200 15:34 20.06.2021
3075 Clear 21 1007 67 10000 1.54 270 14:54 20.06.2021
3076 Clouds 19 1007 71 10000 1.54 260 13:52 20.06.2021
3077 Clouds 18 1006 74 10000 1.54 260 12:58 20.06.2021
3078 Clouds 17 1006 77 10000 2.06 270 11:47 20.06.2021
3079 Clouds 17 1006 75 10000 3.09 240 10:48 20.06.2021
3080 Clouds 17 1006 73 10000 1.03 290 09:47 20.06.2021
3081 Clear 16 1005 72 10000 1.54 300 08:22 20.06.2021
3082 Clear 25 1003 45 10000 1.54 120 00:31 20.06.2021
3083 Clouds 26 1003 45 10000 1.54 340 23:23 19.06.2021
3084 Clouds 26 1003 44 10000 3.09 280 22:29 19.06.2021
3085 Clear 26 1002 43 10000 2.06 230 21:44 19.06.2021
3086 Clouds 25 1002 48 10000 2.06 250 19:22 19.06.2021
3087 Clouds 25 1002 47 10000 2.57 230 18:39 19.06.2021
3088 Clear 25 1002 51 10000 2.57 210 17:45 19.06.2021
3089 Clear 24 1002 55 10000 2.06 260 16:59 19.06.2021
3090 Clear 23 1003 70 10000 2.06 210 15:46 19.06.2021
3091 Clouds 19 1002 93 10000 2.06 200 13:47 19.06.2021
3092 Clouds 18 1002 95 10000 2.06 200 12:43 19.06.2021
3093 Clouds 17 1003 94 10000 2.06 200 11:22 19.06.2021
3094 Clouds 17 1003 95 10000 2.06 200 10:37 19.06.2021
3095 Clouds 17 1003 95 10000 2.06 200 10:18 19.06.2021
3096 Rain 18 1004 94 10000 1.54 200 08:33 19.06.2021
3097 Mist 18 1004 94 9656 1.54 190 07:41 19.06.2021
3098 Clouds 18 1005 92 10000 1.03 200 05:44 19.06.2021
3099 Rain 20 1007 83 10000 1.54 220 00:26 19.06.2021
3100 Rain 21 1008 73 10000 1.03 230 23:58 18.06.2021
3101 Rain 23 1008 64 10000 1.03 230 23:18 18.06.2021
3102 Clouds 23 1008 65 10000 1.54 260 22:41 18.06.2021
3103 Rain 23 1009 64 10000 1.03 210 21:54 18.06.2021
3104 Rain 23 1009 60 10000 1.03 210 21:28 18.06.2021
3105 Clouds 24 1008 46 10000 2.06 170 20:37 18.06.2021
3106 Clouds 24 1009 48 10000 2.57 180 18:58 18.06.2021
3107 Clouds 24 1008 46 10000 2.57 180 18:21 18.06.2021
3108 Clear 24 1010 43 10000 2.57 170 16:59 18.06.2021
3109 Haze 22 1011 43 9656 2.06 170 15:54 18.06.2021
3110 Clear 20 1012 46 10000 1.54 180 14:56 18.06.2021
3111 Clear 20 1012 45 10000 1.54 180 14:29 18.06.2021
3112 Clear 18 1012 53 10000 2.06 170 13:30 18.06.2021
3113 Clear 16 1012 57 10000 1.54 180 12:44 18.06.2021
3114 Clear 15 1012 59 10000 1.54 190 11:56 18.06.2021
3115 Clear 15 1012 55 10000 1.54 190 11:20 18.06.2021
3116 Clear 16 1012 53 10000 1.54 190 10:51 18.06.2021
3117 Clear 16 1012 52 10000 1.54 190 10:20 18.06.2021
3118 Clouds 16 1012 50 10000 2.06 190 09:40 18.06.2021
3119 Clear 16 1012 48 10000 1.54 200 08:44 18.06.2021
3120 Clear 17 1012 47 10000 1.54 220 07:52 18.06.2021
3121 Clear 17 1012 47 10000 1.54 220 07:21 18.06.2021
3122 Clear 25 1011 26 10000 1.54 290 00:48 18.06.2021
3123 Clear 25 1011 25 10000 2.24 328 23:41 17.06.2021
3124 Clear 24 1011 26 10000 2.57 250 22:49 17.06.2021
3125 Clear 24 1011 27 10000 2.57 250 22:23 17.06.2021
3126 Clear 24 1012 28 10000 2.57 250 21:38 17.06.2021
3127 Clear 23 1012 29 10000 2.06 230 20:56 17.06.2021
3128 Clear 23 1012 31 10000 2.06 230 20:24 17.06.2021
3129 Clear 23 1012 34 10000 1.54 270 19:46 17.06.2021
3130 Clear 22 1012 37 10000 2.06 240 18:40 17.06.2021
3131 Clear 21 1012 40 10000 2.06 10 17:43 17.06.2021
3132 Clear 20 1012 40 10000 2.06 10 17:19 17.06.2021
3133 Clear 19 1013 40 10000 1.54 270 16:25 17.06.2021
3134 Clouds 18 1012 42 10000 1.54 240 15:32 17.06.2021
3135 Clouds 15 1012 51 10000 5.14 290 14:20 17.06.2021
3136 Clear 13 1011 63 10000 2.06 260 12:53 17.06.2021
3137 Clear 12 1011 69 10000 3.6 270 12:24 17.06.2021
3138 Clear 11 1010 71 10000 3.6 250 10:57 17.06.2021
3139 Clear 12 1010 70 10000 3.6 250 10:35 17.06.2021
3140 Clear 12 1010 67 10000 3.09 240 09:57 17.06.2021
3141 Clear 12 1010 65 10000 3.09 240 09:35 17.06.2021
3142 Clear 13 1010 65 10000 3.6 260 08:23 17.06.2021
3143 Clouds 14 1011 57 10000 1.03 210 06:56 17.06.2021
3144 Clouds 16 1010 46 10000 0.51 260 04:31 17.06.2021
3145 Clouds 21 1009 36 10000 2.06 300 00:18 17.06.2021
3146 Clouds 21 1009 36 10000 2.57 350 23:36 16.06.2021
3147 Clouds 21 1009 40 10000 1.54 230 22:40 16.06.2021
3148 Clouds 21 1009 41 10000 2.68 317 21:48 16.06.2021
3149 Clouds 21 1008 41 10000 7.72 290 21:26 16.06.2021
3150 Clouds 20 1009 44 10000 1.03 10 20:52 16.06.2021
3151 Clouds 20 1009 40 10000 1.03 10 20:52 16.06.2021
3152 Clouds 20 1009 40 10000 1.03 10 20:21 16.06.2021
3153 Clouds 20 1009 47 10000 2.57 10 19:44 16.06.2021
3154 Clouds 20 1009 45 10000 2.57 10 19:19 16.06.2021
3155 Clouds 20 1010 44 10000 1.54 340 18:44 16.06.2021
3156 Clear 19 1010 49 10000 2.57 20 17:56 16.06.2021
3157 Clear 18 1010 50 10000 2.57 20 17:27 16.06.2021
3158 Clear 18 1010 53 10000 2.57 350 16:45 16.06.2021
3159 Clear 18 1010 53 10000 2.57 350 16:45 16.06.2021
3160 Clear 17 1010 54 10000 2.57 350 16:23 16.06.2021
3161 Clouds 16 1011 55 10000 1.03 360 15:44 16.06.2021
3162 Clear 14 1011 58 10000 3.09 10 14:59 16.06.2021
3163 Clear 14 1011 59 10000 3.09 10 14:41 16.06.2021
3164 Clear 14 1011 59 10000 3.09 10 14:23 16.06.2021
3165 Clear 13 1011 61 10000 3.09 360 13:43 16.06.2021
3166 Clear 13 1011 63 10000 3.09 360 13:21 16.06.2021
3167 Clear 12 1011 68 10000 3.09 350 12:35 16.06.2021
3168 Clear 11 1010 71 10000 2.06 320 11:57 16.06.2021
3169 Clear 11 1010 72 10000 2.06 320 11:23 16.06.2021
3170 Clear 11 1010 71 10000 1.54 330 10:41 16.06.2021
3171 Clear 11 1010 68 10000 2.57 10 09:49 16.06.2021
3172 Clear 12 1010 66 10000 2.57 10 09:21 16.06.2021
3173 Clear 13 1010 59 10000 3.6 20 08:18 16.06.2021
3174 Clear 14 1009 56 10000 4.12 20 07:38 16.06.2021
3175 Clouds 18 1008 67 10000 1.03 290 02:51 16.06.2021
3176 Clouds 18 1007 65 10000 3.09 10 00:47 16.06.2021
3177 Clouds 18 1007 58 10000 4.12 20 23:44 15.06.2021
3178 Clouds 18 1007 62 10000 4.12 20 23:20 15.06.2021
3179 Clouds 18 1006 66 10000 6.17 10 22:39 15.06.2021
3180 Clouds 20 1005 70 10000 3.6 350 21:50 15.06.2021
3181 Clouds 22 1005 52 10000 1.54 250 20:52 15.06.2021
3182 Clouds 23 1005 57 10000 1.54 230 19:56 15.06.2021
3183 Clouds 23 1005 57 10000 1.54 230 19:21 15.06.2021
3184 Clouds 21 1006 64 10000 2.06 190 17:21 15.06.2021
3185 Clouds 20 1006 77 10000 1.54 260 16:41 15.06.2021
3186 Clouds 19 1006 79 10000 1.54 260 15:41 15.06.2021
3187 Clear 18 1006 80 10000 1.03 230 14:53 15.06.2021
3188 Clouds 18 1006 81 10000 1.03 230 14:20 15.06.2021
3189 Clear 18 1006 82 10000 1.03 220 13:35 15.06.2021
3190 Clouds 17 1006 86 10000 1.03 280 12:49 15.06.2021
3191 Clouds 17 1006 88 10000 1.03 220 11:55 15.06.2021
3192 Clouds 17 1006 88 10000 2.1 216 11:20 15.06.2021
3193 Clouds 17 1006 90 10000 0.51 250 10:56 15.06.2021
3194 Clouds 17 1006 89 10000 0.51 250 10:35 15.06.2021
3195 Clouds 17 1006 90 10000 0.51 250 09:50 15.06.2021
3196 Clouds 17 1006 89 10000 1.54 200 08:36 15.06.2021
3197 Clouds 17 1006 90 10000 1.54 200 08:18 15.06.2021
3198 Clouds 18 1007 91 10000 1.03 200 06:54 15.06.2021
3199 Rain 18 1007 91 10000 1.03 170 05:58 15.06.2021
3200 Rain 19 1007 85 10000 2.57 210 01:32 15.06.2021
3201 Clouds 21 1006 75 10000 2.57 180 00:38 15.06.2021
3202 Clouds 21 1006 75 10000 2.57 180 00:38 15.06.2021
3203 Clouds 23 1005 69 10000 2.06 170 23:32 14.06.2021
3204 Clouds 23 1006 70 10000 7.72 160 22:48 14.06.2021
3205 Clouds 23 1006 70 10000 2.06 190 22:22 14.06.2021
3206 Clouds 23 1006 71 10000 2.06 180 21:57 14.06.2021
3207 Clouds 22 1006 71 10000 2.06 180 21:26 14.06.2021
3208 Clouds 23 1007 70 10000 2.06 170 20:58 14.06.2021
3209 Clouds 22 1007 64 10000 2.06 170 20:40 14.06.2021
3210 Clouds 22 1007 75 10000 1.54 110 19:48 14.06.2021
3211 Clouds 22 1008 76 10000 1.54 110 19:28 14.06.2021
3212 Clouds 20 1008 87 10000 2.06 200 18:47 14.06.2021
3213 Clouds 20 1008 88 10000 2.06 200 18:21 14.06.2021
3214 Clouds 19 1008 88 10000 1.54 130 17:36 14.06.2021
3215 Rain 19 1007 89 10000 1.54 130 16:52 14.06.2021
3216 Clouds 18 1007 89 10000 0.51 360 15:54 14.06.2021
3217 Rain 18 1007 89 10000 0.51 360 15:36 14.06.2021
3218 Clouds 18 1007 89 10000 0.51 330 14:52 14.06.2021
3219 Clouds 18 1007 89 10000 1.03 310 13:56 14.06.2021
3220 Clouds 18 1007 89 10000 1.03 310 13:23 14.06.2021
3221 Clouds 18 1007 91 10000 0.51 290 12:51 14.06.2021
3222 Clouds 17 1007 90 10000 1.03 330 11:57 14.06.2021
3223 Clouds 18 1007 90 10000 1.03 330 11:36 14.06.2021
3224 Rain 18 1007 89 10000 1.03 240 10:24 14.06.2021
3225 Rain 18 1007 88 10000 1.54 30 09:26 14.06.2021
3226 Mist 18 1007 88 9656 2.57 340 08:49 14.06.2021
3227 Rain 19 1008 78 10000 2.06 340 07:56 14.06.2021
3228 Rain 19 1007 78 10000 2.06 340 07:35 14.06.2021
3229 Clouds 23 1007 37 10000 1.03 200 05:45 14.06.2021
3230 Clouds 25 1007 37 10000 1.54 200 03:40 14.06.2021
3231 Clouds 27 1008 30 10000 1.03 190 00:26 14.06.2021
3232 Clouds 28 1008 29 10000 2.06 200 23:24 13.06.2021
3233 Clouds 28 1009 26 10000 1.03 20 22:41 13.06.2021
3234 Clouds 28 1009 25 10000 1.03 20 22:21 13.06.2021
3235 Clouds 28 1009 26 10000 1.54 140 21:58 13.06.2021
3236 Clouds 28 1009 24 10000 1.54 140 21:35 13.06.2021
3237 Clear 28 1010 26 10000 2.06 200 20:49 13.06.2021
3238 Clear 28 1010 25 10000 2.06 200 20:29 13.06.2021
3239 Clear 28 1010 24 10000 2.06 220 19:53 13.06.2021
3240 Clear 27 1010 24 10000 2.06 220 19:33 13.06.2021
3241 Clear 27 1010 28 10000 1.03 220 18:57 13.06.2021
3242 Clear 27 1010 28 10000 1.03 220 18:28 13.06.2021
3243 Clear 26 1010 32 10000 1.54 170 17:47 13.06.2021
3244 Clear 24 1011 42 10000 1.03 220 16:39 13.06.2021
3245 Clear 23 1011 45 10000 1.54 150 15:41 13.06.2021
3246 Clear 23 1011 45 10000 1.54 150 15:41 13.06.2021
3247 Clear 21 1011 46 10000 1.03 20 14:50 13.06.2021
3248 Clear 20 1011 54 10000 0 0 14:22 13.06.2021
3249 Clear 18 1011 58 10000 0 0 13:25 13.06.2021
3250 Clear 17 1010 63 10000 0.51 170 12:58 13.06.2021
3251 Clear 16 1010 64 10000 0.51 170 12:36 13.06.2021
3252 Clear 15 1010 64 10000 2.06 240 11:49 13.06.2021
3253 Clear 15 1010 64 10000 2.06 240 11:21 13.06.2021
3254 Clouds 16 1009 64 10000 2.06 240 10:45 13.06.2021
3255 Clouds 16 1009 65 10000 0.45 268 09:59 13.06.2021
3256 Clouds 16 1009 64 10000 0.45 258 09:40 13.06.2021
3257 Clouds 16 1009 62 10000 0.45 163 09:20 13.06.2021
3258 Clouds 17 1009 55 10000 1.03 260 08:41 13.06.2021
3259 Clouds 17 1009 54 10000 1.03 260 08:22 13.06.2021
3260 Clouds 18 1009 50 10000 0.45 243 06:49 13.06.2021
3261 Clear 26 1009 23 10000 1.54 290 00:25 13.06.2021
3262 Clear 27 1009 24 10000 2.06 210 23:19 12.06.2021
3263 Clear 27 1009 25 10000 1.03 250 22:34 12.06.2021
3264 Clear 26 1009 27 10000 1.54 270 21:49 12.06.2021
3265 Clear 26 1009 27 10000 1.54 270 21:28 12.06.2021
3266 Clear 26 1010 27 10000 1.54 170 20:25 12.06.2021
3267 Clear 26 1011 29 10000 2.06 20 19:58 12.06.2021
3268 Clear 25 1011 30 10000 2.06 20 19:19 12.06.2021
3269 Clear 25 1011 33 10000 2.57 100 18:35 12.06.2021
3270 Clouds 24 1012 38 10000 2.06 60 17:48 12.06.2021
3271 Clouds 23 1012 43 10000 2.06 60 17:18 12.06.2021
3272 Clear 22 1012 54 10000 1.03 90 16:31 12.06.2021
3273 Clear 20 1012 59 10000 2.06 20 15:33 12.06.2021
3274 Clear 18 1012 65 10000 1.54 50 14:37 12.06.2021
3275 Clear 17 1012 66 10000 1.54 50 14:19 12.06.2021
3276 Clear 17 1012 63 10000 1.54 50 14:19 12.06.2021
3277 Clouds 14 1011 77 10000 2.06 360 12:57 12.06.2021
3278 Clouds 14 1011 79 10000 2.06 360 12:37 12.06.2021
3279 Clear 14 1011 80 10000 2.06 360 12:19 12.06.2021
3280 Clear 13 1011 83 10000 1.54 160 11:19 12.06.2021
3281 Clear 14 1011 79 10000 1.54 10 10:29 12.06.2021
3282 Clear 14 1011 79 10000 1.54 10 10:29 12.06.2021
3283 Clear 14 1011 77 10000 1.03 220 09:49 12.06.2021
3284 Clear 15 1011 75 10000 1.03 220 09:26 12.06.2021
3285 Clear 17 1012 66 10000 0.51 240 07:42 12.06.2021
3286 Clouds 18 1012 61 10000 1.54 210 06:20 12.06.2021
3287 Clouds 23 1011 40 10000 0.51 270 01:24 12.06.2021
3288 Clear 24 1012 36 10000 1.54 360 22:58 11.06.2021
3289 Clear 24 1012 37 10000 1.54 360 22:19 11.06.2021
3290 Clear 24 1013 36 10000 1.03 30 21:47 11.06.2021
3291 Clear 24 1013 35 10000 1.03 30 21:26 11.06.2021
3292 Clouds 23 1014 33 10000 1.54 80 20:24 11.06.2021
3293 Clouds 23 1014 39 10000 1.54 30 19:38 11.06.2021
3294 Clouds 22 1015 42 10000 2.06 360 18:43 11.06.2021
3295 Clouds 21 1015 46 10000 1.54 60 17:55 11.06.2021
3296 Clouds 19 1016 51 10000 2.57 10 16:45 11.06.2021
3297 Clouds 19 1016 44 10000 1.54 80 15:49 11.06.2021
3298 Clouds 17 1016 52 10000 1.54 30 14:45 11.06.2021
3299 Clouds 17 1016 52 10000 1.54 30 14:19 11.06.2021
3300 Clouds 15 1016 69 10000 0.51 270 12:44 11.06.2021
3301 Clouds 15 1016 71 10000 0.51 270 12:19 11.06.2021
3302 Clouds 15 1017 68 10000 1.54 340 11:27 11.06.2021
3303 Clouds 15 1017 72 10000 0 0 10:24 11.06.2021
3304 Clouds 15 1018 73 10000 0.51 250 09:22 11.06.2021
3305 Rain 16 1018 55 10000 1.03 300 08:25 11.06.2021
3306 Clouds 18 1018 49 10000 2.06 110 06:56 11.06.2021
3307 Clouds 21 1018 27 10000 1.54 170 01:50 11.06.2021
3308 Clouds 21 1019 33 10000 1.03 130 23:25 10.06.2021
3309 Clouds 21 1019 27 10000 2.57 350 22:37 10.06.2021
3310 Clouds 21 1020 34 10000 1.54 310 21:51 10.06.2021
3311 Clouds 21 1020 35 10000 0.89 324 21:18 10.06.2021
3312 Clouds 21 1020 35 10000 2.06 120 20:40 10.06.2021
3313 Clear 20 1021 36 10000 3.09 30 19:31 10.06.2021
3314 Clear 20 1021 36 10000 3.09 30 19:31 10.06.2021
3315 Clear 20 1021 37 10000 2.57 60 18:48 10.06.2021
3316 Clear 19 1021 37 10000 2.57 60 18:27 10.06.2021
3317 Clouds 18 1022 37 10000 2.57 50 17:32 10.06.2021
3318 Clear 18 1022 38 10000 2.06 80 16:45 10.06.2021
3319 Clear 17 1022 40 10000 3.6 30 15:57 10.06.2021
3320 Clear 15 1021 44 10000 3.09 30 13:49 10.06.2021
3321 Clear 14 1021 46 10000 2.57 30 12:50 10.06.2021
3322 Clear 14 1020 44 10000 2.57 30 11:55 10.06.2021
3323 Clear 15 1020 42 10000 3.09 20 10:49 10.06.2021
3324 Clear 16 1020 41 10000 2.57 20 09:35 10.06.2021
3325 Clear 22 1018 33 10000 2.57 10 04:44 10.06.2021
3326 Clear 28 1016 22 10000 3.6 10 00:24 10.06.2021
3327 Clear 29 1016 23 10000 4.34 10 22:59 09.06.2021
3328 Clear 29 1016 23 10000 4.39 4 22:27 09.06.2021
3329 Clear 29 1016 26 10000 2.06 10 21:33 09.06.2021
3330 Clear 29 1016 30 10000 3.6 350 20:56 09.06.2021
3331 Clear 29 1016 31 10000 3.6 350 20:30 09.06.2021
3332 Clear 28 1016 33 10000 1.54 40 19:48 09.06.2021
3333 Clear 27 1017 36 10000 3.09 10 18:39 09.06.2021
3334 Clear 24 1016 42 10000 2.06 30 15:46 09.06.2021
3335 Clear 24 1017 41 10000 2.06 30 15:28 09.06.2021
3336 Clear 23 1017 42 10000 3.6 20 14:26 09.06.2021
3337 Clouds 22 1017 49 10000 3.09 30 13:31 09.06.2021
3338 Clouds 21 1016 53 10000 3.09 20 12:46 09.06.2021
3339 Clouds 22 1016 55 10000 3.09 20 12:28 09.06.2021
3340 Clear 22 1014 75 10000 2.23 289 10:26 09.06.2021
3341 Clouds 24 1014 85 10000 0.51 220 08:55 09.06.2021
3342 Clouds 24 1014 83 10000 1.03 220 07:57 09.06.2021
3343 Clouds 24 1013 83 10000 1.54 210 06:23 09.06.2021
3344 Clear 30 1011 64 10000 2.57 250 23:25 08.06.2021
3345 Clear 30 1011 64 10000 2.57 210 22:53 08.06.2021
3346 Clear 30 1012 64 10000 2.57 210 22:18 08.06.2021
3347 Clouds 30 1013 61 10000 2.06 210 20:39 08.06.2021
3348 Clouds 30 1013 64 10000 2.57 210 18:31 08.06.2021
3349 Clouds 29 1013 64 10000 2.06 230 17:50 08.06.2021
3350 Clear 29 1013 65 10000 2.06 240 16:32 08.06.2021
3351 Clear 26 1013 70 10000 1.54 220 14:45 08.06.2021
3352 Clear 24 1012 77 10000 2.06 190 12:46 08.06.2021
3353 Clear 24 1013 74 10000 2.06 210 10:48 08.06.2021
3354 Clear 26 1012 66 10000 1.54 180 06:20 08.06.2021
3355 Clear 31 1012 48 10000 2.57 200 01:58 08.06.2021
3356 Clear 32 1011 41 10000 2.06 200 23:18 07.06.2021
3357 Clear 32 1012 39 10000 3.09 210 20:32 07.06.2021
3358 Clear 31 1013 47 10000 3.09 210 18:35 07.06.2021
3359 Clear 27 1013 54 10000 2.57 200 15:53 07.06.2021
3360 Clear 24 1013 59 10000 2.57 190 13:46 07.06.2021
3361 Clear 22 1014 59 10000 1.54 190 11:37 07.06.2021
3362 Clear 23 1013 56 10000 2.06 190 10:22 07.06.2021
3363 Clear 24 1013 57 10000 2.06 190 09:39 07.06.2021
3364 Clear 25 1013 53 10000 2.06 190 08:28 07.06.2021
3365 Clear 26 1013 52 10000 2.06 200 06:37 07.06.2021
3366 Clear 31 1011 49 10000 2.57 210 21:35 06.06.2021
3367 Clear 31 1011 51 10000 2.06 210 20:35 06.06.2021
3368 Clouds 27 1012 59 10000 2.06 210 18:21 06.06.2021
3369 Clouds 25 1012 65 10000 2.06 200 16:39 06.06.2021
3370 Clear 21 1011 75 10000 1.54 180 13:53 06.06.2021
3371 Clouds 19 1011 84 10000 1.03 190 12:27 06.06.2021
3372 Clouds 19 1010 85 10000 1.54 240 11:48 06.06.2021
3373 Clouds 19 1010 87 10000 0.51 200 10:24 06.06.2021
3374 Clouds 19 1010 88 10000 0.89 234 09:28 06.06.2021
3375 Clouds 19 1010 88 10000 1.03 200 08:56 06.06.2021
3376 Clouds 19 1010 89 10000 1.54 190 07:36 06.06.2021
3377 Clouds 22 1007 86 10000 2.06 200 00:35 06.06.2021
3378 Clouds 26 1006 67 10000 2.06 200 23:19 05.06.2021
3379 Clouds 27 1006 59 10000 2.57 200 22:20 05.06.2021
3380 Clouds 25 1005 66 10000 2.57 230 20:40 05.06.2021
3381 Clouds 24 1004 70 10000 2.06 210 19:36 05.06.2021
3382 Clouds 25 1005 64 10000 2.57 210 16:52 05.06.2021
3383 Clear 23 1005 65 10000 2.57 190 15:56 05.06.2021
3384 Clear 20 1006 73 10000 1.03 190 13:40 05.06.2021
3385 Clear 18 1006 77 10000 1.54 190 11:43 05.06.2021
3386 Clear 19 1007 71 10000 1.54 210 09:50 05.06.2021
3387 Clear 19 1007 67 10000 1.54 210 09:20 05.06.2021
3388 Clouds 20 1008 68 10000 1.54 180 06:27 05.06.2021
3389 Clear 27 1007 47 10000 2.06 210 22:41 04.06.2021
3390 Clear 27 1007 48 10000 2.06 210 22:20 04.06.2021
3391 Clear 27 1007 54 10000 3.09 210 21:20 04.06.2021
3392 Clear 26 1008 58 10000 3.6 220 19:41 04.06.2021
3393 Clear 24 1008 62 10000 1.54 260 18:26 04.06.2021
3394 Clouds 21 1009 79 10000 2.57 260 16:37 04.06.2021
3395 Clouds 19 1009 85 10000 1.54 240 15:34 04.06.2021
3396 Clouds 17 1008 92 10000 1.03 190 11:50 04.06.2021
3397 Clouds 17 1008 92 10000 1.03 190 09:37 04.06.2021
3398 Clear 17 1008 92 10000 1.54 190 07:23 04.06.2021
3399 Clear 18 1008 94 10000 1.54 180 05:53 04.06.2021
3400 Clouds 19 1008 88 10000 1.03 220 23:24 03.06.2021
3401 Clouds 18 1010 94 10000 1.54 180 20:57 03.06.2021
3402 Mist 17 1010 92 9656 1.54 180 20:23 03.06.2021
3403 Mist 18 1011 93 4828 0.51 190 19:48 03.06.2021
3404 Rain 18 1012 90 10000 2.06 160 17:41 03.06.2021
3405 Rain 17 1014 92 10000 1.54 210 15:35 03.06.2021
3406 Rain 17 1014 92 10000 1.54 180 14:43 03.06.2021
3407 Rain 17 1015 85 10000 1.03 190 12:44 03.06.2021
3408 Clouds 17 1015 77 10000 1.03 190 09:53 03.06.2021
3409 Clouds 17 1015 75 10000 1.03 190 09:21 03.06.2021
3410 Clear 20 1017 59 10000 2.06 200 06:48 03.06.2021
3411 Clear 27 1016 32 10000 1.54 230 23:22 02.06.2021
3412 Clear 27 1017 29 10000 3.09 200 21:52 02.06.2021
3413 Clear 27 1017 31 10000 3.09 200 21:20 02.06.2021
3414 Clear 27 1018 33 10000 3.09 200 20:40 02.06.2021
3415 Clear 26 1018 32 10000 2.06 280 19:31 02.06.2021
3416 Clear 23 1020 47 10000 1.54 210 16:40 02.06.2021
3417 Clear 21 1020 52 10000 1.03 220 15:34 02.06.2021
3418 Clear 16 1021 63 10000 4.12 270 13:26 02.06.2021
3419 Clear 13 1019 73 10000 3.6 280 11:50 02.06.2021
3420 Clear 13 1016 73 10000 0.45 242 10:41 02.06.2021
3421 Clear 14 1018 68 10000 1.54 230 09:58 02.06.2021
3422 Clear 14 1020 69 10000 1.54 230 09:38 02.06.2021
3423 Clear 14 1016 69 10000 0.89 296 08:43 02.06.2021
3424 Clouds 15 1018 71 10000 0.51 210 06:57 02.06.2021
3425 Clouds 18 1018 66 10000 1.03 220 03:49 02.06.2021
3426 Clear 25 1018 34 10000 3.09 200 23:36 01.06.2021
3427 Clouds 25 1016 38 10000 2.06 230 21:41 01.06.2021
3428 Clouds 23 1019 38 10000 2.57 200 20:42 01.06.2021
3429 Clouds 21 1018 49 10000 2.06 200 18:32 01.06.2021
3430 Clouds 18 1019 52 10000 1.54 220 17:18 01.06.2021
3431 Clouds 16 1019 56 10000 2.06 210 15:18 01.06.2021
3432 Clouds 14 1019 63 10000 1.54 220 13:19 01.06.2021
3433 Clouds 13 1020 65 10000 1.54 230 12:25 01.06.2021
3434 Clouds 12 1018 67 10000 2.06 250 11:26 01.06.2021
3435 Clear 12 1018 67 10000 1.54 210 10:55 01.06.2021
3436 Clear 12 1018 67 10000 1.54 220 09:57 01.06.2021
3437 Clear 12 1018 67 10000 1.54 210 08:41 01.06.2021
3438 Clear 13 1018 71 10000 1.54 190 07:37 01.06.2021
3439 Clear 21 1019 49 10000 1.03 260 00:45 01.06.2021
3440 Clouds 20 1020 53 10000 1.54 190 23:39 31.05.2021
3441 Clouds 20 1020 55 10000 1.54 190 23:18 31.05.2021
3442 Clouds 20 1020 55 10000 1.54 190 23:18 31.05.2021
3443 Clouds 20 1020 54 10000 1.54 160 22:22 31.05.2021
3444 Clouds 18 1021 56 10000 1.03 350 20:51 31.05.2021
3445 Clouds 17 1022 60 10000 1.54 100 19:55 31.05.2021
3446 Clouds 16 1023 67 10000 2.57 360 18:39 31.05.2021
3447 Clouds 14 1023 72 10000 2.06 20 17:43 31.05.2021
3448 Clouds 13 1024 77 10000 1.54 30 16:41 31.05.2021
3449 Clouds 12 1024 83 10000 2.06 10 15:39 31.05.2021
3450 Clouds 10 1024 89 10000 2.57 10 13:25 31.05.2021
3451 Clouds 10 1023 88 10000 1.54 30 12:54 31.05.2021
3452 Clouds 10 1023 88 10000 2.06 40 11:56 31.05.2021
3453 Clouds 10 1023 88 10000 2.06 40 11:34 31.05.2021
3454 Clouds 10 1023 87 10000 2.06 10 10:30 31.05.2021
3455 Clouds 10 1024 87 10000 1.54 40 09:27 31.05.2021
3456 Clouds 10 1023 86 10000 1.54 30 08:22 31.05.2021
3457 Clouds 11 1024 85 10000 1.54 60 07:39 31.05.2021
3458 Clouds 11 1025 83 10000 1.03 140 06:41 31.05.2021
3459 Rain 14 1025 69 10000 2.57 120 23:49 30.05.2021
3460 Rain 15 1025 61 10000 2.57 120 23:20 30.05.2021
3461 Rain 16 1025 51 10000 1.54 140 22:34 30.05.2021
3462 Clouds 17 1025 41 10000 2.06 100 21:44 30.05.2021
3463 Clouds 18 1025 40 10000 2.06 100 21:24 30.05.2021
3464 Clouds 19 1025 35 10000 2.06 110 20:50 30.05.2021
3465 Clouds 19 1025 35 10000 2.06 110 20:30 30.05.2021
3466 Clouds 19 1026 35 10000 1.54 50 19:35 30.05.2021
3467 Clouds 19 1026 36 10000 3.09 10 18:45 30.05.2021
3468 Clouds 18 1027 39 10000 2.06 70 17:45 30.05.2021
3469 Clouds 17 1027 44 10000 0.89 304 16:52 30.05.2021
3470 Clouds 16 1027 46 10000 0.89 155 16:30 30.05.2021
3471 Clouds 15 1027 49 10000 2.06 40 15:48 30.05.2021
3472 Clear 12 1027 54 10000 0.45 49 14:36 30.05.2021
3473 Clear 8 1027 64 10000 2.06 20 12:59 30.05.2021
3474 Clear 7 1026 65 10000 2.57 10 11:47 30.05.2021
3475 Clear 7 1026 62 10000 2.57 20 10:59 30.05.2021
3476 Clear 7 1026 61 10000 2.57 20 10:34 30.05.2021
3477 Clear 8 1026 59 10000 0.89 312 09:55 30.05.2021
3478 Clear 8 1025 59 10000 0.45 352 09:35 30.05.2021
3479 Clear 8 1025 54 10000 0.45 42 08:52 30.05.2021
3480 Clear 8 1025 52 10000 3.41 32 07:44 30.05.2021
3481 Clear 11 1024 32 10000 1.54 30 04:23 30.05.2021
3482 Clear 17 1022 25 10000 2.57 40 00:44 30.05.2021
3483 Clear 18 1022 24 10000 2.57 40 23:24 29.05.2021
3484 Clear 17 1022 27 10000 0.89 64 22:25 29.05.2021
3485 Clear 17 1022 27 10000 0.89 64 22:25 29.05.2021
3486 Clear 17 1022 26 10000 3.6 20 21:49 29.05.2021
3487 Clear 17 1022 26 10000 3.6 20 21:18 29.05.2021
3488 Clear 17 1022 28 10000 1.34 171 20:42 29.05.2021
3489 Clear 17 1022 28 10000 1.34 89 20:22 29.05.2021
3490 Clear 17 1022 30 10000 3.6 30 19:39 29.05.2021
3491 Clear 16 1022 34 10000 3.09 30 17:55 29.05.2021
3492 Clear 15 1022 35 10000 2.57 50 16:55 29.05.2021
3493 Clear 13 1022 40 10000 3.09 50 15:52 29.05.2021
3494 Clear 12 1022 49 10000 2.57 30 14:49 29.05.2021
3495 Clear 9 1021 58 10000 3.09 30 13:52 29.05.2021
3496 Clear 7 1021 64 10000 3.09 10 12:48 29.05.2021
3497 Clear 6 1021 62 10000 3.09 10 12:28 29.05.2021
3498 Clear 6 1020 66 10000 2.57 360 11:50 29.05.2021
3499 Clear 5 1020 67 10000 2.57 360 11:24 29.05.2021
3500 Clear 5 1020 69 10000 3.44 34 10:48 29.05.2021
3501 Clear 5 1020 69 10000 2.06 10 10:25 29.05.2021
3502 Clear 5 1020 71 10000 2.5 27 09:22 29.05.2021
3503 Clear 5 1020 69 10000 2.5 27 08:50 29.05.2021
3504 Clear 6 1020 64 10000 1.03 300 07:39 29.05.2021
3505 Clear 7 1020 61 10000 1.54 310 06:48 29.05.2021
3506 Clouds 14 1019 33 10000 0.89 30 00:32 29.05.2021
3507 Clouds 14 1019 33 10000 0.89 293 23:21 28.05.2021
3508 Clouds 13 1020 32 10000 0.89 334 21:50 28.05.2021
3509 Clouds 13 1021 32 10000 0.89 305 21:31 28.05.2021
3510 Clear 12 1022 33 10000 0.45 335 20:27 28.05.2021
3511 Clear 12 1022 33 10000 0.89 76 19:48 28.05.2021
3512 Clear 11 1022 35 10000 0.89 343 19:29 28.05.2021
3513 Clear 11 1023 36 10000 1.34 184 18:44 28.05.2021
3514 Clear 10 1023 37 10000 0.89 351 18:25 28.05.2021
3515 Clear 9 1023 41 10000 0.89 337 17:24 28.05.2021
3516 Clouds 8 1024 45 10000 0.89 6 16:33 28.05.2021
3517 Clouds 8 1024 45 10000 0.89 319 15:57 28.05.2021
3518 Clouds 7 1024 46 10000 1.34 41 15:29 28.05.2021
3519 Clouds 6 1025 53 10000 0.89 69 14:37 28.05.2021
3520 Clouds 5 1024 55 10000 0.45 30 13:45 28.05.2021
3521 Clear 4 1024 58 10000 0.45 21 12:58 28.05.2021
3522 Clear 4 1024 59 10000 0.45 29 12:33 28.05.2021
3523 Clouds 3 1023 61 10000 0.45 31 11:33 28.05.2021
3524 Clear 3 1023 63 10000 0.45 23 10:53 28.05.2021
3525 Clear 3 1023 63 10000 0.45 17 10:24 28.05.2021
3526 Clear 4 1023 60 10000 0.45 30 09:30 28.05.2021
3527 Clear 5 1022 56 10000 0.45 22 08:47 28.05.2021
3528 Clear 5 1022 56 10000 0.45 9 08:23 28.05.2021
3529 Clear 5 1022 55 10000 0.45 30 07:39 28.05.2021
3530 Clear 6 1023 52 10000 0.45 19 06:50 28.05.2021
3531 Clear 7 1022 52 10000 0.89 335 06:32 28.05.2021
3532 Clear 10 1021 43 10000 1.34 346 03:38 28.05.2021
3533 Clear 15 1018 36 10000 2.06 300 23:43 27.05.2021
3534 Clear 15 1018 36 10000 2.06 300 23:21 27.05.2021
3535 Clear 15 1018 37 10000 2.06 340 22:21 27.05.2021
3536 Clear 15 1018 37 10000 2.57 360 21:48 27.05.2021
3537 Clear 15 1018 38 10000 2.57 360 21:27 27.05.2021
3538 Clear 15 1018 39 10000 2.06 340 20:47 27.05.2021
3539 Clear 14 1018 40 10000 2.06 340 20:23 27.05.2021
3540 Clouds 14 1018 42 10000 3.09 20 19:31 27.05.2021
3541 Clouds 14 1018 43 10000 2.57 360 18:44 27.05.2021
3542 Clouds 13 1018 44 10000 2.57 360 18:25 27.05.2021
3543 Clouds 12 1018 48 10000 3.09 20 17:27 27.05.2021
3544 Clouds 11 1018 51 10000 3.6 10 16:57 27.05.2021
3545 Clouds 11 1018 51 10000 3.6 10 16:31 27.05.2021
3546 Clouds 11 1018 54 10000 0.89 22 15:43 27.05.2021
3547 Clouds 11 1018 55 10000 0.89 34 15:18 27.05.2021
3548 Clouds 10 1016 56 10000 4.12 30 14:33 27.05.2021
3549 Clouds 10 1016 59 10000 3.6 30 13:55 27.05.2021
3550 Clouds 11 1016 60 10000 3.6 30 13:36 27.05.2021
3551 Clouds 11 1016 62 10000 3.6 30 13:18 27.05.2021
3552 Clouds 11 1014 62 10000 4.12 30 12:41 27.05.2021
3553 Clouds 11 1014 63 10000 4.12 30 12:22 27.05.2021
3554 Clouds 13 1013 66 10000 4.63 10 11:49 27.05.2021
3555 Clouds 15 1011 71 10000 4.12 20 10:55 27.05.2021
3556 Clouds 15 1011 68 10000 4.12 20 10:34 27.05.2021
3557 Clouds 16 1009 68 10000 4.12 10 09:54 27.05.2021
3558 Clouds 16 1009 68 10000 4.12 10 09:54 27.05.2021
3559 Clouds 16 1009 68 10000 4.12 10 09:54 27.05.2021
3560 Clouds 17 1009 68 10000 4.12 10 09:29 27.05.2021
3561 Clouds 18 1008 68 10000 1.54 340 08:27 27.05.2021
3562 Clear 20 1007 60 10000 1.54 190 06:56 27.05.2021
3563 Clear 22 1006 66 10000 1.54 190 04:20 27.05.2021
3564 Clouds 22 1004 81 10000 2.57 200 00:39 27.05.2021
3565 Rain 22 1004 81 10000 2.57 360 23:38 26.05.2021
3566 Clouds 23 1004 78 10000 2.57 360 23:19 26.05.2021
3567 Clouds 26 1003 48 10000 3.09 190 22:41 26.05.2021
3568 Clouds 28 1003 46 10000 3.09 190 22:20 26.05.2021
3569 Clouds 29 1004 47 10000 3.6 210 21:38 26.05.2021
3570 Clouds 29 1004 49 10000 3.6 210 21:20 26.05.2021
3571 Clear 30 1004 47 10000 4.12 210 20:43 26.05.2021
3572 Clear 30 1004 45 10000 4.12 210 20:22 26.05.2021
3573 Clouds 30 1005 43 10000 3.09 210 19:46 26.05.2021
3574 Clouds 30 1005 48 10000 3.09 210 19:21 26.05.2021
3575 Clouds 29 1006 53 10000 3.09 200 18:47 26.05.2021
3576 Clouds 28 1007 56 10000 2.57 200 17:59 26.05.2021
3577 Clouds 27 1008 57 10000 2.57 190 16:57 26.05.2021
3578 Clouds 27 1008 58 10000 2.57 190 16:38 26.05.2021
3579 Clouds 27 1008 59 10000 2.57 190 16:19 26.05.2021
3580 Clouds 26 1008 62 10000 3.09 210 15:44 26.05.2021
3581 Clouds 26 1008 62 10000 3.09 210 15:24 26.05.2021
3582 Clouds 24 1009 68 10000 1.54 190 14:46 26.05.2021
3583 Clouds 23 1009 68 10000 1.54 190 14:21 26.05.2021
3584 Clouds 22 1009 74 10000 1.54 190 13:50 26.05.2021
3585 Clouds 22 1009 72 10000 1.54 180 12:59 26.05.2021
3586 Clouds 22 1009 71 10000 1.54 180 12:29 26.05.2021
3587 Clear 22 1009 69 10000 1.54 190 11:41 26.05.2021
3588 Clear 22 1009 68 10000 1.54 190 11:22 26.05.2021
3589 Clouds 23 1010 65 10000 1.54 190 10:40 26.05.2021
3590 Clouds 23 1010 65 10000 1.54 190 10:21 26.05.2021
3591 Clouds 23 1010 62 10000 2.06 190 09:50 26.05.2021
3592 Clouds 23 1010 62 10000 2.06 190 09:28 26.05.2021
3593 Clouds 23 1010 62 10000 2.06 180 08:44 26.05.2021
3594 Clouds 23 1010 65 10000 1.54 200 07:38 26.05.2021
3595 Clear 22 1010 70 10000 2.57 190 06:43 26.05.2021
3596 Clear 22 1010 70 10000 2.57 190 06:43 26.05.2021
3597 Clouds 23 1010 71 10000 1.03 180 05:27 26.05.2021
3598 Clouds 27 1011 59 10000 2.06 200 00:20 26.05.2021
3599 Clouds 27 1011 64 10000 1.54 190 23:26 25.05.2021
3600 Clouds 26 1012 65 10000 2.06 200 22:46 25.05.2021
3601 Clouds 24 1013 67 10000 2.06 200 21:56 25.05.2021
3602 Clouds 24 1013 69 10000 2.06 200 21:29 25.05.2021
3603 Clouds 24 1013 69 10000 2.06 200 21:29 25.05.2021
3604 Clouds 22 1014 73 10000 1.54 200 20:51 25.05.2021
3605 Clouds 22 1014 74 10000 1.54 200 20:32 25.05.2021
3606 Clouds 23 1013 62 10000 1.34 221 19:41 25.05.2021
3607 Clouds 23 1014 62 10000 1.79 209 19:22 25.05.2021
3608 Clouds 22 1015 63 10000 3.09 200 18:46 25.05.2021
3609 Clouds 21 1015 64 10000 3.09 200 18:24 25.05.2021
3610 Clouds 20 1015 65 10000 2.57 210 17:33 25.05.2021
3611 Clouds 19 1016 68 10000 2.57 210 16:39 25.05.2021
3612 Clouds 19 1016 68 10000 2.57 200 15:59 25.05.2021
3613 Clouds 19 1016 67 10000 2.57 200 15:40 25.05.2021
3614 Clouds 18 1016 59 10000 2.57 200 15:18 25.05.2021
3615 Clear 18 1017 67 10000 2.57 190 14:45 25.05.2021
3616 Clear 17 1017 66 10000 2.57 190 14:22 25.05.2021
3617 Clear 15 1018 68 10000 2.06 180 13:43 25.05.2021
3618 Clear 14 1018 69 10000 2.06 180 13:24 25.05.2021
3619 Clear 13 1018 74 10000 1.54 180 12:45 25.05.2021
3620 Clear 12 1018 74 10000 1.54 180 12:23 25.05.2021
3621 Clear 12 1018 70 10000 1.03 190 11:41 25.05.2021
3622 Clear 12 1018 68 10000 1.54 210 10:58 25.05.2021
3623 Clear 12 1018 67 10000 1.54 210 10:32 25.05.2021
3624 Clear 12 1018 66 10000 1.54 200 09:40 25.05.2021
3625 Clear 13 1018 62 10000 1.54 190 08:36 25.05.2021
3626 Clear 13 1018 44 10000 1.54 190 07:32 25.05.2021
3627 Clear 14 1020 51 10000 0.51 260 05:40 25.05.2021
3628 Clear 15 1020 47 10000 1.03 300 03:29 25.05.2021
3629 Clear 21 1020 24 10000 1.03 310 00:30 25.05.2021
3630 Clear 21 1021 27 10000 2.06 220 23:30 24.05.2021
3631 Clear 21 1021 27 10000 2.06 220 23:30 24.05.2021
3632 Clear 20 1022 27 10000 1.54 270 22:45 24.05.2021
3633 Clear 20 1022 28 10000 1.54 270 22:26 24.05.2021
3634 Clear 20 1023 30 10000 1.54 280 21:47 24.05.2021
3635 Clear 20 1023 30 10000 1.54 280 21:19 24.05.2021
3636 Clear 20 1023 29 10000 1.54 290 20:38 24.05.2021
3637 Clear 19 1023 33 10000 1.54 290 20:19 24.05.2021
3638 Clear 19 1024 35 10000 1.54 200 19:47 24.05.2021
3639 Clear 18 1024 35 10000 1.54 200 19:28 24.05.2021
3640 Clear 18 1025 34 10000 1.54 170 18:53 24.05.2021
3641 Clear 17 1025 34 10000 1.54 170 18:23 24.05.2021
3642 Clear 17 1026 38 10000 2.06 160 17:45 24.05.2021
3643 Clear 16 1026 40 10000 2.06 160 17:21 24.05.2021
3644 Clear 15 1026 41 10000 1.03 110 16:42 24.05.2021
3645 Clear 13 1027 46 10000 1.03 50 15:46 24.05.2021
3646 Clear 12 1027 51 10000 1.54 50 14:58 24.05.2021
3647 Clear 12 1027 51 10000 1.54 50 14:58 24.05.2021
3648 Clear 12 1027 52 10000 1.54 50 14:36 24.05.2021
3649 Clear 10 1026 51 10000 2.57 30 13:55 24.05.2021
3650 Clear 10 1026 53 10000 2.57 30 13:26 24.05.2021
3651 Clear 10 1026 53 10000 2.57 30 13:26 24.05.2021
3652 Clouds 8 1027 66 10000 0.89 3 12:48 24.05.2021
3653 Clouds 8 1026 68 10000 0.89 23 12:28 24.05.2021
3654 Clouds 8 1026 68 10000 0.89 23 12:28 24.05.2021
3655 Clear 8 1025 60 10000 2.06 30 11:42 24.05.2021
3656 Clear 8 1025 60 10000 2.06 30 11:22 24.05.2021
3657 Clear 8 1025 59 10000 2.57 20 10:38 24.05.2021
3658 Clear 9 1025 58 10000 2.57 20 10:19 24.05.2021
3659 Clear 9 1025 58 10000 2.57 20 10:19 24.05.2021
3660 Clear 9 1024 54 10000 3.6 20 09:26 24.05.2021
3661 Clear 10 1024 50 10000 3.09 20 08:52 24.05.2021
3662 Clear 10 1024 49 10000 3.09 20 08:31 24.05.2021
3663 Clear 11 1023 50 10000 2.57 20 06:56 24.05.2021
3664 Clear 14 1022 43 10000 2.57 20 04:26 24.05.2021
3665 Clear 18 1019 35 10000 3.6 30 01:54 24.05.2021
3666 Clear 19 1018 35 10000 4.12 30 00:32 24.05.2021
3667 Clouds 20 1017 38 10000 4.12 20 23:37 23.05.2021
3668 Clouds 20 1017 38 10000 4.12 20 23:19 23.05.2021
3669 Clouds 20 1017 41 10000 3.6 20 22:24 23.05.2021
3670 Clouds 20 1017 43 10000 5.14 30 21:45 23.05.2021
3671 Clouds 20 1017 44 10000 5.14 30 21:20 23.05.2021
3672 Clouds 19 1017 51 10000 4.63 30 20:48 23.05.2021
3673 Clouds 18 1017 52 10000 4.63 30 20:30 23.05.2021
3674 Clouds 18 1016 54 10000 5.66 20 19:43 23.05.2021
3675 Clouds 18 1016 55 10000 5.66 20 19:23 23.05.2021
3676 Clouds 18 1015 58 10000 5.14 20 18:34 23.05.2021
3677 Clouds 18 1014 61 10000 5.14 30 17:51 23.05.2021
3678 Clouds 18 1014 62 10000 5.14 30 17:32 23.05.2021
3679 Clouds 18 1012 75 10000 4.12 20 16:54 23.05.2021
3680 Clouds 17 1012 77 10000 4.12 20 16:26 23.05.2021
3681 Clouds 18 1011 89 10000 1.54 210 15:59 23.05.2021
3682 Clouds 18 1011 92 10000 1.54 210 15:33 23.05.2021
3683 Rain 19 1010 91 10000 2.06 200 14:58 23.05.2021
3684 Rain 19 1010 88 10000 2.06 200 14:34 23.05.2021
3685 Clouds 20 1010 88 10000 2.06 210 13:47 23.05.2021
3686 Clouds 19 1010 88 10000 2.06 210 13:25 23.05.2021
3687 Clouds 19 1010 88 10000 2.06 190 12:33 23.05.2021
3688 Clouds 19 1010 88 10000 2.06 190 11:51 23.05.2021
3689 Clouds 19 1010 88 10000 2.06 190 11:25 23.05.2021
3690 Clear 19 1010 88 10000 2.06 190 10:35 23.05.2021
3691 Clear 19 1011 88 10000 1.54 190 09:59 23.05.2021
3692 Clouds 19 1011 88 10000 1.54 190 09:36 23.05.2021
3693 Clear 20 1012 88 10000 1.54 180 08:27 23.05.2021
3694 Clear 20 1012 92 10000 1.03 200 07:45 23.05.2021
3695 Clear 20 1012 92 10000 1.03 200 07:27 23.05.2021
3696 Clear 20 1012 92 10000 1.03 200 07:27 23.05.2021
3697 Clear 21 1013 88 10000 1.03 180 05:27 23.05.2021
3698 Rain 25 1014 60 10000 1.54 260 00:59 23.05.2021
3699 Clouds 28 1015 47 10000 2.06 250 23:42 22.05.2021
3700 Clouds 28 1015 47 10000 2.06 250 23:20 22.05.2021
3701 Clouds 27 1015 55 10000 1.54 230 22:44 22.05.2021
3702 Clouds 27 1015 54 10000 1.54 230 22:26 22.05.2021
3703 Clouds 27 1016 54 10000 2.06 220 21:47 22.05.2021
3704 Clouds 27 1016 50 10000 2.06 220 21:25 22.05.2021
3705 Clouds 28 1017 44 10000 2.06 200 20:50 22.05.2021
3706 Clouds 28 1017 44 10000 2.06 200 20:22 22.05.2021
3707 Clouds 26 1018 57 10000 1.03 220 19:37 22.05.2021
3708 Clouds 25 1018 58 10000 1.03 220 19:19 22.05.2021
3709 Clouds 25 1018 57 10000 2.06 200 18:39 22.05.2021
3710 Clouds 25 1019 56 10000 1.03 220 17:56 22.05.2021
3711 Clouds 25 1019 57 10000 1.03 220 17:31 22.05.2021
3712 Clouds 25 1019 56 10000 0.51 240 16:51 22.05.2021
3713 Clouds 25 1019 56 10000 0.51 240 16:51 22.05.2021
3714 Clouds 24 1020 58 10000 1.54 210 15:58 22.05.2021
3715 Clouds 24 1020 56 10000 1.54 210 15:30 22.05.2021
3716 Clouds 22 1020 60 10000 1.54 210 14:33 22.05.2021
3717 Clouds 22 1020 60 10000 1.54 230 13:55 22.05.2021
3718 Clouds 22 1020 59 10000 1.54 230 13:34 22.05.2021
3719 Clouds 22 1020 60 10000 1.54 230 12:52 22.05.2021
3720 Clouds 22 1020 60 10000 1.54 230 12:23 22.05.2021
3721 Clouds 21 1020 60 10000 2.06 230 11:43 22.05.2021
3722 Clouds 21 1020 53 10000 2.06 220 10:52 22.05.2021
3723 Clouds 21 1020 53 10000 2.06 220 10:28 22.05.2021
3724 Clouds 22 1021 49 10000 1.54 220 09:36 22.05.2021
3725 Clouds 23 1021 46 10000 1.54 200 08:34 22.05.2021
3726 Clouds 23 1022 46 10000 2.06 190 07:47 22.05.2021
3727 Clouds 24 1023 41 10000 1.54 200 05:59 22.05.2021
3728 Clouds 27 1024 47 10000 0.51 300 02:57 22.05.2021
3729 Clouds 30 1025 41 10000 1.03 280 23:51 21.05.2021
3730 Clouds 30 1025 42 10000 1.03 280 23:20 21.05.2021
3731 Clouds 30 1026 42 10000 1.03 290 22:30 21.05.2021
3732 Clouds 31 1026 39 10000 1.03 10 21:51 21.05.2021
3733 Clouds 31 1026 39 10000 1.03 10 21:27 21.05.2021
3734 Clouds 31 1026 37 10000 2.57 340 20:52 21.05.2021
3735 Clouds 31 1026 30 10000 2.57 340 20:31 21.05.2021
3736 Clouds 30 1027 35 10000 2.06 290 19:59 21.05.2021
3737 Clouds 30 1027 35 10000 2.06 290 19:31 21.05.2021
3738 Clouds 29 1028 39 10000 2.06 200 18:56 21.05.2021
3739 Clouds 29 1028 39 10000 2.06 200 18:29 21.05.2021
3740 Clear 27 1028 44 10000 1.54 230 17:54 21.05.2021
3741 Clear 27 1028 41 10000 1.54 230 17:32 21.05.2021
3742 Clouds 26 1029 44 10000 2.57 210 16:45 21.05.2021
3743 Clouds 25 1029 44 10000 2.57 210 16:26 21.05.2021
3744 Clouds 25 1029 50 10000 2.06 230 15:46 21.05.2021
3745 Clouds 25 1029 44 10000 2.06 230 15:27 21.05.2021
3746 Clouds 23 1028 59 10000 1.54 200 14:54 21.05.2021
3747 Clouds 23 1028 59 10000 1.54 200 14:34 21.05.2021
3748 Clouds 21 1028 63 10000 1.54 200 13:37 21.05.2021
3749 Clouds 20 1028 64 10000 1.03 190 12:51 21.05.2021
3750 Clouds 19 1028 73 10000 0.89 197 12:21 21.05.2021
3751 Clouds 19 1027 77 10000 0.45 223 11:35 21.05.2021
3752 Clouds 20 1027 75 10000 1.97 207 10:53 21.05.2021
3753 Clouds 20 1028 75 10000 1.97 207 10:30 21.05.2021
3754 Clouds 20 1028 94 10000 1.82 211 09:36 21.05.2021
3755 Clouds 20 1028 93 10000 2.38 190 08:48 21.05.2021
3756 Clouds 20 1028 91 10000 2.36 180 08:23 21.05.2021
3757 Clouds 20 1028 90 10000 2.56 177 07:29 21.05.2021
3758 Clouds 20 1028 90 10000 2.72 161 06:20 21.05.2021
3759 Clouds 25 1027 36 10000 2.06 360 01:50 21.05.2021
3760 Clouds 29 1027 30 10000 1.03 230 00:24 21.05.2021
3761 Clouds 29 1027 30 10000 2.06 20 23:41 20.05.2021
3762 Clouds 29 1027 30 10000 2.06 20 23:20 20.05.2021
3763 Clouds 31 1027 28 10000 1.03 310 22:47 20.05.2021
3764 Clouds 30 1027 28 10000 1.03 310 22:29 20.05.2021
3765 Clouds 30 1027 26 10000 1.54 250 21:49 20.05.2021
3766 Clouds 30 1027 32 10000 1.54 250 21:20 20.05.2021
3767 Clouds 30 1027 25 10000 3.09 200 20:41 20.05.2021
3768 Clouds 30 1027 25 10000 3.09 200 20:21 20.05.2021
3769 Clear 29 1028 26 10000 2.06 270 19:48 20.05.2021
3770 Clear 29 1028 26 10000 2.06 270 19:25 20.05.2021
3771 Clouds 28 1028 24 10000 1.03 280 18:41 20.05.2021
3772 Clouds 28 1028 24 10000 1.03 280 18:20 20.05.2021
3773 Clouds 27 1028 34 10000 2.06 210 17:43 20.05.2021
3774 Clouds 26 1028 28 10000 2.06 210 17:23 20.05.2021
3775 Clouds 25 1029 47 10000 1.54 130 16:32 20.05.2021
3776 Clouds 23 1029 48 10000 1.03 170 15:49 20.05.2021
3777 Clouds 22 1029 49 10000 1.03 170 15:29 20.05.2021
3778 Clouds 21 1029 46 10000 0.51 200 14:50 20.05.2021
3779 Clouds 19 1029 69 10000 1.66 200 14:22 20.05.2021
3780 Clouds 18 1028 71 10000 0.45 197 13:53 20.05.2021
3781 Clouds 18 1028 73 10000 1.66 200 13:31 20.05.2021
3782 Clouds 16 1028 76 10000 0.45 247 12:45 20.05.2021
3783 Clouds 16 1028 76 10000 0.45 176 12:19 20.05.2021
3784 Clouds 16 1028 73 10000 1.54 205 11:44 20.05.2021
3785 Clouds 16 1028 63 10000 1.54 200 11:18 20.05.2021
3786 Clouds 16 1027 64 10000 1.54 210 10:42 20.05.2021
3787 Clouds 17 1027 64 10000 1.54 210 10:24 20.05.2021
3788 Clear 17 1027 66 10000 0.89 195 09:45 20.05.2021
3789 Clear 17 1027 58 10000 1.54 210 09:25 20.05.2021
3790 Clouds 17 1026 64 10000 0.89 226 08:55 20.05.2021
3791 Clouds 17 1026 65 10000 0.89 196 08:35 20.05.2021
3792 Clear 18 1026 62 10000 0.89 213 07:54 20.05.2021
3793 Clear 18 1026 60 10000 0.45 211 07:29 20.05.2021
3794 Clear 18 1026 60 10000 0.45 221 06:49 20.05.2021
3795 Clear 19 1027 92 10000 1.57 191 05:51 20.05.2021
3796 Clear 19 1027 91 10000 2.54 175 04:41 20.05.2021
3797 Clear 23 1026 43 10000 1.03 250 02:23 20.05.2021
3798 Clouds 27 1025 41 10000 0.45 185 00:20 20.05.2021
3799 Clouds 27 1026 33 10000 1.03 150 23:49 19.05.2021
3800 Clouds 27 1026 31 10000 1.03 150 23:22 19.05.2021
3801 Clouds 27 1026 33 10000 0.51 70 22:44 19.05.2021
3802 Clouds 27 1026 32 8047 0.51 70 22:23 19.05.2021
3803 Clouds 26 1026 34 10000 0.51 10 21:56 19.05.2021
3804 Clouds 26 1026 33 10000 0.51 10 21:38 19.05.2021
3805 Clouds 26 1026 33 10000 0.51 10 21:20 19.05.2021
3806 Clouds 25 1026 28 10000 1.54 260 20:29 19.05.2021
3807 Clouds 25 1027 28 10000 1.54 120 19:58 19.05.2021
3808 Clouds 25 1027 28 10000 1.54 120 19:40 19.05.2021
3809 Clouds 25 1027 29 10000 1.54 120 19:20 19.05.2021
3810 Clear 24 1027 29 10000 2.06 140 18:39 19.05.2021
3811 Clear 24 1027 30 10000 2.06 140 18:21 19.05.2021
3812 Clouds 22 1028 33 10000 1.03 100 17:25 19.05.2021
3813 Clouds 22 1028 34 10000 1.03 120 16:57 19.05.2021
3814 Clouds 21 1028 35 10000 1.03 120 16:36 19.05.2021
3815 Clouds 20 1027 40 10000 0.51 10 15:55 19.05.2021
3816 Clouds 19 1027 40 10000 0.51 10 15:34 19.05.2021
3817 Clouds 18 1027 42 10000 1.03 360 14:56 19.05.2021
3818 Clouds 17 1027 41 10000 1.03 360 14:33 19.05.2021
3819 Clouds 15 1027 42 10000 1.54 360 13:48 19.05.2021
3820 Clouds 14 1027 66 10000 0.45 279 13:30 19.05.2021
3821 Clouds 12 1026 74 10000 0.45 306 12:44 19.05.2021
3822 Clouds 12 1026 72 10000 0.89 310 12:22 19.05.2021
3823 Clear 11 1026 70 10000 0.45 141 11:56 19.05.2021
3824 Clear 11 1026 71 10000 0.89 266 11:38 19.05.2021
3825 Clear 11 1025 74 10000 0.89 265 11:18 19.05.2021
3826 Clear 12 1025 71 10000 0.89 268 10:44 19.05.2021
3827 Clear 12 1024 70 10000 1.34 269 10:21 19.05.2021
3828 Clear 13 1024 68 10000 0.89 168 09:31 19.05.2021
3829 Clear 13 1024 68 10000 0.89 168 09:30 19.05.2021
3830 Clear 13 1023 68 10000 1.49 6 08:58 19.05.2021
3831 Clear 14 1024 67 10000 1.49 6 08:35 19.05.2021
3832 Clouds 14 1023 57 10000 0.95 17 07:56 19.05.2021
3833 Clear 16 1023 56 10000 1.23 40 06:54 19.05.2021
3834 Clear 16 1023 55 10000 1.23 40 06:36 19.05.2021
3835 Clouds 18 1023 64 10000 1.86 354 04:43 19.05.2021
3836 Clouds 23 1022 27 10000 1.54 320 02:33 19.05.2021
3837 Clear 25 1021 23 10000 3.09 360 00:34 19.05.2021
3838 Clear 25 1021 23 10000 1.54 330 23:49 18.05.2021
3839 Clouds 25 1021 25 10000 2.57 350 22:59 18.05.2021
3840 Clouds 25 1021 25 10000 2.57 350 22:37 18.05.2021
3841 Clouds 25 1021 32 10000 2.57 350 22:19 18.05.2021
3842 Clouds 25 1021 41 10000 2.06 260 21:39 18.05.2021
3843 Clouds 25 1021 44 10000 2.06 260 21:18 18.05.2021
3844 Clouds 24 1021 41 10000 2.06 260 21:18 18.05.2021
3845 Clouds 23 1022 48 10000 2.06 210 20:46 18.05.2021
3846 Clouds 24 1022 48 10000 2.06 210 20:18 18.05.2021
3847 Clouds 23 1023 48 10000 2.06 230 19:46 18.05.2021
3848 Clouds 23 1023 49 10000 2.06 230 19:23 18.05.2021
3849 Clouds 22 1024 50 10000 1.54 150 18:45 18.05.2021
3850 Clouds 22 1024 52 10000 1.54 150 18:24 18.05.2021
3851 Clouds 21 1024 54 10000 1.03 350 17:49 18.05.2021
3852 Clouds 21 1024 54 10000 1.03 350 17:26 18.05.2021
3853 Clouds 20 1024 55 10000 1.03 110 16:35 18.05.2021
3854 Clouds 19 1024 58 10000 1.54 190 15:57 18.05.2021
3855 Clouds 19 1024 59 10000 1.54 190 15:37 18.05.2021
3856 Clouds 19 1024 62 10000 0.89 83 15:18 18.05.2021
3857 Clouds 17 1024 59 10000 1.54 360 14:29 18.05.2021
3858 Clear 16 1024 61 10000 1.03 290 13:31 18.05.2021
3859 Clouds 15 1023 70 10000 0.89 281 12:38 18.05.2021
3860 Clouds 14 1023 73 10000 0.45 263 12:18 18.05.2021
3861 Clear 15 1023 62 10000 1.03 240 11:37 18.05.2021
3862 Clouds 15 1022 57 10000 2.06 270 10:55 18.05.2021
3863 Clouds 16 1022 56 10000 2.06 270 10:30 18.05.2021
3864 Clouds 16 1022 48 10000 2.57 270 09:53 18.05.2021
3865 Clouds 16 1022 48 10000 2.57 270 09:33 18.05.2021
3866 Clouds 16 1022 48 10000 2.57 270 09:33 18.05.2021
3867 Clouds 17 1022 42 10000 0.51 220 08:51 18.05.2021
3868 Clouds 17 1022 42 10000 0.51 220 08:19 18.05.2021
3869 Clouds 18 1022 42 10000 2.06 190 07:39 18.05.2021
3870 Clouds 19 1022 37 10000 1.54 200 06:34 18.05.2021
3871 Clouds 22 1021 26 10000 1.03 220 02:31 18.05.2021
3872 Clouds 23 1021 23 10000 1.54 200 01:50 18.05.2021
3873 Clouds 25 1021 20 10000 2.06 200 00:48 18.05.2021
3874 Clear 25 1021 20 10000 2.06 200 00:25 18.05.2021
3875 Clear 25 1021 19 10000 2.57 210 23:39 17.05.2021
3876 Clear 25 1021 19 10000 2.57 210 23:21 17.05.2021
3877 Clear 25 1022 20 10000 2.57 240 22:44 17.05.2021
3878 Clear 25 1022 20 10000 2.57 240 22:25 17.05.2021
3879 Clear 25 1022 19 10000 2.57 190 21:57 17.05.2021
3880 Clear 25 1022 19 10000 2.57 190 21:21 17.05.2021
3881 Clear 24 1022 23 10000 2.06 340 20:44 17.05.2021
3882 Clear 24 1022 23 10000 2.06 340 20:22 17.05.2021
3883 Clear 23 1023 29 10000 1.03 220 19:47 17.05.2021
3884 Clear 23 1023 29 10000 1.03 220 19:27 17.05.2021
3885 Clear 21 1024 30 10000 2.57 220 18:51 17.05.2021
3886 Clear 22 1024 30 10000 2.57 220 18:32 17.05.2021
3887 Clear 21 1024 35 10000 1.54 170 17:57 17.05.2021
3888 Clear 21 1024 35 10000 1.54 170 17:36 17.05.2021
3889 Clear 19 1025 42 10000 2.06 200 16:57 17.05.2021
3890 Clear 18 1025 42 10000 2.06 200 16:25 17.05.2021
3891 Clear 17 1025 39 10000 1.54 170 15:54 17.05.2021
3892 Clear 17 1025 39 10000 1.54 170 15:24 17.05.2021
3893 Clouds 16 1025 42 10000 1.03 200 14:47 17.05.2021
3894 Clouds 16 1025 42 10000 1.03 200 14:28 17.05.2021
3895 Clouds 15 1024 63 10000 1.54 170 13:55 17.05.2021
3896 Clouds 11 1024 76 10000 1.54 200 12:45 17.05.2021
3897 Clouds 10 1024 76 10000 1.54 200 12:26 17.05.2021
3898 Clear 9 1024 87 10000 2.06 120 11:49 17.05.2021
3899 Clear 9 1024 87 10000 2.06 120 11:26 17.05.2021
3900 Clear 9 1023 93 10000 1.87 229 10:56 17.05.2021
3901 Clear 10 1023 93 10000 1.87 229 10:31 17.05.2021
3902 Clear 10 1023 87 10000 1.54 150 09:58 17.05.2021
3903 Clouds 11 1023 71 10000 0.51 240 08:50 17.05.2021
3904 Clouds 12 1023 71 10000 0.51 240 08:23 17.05.2021
3905 Clouds 13 1023 67 10000 1.03 220 07:33 17.05.2021
3906 Clouds 13 1023 58 10000 1.54 230 06:44 17.05.2021
3907 Clouds 14 1023 58 10000 1.54 230 06:19 17.05.2021
3908 Clouds 15 1022 51 10000 1.03 290 03:33 17.05.2021
3909 Clouds 20 1022 42 10000 1.03 320 01:30 17.05.2021
3910 Clouds 20 1022 40 10000 1.03 340 00:37 17.05.2021
3911 Clouds 21 1022 40 10000 2.57 10 23:32 16.05.2021
3912 Clouds 21 1022 55 10000 1.03 320 22:58 16.05.2021
3913 Clouds 21 1022 37 10000 4.63 300 22:30 16.05.2021
3914 Rain 21 1022 37 10000 3.09 10 21:58 16.05.2021
3915 Rain 21 1022 37 10000 3.09 10 21:58 16.05.2021
3916 Rain 21 1022 37 10000 3.09 10 21:39 16.05.2021
3917 Clouds 21 1022 37 10000 3.09 10 21:20 16.05.2021
3918 Clouds 23 1022 33 10000 1.03 310 20:39 16.05.2021
3919 Clouds 23 1022 33 10000 1.03 310 20:19 16.05.2021
3920 Clouds 22 1022 30 10000 2.06 260 19:43 16.05.2021
3921 Clouds 22 1022 30 10000 2.06 260 19:20 16.05.2021
3922 Clouds 21 1023 40 10000 1.54 130 18:45 16.05.2021
3923 Clouds 21 1023 40 10000 1.54 130 18:24 16.05.2021
3924 Clouds 20 1024 40 10000 1.03 70 17:53 16.05.2021
3925 Clouds 20 1024 40 10000 1.03 70 17:30 16.05.2021
3926 Clouds 18 1024 45 10000 1.03 10 16:59 16.05.2021
3927 Clouds 18 1024 45 10000 1.03 10 16:41 16.05.2021
3928 Clouds 17 1024 45 10000 1.03 10 16:21 16.05.2021
3929 Clouds 17 1024 48 10000 1.03 60 15:47 16.05.2021
3930 Clouds 15 1024 48 10000 1.03 60 15:23 16.05.2021
3931 Clouds 15 1024 54 10000 0.51 350 14:48 16.05.2021
3932 Clouds 14 1024 54 10000 0.51 350 14:20 16.05.2021
3933 Clouds 13 1023 54 10000 0.51 340 13:56 16.05.2021
3934 Clouds 12 1023 71 10000 1.03 0 13:22 16.05.2021
3935 Clouds 12 1022 58 10000 0.51 340 12:58 16.05.2021
3936 Clouds 11 1022 58 10000 0.51 340 12:40 16.05.2021
3937 Clouds 10 1022 71 10000 1.03 0 12:21 16.05.2021
3938 Clear 10 1022 71 10000 2.67 235 11:43 16.05.2021
3939 Clouds 10 1021 71 10000 2.57 280 10:57 16.05.2021
3940 Clouds 11 1021 71 10000 2.57 280 10:33 16.05.2021
3941 Clouds 11 1020 76 10000 1.03 90 09:55 16.05.2021
3942 Clouds 11 1021 51 10000 0.51 260 09:29 16.05.2021
3943 Clear 11 1021 66 10000 2.93 238 08:58 16.05.2021
3944 Clear 12 1021 66 10000 2.75 229 08:27 16.05.2021
3945 Clouds 12 1020 58 10000 1.03 230 07:41 16.05.2021
3946 Clouds 12 1020 58 10000 1.03 230 07:21 16.05.2021
3947 Clouds 15 1021 39 10000 1.03 210 05:32 16.05.2021
3948 Clouds 23 1019 20 10000 2.57 210 00:50 16.05.2021
3949 Clouds 23 1019 20 10000 2.06 230 23:57 15.05.2021
3950 Clouds 23 1019 20 10000 2.06 230 23:22 15.05.2021
3951 Clouds 24 1020 20 10000 2.06 280 22:57 15.05.2021
3952 Clouds 24 1020 20 10000 2.06 280 22:27 15.05.2021
3953 Clouds 24 1020 23 10000 1.54 250 21:42 15.05.2021
3954 Clouds 24 1020 23 10000 1.54 250 21:21 15.05.2021
3955 Clouds 23 1020 28 10000 2.06 290 20:44 15.05.2021
3956 Clouds 23 1020 28 10000 2.06 290 20:21 15.05.2021
3957 Clouds 21 1021 30 10000 2.06 220 19:41 15.05.2021
3958 Clouds 20 1021 37 10000 2.57 200 18:48 15.05.2021
3959 Clouds 20 1021 37 10000 2.57 200 18:21 15.05.2021
3960 Clouds 19 1022 39 10000 2.06 240 17:40 15.05.2021
3961 Clouds 17 1022 39 10000 2.06 190 16:50 15.05.2021
3962 Clouds 17 1022 39 10000 2.06 190 16:27 15.05.2021
3963 Clouds 16 1022 39 10000 2.06 210 15:59 15.05.2021
3964 Clouds 15 1022 39 10000 2.06 210 15:20 15.05.2021
3965 Clouds 15 1022 41 10000 2.06 220 14:43 15.05.2021
3966 Clouds 14 1022 41 10000 2.06 220 14:22 15.05.2021
3967 Clouds 13 1021 41 10000 2.57 200 13:37 15.05.2021
3968 Clouds 11 1021 41 10000 1.54 220 12:49 15.05.2021
3969 Clouds 10 1020 50 10000 2.06 160 11:53 15.05.2021
3970 Clouds 12 1020 35 10000 4.12 270 10:59 15.05.2021
3971 Clouds 12 1020 35 10000 4.12 270 10:31 15.05.2021
3972 Clouds 12 1020 35 10000 3.6 260 09:44 15.05.2021
3973 Clouds 14 1020 36 10000 1.54 220 08:34 15.05.2021
3974 Clouds 14 1020 38 10000 1.54 230 07:53 15.05.2021
3975 Clouds 14 1020 38 10000 1.54 230 07:22 15.05.2021
3976 Clouds 16 1020 31 10000 1.03 210 06:51 15.05.2021
3977 Clouds 17 1020 32 10000 1.54 210 05:37 15.05.2021
3978 Clouds 18 1020 26 10000 1.54 280 03:26 15.05.2021
3979 Clouds 21 1019 21 10000 2.06 350 00:18 15.05.2021
3980 Clouds 22 1018 18 10000 2.06 250 23:28 14.05.2021
3981 Clouds 23 1018 18 10000 2.06 260 22:28 14.05.2021
3982 Clouds 23 1019 20 10000 3.09 290 21:56 14.05.2021
3983 Clouds 23 1019 20 10000 3.09 290 21:28 14.05.2021
3984 Clouds 23 1019 27 10000 2.57 230 20:49 14.05.2021
3985 Clouds 23 1019 27 10000 2.57 230 20:26 14.05.2021
3986 Clouds 23 1019 23 10000 2.57 320 19:42 14.05.2021
3987 Clouds 22 1019 23 10000 2.57 320 19:22 14.05.2021
3988 Clouds 22 1020 35 10000 1.54 270 18:46 14.05.2021
3989 Clouds 21 1020 35 10000 1.54 270 18:22 14.05.2021
3990 Clouds 20 1020 45 10000 2.06 250 17:39 14.05.2021
3991 Clouds 19 1020 45 10000 2.06 250 17:19 14.05.2021
3992 Clouds 18 1021 48 10000 2.57 240 16:43 14.05.2021
3993 Clouds 17 1021 48 10000 2.57 240 16:25 14.05.2021
3994 Clouds 16 1021 51 10000 2.06 210 15:25 14.05.2021
3995 Clouds 15 1021 54 10000 1.54 250 14:41 14.05.2021
3996 Clouds 13 1021 54 10000 2.06 260 13:54 14.05.2021
3997 Clouds 12 1021 54 10000 2.06 260 13:29 14.05.2021
3998 Clouds 12 1020 62 10000 3.09 290 12:48 14.05.2021
3999 Clouds 11 1020 62 10000 3.09 290 12:28 14.05.2021
4000 Clouds 12 1020 54 10000 2.57 280 11:33 14.05.2021
4001 Clouds 12 1020 51 10000 3.09 270 10:58 14.05.2021
4002 Clouds 12 1020 51 10000 3.09 270 10:37 14.05.2021
4003 Clouds 12 1020 66 10000 2.57 220 09:46 14.05.2021
4004 Clouds 12 1020 54 10000 1.03 270 09:28 14.05.2021
4005 Clouds 12 1021 62 10000 1.03 240 08:44 14.05.2021
4006 Clouds 12 1021 54 10000 1.03 240 07:53 14.05.2021
4007 Clouds 12 1021 54 10000 0.51 300 06:46 14.05.2021
4008 Clouds 14 1020 47 10000 0.51 250 03:34 14.05.2021
4009 Clouds 17 1020 42 10000 0.51 110 01:58 14.05.2021
4010 Clouds 18 1019 24 10000 1.03 340 00:36 14.05.2021
4011 Clouds 19 1020 30 10000 2.57 20 23:48 13.05.2021
4012 Clouds 20 1020 30 10000 2.57 20 23:20 13.05.2021
4013 Clouds 21 1020 24 10000 2.57 310 22:46 13.05.2021
4014 Clouds 21 1020 24 10000 2.57 310 22:28 13.05.2021
4015 Clouds 21 1020 31 10000 4.12 60 21:47 13.05.2021
4016 Clouds 21 1020 31 10000 4.12 60 21:27 13.05.2021
4017 Clouds 21 1021 29 10000 1.54 280 20:52 13.05.2021
4018 Clouds 21 1021 29 10000 1.54 280 20:52 13.05.2021
4019 Clouds 21 1021 28 10000 1.54 280 20:31 13.05.2021
4020 Clouds 20 1022 29 10000 1.54 220 19:45 13.05.2021
4021 Clear 20 1022 29 10000 1.54 220 19:22 13.05.2021
4022 Clear 20 1022 30 10000 2.06 290 18:56 13.05.2021
4023 Clear 19 1022 30 10000 2.06 290 18:31 13.05.2021
4024 Clear 19 1023 31 10000 2.57 10 17:57 13.05.2021
4025 Clear 19 1023 31 10000 2.57 10 17:38 13.05.2021
4026 Clear 18 1023 32 10000 2.57 10 17:19 13.05.2021
4027 Clear 17 1023 35 10000 1.54 360 16:36 13.05.2021
4028 Clear 17 1023 35 10000 1.54 360 16:18 13.05.2021
4029 Clear 15 1023 35 10000 1.54 360 15:42 13.05.2021
4030 Clear 14 1023 30 10000 1.54 360 15:21 13.05.2021
4031 Clear 13 1023 37 10000 1.54 30 14:47 13.05.2021
4032 Clear 12 1023 38 10000 1.54 30 14:28 13.05.2021
4033 Clear 10 1022 39 10000 3.6 350 13:47 13.05.2021
4034 Clear 9 1023 54 10000 0.89 300 13:28 13.05.2021
4035 Clear 7 1022 62 10000 0.89 309 12:58 13.05.2021
4036 Clear 7 1023 64 10000 2.05 244 12:39 13.05.2021
4037 Clear 6 1022 77 10000 2.02 249 11:50 13.05.2021
4038 Clear 6 1022 76 10000 2.02 249 11:30 13.05.2021
4039 Clear 6 1021 74 10000 2.06 249 10:54 13.05.2021
4040 Clear 6 1021 73 10000 2.06 249 10:33 13.05.2021
4041 Clear 7 1021 67 10000 0.45 272 09:41 13.05.2021
4042 Clear 7 1021 70 10000 0.45 250 09:20 13.05.2021
4043 Clear 8 1021 66 10000 0.89 209 08:29 13.05.2021
4044 Clouds 9 1021 58 10000 0.89 242 07:52 13.05.2021
4045 Clouds 11 1021 30 10000 2.06 320 06:44 13.05.2021
4046 Clouds 11 1021 30 10000 1.03 350 05:48 13.05.2021
4047 Clouds 14 1020 42 10000 1.03 330 02:38 13.05.2021
4048 Clouds 17 1019 29 10000 1.54 250 00:27 13.05.2021
4049 Clouds 17 1019 34 10000 2.06 10 23:36 12.05.2021
4050 Clouds 17 1019 34 10000 1.54 350 22:53 12.05.2021
4051 Clouds 16 1019 33 10000 1.54 350 22:18 12.05.2021
4052 Clouds 17 1019 33 10000 2.57 10 21:46 12.05.2021
4053 Clouds 16 1019 31 10000 3.6 10 20:57 12.05.2021
4054 Clouds 16 1019 33 10000 3.6 10 20:30 12.05.2021
4055 Clouds 16 1019 33 10000 3.6 20 19:49 12.05.2021
4056 Clouds 15 1019 35 10000 2.06 30 18:50 12.05.2021
4057 Clouds 15 1019 35 10000 2.06 30 18:24 12.05.2021
4058 Clouds 15 1019 41 10000 1.03 40 17:51 12.05.2021
4059 Clouds 14 1019 44 10000 1.03 40 17:33 12.05.2021
4060 Clouds 14 1019 51 10000 1.03 190 16:41 12.05.2021
4061 Clouds 13 1019 53 10000 1.03 190 16:20 12.05.2021
4062 Clouds 11 1019 50 10000 2.57 360 15:40 12.05.2021
4063 Clouds 11 1018 61 10000 3.09 350 14:57 12.05.2021
4064 Clouds 10 1018 61 10000 3.09 350 14:34 12.05.2021
4065 Clouds 9 1017 71 10000 2.06 310 13:48 12.05.2021
4066 Clouds 8 1017 71 10000 2.06 310 13:21 12.05.2021
4067 Clouds 7 1016 81 10000 2.57 300 12:35 12.05.2021
4068 Clouds 6 1016 87 10000 2.06 290 11:47 12.05.2021
4069 Clouds 6 1016 87 10000 2.06 290 11:24 12.05.2021
4070 Clouds 7 1015 87 10000 2.06 290 10:58 12.05.2021
4071 Clouds 7 1015 87 10000 2.06 290 10:58 12.05.2021
4072 Clouds 7 1015 87 10000 2.06 290 10:28 12.05.2021
4073 Clouds 7 1014 87 10000 2.57 290 09:44 12.05.2021
4074 Clouds 7 1014 87 10000 2.57 290 09:26 12.05.2021
4075 Clouds 7 1014 87 10000 2.57 290 08:46 12.05.2021
4076 Clouds 7 1014 87 10000 2.57 290 08:27 12.05.2021
4077 Clouds 7 1014 93 10000 2.57 280 07:28 12.05.2021
4078 Clouds 7 1014 81 10000 1.54 260 04:20 12.05.2021
4079 Clouds 10 1012 66 10000 1.54 190 00:46 12.05.2021
4080 Clouds 10 1012 66 10000 1.54 190 00:27 12.05.2021
4081 Clouds 11 1012 58 10000 2.06 210 23:46 11.05.2021
4082 Clouds 11 1012 58 10000 2.06 210 23:28 11.05.2021
4083 Clouds 11 1012 62 10000 2.57 220 22:47 11.05.2021
4084 Clouds 12 1012 62 10000 2.57 220 22:20 11.05.2021
4085 Clouds 12 1012 54 10000 1.54 200 21:52 11.05.2021
4086 Clouds 11 1012 54 10000 1.54 200 21:33 11.05.2021
4087 Clouds 12 1012 54 10000 2.57 220 20:55 11.05.2021
4088 Clouds 12 1012 54 10000 2.57 220 20:37 11.05.2021
4089 Clouds 12 1012 54 10000 2.57 220 20:19 11.05.2021
4090 Clouds 11 1012 58 10000 3.09 220 19:38 11.05.2021
4091 Clouds 12 1012 58 10000 3.09 220 19:20 11.05.2021
4092 Clouds 12 1012 50 10000 2.06 240 18:42 11.05.2021
4093 Clouds 11 1012 50 10000 2.06 240 18:24 11.05.2021
4094 Clouds 11 1012 54 10000 2.06 220 17:38 11.05.2021
4095 Clouds 11 1012 54 10000 2.06 220 17:19 11.05.2021
4096 Clouds 11 1012 54 10000 2.57 200 16:39 11.05.2021
4097 Clouds 11 1012 54 10000 2.57 200 16:20 11.05.2021
4098 Clouds 10 1012 66 10000 1.54 220 15:42 11.05.2021
4099 Clouds 10 1012 66 10000 1.54 220 15:18 11.05.2021
4100 Clouds 9 1012 76 10000 1.54 230 14:43 11.05.2021
4101 Clouds 9 1012 76 10000 1.54 230 14:22 11.05.2021
4102 Clouds 8 1012 76 10000 1.54 210 13:42 11.05.2021
4103 Clouds 8 1012 76 10000 1.54 210 13:21 11.05.2021
4104 Clouds 8 1012 82 10000 1.79 271 12:51 11.05.2021
4105 Clouds 8 1011 76 10000 1.54 220 12:27 11.05.2021
4106 Clouds 8 1011 76 10000 1.54 220 11:49 11.05.2021
4107 Clouds 8 1011 76 10000 1.54 220 11:27 11.05.2021
4108 Clouds 8 1011 76 10000 1.54 210 10:53 11.05.2021
4109 Clouds 8 1011 76 10000 1.54 210 10:29 11.05.2021
4110 Clouds 8 1011 66 10000 1.03 200 09:58 11.05.2021
4111 Clouds 9 1011 66 10000 1.03 200 09:38 11.05.2021
4112 Clouds 9 1011 66 10000 1.03 200 09:19 11.05.2021
4113 Clouds 9 1012 57 10000 1.54 200 08:46 11.05.2021
4114 Clouds 10 1012 57 10000 1.54 200 08:26 11.05.2021
4115 Clouds 10 1012 50 10000 1.54 200 07:52 11.05.2021
4116 Clouds 10 1012 50 10000 1.54 200 07:24 11.05.2021
4117 Clouds 14 1011 44 10000 1.03 310 02:22 11.05.2021
4118 Clouds 15 1011 38 10000 1.03 230 00:53 11.05.2021
4119 Clouds 15 1011 38 10000 1.03 230 00:34 11.05.2021
4120 Clouds 16 1010 39 10000 1.03 210 23:43 10.05.2021
4121 Clouds 16 1010 39 10000 1.03 210 23:21 10.05.2021
4122 Clouds 16 1010 31 10000 4.63 260 22:43 10.05.2021
4123 Clouds 16 1010 32 10000 2.06 250 22:19 10.05.2021
4124 Clouds 17 1010 31 10000 2.57 220 21:41 10.05.2021
4125 Clouds 17 1010 31 10000 2.57 220 21:23 10.05.2021
4126 Clouds 17 1010 36 10000 2.06 220 20:43 10.05.2021
4127 Clouds 17 1010 36 10000 2.06 220 20:20 10.05.2021
4128 Clouds 17 1011 39 10000 2.06 250 19:45 10.05.2021
4129 Clear 17 1011 39 10000 2.06 250 19:24 10.05.2021
4130 Clear 16 1011 44 10000 1.54 360 18:55 10.05.2021
4131 Clear 16 1011 44 10000 1.54 360 18:26 10.05.2021
4132 Clear 15 1011 47 10000 1.54 160 17:46 10.05.2021
4133 Clear 15 1011 47 10000 1.54 160 17:28 10.05.2021
4134 Clear 15 1011 47 10000 1.03 180 16:52 10.05.2021
4135 Clear 14 1011 47 10000 1.03 180 16:26 10.05.2021
4136 Clear 13 1012 50 10000 1.03 310 15:41 10.05.2021
4137 Clouds 13 1012 50 10000 1.03 310 15:22 10.05.2021
4138 Clouds 11 1012 54 10000 1.03 350 14:53 10.05.2021
4139 Clouds 11 1012 54 10000 1.03 350 14:25 10.05.2021
4140 Clouds 10 1011 62 10000 1.03 350 13:47 10.05.2021
4141 Clouds 7 1010 71 10000 1.82 267 12:52 10.05.2021
4142 Clouds 7 1010 81 10000 2.06 300 12:31 10.05.2021
4143 Clouds 6 1009 81 10000 1.65 259 11:49 10.05.2021
4144 Clouds 6 1009 81 10000 1.32 259 11:29 10.05.2021
4145 Clear 6 1009 75 10000 1.54 90 10:51 10.05.2021
4146 Clear 7 1009 75 10000 1.54 90 10:32 10.05.2021
4147 Clouds 7 1009 76 10000 2.06 360 09:53 10.05.2021
4148 Clouds 7 1009 76 10000 2.06 360 09:29 10.05.2021
4149 Clouds 8 1010 57 10000 2.06 310 08:41 10.05.2021
4150 Clouds 9 1010 57 10000 2.06 310 08:19 10.05.2021
4151 Clouds 10 1011 54 10000 1.54 300 07:43 10.05.2021
4152 Clouds 10 1011 54 10000 1.54 300 07:25 10.05.2021
4153 Clouds 10 1011 50 10000 1.03 290 06:47 10.05.2021
4154 Clouds 13 1011 44 10000 4.63 260 02:19 10.05.2021
4155 Clouds 16 1010 38 10000 2.06 200 00:19 10.05.2021
4156 Clouds 17 1011 39 10000 1.03 330 22:46 09.05.2021
4157 Clouds 17 1011 39 10000 1.03 330 22:22 09.05.2021
4158 Clouds 16 1011 41 10000 3.09 260 21:55 09.05.2021
4159 Clouds 16 1011 41 10000 3.09 260 21:36 09.05.2021
4160 Clouds 15 1012 54 10000 2.06 220 20:49 09.05.2021
4161 Clouds 14 1012 54 10000 2.06 220 20:31 09.05.2021
4162 Clouds 14 1013 66 10000 2.06 210 19:45 09.05.2021
4163 Clouds 13 1013 66 10000 2.06 210 19:26 09.05.2021
4164 Clouds 12 1014 66 10000 2.57 210 18:49 09.05.2021
4165 Clouds 11 1014 66 10000 2.57 210 18:26 09.05.2021
4166 Clouds 12 1014 71 10000 2.06 210 17:37 09.05.2021
4167 Clouds 11 1014 71 10000 1.54 240 16:43 09.05.2021
4168 Clouds 11 1014 71 10000 1.54 240 16:23 09.05.2021
4169 Clouds 10 1014 76 10000 1.03 230 15:24 09.05.2021
4170 Clouds 9 1014 81 10000 1.03 250 14:58 09.05.2021
4171 Clouds 8 1014 81 10000 1.03 250 14:26 09.05.2021
4172 Clouds 8 1014 81 10000 1.03 240 13:43 09.05.2021
4173 Clouds 7 1013 87 10000 1.54 230 12:55 09.05.2021
4174 Clouds 7 1013 87 10000 1.54 230 12:27 09.05.2021
4175 Clouds 6 1013 87 10000 1.54 250 11:39 09.05.2021
4176 Clouds 6 1013 87 10000 1.54 250 11:19 09.05.2021
4177 Clouds 7 1012 93 10000 1.54 220 10:40 09.05.2021
4178 Clouds 7 1012 87 10000 1.54 250 09:46 09.05.2021
4179 Clouds 7 1012 87 10000 1.54 250 09:23 09.05.2021
4180 Clouds 8 1012 87 10000 2.06 270 08:54 09.05.2021
4181 Clouds 8 1012 87 10000 2.06 270 08:30 09.05.2021
4182 Clouds 8 1012 81 10000 2.06 260 07:50 09.05.2021
4183 Clouds 9 1012 81 10000 1.03 250 06:49 09.05.2021
4184 Clouds 10 1012 71 10000 1.54 270 04:45 09.05.2021
4185 Clouds 15 1011 31 10000 2.06 20 00:51 09.05.2021
4186 Clouds 15 1011 33 10000 2.06 40 23:36 08.05.2021
4187 Clouds 15 1010 31 10000 2.57 60 22:58 08.05.2021
4188 Clouds 15 1010 31 10000 2.57 60 22:39 08.05.2021
4189 Clouds 15 1010 31 10000 2.57 60 22:19 08.05.2021
4190 Clouds 15 1011 31 10000 1.03 70 21:44 08.05.2021
4191 Clouds 15 1011 31 10000 1.03 70 21:18 08.05.2021
4192 Clouds 15 1011 31 10000 1.03 20 20:43 08.05.2021
4193 Clouds 16 1011 31 10000 1.03 20 20:19 08.05.2021
4194 Clouds 15 1011 38 10000 1.54 100 19:23 08.05.2021
4195 Clouds 15 1012 44 10000 1.54 50 18:53 08.05.2021
4196 Clouds 15 1012 44 10000 1.54 50 18:35 08.05.2021
4197 Clouds 14 1012 47 10000 3.09 40 17:51 08.05.2021
4198 Clouds 13 1012 47 10000 1.54 30 17:21 08.05.2021
4199 Clouds 12 1012 47 10000 1.54 50 16:31 08.05.2021
4200 Clouds 11 1012 46 10000 1.54 40 15:51 08.05.2021
4201 Clouds 11 1012 46 10000 1.54 40 15:31 08.05.2021
4202 Clouds 10 1012 53 10000 1.54 50 14:49 08.05.2021
4203 Clouds 10 1012 53 10000 1.54 50 14:20 08.05.2021
4204 Clouds 10 1011 53 10000 1.54 40 13:51 08.05.2021
4205 Clouds 9 1011 53 10000 1.54 40 13:20 08.05.2021
4206 Clouds 9 1011 50 10000 1.03 30 12:33 08.05.2021
4207 Clouds 9 1010 66 10000 1.03 330 11:42 08.05.2021
4208 Clouds 10 1011 40 10000 1.03 120 10:59 08.05.2021
4209 Clouds 10 1011 40 10000 1.03 120 10:41 08.05.2021
4210 Clouds 10 1011 40 10000 1.03 120 10:41 08.05.2021
4211 Clouds 10 1011 40 10000 1.03 120 10:20 08.05.2021
4212 Clouds 10 1011 40 10000 1.54 30 09:47 08.05.2021
4213 Clouds 10 1011 40 10000 1.54 30 09:27 08.05.2021
4214 Clouds 11 1011 40 10000 1.54 30 08:25 08.05.2021
4215 Clouds 11 1011 40 10000 2.06 20 07:41 08.05.2021
4216 Clouds 11 1012 43 10000 5.14 60 06:53 08.05.2021
4217 Clouds 11 1012 43 10000 5.14 60 06:53 08.05.2021
4218 Clouds 11 1012 37 10000 2.06 10 05:25 08.05.2021
4219 Clouds 14 1013 30 10000 0.51 50 01:54 08.05.2021
4220 Clouds 15 1013 31 10000 1.54 30 00:51 08.05.2021
4221 Clouds 15 1013 31 10000 1.54 30 00:29 08.05.2021
4222 Clouds 15 1013 31 10000 1.54 70 23:30 07.05.2021
4223 Clouds 15 1013 31 10000 0.51 200 22:48 07.05.2021
4224 Clouds 15 1013 31 10000 0.51 200 22:20 07.05.2021
4225 Clouds 15 1013 33 10000 1.03 30 21:39 07.05.2021
4226 Clouds 15 1013 33 10000 1.03 30 21:21 07.05.2021
4227 Clouds 15 1014 38 10000 1.54 150 20:42 07.05.2021
4228 Clouds 14 1014 35 10000 1.03 200 20:21 07.05.2021
4229 Clouds 14 1014 30 10000 2.06 200 19:44 07.05.2021
4230 Clouds 14 1014 30 10000 2.06 200 19:26 07.05.2021
4231 Clouds 14 1015 41 10000 1.54 130 18:43 07.05.2021
4232 Clouds 14 1015 41 10000 1.54 130 18:25 07.05.2021
4233 Clouds 12 1016 47 10000 1.54 160 17:25 07.05.2021
4234 Clouds 11 1016 50 10000 1.54 120 16:59 07.05.2021
4235 Clouds 12 1016 50 10000 1.54 120 16:37 07.05.2021
4236 Clouds 11 1016 57 10000 2.57 170 15:59 07.05.2021
4237 Clouds 10 1016 57 10000 2.57 170 15:40 07.05.2021
4238 Clouds 10 1016 57 10000 2.57 170 15:21 07.05.2021
4239 Clouds 9 1016 57 10000 2.06 180 14:32 07.05.2021
4240 Clouds 7 1016 61 10000 1.54 180 13:54 07.05.2021
4241 Clouds 6 1016 61 10000 1.54 180 13:23 07.05.2021
4242 Clouds 5 1015 61 10000 1.03 160 12:48 07.05.2021
4243 Clouds 4 1015 61 10000 1.03 160 12:27 07.05.2021
4244 Clouds 3 1015 61 10000 1.31 146 11:51 07.05.2021
4245 Clouds 3 1015 61 10000 0.9 113 11:27 07.05.2021
4246 Clouds 3 1015 61 10000 0.9 113 11:27 07.05.2021
4247 Clouds 4 1015 53 10000 1.03 220 10:43 07.05.2021
4248 Clouds 4 1015 53 10000 1.03 220 10:23 07.05.2021
4249 Clouds 4 1015 53 10000 1.03 180 09:55 07.05.2021
4250 Clear 5 1015 65 10000 1.54 90 08:57 07.05.2021
4251 Clouds 5 1015 49 10000 1.03 150 08:34 07.05.2021
4252 Clear 6 1015 56 10000 2.06 40 07:34 07.05.2021
4253 Clear 6 1015 56 10000 2.06 40 07:34 07.05.2021
4254 Clouds 6 1015 46 10000 1.03 350 06:45 07.05.2021
4255 Clouds 9 1014 32 10000 1.03 310 04:28 07.05.2021
4256 Clouds 13 1013 26 10000 2.06 360 01:30 07.05.2021
4257 Clouds 15 1012 24 10000 3.09 10 23:18 06.05.2021
4258 Clouds 15 1012 26 10000 3.6 360 22:32 06.05.2021
4259 Clouds 14 1013 26 10000 2.57 360 21:43 06.05.2021
4260 Clear 14 1013 28 10000 4.63 10 20:48 06.05.2021
4261 Clear 14 1013 28 10000 4.63 10 20:25 06.05.2021
4262 Clear 13 1013 30 10000 2.57 330 19:54 06.05.2021
4263 Clear 13 1013 30 10000 2.57 330 19:25 06.05.2021
4264 Clear 12 1013 30 10000 3.6 340 18:58 06.05.2021
4265 Clear 12 1013 30 10000 3.6 340 18:35 06.05.2021
4266 Clear 11 1013 34 10000 4.63 10 17:51 06.05.2021
4267 Clear 11 1013 34 10000 4.63 10 17:28 06.05.2021
4268 Clear 10 1013 43 10000 4.12 10 16:57 06.05.2021
4269 Clear 10 1013 43 10000 4.12 10 16:35 06.05.2021
4270 Clear 9 1013 46 10000 3.6 360 15:59 06.05.2021
4271 Clear 9 1013 46 10000 3.6 360 15:40 06.05.2021
4272 Clear 9 1013 46 10000 3.6 360 15:40 06.05.2021
4273 Clear 8 1013 46 10000 3.6 360 15:18 06.05.2021
4274 Clouds 7 1012 49 10000 4.63 360 14:25 06.05.2021
4275 Clouds 7 1012 56 10000 4.12 360 13:53 06.05.2021
4276 Clouds 6 1012 56 10000 4.12 360 13:24 06.05.2021
4277 Clouds 6 1011 70 10000 2.57 350 12:47 06.05.2021
4278 Clouds 6 1011 70 10000 2.57 350 12:24 06.05.2021
4279 Clouds 7 1010 61 10000 2.57 360 11:48 06.05.2021
4280 Clouds 7 1010 61 10000 2.57 360 11:24 06.05.2021
4281 Clouds 8 1010 66 10000 3.6 360 10:51 06.05.2021
4282 Clouds 8 1010 66 10000 3.6 360 10:27 06.05.2021
4283 Clouds 8 1009 71 10000 3.6 360 09:46 06.05.2021
4284 Clouds 8 1009 71 10000 3.6 360 09:28 06.05.2021
4285 Clouds 9 1009 71 10000 1.54 10 08:49 06.05.2021
4286 Clouds 9 1009 71 10000 1.54 10 08:23 06.05.2021
4287 Clouds 9 1008 76 10000 1.54 330 07:48 06.05.2021
4288 Clouds 9 1008 76 10000 1.54 330 07:19 06.05.2021
4289 Clouds 10 1008 76 10000 2.06 10 06:26 06.05.2021
4290 Clouds 10 1008 76 10000 1.03 260 05:49 06.05.2021
4291 Clouds 10 1008 81 10000 1.03 330 04:33 06.05.2021
4292 Clouds 11 1007 76 10000 1.03 20 02:35 06.05.2021
4293 Clouds 12 1005 82 7720 1.03 280 23:50 05.05.2021
4294 Clouds 12 1004 82 10000 1.03 220 22:40 05.05.2021
4295 Clouds 12 1004 82 10000 1.03 220 22:21 05.05.2021
4296 Clouds 12 1005 82 10000 2.06 270 21:40 05.05.2021
4297 Clouds 12 1005 82 10000 2.06 270 21:18 05.05.2021
4298 Clouds 11 1005 87 10000 1.03 240 20:35 05.05.2021
4299 Clouds 11 1005 87 10000 1.03 240 20:35 05.05.2021
4300 Clouds 11 1005 93 10000 1.54 200 19:44 05.05.2021
4301 Clouds 11 1005 93 10000 1.54 200 19:44 05.05.2021
4302 Clouds 11 1005 93 6743 1.54 200 19:24 05.05.2021
4303 Rain 11 1004 87 6743 1.03 270 18:44 05.05.2021
4304 Rain 11 1004 87 4385 1.03 270 18:19 05.05.2021
4305 Clouds 10 1004 93 4385 1.03 260 17:49 05.05.2021
4306 Clouds 10 1004 93 4638 1.03 260 17:27 05.05.2021
4307 Clouds 10 1004 93 4638 1.03 170 16:50 05.05.2021
4308 Clouds 10 1004 93 4638 1.03 170 16:30 05.05.2021
4309 Clouds 10 1004 93 4638 1.03 170 16:30 05.05.2021
4310 Clouds 10 1004 93 745 1.54 200 15:51 05.05.2021
4311 Clouds 10 1004 93 645 1.54 200 15:21 05.05.2021
4312 Clouds 10 1004 93 1091 2.06 190 14:43 05.05.2021
4313 Clouds 11 1004 93 10000 2.06 190 14:25 05.05.2021
4314 Clouds 11 1004 94 10000 2.06 200 13:42 05.05.2021
4315 Clouds 11 1004 94 10000 2.06 200 13:22 05.05.2021
4316 Clouds 11 1003 94 10000 1.54 200 12:29 05.05.2021
4317 Clouds 11 1003 87 10000 1.54 190 11:51 05.05.2021
4318 Clouds 11 1003 87 10000 1.54 190 11:31 05.05.2021
4319 Clouds 11 1003 87 10000 1.54 190 10:58 05.05.2021
4320 Clouds 11 1003 87 10000 1.54 190 10:37 05.05.2021
4321 Clouds 11 1003 87 10000 1.54 160 09:53 05.05.2021
4322 Clouds 11 1003 87 10000 1.54 160 09:26 05.05.2021
4323 Clouds 11 1004 93 10000 1.54 170 08:42 05.05.2021
4324 Clouds 10 1004 93 9951 1.54 170 08:24 05.05.2021
4325 Clouds 10 1004 87 9951 0.51 170 07:47 05.05.2021
4326 Clouds 10 1004 87 10000 0.51 170 07:21 05.05.2021
4327 Clouds 11 1005 76 10000 0.51 210 06:33 05.05.2021
4328 Clouds 12 1008 54 10000 2.06 30 01:49 05.05.2021
4329 Clouds 12 1007 50 10000 2.06 30 00:21 05.05.2021
4330 Clouds 13 1008 50 10000 2.06 50 23:38 04.05.2021
4331 Clouds 13 1008 58 10000 1.54 60 22:52 04.05.2021
4332 Clouds 13 1008 58 10000 1.54 60 22:23 04.05.2021
4333 Clouds 13 1008 62 10000 1.03 100 21:59 04.05.2021
4334 Clouds 13 1008 62 10000 1.03 100 21:41 04.05.2021
4335 Clouds 12 1008 54 10000 0.51 140 21:00 04.05.2021
4336 Clouds 13 1008 54 10000 0.51 140 20:41 04.05.2021
4337 Clouds 13 1008 54 10000 0.51 140 20:22 04.05.2021
4338 Clouds 12 1009 50 10000 1.54 70 19:42 04.05.2021
4339 Clouds 12 1009 50 10000 1.54 70 19:23 04.05.2021
4340 Clouds 12 1009 50 10000 2.06 30 18:51 04.05.2021
4341 Clouds 12 1009 50 10000 2.06 30 18:23 04.05.2021
4342 Clouds 11 1009 50 10000 2.57 20 17:49 04.05.2021
4343 Clouds 11 1009 50 10000 2.57 20 17:24 04.05.2021
4344 Clouds 10 1009 53 10000 2.57 40 16:41 04.05.2021
4345 Clouds 10 1009 53 10000 2.57 40 16:22 04.05.2021
4346 Clouds 10 1009 50 10000 2.06 40 15:46 04.05.2021
4347 Clouds 10 1009 50 10000 2.06 40 15:19 04.05.2021
4348 Clouds 10 1009 50 10000 2.57 40 14:24 04.05.2021
4349 Clouds 10 1009 53 10000 3.09 20 13:41 04.05.2021
4350 Clouds 10 1009 53 10000 3.09 20 13:21 04.05.2021
4351 Clouds 9 1009 53 10000 2.57 20 12:52 04.05.2021
4352 Clouds 9 1009 53 10000 2.57 20 12:25 04.05.2021
4353 Clouds 9 1009 49 10000 2.06 20 11:44 04.05.2021
4354 Clouds 9 1009 49 10000 2.06 20 11:24 04.05.2021
4355 Clouds 9 1009 53 10000 2.06 20 10:43 04.05.2021
4356 Clouds 9 1009 53 10000 2.06 20 10:22 04.05.2021
4357 Clouds 9 1009 49 10000 2.57 20 09:38 04.05.2021
4358 Clouds 9 1010 57 10000 2.57 20 08:58 04.05.2021
4359 Clouds 9 1010 57 10000 2.57 20 08:39 04.05.2021
4360 Clouds 9 1010 57 10000 2.57 20 08:18 04.05.2021
4361 Clouds 9 1010 57 10000 2.57 20 08:18 04.05.2021
4362 Clouds 9 1011 49 10000 2.06 30 07:43 04.05.2021
4363 Clouds 9 1011 49 10000 1.03 30 06:40 04.05.2021
4364 Clouds 9 1011 49 10000 1.03 30 06:18 04.05.2021
4365 Clouds 9 1012 46 10000 1.03 100 03:56 04.05.2021
4366 Clouds 9 1012 53 10000 1.03 260 01:30 04.05.2021
4367 Clouds 10 1012 43 10000 1.03 170 23:52 03.05.2021
4368 Clouds 10 1012 43 10000 1.03 170 23:30 03.05.2021
4369 Clouds 10 1012 43 10000 1.03 170 23:30 03.05.2021
4370 Rain 10 1013 43 10000 1.03 190 22:39 03.05.2021
4371 Rain 10 1013 43 10000 1.03 190 22:39 03.05.2021
4372 Clouds 10 1013 43 10000 1.03 190 22:21 03.05.2021
4373 Clouds 10 1014 40 10000 1.54 170 21:42 03.05.2021
4374 Clouds 10 1014 40 10000 1.54 170 21:22 03.05.2021
4375 Clouds 10 1014 40 10000 1.54 170 21:22 03.05.2021
4376 Clouds 10 1014 46 10000 1.54 170 20:49 03.05.2021
4377 Clouds 10 1014 46 10000 1.54 170 20:29 03.05.2021
4378 Clouds 10 1015 43 10000 1.03 120 19:51 03.05.2021
4379 Clouds 10 1015 43 10000 1.03 120 19:30 03.05.2021
4380 Clouds 9 1015 42 10000 1.03 150 18:38 03.05.2021
4381 Clouds 8 1014 42 10000 2.06 20 17:53 03.05.2021
4382 Clouds 8 1014 42 10000 2.06 20 17:33 03.05.2021
4383 Clouds 8 1015 42 10000 2.06 50 16:52 03.05.2021
4384 Clouds 7 1015 42 10000 2.06 50 16:24 03.05.2021
4385 Clouds 7 1015 42 10000 2.06 80 15:50 03.05.2021
4386 Clouds 7 1015 42 10000 2.06 80 15:27 03.05.2021
4387 Clouds 6 1015 48 10000 2.06 40 14:37 03.05.2021
4388 Clouds 6 1015 48 10000 2.06 40 14:18 03.05.2021
4389 Clouds 5 1015 52 10000 2.06 50 13:34 03.05.2021
4390 Clouds 5 1014 48 10000 1.54 50 12:58 03.05.2021
4391 Clouds 5 1014 48 10000 1.54 50 12:31 03.05.2021
4392 Clouds 5 1014 48 10000 2.06 50 11:58 03.05.2021
4393 Clouds 5 1014 48 10000 2.06 50 11:36 03.05.2021
4394 Clouds 5 1014 45 10000 1.54 70 10:52 03.05.2021
4395 Clouds 5 1014 45 10000 1.54 70 10:32 03.05.2021
4396 Clouds 6 1013 39 10000 2.57 50 09:56 03.05.2021
4397 Clouds 7 1013 39 10000 2.57 50 09:38 03.05.2021
4398 Clouds 8 1012 37 10000 1.54 50 08:44 03.05.2021
4399 Clouds 8 1012 37 10000 1.54 50 08:24 03.05.2021
4400 Clouds 9 1012 25 10000 2.06 20 07:54 03.05.2021
4401 Clouds 9 1011 28 10000 1.03 360 06:34 03.05.2021
4402 Clouds 10 1010 32 10000 1.03 350 05:57 03.05.2021
4403 Clouds 12 1008 33 10000 0.51 110 03:58 03.05.2021
4404 Clouds 16 1006 29 10000 1.03 280 00:33 03.05.2021
4405 Clouds 16 1005 29 10000 2.06 10 23:39 02.05.2021
4406 Clouds 16 1005 29 10000 2.06 10 23:21 02.05.2021
4407 Clouds 16 1004 29 10000 2.06 20 22:40 02.05.2021
4408 Clouds 16 1004 29 10000 2.06 20 22:18 02.05.2021
4409 Clouds 16 1004 47 10000 2.57 240 21:43 02.05.2021
4410 Clouds 15 1004 47 10000 2.57 240 21:22 02.05.2021
4411 Clouds 14 1003 51 10000 2.57 260 20:26 02.05.2021
4412 Clouds 14 1003 51 10000 2.57 240 19:46 02.05.2021
4413 Clouds 14 1003 51 10000 2.57 240 19:23 02.05.2021
4414 Clouds 14 1003 50 10000 2.06 320 18:48 02.05.2021
4415 Clouds 13 1003 50 10000 2.06 320 18:29 02.05.2021
4416 Clouds 12 1003 57 10000 2.57 300 17:55 02.05.2021
4417 Clouds 12 1003 57 10000 2.57 300 17:36 02.05.2021
4418 Clouds 11 1003 57 10000 2.57 300 17:18 02.05.2021
4419 Clouds 10 1003 61 10000 1.54 270 16:41 02.05.2021
4420 Clouds 10 1003 61 10000 1.54 270 16:21 02.05.2021
4421 Clouds 9 1002 71 10000 1.54 250 15:44 02.05.2021
4422 Clouds 9 1002 71 10000 1.54 250 15:23 02.05.2021
4423 Clouds 8 1002 71 10000 1.03 200 14:43 02.05.2021
4424 Clouds 8 1002 71 10000 1.03 200 14:25 02.05.2021
4425 Clouds 7 1002 70 10000 1.03 20 13:46 02.05.2021
4426 Clouds 6 1002 70 10000 1.03 20 13:23 02.05.2021
4427 Clouds 6 1001 75 10000 0.51 270 12:47 02.05.2021
4428 Clouds 5 1001 75 10000 0.51 270 12:26 02.05.2021
4429 Clouds 5 1002 75 10000 1.54 230 11:52 02.05.2021
4430 Clouds 5 1002 75 10000 1.54 230 11:34 02.05.2021
4431 Clouds 5 1002 81 10000 1.54 190 10:58 02.05.2021
4432 Clouds 5 1002 81 10000 1.54 190 10:22 02.05.2021
4433 Clouds 5 1003 81 10000 2.06 200 09:49 02.05.2021
4434 Clouds 5 1003 81 10000 2.06 200 09:29 02.05.2021
4435 Clouds 5 1004 81 10000 1.54 200 08:57 02.05.2021
4436 Clouds 5 1004 81 10000 1.54 200 08:34 02.05.2021
4437 Clouds 5 1006 81 10000 2.57 200 07:54 02.05.2021
4438 Clouds 5 1006 81 10000 2.57 200 07:23 02.05.2021
4439 Clouds 5 1008 75 10000 1.54 190 05:31 02.05.2021
4440 Clouds 9 1007 40 10000 2.06 200 01:56 02.05.2021
4441 Clouds 10 1007 40 10000 2.57 200 00:25 02.05.2021
4442 Clouds 10 1008 43 10000 2.57 220 23:36 01.05.2021
4443 Clouds 10 1008 43 10000 2.57 220 23:36 01.05.2021
4444 Clouds 10 1008 43 10000 2.57 220 23:18 01.05.2021
4445 Clouds 10 1009 40 10000 3.09 210 22:38 01.05.2021
4446 Clouds 10 1009 40 10000 3.09 210 22:18 01.05.2021
4447 Clouds 10 1010 27 10000 2.57 250 21:40 01.05.2021
4448 Clouds 10 1010 27 10000 2.57 250 21:21 01.05.2021
4449 Clouds 10 1010 34 10000 2.06 290 20:50 01.05.2021
4450 Clouds 10 1010 34 10000 2.06 290 20:28 01.05.2021
4451 Clouds 9 1011 27 10000 1.54 250 19:53 01.05.2021
4452 Clouds 9 1011 27 10000 1.54 250 19:31 01.05.2021
4453 Clouds 8 1012 33 10000 2.57 300 18:53 01.05.2021
4454 Clouds 8 1012 33 10000 2.57 300 18:33 01.05.2021
4455 Clouds 7 1012 33 10000 2.57 280 17:51 01.05.2021
4456 Clouds 6 1012 33 10000 2.57 280 17:28 01.05.2021
4457 Clouds 6 1012 38 10000 2.06 240 16:45 01.05.2021
4458 Clouds 5 1012 38 10000 2.06 240 16:26 01.05.2021
4459 Clouds 5 1012 41 10000 2.06 10 15:42 01.05.2021
4460 Clouds 4 1011 52 10000 3.09 360 14:38 01.05.2021
4461 Clouds 3 1010 52 10000 3.09 360 13:38 01.05.2021
4462 Clouds 3 1010 52 10000 3.09 360 13:20 01.05.2021
4463 Clouds 3 1009 70 10000 1.03 60 12:38 01.05.2021
4464 Clouds 3 1009 70 10000 1.03 60 12:18 01.05.2021
4465 Clouds 3 1007 70 10000 1.54 350 11:42 01.05.2021
4466 Clouds 4 1007 70 10000 1.54 350 11:22 01.05.2021
4467 Clouds 4 1006 70 10000 2.57 10 10:53 01.05.2021
4468 Clouds 4 1004 70 10000 4.12 360 09:56 01.05.2021
4469 Clouds 4 1004 70 10000 4.12 360 09:38 01.05.2021
4470 Clouds 4 1004 70 10000 4.12 360 09:19 01.05.2021
4471 Clouds 5 1002 75 10000 1.54 350 08:18 01.05.2021
4472 Clouds 6 1001 81 10000 2.06 330 07:19 01.05.2021
4473 Clouds 4 999 93 10000 4.12 250 05:33 01.05.2021
4474 Rain 5 997 93 10000 4.63 260 01:37 01.05.2021
4475 Rain 9 995 87 7021 1.54 240 00:26 01.05.2021
4476 Rain 11 994 82 7021 1.03 330 23:43 30.04.2021
4477 Rain 11 993 76 6587 2.57 10 22:47 30.04.2021
4478 Rain 11 993 76 10000 2.57 10 22:20 30.04.2021
4479 Rain 11 992 82 10000 4.12 10 21:46 30.04.2021
4480 Rain 11 992 82 10000 4.12 10 21:25 30.04.2021
4481 Rain 10 992 87 10000 4.12 20 20:51 30.04.2021
4482 Rain 10 992 87 10000 4.12 20 20:30 30.04.2021
4483 Rain 10 991 87 10000 5.66 10 19:47 30.04.2021
4484 Rain 10 990 87 10000 4.63 20 18:49 30.04.2021
4485 Rain 10 990 87 10000 4.63 20 18:29 30.04.2021
4486 Rain 9 990 93 10000 5.14 10 17:56 30.04.2021
4487 Rain 9 990 93 10000 5.14 10 17:32 30.04.2021
4488 Rain 9 990 93 10000 4.12 20 16:54 30.04.2021
4489 Rain 9 990 93 10000 4.12 20 16:32 30.04.2021
4490 Rain 9 990 93 10000 3.6 20 15:44 30.04.2021
4491 Rain 9 990 93 10000 3.6 20 15:26 30.04.2021
4492 Rain 8 990 93 10000 4.12 360 14:59 30.04.2021
4493 Rain 8 990 93 10000 4.12 360 14:40 30.04.2021
4494 Rain 8 990 93 10000 4.12 360 14:18 30.04.2021
4495 Rain 8 991 93 10000 3.6 10 13:39 30.04.2021
4496 Rain 8 991 93 10000 3.6 10 13:19 30.04.2021
4497 Rain 8 991 93 10000 3.6 10 12:38 30.04.2021
4498 Rain 9 992 87 10000 2.57 30 11:56 30.04.2021
4499 Rain 9 992 87 10000 2.57 30 11:23 30.04.2021
4500 Rain 10 992 87 10000 1.03 10 10:51 30.04.2021
4501 Rain 11 992 87 10000 1.03 10 10:33 30.04.2021
4502 Rain 12 993 94 10000 1.54 360 09:48 30.04.2021
4503 Rain 12 993 94 10000 1.54 360 09:21 30.04.2021
4504 Rain 12 994 88 10000 1.03 290 08:39 30.04.2021
4505 Rain 13 995 77 10000 0.51 260 07:38 30.04.2021
4506 Rain 13 995 77 10000 0.51 260 07:20 30.04.2021
4507 Clouds 13 996 77 10000 0.51 230 06:45 30.04.2021
4508 Clouds 13 996 77 10000 0.51 230 06:22 30.04.2021
4509 Clouds 15 999 72 10000 1.54 170 03:26 30.04.2021
4510 Clouds 16 1000 59 10000 1.54 180 01:55 30.04.2021
4511 Clouds 16 1000 59 10000 1.54 180 01:36 30.04.2021
4512 Clouds 17 1002 51 10000 1.54 200 23:32 29.04.2021
4513 Clouds 17 1003 42 10000 1.03 150 22:48 29.04.2021
4514 Clouds 17 1003 42 10000 1.03 150 22:28 29.04.2021
4515 Clouds 18 1004 45 10000 1.54 50 21:58 29.04.2021
4516 Clouds 18 1004 45 10000 1.54 50 21:39 29.04.2021
4517 Clouds 18 1004 45 10000 1.54 50 21:20 29.04.2021
4518 Clouds 18 1005 48 10000 1.54 10 20:45 29.04.2021
4519 Clouds 18 1005 48 10000 1.54 10 20:26 29.04.2021
4520 Clouds 18 1006 55 10000 2.06 80 19:57 29.04.2021
4521 Clouds 18 1006 55 10000 2.06 80 19:37 29.04.2021
4522 Clouds 17 1006 51 10000 2.06 20 19:19 29.04.2021
4523 Clouds 16 1006 51 10000 2.06 30 18:40 29.04.2021
4524 Clouds 16 1007 55 10000 2.06 30 17:48 29.04.2021
4525 Clouds 16 1007 55 10000 2.06 30 17:26 29.04.2021
4526 Clouds 15 1008 62 10000 2.06 30 16:53 29.04.2021
4527 Clouds 15 1008 62 10000 2.06 30 16:27 29.04.2021
4528 Clouds 13 1009 62 10000 2.06 360 15:56 29.04.2021
4529 Clouds 13 1009 62 10000 2.06 360 15:28 29.04.2021
4530 Clouds 12 1008 71 10000 1.03 40 14:53 29.04.2021
4531 Clouds 11 1008 71 10000 1.03 40 14:28 29.04.2021
4532 Clouds 11 1009 93 10000 2.35 17 13:55 29.04.2021
4533 Clouds 10 1009 93 10000 2.35 17 13:31 29.04.2021
4534 Clouds 10 1009 100 10000 1.54 210 12:52 29.04.2021
4535 Clouds 9 1009 100 10000 1.54 210 12:31 29.04.2021
4536 Clouds 10 1008 93 10000 1.03 40 11:52 29.04.2021
4537 Clouds 10 1008 93 10000 1.03 40 11:52 29.04.2021
4538 Clouds 10 1008 93 10000 1.03 40 11:30 29.04.2021
4539 Clouds 10 1008 93 10000 1.54 50 10:59 29.04.2021
4540 Clouds 10 1008 93 10000 1.54 50 10:37 29.04.2021
4541 Mist 10 1009 93 9656 2.06 40 09:59 29.04.2021
4542 Mist 10 1009 93 9656 2.06 40 09:36 29.04.2021
4543 Clouds 10 1010 81 10000 1.03 340 08:59 29.04.2021
4544 Clouds 10 1010 81 10000 1.03 340 08:34 29.04.2021
4545 Clouds 10 1010 87 10000 0.51 20 07:54 29.04.2021
4546 Clouds 10 1010 87 10000 0.51 20 07:29 29.04.2021
4547 Clouds 10 1010 87 10000 0.51 330 06:36 29.04.2021
4548 Clouds 10 1010 76 10000 1.03 220 04:46 29.04.2021
4549 Rain 11 1010 71 10000 1.54 40 00:27 29.04.2021
4550 Rain 12 1011 76 10000 1.54 360 23:22 28.04.2021
4551 Rain 13 1010 58 10000 1.54 360 22:52 28.04.2021
4552 Rain 14 1010 58 10000 1.54 360 22:23 28.04.2021
4553 Rain 15 1010 41 10000 1.54 20 21:50 28.04.2021
4554 Rain 15 1010 41 10000 1.54 20 21:23 28.04.2021
4555 Clouds 16 1011 29 10000 1.54 20 20:55 28.04.2021
4556 Clouds 17 1011 29 10000 1.54 20 20:36 28.04.2021
4557 Clouds 17 1011 29 10000 1.54 20 20:36 28.04.2021
4558 Rain 17 1011 29 10000 1.54 20 20:18 28.04.2021
4559 Clouds 18 1011 29 10000 1.54 70 19:32 28.04.2021
4560 Clouds 18 1012 27 10000 1.54 40 18:56 28.04.2021
4561 Clouds 18 1012 27 10000 1.54 40 18:38 28.04.2021
4562 Clouds 17 1012 27 10000 1.54 40 18:19 28.04.2021
4563 Clouds 17 1012 33 10000 1.03 130 17:43 28.04.2021
4564 Clouds 17 1012 33 10000 1.03 130 17:24 28.04.2021
4565 Clouds 15 1012 36 10000 1.54 120 16:21 28.04.2021
4566 Clouds 15 1012 36 10000 1.54 120 16:21 28.04.2021
4567 Clouds 14 1013 38 10000 1.54 80 15:48 28.04.2021
4568 Clouds 13 1013 38 10000 1.54 80 15:26 28.04.2021
4569 Clouds 13 1013 44 10000 1.03 120 14:42 28.04.2021
4570 Clouds 12 1013 44 10000 1.03 120 14:21 28.04.2021
4571 Clouds 10 1013 43 10000 0.51 120 13:50 28.04.2021
4572 Clouds 9 1013 57 10000 1.03 0 13:24 28.04.2021
4573 Clouds 8 1012 50 10000 1.03 280 12:54 28.04.2021
4574 Clouds 8 1012 50 10000 1.03 280 12:28 28.04.2021
4575 Clouds 8 1012 57 10000 0.61 189 11:46 28.04.2021
4576 Clouds 9 1012 46 10000 1.54 190 11:24 28.04.2021
4577 Clouds 10 1012 50 10000 0.51 220 10:42 28.04.2021
4578 Clouds 10 1012 50 10000 0.51 220 10:20 28.04.2021
4579 Clouds 10 1012 46 10000 1.03 220 09:52 28.04.2021
4580 Clouds 10 1012 46 10000 1.03 220 09:31 28.04.2021
4581 Clouds 10 1012 47 10000 1.54 260 08:52 28.04.2021
4582 Clouds 11 1013 49 10000 2.57 200 07:37 28.04.2021
4583 Clouds 11 1013 49 10000 2.57 200 07:18 28.04.2021
4584 Clouds 11 1013 40 10000 1.03 220 05:35 28.04.2021
4585 Clouds 12 1013 30 10000 1.03 240 03:44 28.04.2021
4586 Clouds 13 1013 26 10000 1.03 190 02:33 28.04.2021
4587 Clouds 15 1013 20 10000 1.54 200 00:42 28.04.2021
4588 Clouds 16 1013 16 10000 1.54 280 23:46 27.04.2021
4589 Clouds 16 1013 16 10000 1.54 280 23:23 27.04.2021
4590 Clouds 15 1013 17 10000 2.57 200 22:44 27.04.2021
4591 Clouds 16 1013 17 10000 2.57 200 22:26 27.04.2021
4592 Clouds 15 1014 14 10000 1.54 280 21:46 27.04.2021
4593 Clouds 15 1014 14 10000 1.54 280 21:27 27.04.2021
4594 Clouds 14 1014 18 10000 2.06 290 20:53 27.04.2021
4595 Clouds 14 1014 18 10000 2.06 290 20:35 27.04.2021
4596 Clouds 13 1015 19 10000 2.06 300 19:48 27.04.2021
4597 Clouds 13 1015 19 10000 2.06 300 19:26 27.04.2021
4598 Clouds 12 1016 23 10000 1.54 310 18:57 27.04.2021
4599 Clouds 12 1016 23 10000 1.54 310 18:34 27.04.2021
4600 Clouds 10 1017 29 10000 1.54 280 17:55 27.04.2021
4601 Clouds 10 1017 29 10000 1.54 280 17:29 27.04.2021
4602 Clouds 9 1017 31 10000 1.54 260 16:49 27.04.2021
4603 Clouds 9 1017 31 10000 1.54 260 16:31 27.04.2021
4604 Clouds 8 1018 31 10000 1.54 260 15:52 27.04.2021
4605 Clouds 8 1018 31 10000 1.54 260 15:31 27.04.2021
4606 Clouds 7 1018 39 10000 1.03 170 14:59 27.04.2021
4607 Clouds 6 1018 39 10000 1.03 170 14:40 27.04.2021
4608 Clouds 6 1018 39 10000 1.03 170 14:19 27.04.2021
4609 Clouds 4 1018 41 10000 1.54 260 13:42 27.04.2021
4610 Clouds 3 1018 41 10000 1.54 260 13:20 27.04.2021
4611 Clouds 2 1018 38 10000 2.06 300 12:27 27.04.2021
4612 Clouds 2 1018 35 10000 1.54 270 11:55 27.04.2021
4613 Clouds 2 1018 35 10000 1.54 270 11:26 27.04.2021
4614 Clear 2 1017 44 10000 3.09 280 10:49 27.04.2021
4615 Clear 2 1017 44 10000 3.09 280 10:23 27.04.2021
4616 Clear 3 1017 44 10000 3.6 290 09:45 27.04.2021
4617 Clear 3 1017 44 10000 2.06 300 08:53 27.04.2021
4618 Clear 3 1017 44 10000 2.06 300 08:19 27.04.2021
4619 Clouds 3 1017 36 10000 2.06 360 07:42 27.04.2021
4620 Clouds 3 1017 38 10000 0.51 80 06:50 27.04.2021
4621 Clouds 4 1017 38 10000 0.51 80 06:20 27.04.2021
4622 Clouds 5 1017 36 10000 1.03 20 04:54 27.04.2021
4623 Clouds 9 1016 34 10000 1.54 360 01:54 27.04.2021
4624 Clouds 10 1016 37 10000 3.6 10 00:27 27.04.2021
4625 Clouds 9 1016 39 10000 4.63 10 23:40 26.04.2021
4626 Clouds 9 1016 39 10000 4.63 10 23:18 26.04.2021
4627 Clouds 8 1017 42 10000 3.6 360 22:49 26.04.2021
4628 Clouds 8 1017 42 10000 3.6 360 22:18 26.04.2021
4629 Clouds 7 1017 45 10000 3.6 10 21:41 26.04.2021
4630 Clouds 7 1017 45 10000 3.6 10 21:22 26.04.2021
4631 Clouds 5 1017 48 10000 4.12 20 20:41 26.04.2021
4632 Clouds 5 1017 48 10000 4.12 20 20:22 26.04.2021
4633 Clouds 4 1016 48 10000 4.63 360 19:41 26.04.2021
4634 Clouds 4 1016 48 10000 4.63 360 19:23 26.04.2021
4635 Clouds 3 1016 52 10000 2.57 360 18:43 26.04.2021
4636 Clouds 4 1016 52 10000 2.57 360 18:19 26.04.2021
4637 Clouds 4 1016 56 10000 6.69 280 17:46 26.04.2021
4638 Clouds 3 1016 56 10000 6.69 280 17:21 26.04.2021
4639 Clouds 2 1016 60 10000 3.09 10 16:45 26.04.2021
4640 Clouds 2 1016 60 10000 3.09 10 16:25 26.04.2021
4641 Clouds 1 1016 60 10000 3.09 10 15:44 26.04.2021
4642 Clouds 1 1016 60 10000 3.09 10 15:21 26.04.2021
4643 Clouds 0 1016 59 10000 3.09 360 14:54 26.04.2021
4644 Clouds 0 1016 59 10000 3.09 360 14:34 26.04.2021
4645 Clouds 0 1015 59 10000 2.06 20 13:51 26.04.2021
4646 Clouds 0 1015 59 10000 2.06 20 13:28 26.04.2021
4647 Clouds 0 1015 59 10000 2.06 20 13:28 26.04.2021
4648 Clouds 0 1014 59 10000 2.06 30 12:52 26.04.2021
4649 Clouds 0 1014 64 10000 2.57 30 11:55 26.04.2021
4650 Clouds 0 1014 64 10000 2.57 30 11:36 26.04.2021
4651 Clouds 0 1013 64 10000 3.6 10 10:50 26.04.2021
4652 Clouds 0 1013 64 10000 3.6 10 10:24 26.04.2021
4653 Clouds 1 1012 60 10000 1.54 30 09:48 26.04.2021
4654 Clouds 1 1012 60 10000 1.54 30 09:25 26.04.2021
4655 Clouds 1 1012 64 10000 2.06 20 08:55 26.04.2021
4656 Clouds 1 1012 64 10000 2.06 20 08:22 26.04.2021
4657 Clouds 2 1011 69 10000 1.54 150 07:53 26.04.2021
4658 Clouds 2 1011 69 10000 1.54 150 07:22 26.04.2021
4659 Clouds 2 1011 69 10000 1.54 150 07:22 26.04.2021
4660 Clouds 3 1010 70 10000 1.54 40 06:38 26.04.2021
4661 Clouds 4 1008 75 10000 1.54 10 05:37 26.04.2021
4662 Clouds 7 1007 70 10000 2.57 360 04:37 26.04.2021
4663 Clouds 9 1005 81 10000 7.2 320 02:51 26.04.2021
4664 Clouds 11 1004 76 7711 1.54 190 01:19 26.04.2021
4665 Clouds 11 1005 82 7711 0.51 200 00:43 26.04.2021
4666 Clouds 11 1004 82 10000 0.51 340 23:46 25.04.2021
4667 Clouds 11 1004 82 10000 0.51 340 23:26 25.04.2021
4668 Rain 11 1005 82 10000 1.03 200 22:50 25.04.2021
4669 Rain 11 1005 82 10000 1.03 200 22:22 25.04.2021
4670 Rain 11 1005 71 10000 1.54 270 21:59 25.04.2021
4671 Rain 11 1005 71 10000 1.54 270 21:41 25.04.2021
4672 Rain 12 1005 71 10000 1.54 270 21:22 25.04.2021
4673 Clouds 14 1005 54 10000 2.06 210 20:47 25.04.2021
4674 Clouds 14 1005 54 8399 2.06 210 20:25 25.04.2021
4675 Clouds 15 1005 41 10000 1.54 210 19:46 25.04.2021
4676 Clouds 15 1005 41 10000 1.54 210 19:24 25.04.2021
4677 Clouds 16 1005 39 10000 2.57 210 18:49 25.04.2021
4678 Clouds 16 1005 39 8879 2.57 210 18:28 25.04.2021
4679 Clouds 16 1005 39 8879 2.57 210 18:28 25.04.2021
4680 Clouds 17 1006 34 8879 2.06 220 17:48 25.04.2021
4681 Clouds 17 1006 34 10000 2.06 220 17:26 25.04.2021
4682 Clouds 15 1006 38 10000 1.54 190 16:58 25.04.2021
4683 Clouds 15 1006 38 10000 1.54 190 16:39 25.04.2021
4684 Clouds 15 1006 38 10000 1.54 190 16:19 25.04.2021
4685 Clouds 13 1006 35 10000 1.54 160 15:27 25.04.2021
4686 Clouds 11 1007 46 10000 1.03 200 14:50 25.04.2021
4687 Clouds 11 1007 46 10000 1.03 200 14:20 25.04.2021
4688 Clouds 10 1006 50 10000 0.51 180 13:50 25.04.2021
4689 Clouds 9 1006 70 10000 1.03 110 13:21 25.04.2021
4690 Clouds 8 1006 61 10000 1.66 167 12:49 25.04.2021
4691 Clouds 8 1006 75 10000 1.03 50 12:26 25.04.2021
4692 Clouds 8 1007 65 10000 1.51 179 11:47 25.04.2021
4693 Clouds 8 1007 65 10000 1.67 174 11:25 25.04.2021
4694 Clouds 7 1007 70 10000 1.03 140 10:46 25.04.2021
4695 Clouds 7 1007 70 10000 1.03 140 10:20 25.04.2021
4696 Clouds 8 1007 50 10000 1.03 210 09:46 25.04.2021
4697 Clouds 8 1007 50 10000 1.03 210 09:25 25.04.2021
4698 Clear 8 1008 65 10000 1.03 110 08:21 25.04.2021
4699 Clear 9 1008 57 10000 2.06 130 07:45 25.04.2021
4700 Clouds 10 1008 38 10000 1.03 240 07:19 25.04.2021
4701 Clouds 10 1008 38 10000 1.03 240 07:19 25.04.2021
4702 Clouds 11 1009 38 10000 1.03 180 06:31 25.04.2021
4703 Clouds 13 1009 38 10000 1.54 210 04:56 25.04.2021
4704 Clouds 13 1009 38 10000 1.54 210 04:37 25.04.2021
4705 Clouds 17 1008 31 10000 2.57 210 01:44 25.04.2021
4706 Clouds 18 1008 26 10000 2.57 210 00:59 25.04.2021
4707 Clouds 19 1008 26 10000 2.57 210 00:21 25.04.2021
4708 Clouds 19 1008 27 10000 3.09 210 23:48 24.04.2021
4709 Clouds 19 1008 27 10000 3.09 210 23:24 24.04.2021
4710 Clouds 20 1008 28 10000 3.6 200 22:37 24.04.2021
4711 Clouds 20 1008 28 10000 2.57 210 21:56 24.04.2021
4712 Clouds 20 1008 28 10000 2.57 210 21:28 24.04.2021
4713 Clouds 19 1009 30 10000 2.06 250 20:50 24.04.2021
4714 Clouds 19 1009 30 10000 2.06 250 20:32 24.04.2021
4715 Clouds 19 1009 32 10000 2.57 230 19:56 24.04.2021
4716 Clouds 18 1009 32 10000 2.57 230 19:29 24.04.2021
4717 Clear 17 1010 44 10000 7.2 250 18:59 24.04.2021
4718 Clouds 16 1010 44 10000 2.57 220 18:34 24.04.2021
4719 Clouds 15 1010 44 10000 2.57 220 17:57 24.04.2021
4720 Clouds 14 1010 44 10000 2.57 220 17:26 24.04.2021
4721 Clouds 13 1010 47 10000 3.09 250 16:51 24.04.2021
4722 Clouds 13 1010 47 10000 3.09 250 16:31 24.04.2021
4723 Clouds 11 1010 50 10000 1.54 270 15:38 24.04.2021
4724 Clouds 11 1010 50 10000 1.54 270 15:20 24.04.2021
4725 Clouds 10 1010 53 10000 2.57 240 14:33 24.04.2021
4726 Clouds 8 1009 61 10000 2.06 230 13:52 24.04.2021
4727 Clouds 8 1009 61 10000 2.06 230 13:52 24.04.2021
4728 Clouds 9 1009 61 10000 2.06 230 13:32 24.04.2021
4729 Clouds 8 1008 61 10000 2.57 220 12:39 24.04.2021
4730 Clouds 8 1008 61 10000 2.57 220 12:18 24.04.2021
4731 Clouds 8 1008 61 10000 2.06 210 11:44 24.04.2021
4732 Clouds 8 1007 53 10000 2.57 200 10:56 24.04.2021
4733 Clouds 8 1007 53 10000 2.57 200 10:38 24.04.2021
4734 Clouds 8 1007 57 10000 2.57 200 09:57 24.04.2021
4735 Clouds 9 1007 57 10000 2.57 200 09:29 24.04.2021
4736 Clouds 9 1007 61 10000 3.09 190 07:53 24.04.2021
4737 Clouds 9 1007 53 10000 2.57 190 06:58 24.04.2021
4738 Clouds 10 1007 53 10000 2.57 190 05:20 24.04.2021
4739 Clouds 15 1005 26 10000 2.06 240 00:51 24.04.2021
4740 Clouds 15 1005 28 10000 2.57 240 23:37 23.04.2021
4741 Clouds 15 1005 26 10000 1.54 260 22:47 23.04.2021
4742 Clouds 15 1005 26 10000 1.54 260 22:21 23.04.2021
4743 Clouds 14 1005 28 10000 2.06 260 21:46 23.04.2021
4744 Clouds 14 1005 28 10000 2.06 260 21:27 23.04.2021
4745 Clouds 13 1005 33 10000 2.57 30 20:42 23.04.2021
4746 Clouds 13 1005 33 10000 2.57 30 20:21 23.04.2021
4747 Clouds 13 1006 30 10000 2.57 230 19:53 23.04.2021
4748 Clouds 13 1006 30 10000 2.57 230 19:31 23.04.2021
4749 Clouds 11 1006 35 10000 3.09 360 18:58 23.04.2021
4750 Clouds 11 1006 35 10000 3.09 360 18:36 23.04.2021
4751 Clouds 10 1006 40 10000 1.54 200 17:58 23.04.2021
4752 Clouds 9 1006 40 10000 1.54 200 17:38 23.04.2021
4753 Clouds 10 1006 40 10000 1.54 200 17:19 23.04.2021
4754 Clouds 8 1007 46 10000 1.54 180 16:38 23.04.2021
4755 Clouds 6 1007 49 10000 1.54 210 15:59 23.04.2021
4756 Clouds 6 1007 49 10000 1.54 210 15:36 23.04.2021
4757 Clear 4 1007 56 10000 2.06 220 14:39 23.04.2021
4758 Clear 3 1006 56 10000 2.06 250 13:41 23.04.2021
4759 Clear 3 1006 56 10000 2.06 250 13:18 23.04.2021
4760 Clear 2 1006 60 10000 2.06 200 12:31 23.04.2021
4761 Clear 2 1005 60 10000 6.17 250 11:50 23.04.2021
4762 Clear 2 1005 52 10000 2.06 210 11:30 23.04.2021
4763 Clear 2 1005 52 10000 2.06 210 10:52 23.04.2021
4764 Clear 2 1005 52 10000 2.06 210 10:27 23.04.2021
4765 Clear 3 1005 52 10000 1.54 190 09:51 23.04.2021
4766 Clear 3 1005 48 10000 2.06 200 08:53 23.04.2021
4767 Clear 3 1005 48 10000 2.06 200 08:34 23.04.2021
4768 Clouds 3 1005 41 10000 1.54 240 07:47 23.04.2021
4769 Clouds 3 1005 41 10000 2.06 230 06:55 23.04.2021
4770 Clouds 4 1005 38 10000 1.54 190 05:30 23.04.2021
4771 Clouds 3 1005 38 10000 1.03 190 03:32 23.04.2021
4772 Clouds 4 1004 35 10000 1.54 30 01:23 23.04.2021
4773 Clouds 3 1004 38 10000 3.09 20 23:54 22.04.2021
4774 Clouds 3 1004 38 10000 3.6 10 22:57 22.04.2021
4775 Clouds 3 1004 38 10000 3.6 10 22:38 22.04.2021
4776 Clouds 3 1004 38 10000 3.6 10 22:18 22.04.2021
4777 Clouds 2 1004 44 10000 2.57 360 21:41 22.04.2021
4778 Clouds 2 1004 44 10000 2.57 360 21:18 22.04.2021
4779 Clouds 1 1004 55 10000 4.12 10 20:45 22.04.2021
4780 Clouds 1 1004 55 10000 4.12 10 20:26 22.04.2021
4781 Clouds 0 1004 64 10000 2.06 300 19:50 22.04.2021
4782 Clouds 0 1004 64 10000 2.06 300 19:31 22.04.2021
4783 Clouds 0 1004 51 10000 3.09 10 18:44 22.04.2021
4784 Clouds 0 1004 51 10000 3.09 10 18:44 22.04.2021
4785 Clouds 0 1004 51 10000 3.09 10 18:21 22.04.2021
4786 Clouds 0 1004 59 10000 3.6 350 17:41 22.04.2021
4787 Snow -1 1004 59 10000 3.6 350 17:20 22.04.2021
4788 Snow -1 1004 64 10000 2.06 350 16:47 22.04.2021
4789 Snow -1 1004 64 5037 2.06 350 16:27 22.04.2021
4790 Snow -1 1004 59 5037 2.57 360 15:48 22.04.2021
4791 Clouds -1 1004 59 5798 2.57 360 15:24 22.04.2021
4792 Clouds -1 1004 64 5798 2.06 20 14:50 22.04.2021
4793 Clouds -2 1004 64 10000 2.06 20 14:29 22.04.2021
4794 Clouds -2 1004 68 10000 1.54 20 13:46 22.04.2021
4795 Clouds -3 1004 68 10000 1.54 20 13:25 22.04.2021
4796 Clouds -3 1004 68 10000 1.03 20 12:56 22.04.2021
4797 Clouds -3 1004 68 10000 1.03 20 12:56 22.04.2021
4798 Clouds -3 1004 68 10000 1.03 20 12:37 22.04.2021
4799 Clouds -3 1004 68 10000 1.03 20 12:18 22.04.2021
4800 Clouds -3 1004 64 10000 1.54 350 11:42 22.04.2021
4801 Clouds -2 1004 64 10000 1.54 350 11:21 22.04.2021
4802 Clouds -2 1004 64 10000 1.03 310 10:42 22.04.2021
4803 Clouds -2 1004 64 10000 1.03 310 10:20 22.04.2021
4804 Clouds -2 1005 64 10000 1.54 360 09:39 22.04.2021
4805 Clouds -2 1005 64 10000 1.54 360 09:19 22.04.2021
4806 Clouds -2 1005 59 10000 2.06 10 08:38 22.04.2021
4807 Clouds -2 1005 59 10000 2.06 10 08:18 22.04.2021
4808 Clouds -1 1006 55 10000 3.09 350 07:37 22.04.2021
4809 Clouds -1 1006 55 10000 3.09 350 07:18 22.04.2021
4810 Clouds -1 1007 59 10000 2.57 10 06:22 22.04.2021
4811 Clouds -1 1007 59 10000 1.54 10 05:24 22.04.2021
4812 Snow -1 1008 86 10000 2.57 350 03:25 22.04.2021
4813 Snow 0 1007 86 9656 1.03 0 00:45 22.04.2021
4814 Snow 0 1008 86 1651 2.06 360 23:44 21.04.2021
4815 Snow 0 1008 86 346 2.06 360 23:23 21.04.2021
4816 Snow 0 1008 86 346 2.57 350 22:41 21.04.2021
4817 Snow -1 1008 86 369 2.57 350 22:23 21.04.2021
4818 Snow -1 1008 93 369 2.57 20 21:42 21.04.2021
4819 Snow -1 1008 93 3621 5.14 10 21:23 21.04.2021
4820 Snow -1 1008 93 3621 5.14 10 21:23 21.04.2021
4821 Snow -1 1008 93 1207 4.12 340 20:42 21.04.2021
4822 Snow -1 1008 93 220 3.09 20 20:19 21.04.2021
4823 Snow -1 1009 93 257 3.6 20 19:42 21.04.2021
4824 Snow -1 1009 93 400 3.6 20 19:23 21.04.2021
4825 Snow -1 1009 86 400 3.09 10 18:45 21.04.2021
4826 Snow -1 1009 86 634 3.09 10 18:26 21.04.2021
4827 Snow -1 1010 86 634 3.09 20 17:47 21.04.2021
4828 Snow -1 1010 86 1626 3.09 20 17:24 21.04.2021
4829 Snow -1 1011 86 1626 2.57 20 16:48 21.04.2021
4830 Snow -1 1011 86 4793 3.6 10 15:59 21.04.2021
4831 Snow -1 1011 86 4793 3.6 10 15:40 21.04.2021
4832 Snow 0 1012 69 9890 2.57 20 14:54 21.04.2021
4833 Snow 1 1012 69 9890 2.57 20 14:36 21.04.2021
4834 Snow 1 1012 69 1800 2.57 20 14:18 21.04.2021
4835 Snow 1 1012 64 1346 3.09 20 13:40 21.04.2021
4836 Snow 1 1012 64 10000 3.09 20 13:19 21.04.2021
4837 Rain 1 1012 80 10000 3.09 360 12:30 21.04.2021
4838 Clouds 2 1012 69 10000 2.06 350 11:50 21.04.2021
4839 Clouds 2 1012 69 10000 2.06 350 11:29 21.04.2021
4840 Clouds 3 1012 60 10000 1.03 310 10:51 21.04.2021
4841 Clouds 3 1012 60 10000 1.03 310 10:33 21.04.2021
4842 Clouds 3 1013 60 10000 1.03 310 09:44 21.04.2021
4843 Clouds 4 1013 56 10000 1.03 230 08:56 21.04.2021
4844 Clouds 4 1013 56 10000 1.03 230 08:38 21.04.2021
4845 Clouds 4 1013 56 10000 1.03 230 08:19 21.04.2021
4846 Clouds 4 1013 56 10000 1.03 280 07:31 21.04.2021
4847 Clouds 4 1013 52 10000 0.51 150 06:56 21.04.2021
4848 Clouds 5 1014 52 10000 1.03 240 05:20 21.04.2021
4849 Clouds 7 1012 42 10000 2.06 260 01:32 21.04.2021
4850 Clouds 9 1010 46 10000 3.09 210 23:51 20.04.2021
4851 Clouds 9 1010 46 10000 3.09 210 23:25 20.04.2021
4852 Clouds 10 1010 43 10000 3.09 220 22:41 20.04.2021
4853 Clouds 10 1010 43 10000 3.09 220 22:21 20.04.2021
4854 Clouds 10 1009 43 10000 3.09 220 21:47 20.04.2021
4855 Clouds 11 1009 43 10000 3.09 220 21:25 20.04.2021
4856 Clouds 10 1009 43 10000 3.09 220 20:44 20.04.2021
4857 Clouds 10 1009 43 10000 3.09 220 20:24 20.04.2021
4858 Clouds 10 1009 46 10000 3.09 220 19:55 20.04.2021
4859 Clouds 10 1009 46 10000 3.09 220 19:37 20.04.2021
4860 Clouds 10 1009 46 10000 3.09 220 19:18 20.04.2021
4861 Clouds 8 1009 53 10000 2.57 210 18:35 20.04.2021
4862 Clouds 8 1009 53 10000 2.57 210 18:35 20.04.2021
4863 Clouds 8 1009 57 10000 2.57 210 17:46 20.04.2021
4864 Clouds 8 1009 57 10000 2.57 210 17:27 20.04.2021
4865 Clouds 8 1008 70 10000 1.54 250 16:48 20.04.2021
4866 Clouds 7 1008 81 10000 2.06 230 15:53 20.04.2021
4867 Clouds 7 1008 81 10000 2.06 230 15:29 20.04.2021
4868 Mist 7 1007 93 9656 9.26 250 14:58 20.04.2021
4869 Rain 8 1006 81 10000 3.09 210 14:33 20.04.2021
4870 Rain 8 1006 66 10000 2.57 180 13:48 20.04.2021
4871 Rain 9 1006 66 10000 2.57 180 13:22 20.04.2021
4872 Clouds 9 1006 61 10000 1.54 190 12:41 20.04.2021
4873 Clouds 9 1006 61 9020 1.54 190 12:20 20.04.2021
4874 Clouds 8 1006 57 9020 1.54 170 11:44 20.04.2021
4875 Clouds 8 1006 57 10000 1.54 170 11:21 20.04.2021
4876 Clouds 9 1007 50 10000 1.54 180 10:43 20.04.2021
4877 Clouds 9 1007 50 10000 1.54 180 10:43 20.04.2021
4878 Clouds 9 1007 50 10000 1.54 180 10:23 20.04.2021
4879 Clouds 9 1007 61 10000 3.09 180 09:28 20.04.2021
4880 Clouds 8 1007 70 10000 2.06 130 08:55 20.04.2021
4881 Clouds 8 1007 70 10000 2.06 130 08:22 20.04.2021
4882 Clouds 8 1007 53 10000 1.03 220 07:47 20.04.2021
4883 Clouds 8 1007 57 10000 0.51 250 06:45 20.04.2021
4884 Clouds 9 1007 66 10000 0.51 280 05:38 20.04.2021
4885 Clouds 10 1008 76 10000 1.03 330 04:42 20.04.2021
4886 Clouds 14 1006 29 10000 2.06 210 01:48 20.04.2021
4887 Clouds 15 1006 44 10000 2.06 190 00:37 20.04.2021
4888 Clouds 16 1006 39 10000 2.57 210 23:37 19.04.2021
4889 Clouds 17 1006 42 10000 2.06 180 22:57 19.04.2021
4890 Clouds 16 1006 42 10000 2.06 180 22:33 19.04.2021
4891 Clouds 16 1007 44 10000 2.06 180 21:51 19.04.2021
4892 Clouds 16 1007 44 10000 2.06 180 21:33 19.04.2021
4893 Clouds 16 1007 36 10000 2.57 230 20:55 19.04.2021
4894 Clouds 16 1007 36 10000 2.57 230 20:37 19.04.2021
4895 Clouds 16 1007 36 10000 2.57 230 20:19 19.04.2021
4896 Clouds 15 1008 44 10000 1.54 260 19:40 19.04.2021
4897 Clouds 16 1008 44 10000 1.54 260 19:22 19.04.2021
4898 Clouds 15 1008 51 10000 2.06 170 18:46 19.04.2021
4899 Clouds 14 1008 51 10000 2.06 170 18:22 19.04.2021
4900 Clouds 14 1009 58 10000 2.06 180 17:54 19.04.2021
4901 Clouds 13 1009 58 10000 2.06 180 17:29 19.04.2021
4902 Clouds 12 1009 62 10000 2.06 210 16:51 19.04.2021
4903 Clouds 11 1009 62 10000 2.06 210 16:33 19.04.2021
4904 Clouds 11 1009 62 10000 2.06 210 16:33 19.04.2021
4905 Clouds 11 1009 66 10000 2.57 210 15:55 19.04.2021
4906 Clouds 10 1009 66 10000 2.57 210 15:30 19.04.2021
4907 Clouds 9 1009 71 10000 1.54 210 14:55 19.04.2021
4908 Clouds 9 1009 71 10000 1.54 210 14:36 19.04.2021
4909 Clouds 9 1009 76 10000 1.54 260 13:54 19.04.2021
4910 Clouds 9 1009 76 10000 1.54 260 13:30 19.04.2021
4911 Clouds 8 1009 76 10000 1.03 210 12:56 19.04.2021
4912 Clouds 8 1009 76 10000 1.03 210 12:38 19.04.2021
4913 Clouds 7 1009 76 10000 1.03 210 12:19 19.04.2021
4914 Clouds 7 1009 76 10000 1.03 200 11:51 19.04.2021
4915 Clouds 7 1009 76 10000 1.03 200 11:20 19.04.2021
4916 Clouds 7 1009 76 10000 1.03 240 10:44 19.04.2021
4917 Clouds 8 1009 76 10000 1.03 240 10:20 19.04.2021
4918 Clouds 8 1008 76 10000 1.03 250 09:48 19.04.2021
4919 Clouds 8 1008 76 10000 1.03 250 09:26 19.04.2021
4920 Clouds 8 1009 76 10000 1.54 270 08:45 19.04.2021
4921 Clouds 8 1009 76 10000 1.54 270 08:22 19.04.2021
4922 Clouds 9 1009 71 10000 1.03 250 07:45 19.04.2021
4923 Clouds 9 1009 71 10000 1.03 250 07:18 19.04.2021
4924 Clouds 9 1009 71 10000 3.6 200 05:41 19.04.2021
4925 Clouds 10 1008 50 10000 1.03 270 02:34 19.04.2021
4926 Clouds 13 1008 47 10000 1.54 170 00:45 19.04.2021
4927 Clouds 13 1008 47 10000 0.51 120 23:22 18.04.2021
4928 Clouds 13 1008 47 10000 1.03 140 22:58 18.04.2021
4929 Clouds 13 1008 47 10000 1.03 140 22:40 18.04.2021
4930 Clouds 13 1008 47 10000 1.03 140 22:22 18.04.2021
4931 Clouds 12 1008 50 10000 1.03 320 21:29 18.04.2021
4932 Clouds 13 1008 47 10000 2.06 170 20:56 18.04.2021
4933 Clouds 12 1008 47 10000 2.06 170 20:37 18.04.2021
4934 Clouds 12 1008 47 10000 2.06 170 20:19 18.04.2021
4935 Clouds 12 1009 50 10000 1.54 40 19:44 18.04.2021
4936 Clouds 12 1009 50 10000 1.54 40 19:21 18.04.2021
4937 Clouds 11 1009 53 10000 1.03 330 18:46 18.04.2021
4938 Clouds 11 1009 53 10000 1.03 330 18:27 18.04.2021
4939 Clouds 10 1009 66 10000 1.03 0 17:49 18.04.2021
4940 Clouds 10 1009 66 10000 1.03 0 17:29 18.04.2021
4941 Clouds 9 1010 61 10000 1.03 80 16:54 18.04.2021
4942 Clouds 8 1010 61 10000 1.03 80 16:35 18.04.2021
4943 Clouds 8 1009 70 10000 1.03 90 15:51 18.04.2021
4944 Clouds 7 1009 70 10000 1.03 90 15:30 18.04.2021
4945 Clouds 7 1009 70 10000 1.54 50 14:58 18.04.2021
4946 Clouds 6 1009 70 10000 1.54 50 14:39 18.04.2021
4947 Clouds 6 1009 70 10000 1.54 50 14:18 18.04.2021
4948 Clouds 5 1009 75 10000 1.03 20 13:44 18.04.2021
4949 Clouds 5 1009 75 10000 1.03 20 13:24 18.04.2021
4950 Clouds 5 1009 70 10000 1.03 50 12:35 18.04.2021
4951 Clouds 5 1009 75 10000 1.54 30 11:51 18.04.2021
4952 Clouds 5 1009 75 10000 1.54 30 11:27 18.04.2021
4953 Clouds 5 1009 65 10000 2.06 10 10:54 18.04.2021
4954 Clouds 5 1009 65 10000 2.06 10 10:35 18.04.2021
4955 Clouds 5 1009 65 10000 1.54 20 09:58 18.04.2021
4956 Clouds 5 1009 65 10000 1.54 20 09:39 18.04.2021
4957 Clouds 5 1009 65 10000 1.54 20 09:39 18.04.2021
4958 Clouds 6 1009 65 10000 1.54 20 09:19 18.04.2021
4959 Clouds 6 1009 65 10000 1.03 40 08:40 18.04.2021
4960 Clouds 6 1009 65 10000 1.03 40 08:19 18.04.2021
4961 Clouds 6 1009 70 10000 1.03 30 07:39 18.04.2021
4962 Clouds 5 1010 70 10000 0.51 300 05:48 18.04.2021
4963 Clouds 5 1010 70 10000 0.51 300 05:26 18.04.2021
4964 Clouds 5 1010 61 10000 1.54 300 04:30 18.04.2021
4965 Clouds 7 1010 57 10000 1.03 310 02:23 18.04.2021
4966 Clouds 9 1010 53 10000 1.54 120 00:41 18.04.2021
4967 Clouds 9 1009 53 10000 3.6 60 23:46 17.04.2021
4968 Clouds 9 1009 53 10000 3.6 60 23:18 17.04.2021
4969 Clouds 9 1009 53 10000 2.06 30 22:41 17.04.2021
4970 Clouds 9 1009 53 10000 2.06 30 22:20 17.04.2021
4971 Clouds 9 1010 53 10000 2.57 30 21:39 17.04.2021
4972 Clouds 8 1010 53 10000 2.57 30 21:21 17.04.2021
4973 Clouds 8 1010 57 10000 2.57 40 20:28 17.04.2021
4974 Clouds 8 1010 53 10000 2.57 60 19:46 17.04.2021
4975 Clouds 8 1010 53 10000 2.57 60 19:23 17.04.2021
4976 Clouds 7 1010 65 10000 3.09 20 18:59 17.04.2021
4977 Clouds 7 1010 65 10000 3.09 20 18:40 17.04.2021
4978 Clouds 7 1010 65 10000 3.09 20 18:20 17.04.2021
4979 Clouds 7 1010 65 10000 2.06 50 17:41 17.04.2021
4980 Clouds 6 1010 70 10000 2.57 40 16:56 17.04.2021
4981 Clouds 5 1010 70 10000 2.57 40 16:34 17.04.2021
4982 Clouds 5 1010 75 10000 5.14 40 15:56 17.04.2021
4983 Clouds 4 1010 70 10000 2.57 20 14:51 17.04.2021
4984 Clouds 4 1010 70 10000 2.57 20 14:33 17.04.2021
4985 Clouds 4 1010 75 10000 3.09 20 13:50 17.04.2021
4986 Clouds 3 1010 75 10000 3.09 20 13:27 17.04.2021
4987 Clouds 3 1009 75 10000 2.57 20 12:42 17.04.2021
4988 Clouds 3 1009 75 10000 2.57 20 12:22 17.04.2021
4989 Clouds 4 1009 81 10000 2.06 30 11:50 17.04.2021
4990 Clouds 4 1009 81 10000 2.06 30 11:31 17.04.2021
4991 Clouds 5 1009 81 10000 2.06 40 10:47 17.04.2021
4992 Clouds 5 1009 81 10000 2.06 40 10:29 17.04.2021
4993 Clouds 5 1008 87 10000 2.06 20 09:44 17.04.2021
4994 Clouds 4 1008 87 10000 2.57 360 08:42 17.04.2021
4995 Clouds 4 1008 87 10000 2.57 360 08:24 17.04.2021
4996 Clouds 4 1008 93 10000 2.06 300 07:20 17.04.2021
4997 Clouds 4 1010 93 10000 1.03 50 03:59 17.04.2021
4998 Clouds 4 1010 93 10000 1.03 50 03:39 17.04.2021
4999 Clouds 5 1008 87 10000 2.57 50 00:51 17.04.2021
5000 Rain 5 1008 87 10000 2.57 50 00:29 17.04.2021
5001 Rain 6 1007 75 10000 2.57 30 23:52 16.04.2021
5002 Clouds 6 1007 75 10000 2.57 30 23:32 16.04.2021
5003 Rain 6 1007 75 10000 3.09 40 22:51 16.04.2021
5004 Rain 7 1007 75 10000 3.09 40 22:22 16.04.2021
5005 Rain 7 1007 81 10000 3.09 30 21:54 16.04.2021
5006 Rain 7 1007 81 10000 3.09 30 21:35 16.04.2021
5007 Rain 7 1007 81 10000 2.06 60 20:54 16.04.2021
5008 Rain 7 1007 81 10000 2.06 60 20:29 16.04.2021
5009 Rain 6 1007 87 10000 1.03 60 19:55 16.04.2021
5010 Rain 6 1007 87 10000 1.03 60 19:31 16.04.2021
5011 Rain 5 1008 93 10000 2.06 70 18:47 16.04.2021
5012 Rain 5 1008 93 10000 2.06 70 18:21 16.04.2021
5013 Rain 5 1008 87 10000 2.57 50 17:46 16.04.2021
5014 Rain 5 1008 87 529 2.57 50 17:19 16.04.2021
5015 Rain 5 1008 81 529 2.06 40 16:44 16.04.2021
5016 Rain 5 1008 81 529 2.06 40 16:44 16.04.2021
5017 Rain 5 1008 81 4784 2.06 40 16:25 16.04.2021
5018 Rain 5 1008 81 4784 1.54 40 15:51 16.04.2021
5019 Rain 5 1008 81 10000 1.54 40 15:23 16.04.2021
5020 Rain 5 1008 93 10000 1.54 200 14:43 16.04.2021
5021 Rain 5 1008 93 10000 1.54 200 14:20 16.04.2021
5022 Rain 5 1008 87 10000 1.03 40 13:54 16.04.2021
5023 Rain 5 1008 87 10000 1.03 40 13:21 16.04.2021
5024 Rain 5 1007 87 10000 0.51 140 12:51 16.04.2021
5025 Clouds 5 1007 87 10000 0.51 140 12:29 16.04.2021
5026 Rain 5 1007 87 10000 1.54 190 11:58 16.04.2021
5027 Rain 5 1007 87 10000 1.54 190 11:27 16.04.2021
5028 Rain 5 1007 87 10000 1.54 200 10:59 16.04.2021
5029 Rain 5 1007 87 10000 1.54 200 10:39 16.04.2021
5030 Rain 5 1007 87 10000 1.54 200 10:19 16.04.2021
5031 Rain 5 1007 93 10000 2.06 220 09:43 16.04.2021
5032 Rain 5 1007 93 10000 2.06 220 09:20 16.04.2021
5033 Rain 5 1007 93 10000 1.54 160 08:41 16.04.2021
5034 Rain 5 1007 93 10000 1.54 160 08:18 16.04.2021
5035 Rain 6 1007 87 10000 1.03 150 07:37 16.04.2021
5036 Rain 6 1007 87 10000 1.03 160 06:59 16.04.2021
5037 Clouds 6 1007 87 10000 1.03 160 06:24 16.04.2021
5038 Rain 6 1007 87 10000 1.03 180 04:23 16.04.2021
5039 Rain 8 1006 87 8003 1.54 160 01:37 16.04.2021
5040 Rain 8 1006 87 7305 2.06 170 00:41 16.04.2021
5041 Rain 8 1006 87 7903 2.06 170 00:20 16.04.2021
5042 Rain 8 1006 87 7903 2.57 180 23:42 15.04.2021
5043 Rain 8 1006 87 7903 2.57 180 23:42 15.04.2021
5044 Rain 8 1006 87 8988 2.57 180 23:23 15.04.2021
5045 Rain 8 1006 87 8988 2.06 170 22:46 15.04.2021
5046 Rain 8 1006 87 10000 2.06 170 22:23 15.04.2021
5047 Rain 8 1006 87 10000 2.06 190 21:43 15.04.2021
5048 Rain 8 1006 87 10000 2.06 190 21:24 15.04.2021
5049 Rain 9 1006 93 10000 1.54 160 20:45 15.04.2021
5050 Rain 9 1006 93 10000 1.54 160 20:25 15.04.2021
5051 Rain 8 1007 93 10000 0.51 10 19:47 15.04.2021
5052 Rain 8 1007 93 10000 0.51 10 19:27 15.04.2021
5053 Rain 7 1007 93 10000 1.03 20 18:45 15.04.2021
5054 Rain 7 1007 93 9528 1.03 20 18:21 15.04.2021
5055 Rain 6 1007 93 9528 2.06 10 17:55 15.04.2021
5056 Rain 6 1007 93 9528 2.06 10 17:37 15.04.2021
5057 Rain 6 1007 93 7251 2.06 10 17:18 15.04.2021
5058 Rain 6 1008 87 7251 1.54 50 16:42 15.04.2021
5059 Rain 6 1008 87 10000 1.54 50 16:22 15.04.2021
5060 Rain 6 1008 81 10000 2.06 360 15:46 15.04.2021
5061 Clouds 6 1008 81 10000 2.06 360 15:26 15.04.2021
5062 Rain 7 1008 81 10000 1.54 30 14:42 15.04.2021
5063 Clouds 7 1008 81 10000 1.54 30 14:24 15.04.2021
5064 Rain 7 1008 66 10000 0.51 10 13:46 15.04.2021
5065 Clouds 7 1008 66 10000 0.51 10 13:23 15.04.2021
5066 Clouds 7 1008 70 10000 2.06 10 12:46 15.04.2021
5067 Clouds 7 1008 70 10000 2.06 10 12:24 15.04.2021
5068 Clouds 7 1008 66 10000 3.09 10 11:47 15.04.2021
5069 Clouds 8 1008 66 10000 3.09 10 11:25 15.04.2021
5070 Clouds 8 1008 61 10000 2.57 10 10:57 15.04.2021
5071 Clouds 8 1008 61 10000 2.57 10 10:28 15.04.2021
5072 Clear 8 1008 70 10000 3.09 360 09:56 15.04.2021
5073 Clouds 8 1009 57 10000 2.57 20 09:29 15.04.2021
5074 Clear 9 1009 62 10000 4.63 340 08:52 15.04.2021
5075 Clouds 9 1009 54 10000 1.03 10 08:24 15.04.2021
5076 Clouds 10 1009 66 10000 1.49 9 07:30 15.04.2021
5077 Clouds 11 1010 62 10000 1.54 30 06:56 15.04.2021
5078 Clouds 12 1010 47 10000 1.03 340 06:33 15.04.2021
5079 Clouds 13 1011 47 10000 1.54 360 04:54 15.04.2021
5080 Clouds 14 1011 44 10000 1.54 320 02:58 15.04.2021
5081 Clouds 18 1012 36 10000 0.51 110 23:49 14.04.2021
5082 Clear 17 1012 36 10000 0.51 110 23:29 14.04.2021
5083 Clear 18 1013 34 10000 1.03 70 22:47 14.04.2021
5084 Clear 18 1013 34 10000 1.03 70 22:28 14.04.2021
5085 Clear 18 1014 36 10000 1.03 40 21:56 14.04.2021
5086 Clear 18 1014 36 10000 1.03 40 21:37 14.04.2021
5087 Clear 17 1014 36 10000 1.03 40 21:18 14.04.2021
5088 Clear 16 1015 41 10000 1.54 30 20:37 14.04.2021
5089 Clouds 16 1015 41 10000 1.54 30 20:19 14.04.2021
5090 Clouds 15 1016 41 10000 2.06 340 19:39 14.04.2021
5091 Clouds 15 1016 41 10000 2.06 340 19:18 14.04.2021
5092 Clouds 14 1016 44 10000 1.54 50 18:50 14.04.2021
5093 Clouds 15 1016 44 10000 1.54 50 18:19 14.04.2021
5094 Clouds 13 1017 47 10000 2.06 30 17:55 14.04.2021
5095 Clouds 13 1017 47 10000 2.06 30 17:24 14.04.2021
5096 Clouds 11 1017 57 10000 1.54 360 16:43 14.04.2021
5097 Clouds 11 1017 57 10000 1.54 360 16:22 14.04.2021
5098 Clouds 9 1018 61 10000 2.06 10 15:40 14.04.2021
5099 Clouds 9 1018 61 10000 2.06 10 15:22 14.04.2021
5100 Clouds 7 1018 57 10000 3.09 20 14:42 14.04.2021
5101 Clouds 7 1018 57 10000 3.09 20 14:22 14.04.2021
5102 Clouds 7 1018 57 10000 3.6 20 13:48 14.04.2021
5103 Clouds 7 1018 53 10000 3.09 10 12:54 14.04.2021
5104 Clouds 7 1018 53 10000 3.09 10 12:32 14.04.2021
5105 Clouds 7 1018 46 10000 3.09 20 11:42 14.04.2021
5106 Clouds 7 1018 46 10000 3.09 20 11:24 14.04.2021
5107 Clouds 8 1018 43 10000 2.57 20 10:35 14.04.2021
5108 Clouds 8 1018 43 10000 3.09 20 09:59 14.04.2021
5109 Clouds 8 1018 43 10000 3.09 20 09:41 14.04.2021
5110 Clouds 8 1018 43 10000 3.09 20 09:18 14.04.2021
5111 Clouds 9 1018 43 10000 3.09 20 08:33 14.04.2021
5112 Clouds 10 1018 46 10000 2.57 20 07:56 14.04.2021
5113 Clouds 11 1018 44 10000 2.06 30 06:46 14.04.2021
5114 Clouds 11 1018 44 10000 2.06 30 06:23 14.04.2021
5115 Clouds 13 1017 47 10000 1.54 360 03:58 14.04.2021
5116 Clouds 16 1017 42 10000 2.06 20 01:41 14.04.2021
5117 Clouds 18 1017 39 10000 2.06 30 00:34 14.04.2021
5118 Clouds 18 1017 42 10000 2.57 20 23:39 13.04.2021
5119 Clouds 18 1017 42 10000 1.54 70 22:59 13.04.2021
5120 Clouds 18 1017 42 10000 1.54 70 22:40 13.04.2021
5121 Clouds 18 1017 42 10000 1.54 70 22:18 13.04.2021
5122 Clouds 18 1017 42 10000 3.09 30 21:44 13.04.2021
5123 Clouds 18 1017 42 10000 3.09 30 21:24 13.04.2021
5124 Clouds 17 1018 42 10000 2.06 110 20:41 13.04.2021
5125 Clear 17 1018 42 10000 2.06 110 20:21 13.04.2021
5126 Clear 16 1019 44 10000 2.57 30 19:40 13.04.2021
5127 Clear 16 1019 44 10000 2.57 30 19:22 13.04.2021
5128 Clear 16 1019 47 10000 5.66 50 18:37 13.04.2021
5129 Clear 15 1020 51 10000 2.57 90 17:54 13.04.2021
5130 Clear 15 1020 51 10000 2.57 90 17:36 13.04.2021
5131 Clear 14 1020 54 10000 6.17 50 17:18 13.04.2021
5132 Clear 14 1020 54 10000 6.17 50 16:42 13.04.2021
5133 Clear 13 1020 54 10000 6.17 50 16:20 13.04.2021
5134 Clear 12 1020 62 10000 2.06 30 15:42 13.04.2021
5135 Clouds 11 1020 62 10000 2.06 30 15:21 13.04.2021
5136 Clouds 10 1020 71 10000 2.06 10 14:46 13.04.2021
5137 Clouds 10 1020 71 10000 2.06 10 14:19 13.04.2021
5138 Clouds 8 1019 81 10000 2.06 360 13:45 13.04.2021
5139 Clouds 7 1019 81 10000 2.06 360 13:24 13.04.2021
5140 Clouds 6 1018 81 10000 2.06 20 12:55 13.04.2021
5141 Clouds 6 1018 81 10000 2.06 20 12:27 13.04.2021
5142 Clouds 6 1018 81 10000 2.57 360 11:55 13.04.2021
5143 Clear 6 1018 81 10000 2.57 360 11:29 13.04.2021
5144 Clear 7 1018 76 10000 3.09 10 10:47 13.04.2021
5145 Clear 7 1018 76 10000 3.09 10 10:21 13.04.2021
5146 Clear 7 1017 76 10000 3.09 20 09:56 13.04.2021
5147 Clear 7 1017 76 10000 3.09 20 09:36 13.04.2021
5148 Clear 7 1017 71 10000 2.57 10 08:56 13.04.2021
5149 Clear 8 1017 71 10000 2.57 10 08:38 13.04.2021
5150 Clouds 8 1017 71 10000 2.57 10 08:20 13.04.2021
5151 Clouds 8 1017 66 10000 2.57 20 07:36 13.04.2021
5152 Clouds 9 1016 66 10000 2.06 30 06:31 13.04.2021
5153 Clouds 11 1015 58 10000 3.09 30 04:49 13.04.2021
5154 Clouds 13 1014 54 10000 3.09 40 02:25 13.04.2021
5155 Clouds 15 1012 55 10000 3.09 30 00:26 13.04.2021
5156 Clouds 16 1012 48 10000 3.6 30 23:48 12.04.2021
5157 Clouds 16 1012 48 10000 3.6 30 23:25 12.04.2021
5158 Clouds 16 1011 48 10000 3.09 40 22:39 12.04.2021
5159 Clouds 17 1011 51 10000 2.57 50 21:58 12.04.2021
5160 Clouds 17 1011 51 10000 2.57 50 21:38 12.04.2021
5161 Clouds 16 1011 51 10000 2.57 50 21:19 12.04.2021
5162 Clouds 16 1011 55 10000 3.6 40 20:38 12.04.2021
5163 Clouds 16 1011 55 10000 3.6 40 20:20 12.04.2021
5164 Clouds 15 1011 55 10000 2.57 60 19:55 12.04.2021
5165 Clouds 15 1011 55 10000 2.57 60 19:36 12.04.2021
5166 Clouds 15 1011 55 10000 2.57 60 19:18 12.04.2021
5167 Clouds 15 1011 55 10000 2.57 90 18:42 12.04.2021
5168 Clouds 15 1011 55 10000 2.57 90 18:42 12.04.2021
5169 Clouds 15 1011 55 10000 2.57 90 18:24 12.04.2021
5170 Clouds 14 1012 58 10000 3.09 60 17:43 12.04.2021
5171 Clouds 14 1012 58 10000 3.09 60 17:23 12.04.2021
5172 Clouds 13 1012 58 10000 2.57 50 16:47 12.04.2021
5173 Clouds 13 1012 58 10000 2.57 50 16:27 12.04.2021
5174 Clouds 12 1011 62 10000 3.09 70 15:49 12.04.2021
5175 Clouds 12 1011 62 10000 3.09 70 15:27 12.04.2021
5176 Clouds 11 1011 66 10000 2.57 80 14:50 12.04.2021
5177 Clouds 11 1011 66 10000 2.57 80 14:30 12.04.2021
5178 Clouds 10 1010 71 10000 2.57 30 13:49 12.04.2021
5179 Clouds 9 1010 71 10000 2.57 30 13:28 12.04.2021
5180 Clouds 8 1010 71 10000 2.57 10 12:49 12.04.2021
5181 Clouds 8 1010 71 10000 2.57 10 12:27 12.04.2021
5182 Clouds 8 1010 71 10000 2.57 10 11:59 12.04.2021
5183 Clouds 7 1010 71 10000 2.57 10 11:24 12.04.2021
5184 Clouds 8 1010 66 10000 2.57 10 10:46 12.04.2021
5185 Clouds 8 1010 66 10000 2.57 10 10:26 12.04.2021
5186 Clouds 8 1009 66 10000 2.06 20 09:49 12.04.2021
5187 Clouds 8 1009 66 10000 2.06 20 09:20 12.04.2021
5188 Clouds 8 1009 66 10000 2.57 20 08:36 12.04.2021
5189 Clouds 8 1009 61 10000 2.57 30 07:42 12.04.2021
5190 Clouds 8 1009 61 10000 2.57 30 07:21 12.04.2021
5191 Clouds 9 1008 57 10000 3.09 40 06:25 12.04.2021
5192 Clouds 9 1008 53 10000 2.57 30 05:41 12.04.2021
5193 Clouds 14 1006 38 10000 3.6 30 01:40 12.04.2021
5194 Clouds 16 1005 33 10000 4.12 20 00:26 12.04.2021
5195 Clouds 17 1005 31 10000 3.6 30 23:49 11.04.2021
5196 Clouds 17 1005 31 10000 3.6 30 23:30 11.04.2021
5197 Clouds 18 1005 29 10000 4.12 20 22:48 11.04.2021
5198 Clouds 18 1005 29 10000 4.12 20 22:26 11.04.2021
5199 Clouds 17 1005 34 10000 4.63 20 21:50 11.04.2021
5200 Clouds 17 1005 34 10000 4.63 20 21:30 11.04.2021
5201 Clouds 17 1005 34 10000 4.63 20 21:30 11.04.2021
5202 Clouds 17 1005 42 10000 4.12 30 20:58 11.04.2021
5203 Clouds 17 1005 42 10000 4.12 30 20:31 11.04.2021
5204 Clouds 16 1006 44 10000 4.63 20 19:58 11.04.2021
5205 Clouds 16 1006 44 10000 4.63 20 19:39 11.04.2021
5206 Clouds 16 1006 44 10000 4.63 20 19:19 11.04.2021
5207 Clouds 15 1007 47 10000 4.63 20 18:45 11.04.2021
5208 Clouds 15 1007 47 10000 4.63 20 18:26 11.04.2021
5209 Clouds 13 1007 54 10000 3.6 40 17:49 11.04.2021
5210 Clouds 13 1007 54 10000 3.6 40 17:28 11.04.2021
5211 Clouds 11 1008 57 10000 3.6 40 16:53 11.04.2021
5212 Clouds 11 1008 57 10000 3.6 40 16:27 11.04.2021
5213 Clouds 10 1007 61 10000 3.6 40 15:58 11.04.2021
5214 Clouds 10 1007 61 10000 3.6 40 15:38 11.04.2021
5215 Clouds 9 1007 61 10000 3.6 40 15:20 11.04.2021
5216 Clouds 8 1008 70 10000 4.12 20 14:47 11.04.2021
5217 Clouds 8 1008 70 10000 4.12 20 14:18 11.04.2021
5218 Clouds 7 1008 65 10000 4.12 20 13:39 11.04.2021
5219 Clouds 7 1008 65 10000 4.12 20 13:21 11.04.2021
5220 Clouds 7 1007 65 10000 4.63 20 12:25 11.04.2021
5221 Clouds 7 1007 70 10000 5.14 30 11:53 11.04.2021
5222 Clouds 7 1007 70 10000 5.14 30 11:31 11.04.2021
5223 Clouds 7 1007 61 10000 4.63 20 10:56 11.04.2021
5224 Clouds 7 1007 61 10000 4.63 20 10:38 11.04.2021
5225 Clouds 7 1007 65 10000 7.72 20 10:20 11.04.2021
5226 Clouds 8 1007 61 10000 4.12 20 09:38 11.04.2021
5227 Clouds 8 1007 61 10000 4.12 20 09:20 11.04.2021
5228 Clouds 8 1007 53 10000 4.63 30 08:31 11.04.2021
5229 Clouds 9 1007 57 10000 3.6 20 07:37 11.04.2021
5230 Clouds 9 1007 57 10000 3.6 20 07:18 11.04.2021
5231 Clouds 13 1007 63 10000 3.09 20 05:44 11.04.2021
5232 Clouds 14 1007 63 10000 3.09 20 05:21 11.04.2021
5233 Clouds 16 1006 55 10000 1.03 20 04:35 11.04.2021
5234 Clouds 18 1007 55 10000 1.03 320 02:58 11.04.2021
5235 Clouds 22 1008 38 10000 0.51 150 00:49 11.04.2021
5236 Clouds 23 1008 38 10000 0.51 150 00:25 11.04.2021
5237 Clouds 23 1008 40 10000 1.03 200 23:30 10.04.2021
5238 Clouds 23 1009 43 10000 0.51 80 22:54 10.04.2021
5239 Clouds 23 1009 43 10000 0.51 80 22:25 10.04.2021
5240 Clouds 22 1010 43 10000 0.51 240 21:52 10.04.2021
5241 Clouds 22 1010 43 10000 0.51 240 21:23 10.04.2021
5242 Clouds 21 1011 45 10000 1.54 70 20:53 10.04.2021
5243 Clouds 21 1011 45 10000 1.54 70 20:32 10.04.2021
5244 Clouds 20 1012 48 10000 1.54 80 19:46 10.04.2021
5245 Clouds 19 1012 48 10000 1.54 80 19:28 10.04.2021
5246 Clouds 18 1013 51 10000 1.54 80 18:54 10.04.2021
5247 Clouds 18 1013 51 10000 1.54 80 18:35 10.04.2021
5248 Clouds 17 1014 55 10000 1.54 90 17:54 10.04.2021
5249 Clouds 16 1014 55 10000 1.54 90 17:34 10.04.2021
5250 Clouds 14 1015 62 10000 2.06 20 16:31 10.04.2021
5251 Clouds 13 1015 66 10000 1.03 40 15:56 10.04.2021
5252 Clouds 12 1015 66 10000 1.03 40 15:35 10.04.2021
5253 Clouds 12 1015 71 10000 1.03 50 14:50 10.04.2021
5254 Clouds 12 1015 71 10000 1.03 50 14:28 10.04.2021
5255 Clouds 11 1015 71 10000 2.57 10 13:49 10.04.2021
5256 Clouds 11 1015 71 10000 2.57 10 13:28 10.04.2021
5257 Clouds 11 1015 66 10000 1.54 60 12:38 10.04.2021
5258 Clouds 11 1015 66 10000 1.54 60 12:18 10.04.2021
5259 Clouds 11 1015 66 10000 3.09 20 11:44 10.04.2021
5260 Clouds 11 1015 66 10000 3.09 20 11:20 10.04.2021
5261 Clouds 12 1015 67 10000 2.06 10 10:44 10.04.2021
5262 Clouds 12 1015 67 10000 2.06 10 10:26 10.04.2021
5263 Clouds 13 1015 62 10000 2.06 10 09:30 10.04.2021
5264 Clouds 13 1015 62 10000 2.06 10 09:30 10.04.2021
5265 Clear 13 1014 62 10000 2.57 300 08:59 10.04.2021
5266 Clear 14 1014 62 10000 2.57 300 08:33 10.04.2021
5267 Clouds 14 1014 55 10000 0.51 250 07:54 10.04.2021
5268 Clouds 14 1014 55 10000 0.51 250 07:25 10.04.2021
5269 Clouds 15 1014 54 10000 1.54 180 06:27 10.04.2021
5270 Clouds 16 1015 48 10000 0.51 270 04:49 10.04.2021
5271 Clear 17 1015 45 10000 1.03 110 03:19 10.04.2021
5272 Clouds 19 1015 35 10000 1.03 210 02:42 10.04.2021
5273 Clouds 23 1015 27 10000 2.06 210 00:59 10.04.2021
5274 Clouds 23 1015 27 10000 2.06 210 00:30 10.04.2021
5275 Clouds 24 1015 27 10000 1.54 150 23:49 09.04.2021
5276 Clouds 24 1015 27 10000 1.54 150 23:27 09.04.2021
5277 Clouds 24 1015 29 10000 3.09 160 22:44 09.04.2021
5278 Clouds 24 1015 29 10000 3.09 160 22:44 09.04.2021
5279 Clouds 24 1015 29 10000 3.09 160 22:26 09.04.2021
5280 Clouds 24 1015 31 10000 2.57 140 21:39 09.04.2021
5281 Clouds 24 1015 31 10000 2.57 140 21:39 09.04.2021
5282 Clouds 24 1015 31 10000 2.57 140 21:20 09.04.2021
5283 Clouds 24 1015 31 10000 2.57 140 21:20 09.04.2021
5284 Clouds 24 1016 33 10000 2.57 160 20:46 09.04.2021
5285 Clouds 24 1016 33 10000 2.57 160 20:23 09.04.2021
5286 Clouds 22 1017 37 10000 1.54 160 19:58 09.04.2021
5287 Clouds 22 1017 37 10000 1.54 160 19:39 09.04.2021
5288 Clouds 22 1017 37 10000 1.54 160 19:21 09.04.2021
5289 Clouds 21 1018 42 10000 2.06 120 18:41 09.04.2021
5290 Clouds 20 1018 42 10000 2.06 120 18:23 09.04.2021
5291 Clouds 19 1018 48 10000 1.54 200 17:44 09.04.2021
5292 Clouds 19 1018 48 10000 1.54 200 17:25 09.04.2021
5293 Clouds 16 1019 55 10000 1.54 190 16:41 09.04.2021
5294 Clouds 15 1019 55 10000 1.54 190 16:23 09.04.2021
5295 Clouds 13 1019 62 10000 2.06 170 15:43 09.04.2021
5296 Clouds 13 1019 62 10000 2.06 170 15:23 09.04.2021
5297 Clouds 10 1019 76 10000 0.51 20 14:46 09.04.2021
5298 Clouds 9 1019 76 10000 0.51 20 14:21 09.04.2021
5299 Clouds 8 1018 87 10000 1.54 20 13:43 09.04.2021
5300 Clouds 8 1018 87 10000 1.54 20 13:22 09.04.2021
5301 Clouds 7 1018 87 10000 0.51 10 12:47 09.04.2021
5302 Clouds 7 1018 87 10000 0.51 10 12:23 09.04.2021
5303 Clouds 8 1017 87 10000 1.54 350 11:42 09.04.2021
5304 Clouds 8 1017 87 10000 1.54 350 11:20 09.04.2021
5305 Clouds 8 1017 81 10000 1.54 20 10:37 09.04.2021
5306 Clouds 9 1017 76 10000 2.06 10 09:56 09.04.2021
5307 Clouds 9 1017 76 10000 2.06 10 09:27 09.04.2021
5308 Clear 9 1017 87 10000 4.12 360 08:55 09.04.2021
5309 Clouds 10 1017 71 10000 2.57 10 08:28 09.04.2021
5310 Clouds 11 1017 71 10000 3.09 10 07:21 09.04.2021
5311 Clouds 12 1017 67 10000 2.57 350 06:26 09.04.2021
5312 Clouds 14 1017 55 10000 1.54 30 04:38 09.04.2021
5313 Clouds 15 1017 51 10000 1.54 30 03:39 09.04.2021
5314 Clouds 20 1017 40 10000 1.03 70 00:39 09.04.2021
5315 Clouds 20 1017 40 10000 1.03 70 00:21 09.04.2021
5316 Clouds 21 1017 37 10000 1.54 40 23:32 08.04.2021
5317 Clouds 21 1017 40 10000 1.54 60 22:52 08.04.2021
5318 Clouds 21 1017 40 10000 1.54 60 22:27 08.04.2021
5319 Clouds 20 1018 42 10000 2.06 30 21:58 08.04.2021
5320 Clouds 20 1018 42 10000 2.06 30 21:40 08.04.2021
5321 Clouds 20 1018 42 10000 2.06 30 21:21 08.04.2021
5322 Clear 20 1018 48 10000 2.55 81 20:56 08.04.2021
5323 Clouds 19 1018 45 10000 1.54 60 20:35 08.04.2021
5324 Clouds 19 1019 48 10000 1.54 60 19:59 08.04.2021
5325 Clouds 18 1019 48 10000 1.54 60 19:27 08.04.2021
5326 Clouds 17 1020 51 10000 2.06 60 18:58 08.04.2021
5327 Clouds 17 1020 51 10000 2.06 60 18:39 08.04.2021
5328 Clouds 16 1020 51 10000 2.06 60 18:19 08.04.2021
5329 Clouds 15 1020 58 10000 2.06 70 17:41 08.04.2021
5330 Clouds 14 1020 58 10000 2.06 70 17:19 08.04.2021
5331 Clear 13 1021 66 10000 4.63 30 16:44 08.04.2021
5332 Clouds 12 1021 66 10000 3.09 30 16:22 08.04.2021
5333 Clouds 10 1021 76 10000 2.57 30 15:45 08.04.2021
5334 Clouds 10 1021 76 10000 2.57 30 15:25 08.04.2021
5335 Clouds 8 1021 76 10000 3.09 10 14:42 08.04.2021
5336 Clouds 8 1021 76 10000 3.09 10 14:21 08.04.2021
5337 Clouds 7 1020 81 10000 2.57 360 13:48 08.04.2021
5338 Clouds 6 1020 81 10000 2.57 360 13:24 08.04.2021
5339 Clouds 6 1020 81 10000 2.57 20 12:57 08.04.2021
5340 Clouds 6 1020 81 10000 2.57 20 12:33 08.04.2021
5341 Clear 6 1019 93 10000 3.09 360 11:57 08.04.2021
5342 Clear 6 1019 93 10000 3.09 360 11:27 08.04.2021
5343 Clouds 7 1019 81 10000 2.57 10 10:56 08.04.2021
5344 Clouds 7 1019 81 10000 2.57 10 10:25 08.04.2021
5345 Clouds 7 1019 81 10000 2.57 10 09:46 08.04.2021
5346 Clouds 8 1019 81 10000 2.57 10 09:27 08.04.2021
5347 Clouds 8 1019 76 10000 2.57 360 08:44 08.04.2021
5348 Clouds 8 1019 76 10000 2.57 360 08:22 08.04.2021
5349 Clouds 9 1020 76 10000 2.06 10 07:46 08.04.2021
5350 Clouds 9 1019 76 10000 1.03 350 06:46 08.04.2021
5351 Clouds 14 1018 62 10000 1.03 60 01:27 08.04.2021
5352 Clouds 15 1019 58 10000 1.54 70 00:32 08.04.2021
5353 Clear 16 1018 58 10000 4.12 80 23:50 07.04.2021
5354 Clear 15 1018 58 10000 4.12 80 23:27 07.04.2021
5355 Clouds 15 1019 58 10000 2.57 30 22:58 07.04.2021
5356 Clouds 15 1019 58 10000 2.57 30 22:39 07.04.2021
5357 Clouds 15 1019 58 10000 2.57 30 22:20 07.04.2021
5358 Clouds 15 1019 62 10000 5.66 60 21:34 07.04.2021
5359 Clouds 15 1019 62 10000 5.66 60 21:34 07.04.2021
5360 Clouds 14 1020 62 10000 2.57 80 20:59 07.04.2021
5361 Clouds 14 1020 62 10000 2.57 80 20:40 07.04.2021
5362 Clouds 14 1020 62 10000 2.57 80 20:19 07.04.2021
5363 Clouds 13 1020 66 10000 3.09 50 19:41 07.04.2021
5364 Clouds 13 1020 66 10000 3.09 50 19:22 07.04.2021
5365 Clouds 13 1020 62 10000 3.09 80 18:42 07.04.2021
5366 Clouds 13 1020 62 10000 3.09 80 18:18 07.04.2021
5367 Clouds 13 1020 66 10000 2.06 40 17:48 07.04.2021
5368 Clouds 12 1020 66 10000 2.06 40 17:30 07.04.2021
5369 Clouds 12 1020 71 10000 4.63 50 16:47 07.04.2021
5370 Clouds 11 1020 66 10000 2.57 20 16:21 07.04.2021
5371 Clouds 11 1020 76 10000 2.06 50 15:56 07.04.2021
5372 Clouds 10 1020 76 10000 2.06 50 15:38 07.04.2021
5373 Clouds 9 1020 76 10000 1.54 20 14:50 07.04.2021
5374 Clouds 9 1020 76 10000 1.54 20 14:25 07.04.2021
5375 Clouds 8 1019 76 10000 2.06 10 13:46 07.04.2021
5376 Clouds 7 1019 76 10000 2.06 10 13:21 07.04.2021
5377 Clouds 7 1018 71 10000 1.03 10 12:48 07.04.2021
5378 Clouds 6 1018 87 10000 3.09 10 12:21 07.04.2021
5379 Clouds 6 1018 87 10000 1.54 360 11:45 07.04.2021
5380 Clouds 6 1018 87 10000 1.54 360 11:24 07.04.2021
5381 Clouds 6 1017 76 10000 3.09 10 10:51 07.04.2021
5382 Clouds 7 1017 66 10000 0.51 310 09:56 07.04.2021
5383 Clouds 7 1017 66 10000 0.51 310 09:37 07.04.2021
5384 Clouds 7 1017 66 10000 0.51 310 09:19 07.04.2021
5385 Clouds 8 1017 66 10000 0.51 270 08:33 07.04.2021
5386 Clouds 8 1017 62 10000 0.51 240 07:57 07.04.2021
5387 Clouds 9 1017 62 10000 0.51 240 07:29 07.04.2021
5388 Clouds 9 1017 54 10000 0.51 120 06:59 07.04.2021
5389 Clouds 10 1017 66 10000 1.03 90 06:18 07.04.2021
5390 Clouds 11 1017 58 10000 0.51 310 03:54 07.04.2021
5391 Clouds 15 1015 33 10000 1.54 220 23:52 06.04.2021
5392 Clouds 15 1015 33 10000 1.54 220 23:23 06.04.2021
5393 Clouds 15 1015 33 10000 1.54 250 22:59 06.04.2021
5394 Clouds 15 1015 33 10000 1.54 250 22:22 06.04.2021
5395 Clouds 14 1015 35 10000 1.54 50 21:59 06.04.2021
5396 Clouds 14 1015 35 10000 1.54 50 21:39 06.04.2021
5397 Clouds 14 1015 35 10000 1.54 50 21:21 06.04.2021
5398 Clouds 14 1015 38 10000 1.54 130 20:51 06.04.2021
5399 Clouds 13 1015 38 10000 1.54 130 20:21 06.04.2021
5400 Clouds 13 1016 41 10000 1.54 150 19:51 06.04.2021
5401 Clouds 12 1016 41 10000 1.54 150 19:33 06.04.2021
5402 Clouds 11 1016 43 10000 2.06 50 18:49 06.04.2021
5403 Clouds 11 1016 43 10000 2.06 50 18:31 06.04.2021
5404 Clouds 10 1017 43 10000 2.57 30 17:54 06.04.2021
5405 Clouds 10 1017 43 10000 2.57 30 17:36 06.04.2021
5406 Clouds 9 1017 43 10000 2.57 30 17:18 06.04.2021
5407 Clouds 8 1018 42 10000 2.06 30 16:40 06.04.2021
5408 Clouds 7 1018 45 10000 2.57 360 15:46 06.04.2021
5409 Clouds 7 1018 45 10000 2.57 360 15:22 06.04.2021
5410 Clouds 6 1017 42 10000 2.57 10 14:40 06.04.2021
5411 Clouds 5 1017 42 10000 2.57 10 14:20 06.04.2021
5412 Clouds 4 1017 38 10000 2.06 350 13:46 06.04.2021
5413 Clear 3 1017 48 10000 3.09 320 13:25 06.04.2021
5414 Clear 3 1016 48 10000 4.12 330 12:42 06.04.2021
5415 Clear 3 1016 48 10000 4.12 330 12:22 06.04.2021
5416 Clouds 4 1015 38 10000 3.09 360 11:52 06.04.2021
5417 Clouds 4 1015 38 10000 3.09 360 11:22 06.04.2021
5418 Clouds 5 1015 36 10000 2.57 360 10:51 06.04.2021
5419 Clouds 5 1015 36 10000 2.57 360 10:32 06.04.2021
5420 Clouds 5 1015 36 10000 2.57 10 09:58 06.04.2021
5421 Clouds 5 1015 36 10000 2.57 10 09:38 06.04.2021
5422 Clouds 6 1016 36 10000 2.06 10 08:48 06.04.2021
5423 Clouds 6 1016 36 10000 2.06 10 08:19 06.04.2021
5424 Clouds 7 1016 34 10000 4.12 20 06:56 06.04.2021
5425 Clouds 8 1016 34 10000 4.12 20 06:23 06.04.2021
5426 Clouds 10 1016 28 10000 3.6 20 03:43 06.04.2021
5427 Clouds 12 1014 22 10000 4.12 360 00:47 06.04.2021
5428 Clouds 13 1014 22 10000 4.12 360 00:21 06.04.2021
5429 Clouds 14 1014 23 10000 4.12 10 23:48 05.04.2021
5430 Clouds 14 1014 23 10000 4.12 10 23:28 05.04.2021
5431 Clouds 14 1014 24 10000 4.12 20 22:53 05.04.2021
5432 Clear 14 1014 26 10000 8.75 350 22:33 05.04.2021
5433 Clouds 14 1014 28 10000 3.6 10 21:47 05.04.2021
5434 Clouds 14 1014 28 10000 3.6 10 21:23 05.04.2021
5435 Clouds 13 1015 30 10000 8.23 340 20:49 05.04.2021
5436 Clouds 13 1015 30 10000 3.6 20 20:30 05.04.2021
5437 Clear 12 1016 28 10000 7.2 300 19:45 05.04.2021
5438 Clouds 12 1016 28 10000 4.12 360 19:25 05.04.2021
5439 Clouds 11 1016 27 10000 3.6 360 18:57 05.04.2021
5440 Clouds 11 1016 27 10000 3.6 360 18:38 05.04.2021
5441 Clouds 11 1016 27 10000 3.6 360 18:19 05.04.2021
5442 Clouds 10 1017 29 10000 4.63 20 17:46 05.04.2021
5443 Clouds 10 1017 29 10000 4.63 20 17:21 05.04.2021
5444 Clouds 10 1017 29 10000 4.63 20 17:21 05.04.2021
5445 Clouds 9 1017 34 10000 3.6 10 16:44 05.04.2021
5446 Clouds 8 1017 34 10000 3.6 10 16:21 05.04.2021
5447 Clouds 7 1018 42 10000 4.12 10 15:56 05.04.2021
5448 Clouds 7 1018 42 10000 4.12 10 15:30 05.04.2021
5449 Clouds 6 1018 56 10000 2.57 350 14:58 05.04.2021
5450 Clouds 5 1018 56 10000 2.57 350 14:35 05.04.2021
5451 Clouds 4 1018 60 10000 3.6 10 13:41 05.04.2021
5452 Clouds 3 1018 60 10000 3.6 10 13:22 05.04.2021
5453 Clouds 3 1017 60 10000 4.12 10 12:45 05.04.2021
5454 Clouds 3 1017 60 10000 4.12 10 12:23 05.04.2021
5455 Clouds 4 1017 60 10000 3.6 360 11:46 05.04.2021
5456 Clear 4 1017 65 10000 5.66 330 11:27 05.04.2021
5457 Clouds 4 1017 60 10000 3.6 10 10:48 05.04.2021
5458 Clouds 4 1017 60 10000 3.6 10 10:29 05.04.2021
5459 Clouds 5 1017 52 10000 3.09 20 09:48 05.04.2021
5460 Clouds 5 1017 52 10000 3.09 20 09:25 05.04.2021
5461 Clouds 6 1017 53 10000 3.6 20 08:45 05.04.2021
5462 Clouds 6 1017 53 10000 3.6 20 08:26 05.04.2021
5463 Clouds 6 1017 53 10000 3.09 20 07:38 05.04.2021
5464 Clouds 7 1017 46 10000 3.6 20 06:51 05.04.2021
5465 Clouds 11 1017 32 10000 2.57 20 02:36 05.04.2021
5466 Clouds 12 1016 30 10000 1.03 330 00:53 05.04.2021
5467 Clouds 13 1017 32 10000 1.03 260 23:53 04.04.2021
5468 Clouds 13 1017 32 10000 1.03 260 23:30 04.04.2021
5469 Clouds 13 1017 30 10000 2.06 330 22:56 04.04.2021
5470 Clear 13 1017 30 10000 3.6 310 22:33 04.04.2021
5471 Clouds 12 1018 30 10000 2.06 60 21:48 04.04.2021
5472 Clouds 12 1018 30 10000 2.06 60 21:21 04.04.2021
5473 Clear 11 1019 34 10000 1.54 0 20:42 04.04.2021
5474 Clouds 10 1019 31 10000 2.06 10 20:20 04.04.2021
5475 Clouds 10 1019 31 10000 2.06 10 20:20 04.04.2021
5476 Clouds 9 1020 34 10000 2.06 350 19:40 04.04.2021
5477 Clouds 9 1020 34 10000 2.06 350 19:19 04.04.2021
5478 Clouds 8 1020 39 10000 1.54 30 18:50 04.04.2021
5479 Clouds 7 1020 39 10000 1.54 30 18:24 04.04.2021
5480 Clouds 7 1020 45 10000 2.57 20 17:57 04.04.2021
5481 Clouds 6 1020 45 10000 2.57 20 17:25 04.04.2021
5482 Clouds 5 1020 42 10000 1.54 360 16:54 04.04.2021
5483 Clouds 5 1020 42 10000 1.54 360 16:33 04.04.2021
5484 Clouds 4 1020 48 10000 2.06 320 15:51 04.04.2021
5485 Clouds 4 1020 48 10000 2.06 320 15:31 04.04.2021
5486 Clouds 3 1021 48 10000 0.51 80 14:39 04.04.2021
5487 Clouds 3 1021 48 10000 0.51 80 14:19 04.04.2021
5488 Clouds 2 1020 52 10000 1.03 270 13:27 04.04.2021
5489 Clouds 1 1020 48 10000 1.54 270 12:51 04.04.2021
5490 Clouds 1 1020 48 10000 1.54 270 12:28 04.04.2021
5491 Clouds 2 1020 48 10000 1.54 240 11:49 04.04.2021
5492 Clouds 2 1020 48 10000 1.54 240 11:30 04.04.2021
5493 Clouds 2 1020 48 10000 1.54 250 10:49 04.04.2021
5494 Clouds 2 1020 60 10000 2.57 240 10:29 04.04.2021
5495 Clouds 3 1020 45 10000 1.54 250 09:48 04.04.2021
5496 Clouds 3 1020 45 10000 1.54 250 09:21 04.04.2021
5497 Clouds 3 1021 45 10000 2.06 260 08:45 04.04.2021
5498 Clouds 3 1021 45 10000 2.06 260 08:26 04.04.2021
5499 Clouds 4 1022 45 10000 1.03 210 06:40 04.04.2021
5500 Clouds 4 1022 38 10000 1.54 200 05:44 04.04.2021
5501 Clouds 6 1022 36 10000 1.54 210 02:39 04.04.2021
5502 Clouds 8 1021 27 10000 1.54 200 00:48 04.04.2021
5503 Clouds 9 1021 27 10000 1.54 200 00:18 04.04.2021
5504 Clouds 9 1021 25 10000 2.57 210 23:41 03.04.2021
5505 Clear 9 1022 27 10000 3.6 200 22:56 03.04.2021
5506 Clear 9 1022 27 10000 3.6 200 22:38 03.04.2021
5507 Clear 9 1022 27 10000 3.6 200 22:19 03.04.2021
5508 Clear 8 1022 29 10000 2.06 230 21:46 03.04.2021
5509 Clear 8 1022 29 10000 2.06 230 21:22 03.04.2021
5510 Clear 8 1023 24 10000 2.57 220 20:43 03.04.2021
5511 Clear 7 1023 24 10000 2.57 220 20:24 03.04.2021
5512 Clear 7 1023 22 10000 1.54 250 19:46 03.04.2021
5513 Clear 7 1023 22 10000 1.54 250 19:20 03.04.2021
5514 Clear 6 1024 24 10000 2.06 260 18:46 03.04.2021
5515 Clear 5 1024 24 10000 2.06 260 18:23 03.04.2021
5516 Clear 4 1024 33 10000 1.54 240 17:50 03.04.2021
5517 Clear 4 1024 33 10000 1.54 240 17:21 03.04.2021
5518 Clear 3 1025 27 10000 1.03 230 16:45 03.04.2021
5519 Clear 2 1025 27 10000 1.03 230 16:21 03.04.2021
5520 Clear 1 1025 29 10000 1.03 240 15:47 03.04.2021
5521 Clear 1 1025 29 10000 1.03 240 15:22 03.04.2021
5522 Clear -1 1026 34 10000 1.03 40 14:44 03.04.2021
5523 Clear -1 1026 34 10000 1.03 40 14:22 03.04.2021
5524 Clear -3 1025 34 10000 1.54 300 13:49 03.04.2021
5525 Clear -4 1025 46 10000 2.06 270 13:24 03.04.2021
5526 Clear -4 1025 39 10000 1.54 290 12:56 03.04.2021
5527 Clear -4 1025 39 10000 1.54 290 12:31 03.04.2021
5528 Clear -4 1024 37 10000 2.06 280 11:39 03.04.2021
5529 Clear -3 1024 37 10000 2.57 290 10:58 03.04.2021
5530 Clear -3 1024 43 10000 3.6 290 10:40 03.04.2021
5531 Clear -3 1024 37 10000 2.57 290 10:18 03.04.2021
5532 Clear -3 1024 37 10000 2.06 290 09:28 03.04.2021
5533 Clear -3 1023 31 10000 1.54 290 08:58 03.04.2021
5534 Clear -2 1023 31 10000 1.54 290 08:31 03.04.2021
5535 Clouds -2 1023 31 10000 1.54 310 07:29 03.04.2021
5536 Clouds -1 1023 29 10000 1.54 330 06:50 03.04.2021
5537 Clouds 1 1023 32 10000 1.03 310 03:53 03.04.2021
5538 Clouds 1 1022 27 10000 2.57 10 02:53 03.04.2021
5539 Clouds 1 1022 27 10000 2.57 10 02:27 03.04.2021
5540 Clouds 3 1021 28 10000 3.09 360 00:31 03.04.2021
5541 Clouds 4 1020 30 10000 2.57 360 23:53 02.04.2021
5542 Clouds 4 1020 30 10000 2.57 360 23:27 02.04.2021
5543 Clouds 3 1020 32 10000 2.06 10 22:56 02.04.2021
5544 Clouds 3 1020 32 10000 2.06 10 22:37 02.04.2021
5545 Clouds 3 1020 32 10000 2.06 20 21:54 02.04.2021
5546 Clouds 3 1020 32 10000 2.06 20 21:36 02.04.2021
5547 Clouds 2 1020 32 10000 2.06 20 21:18 02.04.2021
5548 Clouds 2 1020 32 10000 2.06 20 21:18 02.04.2021
5549 Clouds 2 1021 32 10000 3.09 10 20:36 02.04.2021
5550 Clouds 1 1021 32 10000 3.09 10 20:18 02.04.2021
5551 Clouds 1 1022 40 10000 2.06 30 19:40 02.04.2021
5552 Clouds 0 1022 40 10000 2.06 30 19:21 02.04.2021
5553 Clouds -1 1022 40 10000 2.57 350 18:42 02.04.2021
5554 Clouds -1 1022 40 10000 2.57 350 18:23 02.04.2021
5555 Clouds -2 1022 42 10000 2.57 20 17:45 02.04.2021
5556 Clouds -3 1022 42 10000 2.57 20 17:18 02.04.2021
5557 Clouds -4 1022 46 10000 2.57 360 16:23 02.04.2021
5558 Clouds -5 1022 45 10000 3.09 350 15:43 02.04.2021
5559 Clouds -5 1022 45 10000 3.09 350 15:19 02.04.2021
5560 Clouds -5 1022 45 10000 3.6 360 14:33 02.04.2021
5561 Clouds -6 1022 49 10000 3.09 10 13:47 02.04.2021
5562 Clouds -6 1022 49 10000 3.09 10 13:27 02.04.2021
5563 Clouds -6 1021 49 10000 3.09 10 12:47 02.04.2021
5564 Clouds -6 1021 49 10000 3.09 10 12:20 02.04.2021
5565 Clouds -5 1020 54 10000 3.09 10 11:58 02.04.2021
5566 Clouds -5 1020 54 10000 3.09 10 11:21 02.04.2021
5567 Clouds -5 1019 54 10000 2.57 10 10:51 02.04.2021
5568 Clouds -5 1019 54 10000 2.57 10 10:32 02.04.2021
5569 Clouds -5 1019 54 10000 2.57 10 10:32 02.04.2021
5570 Clouds -5 1019 54 10000 3.09 10 09:57 02.04.2021
5571 Clouds -5 1019 54 10000 3.09 10 09:37 02.04.2021
5572 Clouds -5 1019 54 10000 3.09 10 09:18 02.04.2021
5573 Clouds -5 1019 50 10000 3.09 10 08:37 02.04.2021
5574 Clouds -5 1019 54 10000 3.6 10 07:52 02.04.2021
5575 Clouds -5 1019 54 10000 3.6 10 07:19 02.04.2021
5576 Clouds -5 1019 54 10000 3.09 20 06:31 02.04.2021
5577 Clouds -3 1018 46 10000 5.14 10 02:59 02.04.2021
5578 Clouds 0 1016 44 10000 4.12 20 00:54 02.04.2021
5579 Clouds 0 1016 44 10000 4.12 20 00:36 02.04.2021
5580 Clouds 2 1014 44 10000 3.6 20 23:42 01.04.2021
5581 Clouds 2 1014 44 10000 3.6 20 23:24 01.04.2021
5582 Clouds 2 1014 44 10000 3.6 20 22:22 01.04.2021
5583 Clouds 2 1014 48 10000 2.57 30 21:56 01.04.2021
5584 Clouds 2 1014 48 10000 2.57 30 21:38 01.04.2021
5585 Clouds 2 1014 48 10000 2.57 30 21:18 01.04.2021
5586 Clouds 2 1014 51 10000 3.6 20 20:33 01.04.2021
5587 Snow 1 1014 55 10000 4.63 20 19:58 01.04.2021
5588 Clouds 1 1014 55 10000 4.63 20 19:39 01.04.2021
5589 Clouds 1 1014 59 10000 5.14 20 18:54 01.04.2021
5590 Rain 0 1014 59 10000 5.14 20 18:36 01.04.2021
5591 Clouds 0 1014 59 10000 5.14 20 18:18 01.04.2021
5592 Snow -1 1015 86 10000 4.63 10 17:39 01.04.2021
5593 Clouds -1 1015 86 10000 4.63 10 17:20 01.04.2021
5594 Snow -1 1015 93 10000 4.63 20 16:41 01.04.2021
5595 Snow -1 1015 93 10000 4.12 20 15:57 01.04.2021
5596 Snow -1 1015 93 6792 4.12 20 15:24 01.04.2021
5597 Snow 0 1015 93 6792 3.6 10 14:55 01.04.2021
5598 Snow 0 1015 93 4017 3.6 10 14:37 01.04.2021
5599 Snow 0 1015 93 1626 3.6 10 14:19 01.04.2021
5600 Snow 0 1014 100 1340 3.6 10 13:47 01.04.2021
5601 Snow 1 1014 100 282 3.6 10 13:27 01.04.2021
5602 Snow 1 1013 93 282 4.63 20 12:46 01.04.2021
5603 Snow 1 1013 93 7106 4.63 20 12:28 01.04.2021
5604 Rain 3 1013 75 7106 3.09 20 11:44 01.04.2021
5605 Rain 3 1013 75 10000 3.09 20 11:19 01.04.2021
5606 Clouds 3 1013 81 10000 2.06 360 10:47 01.04.2021
5607 Clouds 3 1013 81 10000 2.06 360 10:28 01.04.2021
5608 Clouds 3 1014 70 10000 2.06 360 09:32 01.04.2021
5609 Clouds 4 1014 75 10000 5.14 330 08:58 01.04.2021
5610 Clouds 4 1014 65 10000 2.06 360 08:33 01.04.2021
5611 Clouds 4 1015 70 10000 1.54 360 07:23 01.04.2021
5612 Clouds 5 1015 70 10000 1.54 350 06:58 01.04.2021
5613 Clouds 5 1015 70 10000 1.54 350 06:24 01.04.2021
5614 Clouds 7 1014 81 10000 1.03 270 03:25 01.04.2021
5615 Rain 10 1010 87 10000 1.03 60 00:28 01.04.2021
5616 Mist 11 1009 100 9656 7.2 240 23:44 31.03.2021
5617 Rain 11 1010 82 10000 0.51 190 22:56 31.03.2021
5618 Rain 11 1010 82 10000 0.51 190 22:38 31.03.2021
5619 Rain 12 1010 82 9125 0.51 190 22:19 31.03.2021
5620 Rain 13 1009 67 9125 1.54 200 21:44 31.03.2021
5621 Clouds 13 1009 67 10000 1.54 200 21:20 31.03.2021
5622 Rain 13 1010 62 10000 1.54 190 20:42 31.03.2021
5623 Clouds 13 1010 62 10000 1.54 190 20:22 31.03.2021
5624 Clouds 13 1010 54 10000 2.06 190 19:44 31.03.2021
5625 Clouds 13 1010 54 7673 2.06 190 19:25 31.03.2021
5626 Clouds 12 1010 58 7673 2.06 190 18:58 31.03.2021
5627 Clouds 12 1010 58 7673 2.06 190 18:40 31.03.2021
5628 Clouds 12 1011 62 10000 2.06 180 17:51 31.03.2021
5629 Clouds 11 1011 62 10000 2.06 180 17:31 31.03.2021
5630 Clouds 11 1012 58 10000 3.09 200 16:56 31.03.2021
5631 Clouds 11 1012 58 10000 3.09 200 16:37 31.03.2021
5632 Clouds 11 1012 58 10000 3.09 200 16:19 31.03.2021
5633 Clouds 10 1013 57 10000 2.57 200 15:48 31.03.2021
5634 Clouds 10 1013 57 10000 2.57 200 15:19 31.03.2021
5635 Clouds 10 1013 61 10000 2.06 200 14:42 31.03.2021
5636 Clouds 9 1013 61 10000 2.06 200 14:20 31.03.2021
5637 Clouds 9 1013 61 10000 2.06 200 14:20 31.03.2021
5638 Clouds 9 1013 57 10000 2.57 200 13:40 31.03.2021
5639 Clouds 9 1013 57 10000 3.09 200 12:42 31.03.2021
5640 Clouds 9 1013 57 10000 3.09 200 12:20 31.03.2021
5641 Clouds 9 1013 57 10000 3.09 200 11:47 31.03.2021
5642 Clouds 9 1013 57 10000 3.09 200 11:20 31.03.2021
5643 Clouds 9 1013 57 10000 3.09 200 11:20 31.03.2021
5644 Clouds 9 1014 53 10000 2.57 200 10:46 31.03.2021
5645 Clouds 9 1014 53 10000 2.57 200 10:24 31.03.2021
5646 Clouds 10 1014 50 10000 2.57 200 09:38 31.03.2021
5647 Clouds 10 1015 50 10000 2.57 200 08:55 31.03.2021
5648 Clouds 10 1015 50 10000 2.57 200 08:37 31.03.2021
5649 Clouds 10 1015 50 10000 2.57 200 07:52 31.03.2021
5650 Clouds 11 1015 50 10000 2.06 200 06:39 31.03.2021
5651 Clouds 13 1015 35 10000 2.06 200 03:51 31.03.2021
5652 Clouds 14 1015 33 10000 2.57 200 01:43 31.03.2021
5653 Clouds 14 1015 35 10000 2.06 210 00:49 31.03.2021
5654 Clouds 15 1015 35 10000 2.06 210 00:20 31.03.2021
5655 Clouds 15 1016 31 10000 2.06 200 23:39 30.03.2021
5656 Clouds 15 1017 33 10000 2.57 180 22:59 30.03.2021
5657 Clouds 15 1017 33 10000 2.57 180 22:40 30.03.2021
5658 Clouds 15 1017 33 10000 2.57 180 22:21 30.03.2021
5659 Clouds 14 1018 35 10000 3.6 200 21:49 30.03.2021
5660 Clouds 14 1018 35 10000 3.6 200 21:20 30.03.2021
5661 Clouds 14 1019 38 10000 3.09 190 20:53 30.03.2021
5662 Clouds 14 1019 38 10000 3.09 190 20:53 30.03.2021
5663 Clouds 13 1019 38 10000 3.09 190 20:28 30.03.2021
5664 Clouds 12 1021 40 10000 3.09 170 19:51 30.03.2021
5665 Clouds 12 1021 40 10000 3.09 170 19:27 30.03.2021
5666 Clouds 12 1021 40 10000 3.09 170 19:27 30.03.2021
5667 Clouds 11 1022 40 10000 3.09 180 18:40 30.03.2021
5668 Clouds 9 1022 40 10000 3.09 180 18:20 30.03.2021
5669 Clouds 9 1023 46 10000 2.57 180 17:41 30.03.2021
5670 Clouds 8 1023 46 10000 2.57 180 17:23 30.03.2021
5671 Clouds 6 1024 48 10000 2.06 200 16:45 30.03.2021
5672 Clouds 6 1024 48 10000 2.06 200 16:24 30.03.2021
5673 Clouds 3 1025 60 10000 2.57 170 15:21 30.03.2021
5674 Clouds 2 1025 64 10000 2.06 190 14:57 30.03.2021
5675 Clouds 2 1025 64 10000 2.06 190 14:22 30.03.2021
5676 Clouds 1 1025 64 10000 1.03 200 13:59 30.03.2021
5677 Clouds 0 1025 64 10000 1.03 200 13:37 30.03.2021
5678 Clouds -1 1025 69 10000 1.03 200 12:49 30.03.2021
5679 Clear -1 1025 69 10000 1.03 200 12:29 30.03.2021
5680 Clouds -1 1025 74 10000 2.06 170 11:58 30.03.2021
5681 Clear -1 1025 75 10000 0.89 143 11:23 30.03.2021
5682 Clear -2 1025 74 10000 1.34 163 10:47 30.03.2021
5683 Clear -2 1025 77 10000 0.89 125 10:28 30.03.2021
5684 Clear -2 1025 77 10000 0.89 140 09:57 30.03.2021
5685 Clear -2 1024 77 10000 0.45 102 09:37 30.03.2021
5686 Clear -2 1024 76 10000 0.89 149 09:18 30.03.2021
5687 Clear -1 1024 55 10000 1.03 220 08:39 30.03.2021
5688 Clear -1 1024 55 10000 1.03 220 07:52 30.03.2021
5689 Clear -1 1024 55 10000 1.03 220 07:22 30.03.2021
5690 Clear 0 1023 51 10000 0.51 350 05:49 30.03.2021
5691 Clear 0 1023 51 10000 0.51 350 05:19 30.03.2021
5692 Clear 3 1019 38 10000 1.54 170 00:40 30.03.2021
5693 Clear 4 1018 38 10000 1.54 300 23:51 29.03.2021
5694 Clear 4 1018 38 10000 2.06 250 22:54 29.03.2021
5695 Clear 4 1018 38 10000 2.06 250 22:32 29.03.2021
5696 Clear 3 1017 41 10000 2.57 240 21:51 29.03.2021
5697 Clear 3 1017 41 10000 2.57 240 21:31 29.03.2021
5698 Clear 2 1016 44 10000 2.57 260 20:50 29.03.2021
5699 Clouds 2 1016 44 10000 2.57 260 20:28 29.03.2021
5700 Clouds 2 1014 51 10000 2.57 220 19:50 29.03.2021
5701 Clouds 2 1014 51 10000 2.57 220 19:25 29.03.2021
5702 Clouds 1 1013 51 10000 3.09 30 18:51 29.03.2021
5703 Clouds 1 1013 51 10000 3.09 30 18:27 29.03.2021
5704 Clouds 0 1012 55 10000 2.06 190 17:52 29.03.2021
5705 Clouds 0 1012 55 10000 2.06 190 17:32 29.03.2021
5706 Clouds -1 1009 55 10000 2.06 200 16:50 29.03.2021
5707 Clouds -1 1009 55 10000 2.06 200 16:24 29.03.2021
5708 Clouds -1 1007 64 10000 2.57 300 15:40 29.03.2021
5709 Clouds -1 1007 64 10000 2.57 300 15:22 29.03.2021
5710 Clouds -1 1004 69 10000 2.06 240 14:46 29.03.2021
5711 Clouds 0 1001 64 10000 2.57 20 13:56 29.03.2021
5712 Clouds 0 1001 64 10000 2.57 20 13:37 29.03.2021
5713 Clouds 0 998 64 10000 2.57 30 12:59 29.03.2021
5714 Clouds 1 998 64 10000 2.57 30 12:40 29.03.2021
5715 Snow 1 995 75 10000 2.06 170 11:45 29.03.2021
5716 Snow 1 995 75 10000 2.06 170 11:27 29.03.2021
5717 Snow 1 995 75 10000 2.06 170 11:27 29.03.2021
5718 Rain 2 992 87 10000 2.57 230 10:46 29.03.2021
5719 Clouds 3 992 87 7812 2.57 230 10:21 29.03.2021
5720 Rain 3 992 87 7812 2.57 210 09:32 29.03.2021
5721 Clouds 4 992 75 104 2.57 200 08:35 29.03.2021
5722 Clouds 5 992 70 10000 2.06 210 07:54 29.03.2021
5723 Rain 5 992 70 10000 2.06 210 07:19 29.03.2021
5724 Rain 6 992 81 10000 3.09 200 06:25 29.03.2021
5725 Rain 9 992 93 10000 1.03 180 02:34 29.03.2021
5726 Rain 8 992 93 6202 3.09 180 00:30 29.03.2021
5727 Rain 8 992 87 6134 3.09 180 23:59 28.03.2021
5728 Rain 8 992 87 10000 3.09 180 23:25 28.03.2021
5729 Rain 8 994 81 10000 3.6 190 22:48 28.03.2021
5730 Rain 8 994 81 10000 3.6 190 22:30 28.03.2021
5731 Clouds 8 996 81 10000 3.6 190 21:48 28.03.2021
5732 Clouds 8 996 81 10000 3.6 190 21:26 28.03.2021
5733 Rain 7 999 87 10000 2.57 190 20:58 28.03.2021
5734 Clouds 7 999 87 10000 2.57 190 20:39 28.03.2021
5735 Clouds 7 999 87 10000 2.57 190 20:19 28.03.2021
5736 Rain 7 1001 87 10000 3.09 190 19:42 28.03.2021
5737 Rain 7 1001 87 9888 3.09 190 19:21 28.03.2021
5738 Rain 8 1004 81 9888 2.06 180 18:51 28.03.2021
5739 Clouds 8 1004 81 10000 2.06 180 18:24 28.03.2021
5740 Rain 8 1006 76 10000 2.06 190 17:46 28.03.2021
5741 Clouds 7 1006 76 10000 2.06 190 17:22 28.03.2021
5742 Clouds 6 1008 81 10000 2.06 170 16:43 28.03.2021
5743 Clouds 5 1008 81 10000 2.06 170 16:22 28.03.2021
5744 Clouds 3 1010 93 10000 0.51 80 15:25 28.03.2021
5745 Clouds 2 1012 93 10000 1.54 30 14:50 28.03.2021
5746 Clouds 2 1012 93 10000 1.54 30 14:27 28.03.2021
5747 Clouds 2 1012 93 10000 1.54 20 13:38 28.03.2021
5748 Clouds 2 1012 93 10000 1.54 20 13:19 28.03.2021
5749 Clouds 2 1014 93 10000 2.06 20 12:43 28.03.2021
5750 Clouds 2 1014 93 10000 2.06 20 12:43 28.03.2021
5751 Clouds 2 1014 93 10000 2.06 20 12:25 28.03.2021
5752 Clouds 2 1014 93 10000 2.06 20 11:39 28.03.2021
5753 Clouds 2 1014 93 10000 2.06 20 11:18 28.03.2021
5754 Clouds 2 1015 87 10000 2.06 40 10:43 28.03.2021
5755 Clouds 2 1015 87 10000 2.06 40 10:21 28.03.2021
5756 Clouds 3 1017 75 10000 1.54 10 09:44 28.03.2021
5757 Clouds 3 1017 75 10000 1.54 10 09:23 28.03.2021
5758 Clouds 3 1018 75 10000 1.03 60 08:42 28.03.2021
5759 Clouds 2 1019 75 10000 1.54 120 07:45 28.03.2021
5760 Clouds 3 1020 70 10000 1.54 200 06:23 28.03.2021
5761 Clouds 3 1022 70 10000 1.03 220 03:51 28.03.2021
5762 Clouds 4 1022 65 10000 1.54 210 00:49 28.03.2021
5763 Clouds 4 1022 65 10000 1.54 210 00:19 28.03.2021
5764 Clouds 4 1022 70 10000 1.54 280 23:39 27.03.2021
5765 Clouds 5 1021 65 10000 1.54 220 22:53 27.03.2021
5766 Clouds 5 1021 65 10000 1.54 220 22:35 27.03.2021
5767 Clouds 5 1021 65 10000 1.54 210 21:46 27.03.2021
5768 Clouds 5 1021 65 10000 1.54 210 21:22 27.03.2021
5769 Clouds 5 1021 70 10000 1.54 290 20:59 27.03.2021
5770 Clouds 5 1021 70 10000 1.54 290 20:38 27.03.2021
5771 Clouds 5 1021 70 10000 1.54 290 20:19 27.03.2021
5772 Clouds 4 1021 81 10000 1.54 270 19:42 27.03.2021
5773 Clouds 4 1021 81 10000 1.54 270 19:23 27.03.2021
5774 Clouds 3 1021 80 10000 1.03 280 18:48 27.03.2021
5775 Clouds 3 1021 80 10000 1.03 280 18:27 27.03.2021
5776 Clouds 3 1021 80 10000 2.06 220 17:45 27.03.2021
5777 Clouds 3 1021 80 10000 2.06 220 17:23 27.03.2021
5778 Clouds 3 1021 87 10000 1.54 250 16:48 27.03.2021
5779 Clouds 2 1021 87 10000 1.54 250 16:28 27.03.2021
5780 Clouds 2 1021 80 10000 2.06 270 15:46 27.03.2021
5781 Clouds 2 1021 80 10000 2.06 270 15:22 27.03.2021
5782 Clouds 2 1020 93 10000 1.54 270 14:45 27.03.2021
5783 Clouds 2 1019 93 10000 2.57 270 13:44 27.03.2021
5784 Clouds 1 1019 93 10000 2.57 270 13:22 27.03.2021
5785 Clouds 1 1018 93 10000 1.03 250 12:53 27.03.2021
5786 Clouds 2 1017 87 10000 1.03 230 11:59 27.03.2021
5787 Clouds 2 1017 87 10000 1.03 230 11:41 27.03.2021
5788 Clouds 2 1017 87 10000 1.03 230 11:19 27.03.2021
5789 Clouds 2 1017 87 10000 1.54 250 10:43 27.03.2021
5790 Clouds 2 1017 87 10000 1.54 250 10:22 27.03.2021
5791 Clouds 2 1016 87 10000 1.54 280 09:28 27.03.2021
5792 Clouds 2 1016 87 10000 2.06 260 08:43 27.03.2021
5793 Clouds 2 1016 87 10000 2.06 260 08:43 27.03.2021
5794 Clouds 2 1016 87 10000 2.06 260 08:21 27.03.2021
5795 Clouds 3 1015 87 10000 1.54 260 07:34 27.03.2021
5796 Clouds 3 1014 93 10000 1.54 260 06:43 27.03.2021
5797 Rain 3 1012 87 10000 2.06 360 04:57 27.03.2021
5798 Clouds 3 1012 87 10000 2.06 360 04:39 27.03.2021
5799 Clouds 5 1004 93 10000 3.09 340 00:49 27.03.2021
5800 Rain 5 1004 93 10000 3.09 340 00:29 27.03.2021
5801 Rain 5 1000 93 10000 4.12 10 23:54 26.03.2021
5802 Rain 5 1000 93 10000 4.12 10 23:19 26.03.2021
5803 Clouds 5 998 93 10000 3.09 20 22:35 26.03.2021
5804 Clouds 6 998 93 10000 3.6 20 21:36 26.03.2021
5805 Clouds 6 998 93 9725 3.6 20 21:18 26.03.2021
5806 Clouds 6 997 93 9725 3.6 10 20:38 26.03.2021
5807 Clouds 6 997 93 10000 3.6 10 20:19 26.03.2021
5808 Clouds 6 997 100 10000 3.09 10 19:47 26.03.2021
5809 Rain 7 997 100 10000 3.09 10 19:28 26.03.2021
5810 Rain 7 997 93 10000 4.12 10 18:42 26.03.2021
5811 Clouds 7 997 93 6383 4.12 10 18:20 26.03.2021
5812 Clouds 6 998 100 6383 3.09 30 17:47 26.03.2021
5813 Rain 6 1000 100 10000 4.12 10 16:56 26.03.2021
5814 Rain 6 1000 100 10000 4.12 10 16:33 26.03.2021
5815 Rain 6 1001 93 6966 3.09 30 15:57 26.03.2021
5816 Clouds 6 1001 93 10000 3.09 30 15:23 26.03.2021
5817 Rain 7 1003 93 10000 2.57 30 14:31 26.03.2021
5818 Rain 7 1005 87 10000 3.09 20 13:41 26.03.2021
5819 Clouds 8 1006 87 10000 3.09 30 12:56 26.03.2021
5820 Clouds 8 1006 87 10000 3.09 30 12:33 26.03.2021
5821 Clouds 8 1007 87 7382 3.09 30 11:38 26.03.2021
5822 Rain 8 1007 87 5092 3.09 30 11:18 26.03.2021
5823 Rain 8 1008 81 5092 3.09 10 10:41 26.03.2021
5824 Rain 9 1008 76 10000 6.17 30 09:56 26.03.2021
5825 Rain 9 1008 76 10000 6.17 30 09:36 26.03.2021
5826 Clouds 10 1008 76 10000 4.63 10 08:44 26.03.2021
5827 Clouds 10 1008 76 10000 4.63 10 08:23 26.03.2021
5828 Clouds 10 1009 81 10000 2.06 30 07:42 26.03.2021
5829 Clouds 10 1009 81 10000 2.06 30 07:20 26.03.2021
5830 Clouds 10 1010 71 10000 1.54 33 06:54 26.03.2021
5831 Clouds 11 1011 71 10000 0.62 335 05:31 26.03.2021
5832 Clouds 14 1012 48 10000 1.03 190 02:32 26.03.2021
5833 Clouds 17 1012 45 10000 0.51 200 00:32 26.03.2021
5834 Clouds 18 1012 42 10000 1.54 220 23:46 25.03.2021
5835 Clouds 18 1012 42 10000 1.54 220 23:21 25.03.2021
5836 Clouds 19 1012 39 10000 2.06 210 22:39 25.03.2021
5837 Clouds 20 1012 40 10000 3.09 240 21:53 25.03.2021
5838 Clouds 20 1012 40 10000 3.09 240 21:35 25.03.2021
5839 Clouds 21 1012 49 10000 2.06 210 20:59 25.03.2021
5840 Clouds 21 1012 49 10000 2.06 210 20:37 25.03.2021
5841 Clouds 21 1012 49 10000 2.06 210 20:18 25.03.2021
5842 Clouds 20 1013 59 10000 2.06 260 19:39 25.03.2021
5843 Clouds 20 1013 59 10000 2.06 260 19:21 25.03.2021
5844 Clouds 19 1013 63 10000 2.06 280 18:39 25.03.2021
5845 Clouds 18 1013 63 10000 2.06 280 18:21 25.03.2021
5846 Clouds 18 1013 63 10000 2.57 250 17:38 25.03.2021
5847 Clouds 17 1012 63 10000 3.09 210 16:58 25.03.2021
5848 Clouds 17 1012 63 10000 3.09 210 16:35 25.03.2021
5849 Clouds 15 1012 77 10000 1.54 180 15:49 25.03.2021
5850 Clouds 15 1012 77 10000 1.54 180 15:27 25.03.2021
5851 Clouds 13 1013 76 10000 1.54 180 14:57 25.03.2021
5852 Clouds 13 1013 76 10000 1.54 180 14:38 25.03.2021
5853 Clouds 10 1013 87 10000 2.06 210 13:29 25.03.2021
5854 Clouds 9 1013 87 10000 2.06 210 12:56 25.03.2021
5855 Clouds 9 1013 87 10000 2.06 210 12:36 25.03.2021
5856 Clouds 9 1013 87 10000 2.06 210 12:18 25.03.2021
5857 Clouds 9 1012 87 10000 2.06 210 11:44 25.03.2021
5858 Clouds 9 1012 87 10000 2.06 210 11:25 25.03.2021
5859 Clouds 9 1012 93 10000 2.06 210 10:49 25.03.2021
5860 Clouds 9 1012 93 10000 2.06 210 10:21 25.03.2021
5861 Rain 9 1011 87 10000 1.54 180 09:50 25.03.2021
5862 Clouds 9 1011 87 10000 1.54 180 09:32 25.03.2021
5863 Rain 10 1013 76 10000 1.03 210 08:37 25.03.2021
5864 Clouds 11 1013 76 10000 2.06 210 07:51 25.03.2021
5865 Clouds 11 1014 76 10000 5.14 180 06:57 25.03.2021
5866 Clouds 11 1014 71 10000 1.54 210 06:24 25.03.2021
5867 Clouds 11 1014 71 10000 1.54 210 05:46 25.03.2021
5868 Clouds 10 1016 81 10000 2.06 190 02:28 25.03.2021
5869 Clouds 11 1016 76 10000 2.06 200 00:21 25.03.2021
5870 Clouds 11 1016 87 10000 2.06 190 23:48 24.03.2021
5871 Clouds 11 1016 87 10000 2.06 190 23:23 24.03.2021
5872 Rain 11 1017 87 10000 3.6 160 22:41 24.03.2021
5873 Rain 11 1017 87 10000 3.6 160 22:20 24.03.2021
5874 Rain 11 1018 76 10000 2.06 180 21:42 24.03.2021
5875 Rain 11 1018 76 9616 2.06 180 21:21 24.03.2021
5876 Rain 13 1018 62 9616 2.06 190 20:41 24.03.2021
5877 Clouds 13 1018 62 10000 2.06 190 20:19 24.03.2021
5878 Clouds 14 1018 47 10000 2.06 170 19:35 24.03.2021
5879 Clouds 15 1019 51 10000 2.57 180 18:58 24.03.2021
5880 Clouds 15 1019 51 10000 2.57 180 18:39 24.03.2021
5881 Clouds 15 1019 51 10000 2.57 180 18:20 24.03.2021
5882 Clouds 13 1019 54 10000 2.06 170 17:41 24.03.2021
5883 Clouds 13 1019 54 10000 2.06 170 17:22 24.03.2021
5884 Clouds 13 1020 54 10000 2.06 190 16:42 24.03.2021
5885 Clouds 13 1020 54 10000 2.06 190 16:23 24.03.2021
5886 Clouds 11 1020 54 10000 1.54 200 15:44 24.03.2021
5887 Clouds 11 1020 54 10000 1.54 200 15:25 24.03.2021
5888 Clouds 9 1020 50 10000 1.54 200 14:46 24.03.2021
5889 Clouds 8 1020 50 10000 1.54 200 14:24 24.03.2021
5890 Clouds 7 1020 46 10000 2.06 210 13:52 24.03.2021
5891 Clouds 6 1020 46 10000 2.06 210 13:27 24.03.2021
5892 Clouds 6 1020 37 10000 2.06 210 12:42 24.03.2021
5893 Clouds 5 1020 37 10000 2.06 210 12:21 24.03.2021
5894 Clouds 4 1020 56 10000 1.03 0 11:42 24.03.2021
5895 Clouds 4 1020 52 10000 1.54 110 10:58 24.03.2021
5896 Clouds 4 1020 52 10000 1.54 110 10:38 24.03.2021
5897 Clouds 4 1020 52 10000 1.54 110 10:20 24.03.2021
5898 Clear 4 1020 56 10000 2.57 150 09:51 24.03.2021
5899 Clear 4 1020 56 10000 2.57 150 09:20 24.03.2021
5900 Clouds 5 1020 52 10000 3.09 170 08:49 24.03.2021
5901 Clouds 5 1020 52 10000 3.09 170 08:24 24.03.2021
5902 Clouds 7 1020 35 10000 1.54 210 07:37 24.03.2021
5903 Clouds 7 1020 45 10000 2.57 180 06:52 24.03.2021
5904 Clouds 10 1021 30 10000 1.03 220 03:56 24.03.2021
5905 Clouds 14 1021 25 10000 1.03 210 00:47 24.03.2021
5906 Clouds 16 1021 22 10000 1.03 190 23:57 23.03.2021
5907 Clouds 17 1021 22 10000 1.03 190 23:21 23.03.2021
5908 Clouds 18 1021 22 10000 1.54 220 22:52 23.03.2021
5909 Clouds 18 1021 22 10000 1.54 220 22:31 23.03.2021
5910 Clouds 18 1022 24 10000 2.06 190 21:52 23.03.2021
5911 Clouds 18 1022 24 10000 2.06 190 21:33 23.03.2021
5912 Clouds 18 1022 22 10000 2.06 190 20:48 23.03.2021
5913 Clouds 18 1022 22 10000 2.06 190 20:29 23.03.2021
5914 Clouds 18 1023 19 10000 2.06 210 19:57 23.03.2021
5915 Clouds 18 1023 19 10000 2.06 210 19:37 23.03.2021
5916 Clouds 18 1023 19 10000 2.06 210 19:19 23.03.2021
5917 Clouds 16 1024 21 10000 2.57 200 18:38 23.03.2021
5918 Clouds 16 1024 21 10000 2.57 200 18:18 23.03.2021
5919 Clouds 15 1024 29 10000 1.54 190 17:43 23.03.2021
5920 Clouds 15 1024 29 10000 1.54 190 17:21 23.03.2021
5921 Clouds 15 1024 29 10000 1.54 190 17:21 23.03.2021
5922 Clouds 13 1025 30 10000 1.54 170 16:26 23.03.2021
5923 Clouds 11 1024 37 10000 2.57 160 15:50 23.03.2021
5924 Clouds 11 1024 37 10000 2.57 160 15:23 23.03.2021
5925 Clouds 8 1024 40 10000 1.54 170 14:49 23.03.2021
5926 Clear 7 1024 49 10000 1.03 0 14:19 23.03.2021
5927 Clouds 5 1024 45 10000 1.54 200 13:47 23.03.2021
5928 Clear 4 1024 65 10000 1.54 150 13:25 23.03.2021
5929 Clouds 3 1024 45 10000 1.54 210 12:46 23.03.2021
5930 Clear 2 1024 64 10000 1.03 130 12:26 23.03.2021
5931 Clear 2 1024 64 10000 1.03 150 11:49 23.03.2021
5932 Clear 2 1024 64 10000 1.03 150 11:26 23.03.2021
5933 Clear 2 1023 69 10000 2.06 120 10:43 23.03.2021
5934 Clear 2 1023 69 10000 2.06 120 10:21 23.03.2021
5935 Clouds 3 1023 52 10000 1.8 179 09:54 23.03.2021
5936 Clear 3 1023 52 10000 1.35 186 09:24 23.03.2021
5937 Clear 2 1023 69 10000 2.06 0 08:55 23.03.2021
5938 Clear 4 1023 45 10000 0.51 290 08:37 23.03.2021
5939 Clear 4 1023 45 10000 0.51 290 08:19 23.03.2021
5940 Clear 4 1023 55 10000 1.54 180 07:28 23.03.2021
5941 Clouds 5 1023 49 10000 0.51 200 06:53 23.03.2021
5942 Clouds 7 1023 34 10000 1.03 230 04:58 23.03.2021
5943 Clouds 9 1022 34 10000 1.03 240 03:19 23.03.2021
5944 Clear 16 1023 21 10000 1.54 190 23:57 22.03.2021
5945 Clear 16 1023 21 10000 1.54 190 23:21 22.03.2021
5946 Clear 18 1023 19 10000 1.54 190 22:44 22.03.2021
5947 Clear 18 1023 19 10000 1.54 190 22:22 22.03.2021
5948 Clear 18 1024 20 10000 1.54 160 21:51 22.03.2021
5949 Clear 18 1024 20 10000 1.54 160 21:27 22.03.2021
5950 Clear 17 1024 27 10000 2.57 200 20:54 22.03.2021
5951 Clear 17 1024 27 10000 2.57 200 20:30 22.03.2021
5952 Clear 16 1025 23 10000 2.57 190 19:58 22.03.2021
5953 Clear 16 1025 23 10000 2.57 190 19:40 22.03.2021
5954 Clear 16 1025 23 10000 2.57 190 19:40 22.03.2021
5955 Clear 16 1025 23 10000 2.57 190 19:21 22.03.2021
5956 Clear 16 1026 20 10000 1.54 200 18:42 22.03.2021
5957 Clear 16 1026 20 10000 1.54 200 18:23 22.03.2021
5958 Clear 14 1027 24 10000 1.03 230 17:50 22.03.2021
5959 Clear 14 1027 24 10000 1.03 230 17:22 22.03.2021
5960 Clear 14 1027 24 10000 1.03 230 17:22 22.03.2021
5961 Clear 11 1028 32 10000 2.57 160 16:58 22.03.2021
5962 Clear 11 1028 32 10000 2.57 160 16:39 22.03.2021
5963 Clear 8 1028 34 10000 2.57 160 15:43 22.03.2021
5964 Clear 8 1028 34 10000 2.57 160 15:25 22.03.2021
5965 Clear 6 1028 39 10000 1.54 180 14:59 22.03.2021
5966 Clear 6 1028 39 10000 1.54 180 14:34 22.03.2021
5967 Clear 3 1028 80 10000 1.03 0 13:53 22.03.2021
5968 Clear 3 1028 45 10000 2.06 200 13:34 22.03.2021
5969 Clear 0 1028 69 10000 1.03 130 12:59 22.03.2021
5970 Clear 1 1028 45 10000 2.06 200 12:41 22.03.2021
5971 Clear -1 1028 69 10000 1.12 156 12:18 22.03.2021
5972 Clear -1 1028 69 10000 1.12 156 11:41 22.03.2021
5973 Clear -1 1028 69 10000 0.82 166 11:21 22.03.2021
5974 Clear 0 1028 64 10000 1.54 180 10:43 22.03.2021
5975 Clear 0 1028 64 10000 1.54 180 10:22 22.03.2021
5976 Clear 0 1028 74 10000 1.54 110 09:39 22.03.2021
5977 Clear 0 1028 74 10000 1.54 110 09:20 22.03.2021
5978 Clear 0 1028 74 10000 1.03 140 08:42 22.03.2021
5979 Clear 0 1028 74 10000 1.03 140 08:24 22.03.2021
5980 Clear 1 1029 69 10000 1.03 130 07:44 22.03.2021
5981 Clear 2 1029 60 10000 1.03 150 06:52 22.03.2021
5982 Clear 3 1029 49 10000 0.51 230 05:43 22.03.2021
5983 Clear 9 1030 43 10000 0.51 240 01:58 22.03.2021
5984 Clear 11 1030 34 10000 1.03 230 00:27 22.03.2021
5985 Clear 13 1031 24 10000 1.03 240 23:53 21.03.2021
5986 Clear 13 1031 24 10000 1.03 240 23:53 21.03.2021
5987 Clear 13 1031 24 10000 1.03 240 23:19 21.03.2021
5988 Clear 14 1031 21 10000 1.54 220 22:55 21.03.2021
5989 Clouds 13 1031 24 10000 1.54 230 21:59 21.03.2021
5990 Clouds 13 1031 24 10000 1.54 230 21:40 21.03.2021
5991 Clouds 13 1031 24 10000 1.54 230 21:22 21.03.2021
5992 Clouds 13 1032 26 10000 2.06 210 20:42 21.03.2021
5993 Clouds 13 1032 26 10000 2.06 210 20:24 21.03.2021
5994 Clouds 12 1032 28 10000 2.06 220 19:52 21.03.2021
5995 Clear 12 1032 28 10000 2.06 220 19:21 21.03.2021
5996 Clear 11 1033 30 10000 1.54 220 18:48 21.03.2021
5997 Clear 11 1033 30 10000 1.54 220 18:27 21.03.2021
5998 Clear 10 1034 29 10000 1.54 220 17:48 21.03.2021
5999 Clear 10 1034 29 10000 1.54 220 17:20 21.03.2021
6000 Clear 8 1034 36 10000 1.54 290 16:58 21.03.2021
6001 Clear 8 1034 36 10000 1.54 290 16:32 21.03.2021
6002 Clear 7 1034 39 10000 2.06 190 15:58 21.03.2021
6003 Clear 7 1034 39 10000 2.06 190 15:39 21.03.2021
6004 Clear 7 1034 39 10000 2.06 190 15:19 21.03.2021
6005 Clear 5 1034 45 10000 1.54 210 14:44 21.03.2021
6006 Clear 5 1034 45 10000 1.54 210 14:26 21.03.2021
6007 Clear 2 1034 52 10000 3.09 260 13:54 21.03.2021
6008 Clear 1 1033 52 10000 2.57 250 13:00 21.03.2021
6009 Clear 0 1033 52 10000 2.57 250 12:41 21.03.2021
6010 Clear 0 1033 52 10000 2.57 250 12:22 21.03.2021
6011 Clear 1 1032 52 10000 2.57 260 11:28 21.03.2021
6012 Clear 1 1032 56 10000 2.06 250 10:59 21.03.2021
6013 Clear 1 1032 56 10000 2.06 250 10:41 21.03.2021
6014 Clear 1 1032 56 10000 2.06 250 10:22 21.03.2021
6015 Clear 1 1031 69 10000 3.09 200 09:44 21.03.2021
6016 Clear 1 1031 69 10000 3.09 200 09:26 21.03.2021
6017 Clear 2 1031 56 10000 2.06 230 08:40 21.03.2021
6018 Clear 2 1031 56 10000 2.06 230 08:21 21.03.2021
6019 Clear 2 1031 56 10000 2.06 230 08:21 21.03.2021
6020 Clear 3 1031 56 10000 2.57 190 07:38 21.03.2021
6021 Clear 4 1031 52 10000 1.54 200 06:56 21.03.2021
6022 Clear 5 1031 49 10000 2.06 210 05:45 21.03.2021
6023 Clear 6 1030 42 10000 1.54 190 02:25 21.03.2021
6024 Clouds 8 1030 42 10000 1.54 200 00:42 21.03.2021
6025 Clear 8 1030 42 10000 1.54 200 00:22 21.03.2021
6026 Clear 9 1030 42 10000 1.54 210 23:49 20.03.2021
6027 Clear 9 1030 42 10000 1.54 210 23:22 20.03.2021
6028 Clear 9 1030 37 10000 1.54 260 22:55 20.03.2021
6029 Clear 9 1030 37 10000 1.54 260 22:22 20.03.2021
6030 Clear 9 1030 37 10000 1.54 230 21:47 20.03.2021
6031 Clear 9 1030 37 10000 1.54 230 21:25 20.03.2021
6032 Clear 8 1030 36 10000 2.06 230 20:45 20.03.2021
6033 Clear 8 1030 36 10000 2.06 230 20:23 20.03.2021
6034 Clear 7 1030 39 10000 2.06 210 19:51 20.03.2021
6035 Clear 7 1030 39 10000 2.06 210 19:28 20.03.2021
6036 Clear 6 1030 45 10000 2.57 200 18:50 20.03.2021
6037 Clear 6 1030 45 10000 2.57 200 18:27 20.03.2021
6038 Clear 4 1030 48 10000 2.06 230 17:58 20.03.2021
6039 Clear 4 1030 48 10000 2.06 230 17:39 20.03.2021
6040 Clear 4 1030 48 10000 2.06 230 17:19 20.03.2021
6041 Clear 3 1031 52 10000 2.57 240 16:38 20.03.2021
6042 Clear 3 1031 52 10000 2.57 240 16:18 20.03.2021
6043 Clear 2 1030 55 10000 2.57 250 15:40 20.03.2021
6044 Clear 2 1030 55 10000 2.57 250 15:40 20.03.2021
6045 Clear 2 1030 55 10000 2.57 250 15:40 20.03.2021
6046 Clear 1 1030 60 10000 2.06 230 14:55 20.03.2021
6047 Clear 1 1030 60 10000 2.06 230 14:31 20.03.2021
6048 Clear 0 1030 69 10000 2.57 240 13:56 20.03.2021
6049 Clear -1 1030 69 10000 2.57 240 13:29 20.03.2021
6050 Clear -2 1029 69 10000 2.57 250 12:30 20.03.2021
6051 Clear -2 1029 69 10000 2.57 230 11:58 20.03.2021
6052 Clear -2 1029 69 10000 2.57 230 11:39 20.03.2021
6053 Clear -2 1029 69 10000 2.57 230 11:20 20.03.2021
6054 Clear -2 1028 69 10000 2.06 210 10:39 20.03.2021
6055 Clear -2 1028 69 10000 2.06 210 10:21 20.03.2021
6056 Clear -2 1028 64 10000 2.06 220 09:44 20.03.2021
6057 Clear -2 1028 64 10000 2.06 220 09:22 20.03.2021
6058 Clear -2 1029 59 10000 2.06 210 08:51 20.03.2021
6059 Clear -2 1029 59 10000 2.06 210 08:19 20.03.2021
6060 Clear -2 1029 59 10000 3.09 200 07:47 20.03.2021
6061 Clear -2 1029 59 10000 3.09 200 07:29 20.03.2021
6062 Clear -2 1029 54 10000 2.57 200 06:39 20.03.2021
6063 Clear -2 1029 47 10000 2.57 210 05:28 20.03.2021
6064 Clear -2 1029 46 10000 2.06 190 03:44 20.03.2021
6065 Clear -2 1029 46 10000 2.06 210 01:42 20.03.2021
6066 Clouds -1 1028 40 10000 2.57 210 23:46 19.03.2021
6067 Clear 0 1028 40 10000 2.57 210 23:19 19.03.2021
6068 Clear 0 1028 37 10000 1.54 220 22:43 19.03.2021
6069 Clear 0 1028 37 10000 1.54 220 22:24 19.03.2021
6070 Clear 0 1029 37 10000 2.06 290 21:42 19.03.2021
6071 Clear 0 1029 37 10000 2.06 290 21:20 19.03.2021
6072 Clear 0 1030 31 10000 1.54 330 20:46 19.03.2021
6073 Clear 0 1030 31 10000 1.54 330 20:26 19.03.2021
6074 Clear -1 1030 33 10000 1.54 270 19:50 19.03.2021
6075 Clear -2 1030 33 10000 1.54 270 19:23 19.03.2021
6076 Clear -3 1031 39 10000 2.57 20 18:49 19.03.2021
6077 Clear -3 1031 39 10000 2.57 20 18:30 19.03.2021
6078 Clear -4 1032 38 10000 2.57 350 17:58 19.03.2021
6079 Clear -4 1032 38 10000 2.57 350 17:38 19.03.2021
6080 Clear -5 1032 38 10000 2.57 350 17:18 19.03.2021
6081 Clear -6 1032 45 10000 3.6 20 16:44 19.03.2021
6082 Clear -6 1032 45 10000 3.6 20 16:25 19.03.2021
6083 Clear -8 1032 48 10000 3.6 10 15:34 19.03.2021
6084 Clear -8 1032 48 10000 4.12 30 14:53 19.03.2021
6085 Clear -8 1032 48 10000 4.12 30 14:34 19.03.2021
6086 Clear -9 1031 52 10000 4.12 20 13:54 19.03.2021
6087 Clear -9 1031 52 10000 4.12 20 13:21 19.03.2021
6088 Clear -10 1030 48 10000 3.6 20 12:48 19.03.2021
6089 Clear -10 1030 48 10000 3.6 20 12:24 19.03.2021
6090 Clear -9 1028 53 10000 3.6 20 11:34 19.03.2021
6091 Clear -9 1027 53 10000 3.6 20 10:53 19.03.2021
6092 Clear -9 1027 53 10000 3.6 20 10:25 19.03.2021
6093 Clear -8 1026 49 10000 3.6 20 09:46 19.03.2021
6094 Clear -8 1026 49 10000 3.6 20 09:26 19.03.2021
6095 Clear -8 1026 49 10000 3.6 10 08:52 19.03.2021
6096 Clear -8 1026 49 10000 3.6 10 08:29 19.03.2021
6097 Clear -7 1026 45 10000 4.63 20 07:50 19.03.2021
6098 Clear -7 1026 45 10000 4.63 20 07:32 19.03.2021
6099 Clouds -6 1025 42 10000 4.12 20 05:54 19.03.2021
6100 Clouds -2 1022 31 10000 4.63 30 02:36 19.03.2021
6101 Clouds 2 1018 26 10000 4.63 20 23:57 18.03.2021
6102 Clouds 3 1018 26 10000 4.63 20 23:30 18.03.2021
6103 Clouds 5 1017 36 10000 4.63 10 22:57 18.03.2021
6104 Clouds 5 1017 36 10000 4.63 10 22:27 18.03.2021
6105 Clouds 6 1016 42 10000 4.63 10 21:56 18.03.2021
6106 Clouds 6 1016 42 10000 4.63 10 21:38 18.03.2021
6107 Clouds 6 1016 49 10000 3.09 360 20:43 18.03.2021
6108 Clouds 7 1016 49 10000 3.09 360 20:23 18.03.2021
6109 Clouds 6 1016 56 10000 2.57 340 19:45 18.03.2021
6110 Clouds 7 1016 56 10000 2.57 340 19:24 18.03.2021
6111 Clouds 6 1016 56 10000 1.54 340 18:53 18.03.2021
6112 Clouds 6 1016 56 10000 1.54 340 18:27 18.03.2021
6113 Clouds 6 1016 60 10000 2.06 340 17:47 18.03.2021
6114 Clouds 5 1016 60 6330 2.06 340 17:25 18.03.2021
6115 Clouds 6 1016 65 6330 1.03 330 16:44 18.03.2021
6116 Clouds 5 1016 65 10000 1.03 330 16:26 18.03.2021
6117 Clouds 4 1016 70 10000 1.03 260 15:45 18.03.2021
6118 Clouds 4 1016 70 10000 1.03 260 15:23 18.03.2021
6119 Clouds 4 1016 81 10000 1.54 220 14:53 18.03.2021
6120 Clouds 4 1016 81 10000 1.54 220 14:30 18.03.2021
6121 Clouds 3 1016 87 6708 1.54 180 13:53 18.03.2021
6122 Clouds 3 1016 87 1376 1.54 180 13:26 18.03.2021
6123 Clouds 2 1015 87 5564 1.03 220 12:44 18.03.2021
6124 Clouds 2 1015 87 10000 1.03 220 12:25 18.03.2021
6125 Clouds 2 1015 93 10000 1.54 210 11:52 18.03.2021
6126 Clouds 2 1015 93 10000 1.54 210 11:32 18.03.2021
6127 Clouds 2 1014 93 10000 1.03 190 10:46 18.03.2021
6128 Clouds 2 1014 93 10000 1.03 190 10:27 18.03.2021
6129 Clouds 2 1014 87 10000 1.54 200 09:54 18.03.2021
6130 Rain 2 1014 87 10000 1.54 200 09:29 18.03.2021
6131 Rain 3 1014 81 10000 1.03 190 08:50 18.03.2021
6132 Rain 3 1014 81 10000 1.03 190 08:31 18.03.2021
6133 Clouds 3 1014 75 10000 5.66 250 07:53 18.03.2021
6134 Clouds 3 1014 70 10000 1.03 200 07:25 18.03.2021
6135 Clouds 3 1014 70 10000 2.06 190 06:29 18.03.2021
6136 Clouds 3 1015 65 10000 2.57 180 05:54 18.03.2021
6137 Clouds 3 1016 60 10000 0.51 220 02:35 18.03.2021
6138 Clouds 3 1016 60 10000 0.51 220 02:35 18.03.2021
6139 Clouds 7 1016 45 10000 1.03 180 23:59 17.03.2021
6140 Clouds 8 1017 39 6608 1.03 170 22:56 17.03.2021
6141 Clouds 8 1017 39 6608 1.03 170 22:36 17.03.2021
6142 Clouds 8 1017 39 4990 1.03 170 22:18 17.03.2021
6143 Clouds 8 1017 39 4990 1.03 210 21:42 17.03.2021
6144 Clouds 8 1017 39 4930 1.03 210 21:23 17.03.2021
6145 Clouds 7 1018 42 4913 2.06 190 20:45 17.03.2021
6146 Clouds 7 1018 42 4779 2.06 190 20:25 17.03.2021
6147 Clouds 6 1018 45 4779 1.03 140 19:46 17.03.2021
6148 Clouds 6 1018 45 2630 1.03 140 19:25 17.03.2021
6149 Clouds 5 1020 42 2630 1.54 210 18:57 17.03.2021
6150 Clouds 5 1020 42 4767 1.54 210 18:38 17.03.2021
6151 Clouds 4 1020 45 4514 2.57 200 17:56 17.03.2021
6152 Clouds 4 1020 45 5341 2.57 200 17:27 17.03.2021
6153 Clouds 3 1020 48 5341 2.57 200 16:54 17.03.2021
6154 Clouds 3 1020 48 5341 2.57 200 16:36 17.03.2021
6155 Clouds 3 1020 48 10000 2.57 200 16:18 17.03.2021
6156 Clouds 2 1021 48 10000 2.06 210 15:37 17.03.2021
6157 Clouds 0 1021 55 10000 2.06 180 14:45 17.03.2021
6158 Clear -1 1021 55 10000 2.57 190 14:27 17.03.2021
6159 Clear -1 1021 64 10000 2.06 200 13:56 17.03.2021
6160 Clear -2 1021 64 10000 2.06 200 13:32 17.03.2021
6161 Clouds -4 1021 68 10000 1.54 200 12:59 17.03.2021
6162 Clouds -4 1021 68 10000 1.54 200 12:34 17.03.2021
6163 Clouds -4 1020 59 10000 1.54 190 11:53 17.03.2021
6164 Clear -5 1021 68 10000 2.57 190 11:24 17.03.2021
6165 Clear -5 1020 63 10000 2.57 210 10:59 17.03.2021
6166 Clear -5 1020 63 10000 2.57 210 10:40 17.03.2021
6167 Clear -4 1020 63 10000 2.57 200 09:59 17.03.2021
6168 Clear -4 1020 63 10000 2.57 200 09:41 17.03.2021
6169 Clear -5 1020 63 10000 2.57 200 09:19 17.03.2021
6170 Clear -5 1020 63 10000 2.57 200 09:19 17.03.2021
6171 Clear -4 1020 59 10000 0.51 250 08:43 17.03.2021
6172 Clear -4 1020 59 10000 0.51 250 08:24 17.03.2021
6173 Clear -4 1020 50 10000 1.03 220 07:37 17.03.2021
6174 Clear -4 1020 46 10000 1.03 230 06:47 17.03.2021
6175 Clear -4 1020 68 10000 1.03 0 04:27 17.03.2021
6176 Clouds -3 1020 43 10000 1.03 240 03:31 17.03.2021
6177 Clouds 0 1020 34 10000 2.06 220 00:44 17.03.2021
6178 Clouds 0 1020 34 10000 2.06 220 00:24 17.03.2021
6179 Clouds 0 1020 34 10000 2.06 210 23:25 16.03.2021
6180 Clouds 0 1020 32 10000 2.06 190 22:44 16.03.2021
6181 Clouds 1 1020 32 10000 2.06 190 22:26 16.03.2021
6182 Clouds 0 1021 34 10000 2.06 200 21:44 16.03.2021
6183 Clouds 0 1021 34 10000 2.06 200 21:25 16.03.2021
6184 Clouds 0 1021 32 10000 2.57 170 20:56 16.03.2021
6185 Clouds 0 1021 32 10000 2.57 170 20:19 16.03.2021
6186 Clouds 0 1022 31 10000 2.06 180 19:48 16.03.2021
6187 Clouds -1 1022 31 10000 2.06 180 19:28 16.03.2021
6188 Clouds -1 1024 29 10000 2.57 200 18:56 16.03.2021
6189 Clouds -2 1024 29 10000 2.57 200 18:36 16.03.2021
6190 Clouds -2 1024 34 10000 2.06 210 17:59 16.03.2021
6191 Clouds -2 1024 34 10000 2.06 210 17:40 16.03.2021
6192 Clouds -3 1024 34 10000 2.06 210 17:20 16.03.2021
6193 Clouds -3 1024 39 10000 2.06 170 16:46 16.03.2021
6194 Clouds -4 1024 39 10000 2.06 170 16:25 16.03.2021
6195 Clouds -5 1026 46 10000 2.06 170 15:45 16.03.2021
6196 Clouds -5 1026 46 10000 2.06 170 15:20 16.03.2021
6197 Clouds -6 1026 46 10000 1.54 180 14:56 16.03.2021
6198 Clouds -6 1026 46 10000 1.54 180 14:38 16.03.2021
6199 Clouds -6 1026 46 10000 1.54 180 14:18 16.03.2021
6200 Clouds -8 1026 49 10000 1.54 270 13:42 16.03.2021
6201 Clear -9 1026 49 10000 1.54 270 13:21 16.03.2021
6202 Clear -10 1027 45 10000 1.03 290 12:43 16.03.2021
6203 Clear -11 1027 45 10000 1.03 290 12:23 16.03.2021
6204 Clear -11 1027 73 10000 1.03 250 11:38 16.03.2021
6205 Clear -11 1026 73 10000 2.23 239 10:53 16.03.2021
6206 Clear -11 1026 73 10000 1.99 235 10:24 16.03.2021
6207 Clear -10 1027 45 10000 2.06 280 09:47 16.03.2021
6208 Clear -10 1026 67 10000 1.03 190 09:29 16.03.2021
6209 Clear -10 1027 45 10000 1.03 290 08:58 16.03.2021
6210 Clear -10 1027 45 10000 1.03 290 08:40 16.03.2021
6211 Clear -10 1027 45 10000 1.03 290 08:18 16.03.2021
6212 Clear -10 1027 57 10000 1.68 238 07:33 16.03.2021
6213 Clear -9 1028 41 10000 1.54 280 06:39 16.03.2021
6214 Clear -9 1028 45 10000 1.03 260 05:40 16.03.2021
6215 Clear -9 1028 45 10000 1.03 260 05:21 16.03.2021
6216 Clear -8 1029 41 10000 0.51 290 02:45 16.03.2021
6217 Clear -8 1029 41 10000 0.51 290 02:23 16.03.2021
6218 Clouds -7 1028 35 10000 0.51 50 23:57 15.03.2021
6219 Clouds -6 1028 35 10000 0.51 50 23:28 15.03.2021
6220 Clouds -6 1028 35 10000 0.51 50 23:28 15.03.2021
6221 Clouds -6 1029 35 10000 1.54 340 22:51 15.03.2021
6222 Clouds -6 1029 35 10000 1.54 340 22:33 15.03.2021
6223 Clouds -6 1029 35 10000 1.54 340 22:33 15.03.2021
6224 Clouds -6 1029 38 10000 2.06 20 21:55 15.03.2021
6225 Clouds -7 1029 38 10000 2.06 20 21:35 15.03.2021
6226 Clouds -7 1029 35 10000 2.06 300 20:59 15.03.2021
6227 Clouds -8 1029 35 10000 2.06 300 20:40 15.03.2021
6228 Clouds -8 1029 35 10000 2.06 300 20:21 15.03.2021
6229 Clouds -9 1030 37 10000 1.54 260 19:51 15.03.2021
6230 Clouds -9 1030 37 10000 1.54 260 19:32 15.03.2021
6231 Clouds -10 1031 40 10000 2.06 320 18:57 15.03.2021
6232 Clouds -10 1031 40 10000 2.06 320 18:32 15.03.2021
6233 Clouds -11 1032 40 10000 2.57 10 17:56 15.03.2021
6234 Clouds -12 1032 40 10000 2.57 10 17:32 15.03.2021
6235 Clear -12 1032 43 10000 3.09 350 16:55 15.03.2021
6236 Clear -13 1032 43 10000 3.09 350 16:35 15.03.2021
6237 Clear -14 1032 43 10000 3.6 10 15:47 15.03.2021
6238 Clear -14 1032 43 10000 3.6 10 15:26 15.03.2021
6239 Clear -15 1032 47 10000 3.6 10 14:45 15.03.2021
6240 Clear -15 1032 47 10000 3.6 10 14:24 15.03.2021
6241 Clear -15 1032 47 10000 3.6 20 13:53 15.03.2021
6242 Clear -16 1032 47 10000 3.6 20 13:34 15.03.2021
6243 Clouds -16 1030 51 10000 5.14 10 12:51 15.03.2021
6244 Clouds -16 1030 51 10000 5.14 10 12:20 15.03.2021
6245 Clouds -16 1029 51 10000 3.09 350 11:56 15.03.2021
6246 Clouds -15 1029 51 10000 3.09 350 11:38 15.03.2021
6247 Clouds -15 1028 47 10000 3.6 10 10:59 15.03.2021
6248 Clouds -15 1028 47 10000 3.6 10 10:33 15.03.2021
6249 Clouds -14 1027 47 10000 3.6 360 09:59 15.03.2021
6250 Clouds -14 1027 47 10000 3.6 360 09:40 15.03.2021
6251 Clouds -14 1027 47 10000 3.09 360 08:59 15.03.2021
6252 Clouds -14 1027 47 10000 3.09 360 08:41 15.03.2021
6253 Clouds -13 1027 47 10000 3.09 360 08:19 15.03.2021
6254 Clouds -13 1027 44 10000 4.12 10 07:32 15.03.2021
6255 Clouds -12 1026 48 10000 3.6 10 06:44 15.03.2021
6256 Clouds -11 1026 48 10000 4.12 10 05:35 15.03.2021
6257 Clouds -9 1024 48 10000 6.17 10 03:18 15.03.2021
6258 Clouds -7 1021 42 10000 4.12 360 00:21 15.03.2021
6259 Clouds -6 1020 38 10000 5.14 360 23:22 14.03.2021
6260 Clouds -5 1019 39 10000 4.12 10 22:49 14.03.2021
6261 Clouds -5 1019 39 10000 4.12 10 22:27 14.03.2021
6262 Clouds -4 1018 42 10000 3.6 360 21:51 14.03.2021
6263 Clouds -4 1018 42 10000 3.6 360 21:22 14.03.2021
6264 Clouds -4 1018 42 10000 5.14 10 20:52 14.03.2021
6265 Clouds -4 1018 42 10000 5.14 10 20:27 14.03.2021
6266 Clouds -4 1017 50 10000 4.63 350 19:56 14.03.2021
6267 Clouds -4 1017 50 10000 4.63 350 19:37 14.03.2021
6268 Clouds -4 1017 42 10000 9.26 350 19:18 14.03.2021
6269 Clouds -4 1017 58 10000 4.63 360 18:36 14.03.2021
6270 Clouds -4 1016 74 9778 5.14 10 17:44 14.03.2021
6271 Clouds -3 1016 74 10000 5.14 10 17:24 14.03.2021
6272 Clouds -3 1015 58 10000 8.23 320 16:54 14.03.2021
6273 Clouds -4 1015 80 10000 3.6 10 16:35 14.03.2021
6274 Clouds -3 1014 54 10000 9.26 310 15:59 14.03.2021
6275 Clouds -3 1014 86 10000 2.57 350 15:40 14.03.2021
6276 Clouds -3 1013 68 10000 1.03 20 14:51 14.03.2021
6277 Clouds -3 1013 68 10000 1.03 20 14:30 14.03.2021
6278 Clouds -3 1013 68 10000 1.03 20 14:30 14.03.2021
6279 Snow -3 1013 63 6300 1.03 260 13:52 14.03.2021
6280 Snow -3 1013 63 6300 1.03 260 13:52 14.03.2021
6281 Snow -3 1013 63 6300 1.03 260 13:33 14.03.2021
6282 Clouds -3 1012 68 2797 0.51 230 12:56 14.03.2021
6283 Clouds -3 1012 68 10000 0.51 230 12:37 14.03.2021
6284 Clouds -3 1012 68 10000 0.51 230 12:18 14.03.2021
6285 Clouds -3 1012 64 10000 1.54 330 11:38 14.03.2021
6286 Clouds -3 1012 64 10000 1.54 330 11:18 14.03.2021
6287 Clouds -2 1012 64 10000 1.03 50 10:38 14.03.2021
6288 Clouds -2 1012 64 10000 1.03 50 10:19 14.03.2021
6289 Clouds -2 1012 64 10000 1.54 230 09:55 14.03.2021
6290 Clouds -2 1012 64 10000 1.54 230 09:36 14.03.2021
6291 Clouds -2 1012 64 10000 1.54 230 09:36 14.03.2021
6292 Clouds -2 1012 64 10000 1.54 230 09:18 14.03.2021
6293 Clouds -2 1013 64 10000 1.03 170 08:36 14.03.2021
6294 Clouds -2 1013 64 10000 1.54 180 07:52 14.03.2021
6295 Clouds -2 1013 64 10000 1.54 180 07:22 14.03.2021
6296 Clouds -3 1014 80 10000 2.06 200 05:33 14.03.2021
6297 Clouds -2 1017 43 10000 1.03 230 00:59 14.03.2021
6298 Clouds -2 1017 43 10000 1.03 230 00:20 14.03.2021
6299 Clouds -2 1018 43 10000 1.54 210 23:58 13.03.2021
6300 Clouds -2 1018 43 10000 1.54 210 23:38 13.03.2021
6301 Clouds -2 1018 43 10000 1.54 210 23:18 13.03.2021
6302 Clouds -2 1019 43 10000 2.06 250 22:43 13.03.2021
6303 Clouds -2 1020 46 10000 2.06 260 21:55 13.03.2021
6304 Clouds -2 1020 46 10000 2.06 260 21:55 13.03.2021
6305 Clouds -2 1020 46 10000 2.06 260 21:35 13.03.2021
6306 Clouds -3 1020 50 10000 2.57 230 20:56 13.03.2021
6307 Clouds -3 1020 50 10000 2.57 230 20:37 13.03.2021
6308 Clouds -2 1020 50 10000 2.57 230 20:19 13.03.2021
6309 Clouds -3 1022 50 10000 3.09 280 19:38 13.03.2021
6310 Clouds -3 1022 50 10000 3.09 280 19:19 13.03.2021
6311 Clouds -3 1023 54 10000 2.06 250 18:42 13.03.2021
6312 Clouds -4 1023 54 10000 2.06 250 18:20 13.03.2021
6313 Clouds -4 1025 54 10000 2.06 270 17:47 13.03.2021
6314 Clouds -5 1025 54 10000 2.06 270 17:28 13.03.2021
6315 Clouds -5 1026 53 10000 2.06 330 16:51 13.03.2021
6316 Clouds -5 1026 53 10000 2.06 330 16:33 13.03.2021
6317 Clouds -6 1026 58 10000 2.06 240 15:54 13.03.2021
6318 Clouds -7 1026 53 10000 1.03 260 14:58 13.03.2021
6319 Clouds -7 1026 53 10000 1.03 260 14:40 13.03.2021
6320 Clouds -7 1026 53 10000 1.03 260 14:19 13.03.2021
6321 Clouds -7 1026 62 10000 1.54 320 13:27 13.03.2021
6322 Clouds -7 1025 67 10000 1.54 200 12:52 13.03.2021
6323 Clouds -7 1025 67 10000 1.54 200 12:30 13.03.2021
6324 Clouds -7 1025 68 10000 1.03 130 11:53 13.03.2021
6325 Clouds -6 1025 68 10000 1.03 130 11:32 13.03.2021
6326 Clouds -6 1024 63 10000 1.03 290 10:56 13.03.2021
6327 Clouds -6 1024 63 10000 1.03 290 10:31 13.03.2021
6328 Clouds -5 1022 58 10000 2.57 50 09:59 13.03.2021
6329 Clouds -5 1022 58 10000 2.57 50 09:31 13.03.2021
6330 Clouds -4 1020 68 10000 1.03 240 08:54 13.03.2021
6331 Clouds -4 1020 68 10000 1.03 240 08:21 13.03.2021
6332 Clouds -4 1019 80 10000 1.54 230 07:57 13.03.2021
6333 Clouds -4 1019 80 10000 1.54 230 07:30 13.03.2021
6334 Snow -2 1016 54 3667 1.03 210 05:29 13.03.2021
6335 Clouds 2 1012 69 10000 1.54 210 02:20 13.03.2021
6336 Clouds 3 1011 70 10000 2.06 210 00:33 13.03.2021
6337 Clouds 4 1012 70 10000 2.57 200 23:38 12.03.2021
6338 Clouds 5 1012 70 10000 2.57 200 23:20 12.03.2021
6339 Clouds 5 1012 70 10000 2.57 200 22:32 12.03.2021
6340 Clouds 5 1012 49 10000 2.57 200 21:56 12.03.2021
6341 Clouds 6 1012 49 10000 2.57 200 21:38 12.03.2021
6342 Clouds 6 1012 49 10000 2.57 200 21:18 12.03.2021
6343 Clouds 7 1013 45 10000 2.57 260 20:48 12.03.2021
6344 Clear 7 1013 45 10000 2.57 260 20:23 12.03.2021
6345 Clear 6 1013 49 10000 3.09 210 19:45 12.03.2021
6346 Clear 6 1013 49 10000 3.09 210 19:45 12.03.2021
6347 Clear 6 1013 49 10000 3.09 210 19:26 12.03.2021
6348 Clear 6 1015 52 10000 3.09 220 18:50 12.03.2021
6349 Clear 5 1015 52 10000 3.09 220 18:28 12.03.2021
6350 Clear 5 1015 52 10000 2.06 250 17:45 12.03.2021
6351 Clear 5 1015 52 10000 2.06 250 17:27 12.03.2021
6352 Clear 5 1016 52 10000 2.06 240 16:44 12.03.2021
6353 Clear 4 1016 52 10000 2.06 240 16:25 12.03.2021
6354 Clear 4 1016 52 10000 1.54 230 15:40 12.03.2021
6355 Clear 4 1016 52 10000 1.54 230 15:18 12.03.2021
6356 Clear 4 1016 56 10000 2.06 220 14:40 12.03.2021
6357 Clear 3 1016 56 10000 2.06 220 14:18 12.03.2021
6358 Clear 3 1016 65 10000 1.54 190 13:40 12.03.2021
6359 Clouds 3 1016 65 10000 1.54 190 13:19 12.03.2021
6360 Clear 3 1014 65 10000 2.06 210 12:49 12.03.2021
6361 Clear 3 1014 65 10000 2.06 210 12:28 12.03.2021
6362 Clear 3 1013 65 10000 2.06 200 11:54 12.03.2021
6363 Clear 3 1013 65 10000 2.06 200 11:30 12.03.2021
6364 Clear 4 1012 60 10000 3.09 200 10:57 12.03.2021
6365 Clear 4 1012 60 10000 3.09 200 10:28 12.03.2021
6366 Clear 5 1010 56 10000 3.09 200 09:58 12.03.2021
6367 Clear 5 1010 56 10000 3.09 200 09:29 12.03.2021
6368 Clear 6 1009 56 10000 2.57 210 08:57 12.03.2021
6369 Clear 6 1009 56 10000 2.57 210 08:38 12.03.2021
6370 Clear 7 1008 53 10000 2.57 210 07:41 12.03.2021
6371 Clouds 8 1008 53 10000 2.57 210 07:19 12.03.2021
6372 Clouds 9 1006 66 10000 2.57 200 06:41 12.03.2021
6373 Clouds 10 1006 76 10000 3.09 200 05:43 12.03.2021
6374 Clouds 10 1008 62 10000 2.06 210 00:52 12.03.2021
6375 Clouds 10 1008 58 9695 2.06 210 23:56 11.03.2021
6376 Clouds 12 1009 50 6388 1.54 200 22:58 11.03.2021
6377 Clouds 12 1009 50 6388 1.54 200 22:38 11.03.2021
6378 Clouds 12 1009 50 5949 1.54 200 22:18 11.03.2021
6379 Clouds 11 1010 54 5949 2.57 210 21:46 11.03.2021
6380 Clouds 11 1010 54 5441 2.57 210 21:22 11.03.2021
6381 Clouds 10 1011 57 5441 2.06 190 20:49 11.03.2021
6382 Clouds 9 1011 57 5687 2.06 190 20:22 11.03.2021
6383 Clouds 8 1012 66 5687 2.06 180 19:49 11.03.2021
6384 Clouds 8 1012 66 5687 2.06 180 19:30 11.03.2021
6385 Clouds 8 1013 66 2184 2.57 180 18:52 11.03.2021
6386 Clouds 8 1013 66 2184 2.57 180 18:34 11.03.2021
6387 Clouds 8 1014 61 1903 2.06 180 17:53 11.03.2021
6388 Clouds 8 1014 61 1903 2.06 180 17:32 11.03.2021
6389 Clouds 7 1015 65 2060 2.57 200 16:34 11.03.2021
6390 Clouds 6 1016 70 2714 2.06 180 15:56 11.03.2021
6391 Clouds 6 1016 70 2714 2.06 180 15:37 11.03.2021
6392 Clouds 6 1016 70 6225 2.06 180 15:19 11.03.2021
6393 Clouds 5 1016 65 6225 2.57 210 14:43 11.03.2021
6394 Clouds 5 1016 75 10000 6.69 190 14:18 11.03.2021
6395 Clouds 5 1017 75 10000 6.69 180 13:43 11.03.2021
6396 Clouds 5 1016 65 10000 2.06 210 13:21 11.03.2021
6397 Clouds 5 1017 70 10000 2.57 210 12:50 11.03.2021
6398 Clouds 5 1017 70 10000 2.57 210 12:28 11.03.2021
6399 Clouds 5 1017 75 10000 2.57 210 11:46 11.03.2021
6400 Clouds 5 1017 75 10000 2.57 210 11:27 11.03.2021
6401 Clouds 5 1018 65 10000 2.57 210 10:55 11.03.2021
6402 Clouds 5 1018 65 10000 2.57 210 10:25 11.03.2021
6403 Clouds 5 1018 65 10000 8.23 180 09:50 11.03.2021
6404 Clouds 5 1018 65 10000 8.23 180 09:32 11.03.2021
6405 Clouds 5 1018 65 10000 8.23 180 09:32 11.03.2021
6406 Clouds 5 1019 61 10000 2.57 210 08:50 11.03.2021
6407 Clouds 5 1019 61 10000 2.57 210 08:32 11.03.2021
6408 Clouds 6 1019 61 10000 2.57 210 07:48 11.03.2021
6409 Clouds 6 1019 61 10000 2.57 210 07:21 11.03.2021
6410 Clouds 6 1019 53 10000 2.57 210 06:42 11.03.2021
6411 Clouds 6 1019 53 10000 2.57 210 06:22 11.03.2021
6412 Clouds 6 1022 53 10000 2.06 210 02:26 11.03.2021
6413 -273 0 0 0 0 0 00:28 11.03.2021
6414 Clouds 7 1023 49 10000 2.57 210 00:28 11.03.2021
6415 Clouds 8 1023 46 10000 2.06 200 23:23 10.03.2021
6416 Clouds 8 1024 42 10000 2.57 200 22:42 10.03.2021
6417 Clouds 8 1024 42 10000 2.57 200 22:41 10.03.2021
6418 Clouds 8 1024 42 10000 2.57 200 22:41 10.03.2021
6419 Clouds 8 1024 42 10000 2.57 200 22:41 10.03.2021
6420 Clouds 8 1024 42 10000 2.57 200 22:41 10.03.2021
6421 Clouds 8 1024 42 10000 2.57 200 22:41 10.03.2021
6422 Clouds 8 1024 42 10000 2.57 200 22:41 10.03.2021
6423 Clouds 8 1024 42 10000 2.57 200 22:41 10.03.2021
6424 Clouds 8 1024 42 4367 2.57 200 22:19 10.03.2021
6425 Clouds 8 1024 43 4367 2.06 180 21:41 10.03.2021
6426 Clouds 8 1024 43 377 2.06 180 21:21 10.03.2021
6427 Clouds 8 1024 43 377 2.06 180 21:21 10.03.2021
6428 Clouds 8 1026 42 225 2.06 190 20:44 10.03.2021
6429 Clouds 8 1026 42 138 2.06 190 20:26 10.03.2021
6430 Clouds 7 1027 45 138 2.06 190 19:41 10.03.2021
6431 Clouds 7 1027 45 160 2.06 190 19:21 10.03.2021
6432 Clouds 5 1028 52 160 2.57 190 18:44 10.03.2021
6433 Clouds 5 1028 52 298 2.57 190 18:24 10.03.2021
6434 Clouds 5 1028 52 298 2.57 190 18:24 10.03.2021
6435 Clouds 4 1029 56 298 3.09 180 17:46 10.03.2021
6436 Clouds 4 1029 56 10000 3.09 180 17:21 10.03.2021
6437 Clouds 3 1030 60 10000 2.57 200 16:57 10.03.2021
6438 Clouds 3 1030 60 10000 2.57 200 16:37 10.03.2021
6439 Clouds 3 1030 60 10000 2.57 200 16:19 10.03.2021
6440 Clouds 2 1031 64 10000 2.06 170 15:41 10.03.2021
6441 Clouds 1 1031 64 10000 2.06 170 15:22 10.03.2021
6442 Clouds 0 1032 74 10000 1.54 180 14:43 10.03.2021
6443 Clouds -1 1032 74 10000 1.54 180 14:19 10.03.2021
6444 Clouds -3 1032 80 10000 1.54 180 13:46 10.03.2021
6445 Clouds -3 1032 80 10000 1.54 180 13:25 10.03.2021
6446 Clear -4 1032 93 10000 2.57 130 12:45 10.03.2021
6447 Clear -4 1032 93 10000 2.57 130 12:19 10.03.2021
6448 Clouds -4 1032 93 10000 1.54 150 11:32 10.03.2021
6449 Clouds -3 1032 93 10000 1.03 170 10:59 10.03.2021
6450 Clouds -3 1032 93 10000 1.03 170 10:38 10.03.2021
6451 Clouds -3 1032 93 10000 1.03 170 10:20 10.03.2021
6452 Clouds -2 1032 80 10000 1.54 220 09:42 10.03.2021
6453 Clouds -2 1032 80 7522 1.54 220 09:22 10.03.2021
6454 Clear -3 1032 93 10000 1.54 120 08:57 10.03.2021
6455 Clear -3 1032 93 10000 1.54 120 08:57 10.03.2021
6456 Clear -3 1032 93 10000 1.54 120 08:38 10.03.2021
6457 Clear -3 1032 93 10000 1.54 120 08:20 10.03.2021
6458 Clear -3 1031 93 10000 1.54 120 07:30 10.03.2021
6459 Clear -3 1031 93 10000 1.03 150 06:56 10.03.2021
6460 Clouds -2 1031 74 962 0.51 250 06:25 10.03.2021
6461 Clear -1 1030 80 10000 1.54 90 02:27 10.03.2021
6462 Clouds 4 1029 60 10000 0.51 270 23:52 09.03.2021
6463 Clouds 4 1029 60 10000 0.51 270 23:20 09.03.2021
6464 Clouds 4 1028 56 10000 1.03 280 22:39 09.03.2021
6465 Clouds 4 1028 56 8117 1.03 280 22:21 09.03.2021
6466 Clouds 4 1028 56 8117 1.54 350 21:46 09.03.2021
6467 Clouds 4 1028 56 5232 1.54 350 21:25 09.03.2021
6468 Clouds 4 1026 56 10000 6.69 310 20:58 09.03.2021
6469 Clouds 4 1027 60 5232 3.09 20 20:40 09.03.2021
6470 Clouds 4 1027 60 5232 3.09 20 20:40 09.03.2021
6471 Clouds 4 1026 56 10000 6.69 310 20:21 09.03.2021
6472 Clouds 4 1026 52 3511 3.09 360 19:47 09.03.2021
6473 Clouds 4 1026 52 146 3.09 360 19:26 09.03.2021
6474 Clouds 3 1026 52 94 3.09 10 18:50 09.03.2021
6475 Clouds 3 1026 52 45 3.09 10 18:26 09.03.2021
6476 Clouds 3 1025 55 45 1.03 210 17:53 09.03.2021
6477 Clouds 3 1025 55 45 1.03 210 17:53 09.03.2021
6478 Clouds 2 1025 55 45 1.03 210 17:31 09.03.2021
6479 Clouds 1 1024 55 87 1.03 240 16:55 09.03.2021
6480 Clouds 1 1024 55 87 1.03 240 16:37 09.03.2021
6481 Clear 1 1024 55 4227 1.03 240 16:18 09.03.2021
6482 Clear -1 1024 64 4227 1.54 260 15:43 09.03.2021
6483 Clouds -1 1024 64 10000 1.54 260 15:20 09.03.2021
6484 Clouds -2 1023 63 10000 2.57 250 14:31 09.03.2021
6485 Clear -3 1022 63 10000 2.06 230 13:59 09.03.2021
6486 Clear -3 1022 63 10000 2.06 230 13:38 09.03.2021
6487 Clouds -4 1022 63 10000 2.06 230 13:19 09.03.2021
6488 Clouds -4 1021 68 10000 4.63 250 12:39 09.03.2021
6489 Clouds -3 1021 68 10000 4.63 250 12:19 09.03.2021
6490 Clouds -4 1021 68 10000 1.03 0 11:42 09.03.2021
6491 Snow -4 1021 68 10000 1.03 0 11:21 09.03.2021
6492 Snow -3 1021 63 10000 1.79 253 10:55 09.03.2021
6493 Snow -3 1021 63 10000 1.79 253 10:36 09.03.2021
6494 Snow -3 1021 63 10000 1.58 242 10:18 09.03.2021
6495 Snow -3 1021 63 10000 1.54 330 09:42 09.03.2021
6496 Snow -3 1021 63 10000 1.54 330 09:23 09.03.2021
6497 Snow -3 1021 59 139 0.51 350 08:46 09.03.2021
6498 Clouds -3 1021 59 10000 0.51 350 08:23 09.03.2021
6499 Clouds -3 1021 54 10000 1.03 30 07:40 09.03.2021
6500 Clouds -3 1021 54 10000 1.03 30 07:21 09.03.2021
6501 Clouds -3 1023 50 10000 1.03 160 05:55 09.03.2021
6502 Clouds -3 1023 50 10000 1.03 160 05:37 09.03.2021
6503 Snow -3 1026 46 501 2.06 190 00:34 09.03.2021
6504 Clouds -3 1027 36 10000 2.06 210 23:45 08.03.2021
6505 Clouds -3 1027 36 10000 2.06 210 23:27 08.03.2021
6506 Clouds -3 1027 28 10000 1.03 280 22:51 08.03.2021
6507 Clouds -3 1027 28 10000 1.03 280 22:32 08.03.2021
6508 Clouds -2 1028 28 10000 2.06 260 21:57 08.03.2021
6509 Clouds -2 1028 28 10000 2.06 260 21:35 08.03.2021
6510 Clouds -2 1029 29 10000 1.54 220 20:48 08.03.2021
6511 Clouds -2 1029 29 10000 1.54 220 20:28 08.03.2021
6512 Clouds -2 1029 29 10000 1.54 220 20:28 08.03.2021
6513 Clouds -3 1029 33 10000 1.54 300 19:59 08.03.2021
6514 Clouds -3 1029 33 10000 1.54 300 19:36 08.03.2021
6515 Clouds -4 1030 39 10000 1.54 190 18:44 08.03.2021
6516 Clouds -4 1030 39 10000 1.54 190 18:23 08.03.2021
6517 Clouds -5 1030 43 10000 1.54 200 17:56 08.03.2021
6518 Clouds -5 1030 43 10000 1.54 200 17:38 08.03.2021
6519 Clear -7 1031 58 10000 2.06 60 16:56 08.03.2021
6520 Clouds -7 1031 49 10000 1.03 350 16:33 08.03.2021
6521 Clouds -9 1031 49 10000 1.03 350 15:57 08.03.2021
6522 Clouds -9 1031 49 10000 1.03 350 15:31 08.03.2021
6523 Clouds -10 1031 49 10000 1.03 20 14:59 08.03.2021
6524 Clouds -11 1031 49 10000 1.03 20 14:21 08.03.2021
6525 Clouds -11 1031 62 10000 0.51 320 13:47 08.03.2021
6526 Clouds -13 1031 62 10000 0.51 320 13:23 08.03.2021
6527 Clear -14 1031 78 10000 1.03 140 12:55 08.03.2021
6528 Clear -15 1031 78 10000 1.03 140 12:29 08.03.2021
6529 Clear -14 1030 72 10000 1.4 243 11:45 08.03.2021
6530 Clear -14 1030 72 10000 1.38 255 11:20 08.03.2021
6531 Clear -13 1029 62 10000 2.06 260 10:47 08.03.2021
6532 Clear -13 1029 62 10000 2.06 260 10:28 08.03.2021
6533 Clear -12 1029 53 10000 1.54 270 09:50 08.03.2021
6534 Clear -12 1029 67 10000 3.09 250 09:25 08.03.2021
6535 Clear -10 1029 53 10000 2.06 280 08:32 08.03.2021
6536 Clear -10 1029 53 10000 3.09 290 07:51 08.03.2021
6537 Clouds -10 1029 53 10000 3.09 290 07:21 08.03.2021
6538 Clouds -9 1029 53 10000 1.54 270 05:20 08.03.2021
6539 Clouds -7 1029 58 10000 2.06 230 02:19 08.03.2021
6540 Clouds -6 1028 53 10000 1.54 210 00:42 08.03.2021
6541 Clouds -5 1028 53 10000 2.57 210 23:53 07.03.2021
6542 Clouds -5 1028 53 7374 2.57 210 23:21 07.03.2021
6543 Clouds -4 1028 42 7374 2.06 210 22:47 07.03.2021
6544 Clouds -4 1028 42 3842 2.06 210 22:27 07.03.2021
6545 Clouds -4 1028 42 3842 2.06 210 22:27 07.03.2021
6546 Clouds -5 1027 50 3842 1.54 240 21:53 07.03.2021
6547 Clouds -5 1027 50 3842 1.54 240 21:32 07.03.2021
6548 Clouds -5 1027 46 3458 2.06 230 20:58 07.03.2021
6549 Clouds -5 1027 46 3458 2.06 230 20:40 07.03.2021
6550 Clouds -5 1027 46 2835 2.06 230 20:18 07.03.2021
6551 Clouds -5 1027 46 2835 2.06 230 19:40 07.03.2021
6552 Clouds -5 1027 46 4349 2.06 230 19:22 07.03.2021
6553 Clouds -6 1028 46 5396 1.03 280 18:54 07.03.2021
6554 Clouds -6 1028 46 10000 1.03 280 18:21 07.03.2021
6555 Clouds -6 1028 45 10000 1.54 280 17:59 07.03.2021
6556 Clouds -6 1028 45 10000 1.54 280 17:38 07.03.2021
6557 Clouds -6 1028 45 10000 1.54 280 17:18 07.03.2021
6558 Clouds -7 1028 49 10000 1.03 320 16:43 07.03.2021
6559 Clouds -7 1028 49 10000 1.03 320 16:21 07.03.2021
6560 Clouds -7 1028 49 10000 1.03 320 16:21 07.03.2021
6561 Clouds -7 1027 49 10000 1.03 280 15:50 07.03.2021
6562 Clouds -7 1027 49 10000 1.03 280 15:31 07.03.2021
6563 Clouds -8 1027 53 10000 1.03 350 14:51 07.03.2021
6564 Clear -8 1027 53 10000 1.03 350 14:29 07.03.2021
6565 Clear -9 1026 62 10000 1.54 330 13:51 07.03.2021
6566 Clouds -9 1026 62 10000 1.54 330 13:29 07.03.2021
6567 Clouds -9 1025 62 10000 1.03 310 12:50 07.03.2021
6568 Clouds -9 1025 62 10000 1.03 310 12:32 07.03.2021
6569 Clouds -9 1024 57 10000 1.03 290 11:58 07.03.2021
6570 Clouds -9 1024 57 10000 1.03 290 11:23 07.03.2021
6571 Clouds -9 1024 53 10000 1.54 280 10:55 07.03.2021
6572 Clouds -9 1024 53 10000 1.54 280 10:37 07.03.2021
6573 Clouds -9 1023 53 10000 1.54 280 09:54 07.03.2021
6574 Clouds -9 1023 53 10000 1.54 280 09:29 07.03.2021
6575 Clouds -9 1023 53 10000 1.54 270 08:59 07.03.2021
6576 Clouds -9 1023 53 10000 1.54 270 08:39 07.03.2021
6577 Clouds -9 1023 53 10000 1.54 270 08:39 07.03.2021
6578 Clouds -9 1023 53 10000 1.54 270 08:21 07.03.2021
6579 Clouds -9 1022 57 10000 0.51 330 06:25 07.03.2021
6580 Clouds -8 1021 53 10000 1.03 240 02:39 07.03.2021
6581 Clouds -7 1019 53 10000 1.54 270 00:34 07.03.2021
6582 Clouds -6 1018 49 10000 1.54 210 23:40 06.03.2021
6583 Clouds -6 1018 49 10000 1.54 210 23:20 06.03.2021
6584 Clouds -6 1018 45 10000 1.03 220 22:45 06.03.2021
6585 Clouds -6 1018 45 10000 1.03 220 22:21 06.03.2021
6586 Clouds -6 1017 45 10000 2.06 230 21:47 06.03.2021
6587 Clouds -6 1017 45 10000 2.06 230 21:20 06.03.2021
6588 Clouds -6 1017 45 10000 1.54 270 20:43 06.03.2021
6589 Clouds -6 1017 45 6519 1.54 270 20:18 06.03.2021
6590 Clouds -6 1016 49 6519 2.06 260 19:38 06.03.2021
6591 Clouds -7 1016 49 4667 2.06 260 19:18 06.03.2021
6592 Clouds -7 1016 53 5249 2.06 240 18:41 06.03.2021
6593 Clouds -8 1016 53 3862 2.06 240 18:21 06.03.2021
6594 Clouds -8 1016 53 3862 2.57 250 17:54 06.03.2021
6595 Clouds -8 1016 53 3862 2.57 250 17:32 06.03.2021
6596 Clouds -8 1016 53 4051 2.06 240 16:58 06.03.2021
6597 Clouds -8 1016 53 4051 2.06 240 16:37 06.03.2021
6598 Clear -8 1016 53 10000 2.06 240 16:18 06.03.2021
6599 Clear -9 1016 57 10000 1.54 240 15:39 06.03.2021
6600 Clear -9 1016 57 10000 1.54 240 15:21 06.03.2021
6601 Clear -10 1016 62 10000 1.03 250 14:33 06.03.2021
6602 Clear -10 1016 62 10000 1.54 250 13:56 06.03.2021
6603 Clear -10 1016 62 10000 1.54 250 13:37 06.03.2021
6604 Clouds -10 1016 62 10000 1.54 250 13:19 06.03.2021
6605 Clouds -10 1015 62 10000 1.54 240 12:42 06.03.2021
6606 Clouds -10 1015 62 10000 1.54 240 12:19 06.03.2021
6607 Clouds -11 1015 67 10000 1.54 230 11:47 06.03.2021
6608 Clouds -11 1015 67 10000 1.54 230 11:21 06.03.2021
6609 Clouds -11 1014 62 10000 2.06 210 10:45 06.03.2021
6610 Clouds -11 1014 62 10000 2.06 210 10:18 06.03.2021
6611 Clouds -11 1014 62 10000 2.06 210 09:40 06.03.2021
6612 Clouds -11 1014 62 10000 2.06 210 09:19 06.03.2021
6613 Clouds -11 1014 62 10000 2.06 210 09:19 06.03.2021
6614 Clouds -11 1014 62 10000 1.54 210 08:36 06.03.2021
6615 Clouds -10 1014 57 10000 1.54 250 07:57 06.03.2021
6616 Clouds -10 1014 57 10000 1.54 250 07:23 06.03.2021
6617 Clouds -11 1013 57 10000 1.03 230 06:48 06.03.2021
6618 Clear -10 1013 52 10000 1.54 220 05:34 06.03.2021
6619 Clear -10 1013 52 10000 1.54 220 05:34 06.03.2021
6620 Clouds -10 1012 52 10000 1.54 40 02:25 06.03.2021
6621 Clouds -9 1011 48 10000 3.09 360 00:47 06.03.2021
6622 Clouds -9 1010 48 10000 2.57 20 23:53 05.03.2021
6623 Clouds -9 1010 48 10000 2.57 20 23:29 05.03.2021
6624 Clouds -8 1009 45 10000 3.6 10 22:46 05.03.2021
6625 Clouds -8 1009 45 10000 3.6 10 22:23 05.03.2021
6626 Clouds -8 1008 49 10000 3.09 360 21:54 05.03.2021
6627 Clouds -8 1008 49 10000 3.09 360 21:34 05.03.2021
6628 Snow -8 1008 49 7357 2.57 240 20:58 05.03.2021
6629 Snow -8 1008 49 7357 2.57 240 20:40 05.03.2021
6630 Snow -8 1008 49 970 2.57 240 20:21 05.03.2021
6631 Snow -9 1008 41 970 2.57 240 19:36 05.03.2021
6632 Snow -9 1008 41 421 2.57 240 19:18 05.03.2021
6633 Snow -10 1008 44 421 3.09 270 18:42 05.03.2021
6634 Snow -10 1008 44 421 3.09 270 18:42 05.03.2021
6635 Clouds -10 1008 44 842 3.09 270 18:23 05.03.2021
6636 Clouds -10 1008 40 842 2.57 210 17:37 05.03.2021
6637 Clouds -11 1008 40 1962 2.57 210 17:19 05.03.2021
6638 Clouds -11 1009 40 1962 2.57 230 16:41 05.03.2021
6639 Clouds -11 1009 40 4017 2.57 230 16:22 05.03.2021
6640 Clouds -12 1009 44 4017 2.57 210 15:52 05.03.2021
6641 Clouds -12 1009 44 10000 2.57 210 15:23 05.03.2021